# Wetter Temperatur Luftdruck Luftfeuchtigkeit Sichtweite Windgeschwindigkeit Windrichtung Zeit
1 Clouds 24 1012 57 16093 4.1 70 21:54 28.01.2020
2 Clouds 24 1012 57 16093 4.1 70 21:36 28.01.2020
3 Clouds 25 1012 57 16093 4.1 70 21:18 28.01.2020
4 Clouds 25 1012 57 16093 4.1 70 21:18 28.01.2020
5 Clouds 25 1012 50 16093 1.5 0 20:45 28.01.2020
6 Clouds 25 1012 50 16093 1.5 0 20:25 28.01.2020
7 Clouds 25 1012 65 16093 3.1 80 19:55 28.01.2020
8 Clouds 25 1012 65 16093 3.1 80 19:36 28.01.2020
9 Clouds 25 1013 54 16093 3.1 320 19:18 28.01.2020
10 Clouds 25 1013 54 16093 3.1 320 19:18 28.01.2020
11 Clouds 25 1014 57 16093 2.6 330 18:41 28.01.2020
12 Clouds 25 1014 57 16093 2.6 330 18:23 28.01.2020
13 Clouds 24 1013 69 16093 2.6 310 17:59 28.01.2020
14 Clouds 24 1013 69 16093 2.6 310 17:39 28.01.2020
15 Clouds 24 1014 60 16093 2.1 30 17:21 28.01.2020
16 Clouds 23 1014 73 16093 2.6 30 16:57 28.01.2020
17 Clouds 22 1014 73 16093 2.6 30 16:39 28.01.2020
18 Clouds 21 1014 73 16093 2.6 30 16:21 28.01.2020
19 Clouds 20 1014 88 16093 4.1 340 15:45 28.01.2020
20 Mist 19 1014 100 1609 2.1 10 15:19 28.01.2020
21 Clouds 19 1014 77 11265 2.6 360 14:57 28.01.2020
22 Fog 18 1014 93 402 2.1 10 14:39 28.01.2020
23 Fog 18 1014 93 402 2.1 10 14:18 28.01.2020
24 Clouds 17 1013 100 16093 2.1 360 13:41 28.01.2020
25 Clouds 17 1013 93 16093 2.1 360 13:23 28.01.2020
26 Clouds 16 1012 82 16093 2.5 329 12:43 28.01.2020
27 Fog 16 1012 100 402 2.5 329 12:24 28.01.2020
28 Fog 17 1012 100 402 2.5 329 11:56 28.01.2020
29 Fog 17 1012 100 402 2.5 329 11:38 28.01.2020
30 Clouds 17 1012 88 16093 1.98 266 11:19 28.01.2020
31 Clouds 17 1012 93 11265 1.98 266 10:41 28.01.2020
32 Clear 17 1012 82 16093 1.98 266 10:23 28.01.2020
33 Clouds 17 1012 93 16093 1.98 266 09:58 28.01.2020
34 Clouds 17 1012 93 16093 1.98 266 09:38 28.01.2020
35 Clear 17 1012 88 16093 1.5 270 09:19 28.01.2020
36 Clouds 17 1013 72 16093 1.98 266 08:43 28.01.2020
37 Clouds 17 1013 72 16093 3.03 310 08:21 28.01.2020
38 Clouds 17 1013 72 16093 3.03 310 07:39 28.01.2020
39 Clouds 18 1013 68 16093 1.5 280 06:58 28.01.2020
40 Clouds 18 1013 68 16093 1.5 280 06:40 28.01.2020
41 Clear 18 1013 72 16093 3.03 310 06:22 28.01.2020
42 Clear 18 1014 68 16093 3.03 310 05:34 28.01.2020
43 Clouds 18 1014 68 16093 4.39 251 04:40 28.01.2020
44 Clouds 19 1014 60 16093 4.39 251 03:41 28.01.2020
45 Clouds 19 1014 68 16093 4.39 251 02:40 28.01.2020
46 Clouds 20 1014 68 16093 5.83 257 02:21 28.01.2020
47 Clouds 20 1013 82 16093 5.83 257 01:48 28.01.2020
48 Clear 21 1013 49 16093 2.6 260 00:51 28.01.2020
49 Clear 21 1013 49 16093 2.6 260 00:30 28.01.2020
50 Clear 21 1013 49 16093 2.1 250 23:59 27.01.2020
51 Clear 22 1013 49 16093 2.1 250 23:41 27.01.2020
52 Clear 22 1013 49 16093 2.1 250 23:18 27.01.2020
53 Clouds 23 1012 41 16093 3.6 250 22:44 27.01.2020
54 Clouds 23 1012 41 16093 3.6 250 22:20 27.01.2020
55 Clouds 23 1013 47 16093 3.6 230 21:57 27.01.2020
56 Clouds 24 1013 47 16093 3.6 230 21:38 27.01.2020
57 Clouds 23 1013 47 16093 3.6 230 21:18 27.01.2020
58 Drizzle 24 1012 50 16093 4.1 210 20:56 27.01.2020
59 Drizzle 24 1012 50 16093 4.1 210 20:37 27.01.2020
60 Clouds 24 1013 47 16093 3.1 220 20:18 27.01.2020
61 Clouds 24 1014 53 16093 4.1 220 19:42 27.01.2020
62 Clouds 23 1014 53 16093 4.1 220 19:23 27.01.2020
63 Clear 23 1014 60 16093 4.1 220 18:58 27.01.2020
64 Clouds 23 1015 57 16093 3.6 230 18:39 27.01.2020
65 Clouds 23 1015 57 16093 3.6 230 18:20 27.01.2020
66 Clouds 23 1015 57 16093 3.6 230 18:20 27.01.2020
67 Clouds 23 1015 57 16093 3.6 230 18:20 27.01.2020
68 Rain 23 1014 60 16093 4.6 140 17:57 27.01.2020
69 Rain 23 1014 60 16093 4.6 140 17:37 27.01.2020
70 Rain 23 1014 60 16093 4.6 140 17:37 27.01.2020
71 Rain 22 1014 68 16093 5.1 150 17:18 27.01.2020
72 Clouds 20 1015 64 16093 6.91 156 16:42 27.01.2020
73 Clouds 20 1015 64 16093 6.91 156 16:24 27.01.2020
74 Clouds 19 1016 59 16093 1.5 40 15:56 27.01.2020
75 Clouds 19 1016 59 16093 1.5 40 15:56 27.01.2020
76 Clouds 18 1016 59 16093 1.5 40 15:38 27.01.2020
77 Clouds 18 1016 59 16093 1.5 40 15:19 27.01.2020
78 Clouds 17 1016 77 16093 1.5 350 14:55 27.01.2020
79 Clouds 17 1016 77 16093 1.5 350 14:37 27.01.2020
80 Clouds 17 1016 77 16093 1.5 350 14:18 27.01.2020
81 Clouds 16 1016 63 16093 1.5 360 13:42 27.01.2020
82 Clouds 16 1016 63 16093 2.6 340 13:21 27.01.2020
83 Clouds 16 1015 72 16093 2.1 130 12:56 27.01.2020
84 Clouds 16 1015 72 16093 2.1 130 12:38 27.01.2020
85 Clouds 16 1015 72 16093 2.1 130 12:19 27.01.2020
86 Clouds 16 1015 72 16093 2.1 130 12:19 27.01.2020
87 Clouds 16 1015 63 16093 1.5 360 11:42 27.01.2020
88 Clouds 16 1015 63 16093 1.5 360 11:42 27.01.2020
89 Clouds 15 1015 63 16093 1.5 360 11:21 27.01.2020
90 Clouds 15 1015 63 16093 1.5 360 11:21 27.01.2020
91 Clouds 15 1015 63 16093 1.5 360 11:21 27.01.2020
92 Clouds 15 1015 63 16093 2.1 350 10:55 27.01.2020
93 Clouds 15 1015 63 16093 2.1 350 10:36 27.01.2020
94 Clouds 15 1015 63 16093 2.1 350 10:18 27.01.2020
95 Clouds 15 1015 59 16093 2.1 340 09:39 27.01.2020
96 Clouds 15 1015 59 16093 2.1 340 09:18 27.01.2020
97 Clouds 15 1014 72 16093 1.5 350 08:47 27.01.2020
98 Clouds 15 1016 55 16093 1.5 340 08:23 27.01.2020
99 Clear 14 1016 71 16093 2.1 360 07:55 27.01.2020
100 Clear 14 1016 71 16093 2.1 360 07:36 27.01.2020
101 Clear 14 1017 67 16093 1.5 350 06:55 27.01.2020
102 Clear 14 1017 67 16093 1.5 350 06:27 27.01.2020
103 Clear 14 1017 67 16093 2.6 350 05:37 27.01.2020
104 Clear 14 1017 67 16093 2.6 350 05:37 27.01.2020
105 Clouds 15 1017 52 16093 3.91 44 04:20 27.01.2020
106 Clear 15 1017 48 16093 3.91 44 03:27 27.01.2020
107 Clear 17 1016 34 16093 2.1 50 01:32 27.01.2020
108 Clear 18 1016 30 16093 2.1 60 00:59 27.01.2020
109 Smoke 19 1016 24 16093 4.35 46 00:38 27.01.2020
110 Clear 20 1016 30 16093 2.1 60 00:19 27.01.2020
111 Smoke 21 1016 25 16093 1.5 30 23:42 26.01.2020
112 Smoke 22 1016 25 16093 1.5 30 23:20 26.01.2020
113 Clouds 22 1016 25 16093 3.6 30 22:57 26.01.2020
114 Clouds 23 1016 25 16093 3.6 30 22:37 26.01.2020
115 Clouds 23 1016 25 16093 3.6 30 22:18 26.01.2020
116 Clouds 23 1017 22 16093 2.6 0 21:57 26.01.2020
117 Clouds 23 1017 22 16093 2.6 0 21:38 26.01.2020
118 Clouds 23 1017 22 16093 2.6 0 21:19 26.01.2020
119 Clouds 23 1017 22 16093 2.6 0 21:19 26.01.2020
120 Clouds 23 1017 25 16093 3.6 320 20:56 26.01.2020
121 Clouds 23 1017 25 16093 3.6 320 20:38 26.01.2020
122 Clouds 23 1017 25 16093 3.6 320 20:18 26.01.2020
123 Clouds 23 1018 35 16093 3.6 300 19:56 26.01.2020
124 Clouds 23 1018 35 16093 3.6 300 19:37 26.01.2020
125 Clouds 23 1018 35 16093 3.6 300 19:18 26.01.2020
126 Clouds 21 1019 40 16093 3.6 310 18:41 26.01.2020
127 Clouds 21 1019 40 16093 3.6 310 18:22 26.01.2020
128 Clouds 20 1020 45 16093 2.1 0 17:59 26.01.2020
129 Clouds 20 1020 45 16093 2.1 0 17:59 26.01.2020
130 Clouds 20 1020 45 16093 2.1 0 17:39 26.01.2020
131 Clouds 19 1020 45 16093 2.1 0 17:20 26.01.2020
132 Clear 18 1020 51 16093 2.1 0 16:58 26.01.2020
133 Clear 18 1020 51 16093 2.1 0 16:40 26.01.2020
134 Clear 17 1020 51 16093 2.1 0 16:21 26.01.2020
135 Clear 16 1020 58 16093 3.1 310 15:58 26.01.2020
136 Clear 16 1020 58 16093 3.1 310 15:40 26.01.2020
137 Clear 15 1020 71 16093 5.1 340 15:19 26.01.2020
138 Clear 13 1020 66 16093 3.6 340 14:41 26.01.2020
139 Clear 12 1020 66 16093 3.6 340 14:22 26.01.2020
140 Clear 12 1019 81 16093 4.1 330 13:57 26.01.2020
141 Clear 11 1019 81 16093 4.1 320 13:37 26.01.2020
142 Clear 11 1019 81 16093 4.1 320 13:18 26.01.2020
143 Clear 11 1018 71 16093 3.6 330 12:42 26.01.2020
144 Clear 11 1018 71 16093 3.6 330 12:24 26.01.2020
145 Clear 11 1018 71 16093 3.6 330 12:24 26.01.2020
146 Clear 12 1018 71 16093 3.6 330 11:58 26.01.2020
147 Clear 12 1018 81 16093 3.1 330 11:39 26.01.2020
148 Clear 12 1018 81 16093 3.1 330 11:39 26.01.2020
149 Clear 12 1018 81 16093 3.1 330 11:19 26.01.2020
150 Clear 12 1018 81 16093 3.1 330 10:59 26.01.2020
151 Clear 13 1018 67 16093 3.1 340 10:38 26.01.2020
152 Clear 13 1018 67 16093 3.1 340 10:20 26.01.2020
153 Clear 13 1019 71 16093 3.1 320 09:58 26.01.2020
154 Clear 13 1019 71 16093 3.1 320 09:40 26.01.2020
155 Clear 13 1019 71 16093 3.1 320 09:21 26.01.2020
156 Clear 14 1019 63 16093 2.1 300 08:44 26.01.2020
157 Clear 14 1019 63 16093 2.1 300 08:23 26.01.2020
158 Clear 14 1019 82 16093 1.5 290 07:58 26.01.2020
159 Clear 14 1019 63 16093 2.1 300 07:40 26.01.2020
160 Clear 14 1019 63 16093 2.1 300 07:21 26.01.2020
161 Clear 15 1019 72 16093 1.5 300 06:31 26.01.2020
162 Clear 16 1019 63 16093 4 331 05:32 26.01.2020
163 Clear 16 1019 59 16093 1.5 320 04:45 26.01.2020
164 Clear 19 1019 49 16093 2.6 360 02:58 26.01.2020
165 Clouds 20 1018 43 16093 1.5 360 01:50 26.01.2020
166 Clouds 20 1018 43 16093 1.5 360 01:25 26.01.2020
167 Clouds 21 1017 49 16093 5.1 360 00:58 26.01.2020
168 Clouds 22 1017 49 16093 5.1 360 00:37 26.01.2020
169 Clouds 22 1017 49 16093 5.1 360 00:19 26.01.2020
170 Clouds 23 1017 53 16093 4.1 360 23:37 25.01.2020
171 Clouds 23 1017 53 16093 4.1 360 23:18 25.01.2020
172 Clouds 24 1016 64 16093 2.1 0 22:40 25.01.2020
173 Clouds 24 1016 64 16093 2.1 0 22:19 25.01.2020
174 Clouds 25 1017 61 16093 4.1 350 21:57 25.01.2020
175 Clouds 25 1017 61 16093 4.1 350 21:39 25.01.2020
176 Clouds 23 1017 69 0 4.85 24 21:20 25.01.2020
177 Clouds 24 1017 64 16093 3.6 300 20:44 25.01.2020
178 Clouds 24 1017 64 16093 3.6 300 20:25 25.01.2020
179 Clear 24 1017 65 0 0.45 311 19:56 25.01.2020
180 Clear 24 1017 68 0 1.79 323 19:37 25.01.2020
181 Clear 24 1018 67 0 1.34 295 19:18 25.01.2020
182 Clear 24 1018 70 0 0.89 98 18:43 25.01.2020
183 Clouds 24 1019 78 16093 4.6 300 18:23 25.01.2020
184 Clouds 24 1019 78 16093 4.6 300 17:59 25.01.2020
185 Clouds 24 1019 78 16093 4.6 300 17:39 25.01.2020
186 Clear 23 1020 69 16093 6.2 310 17:19 25.01.2020
187 Clear 23 1020 68 0 0.45 226 16:56 25.01.2020
188 Clear 23 1020 69 16093 6.2 310 16:36 25.01.2020
189 Clear 22 1020 69 16093 6.2 310 16:18 25.01.2020
190 Clear 22 1018 83 16093 3.1 330 15:42 25.01.2020
191 Clouds 21 1019 83 16093 3.1 310 15:23 25.01.2020
192 Clouds 20 1018 93 16093 1.5 300 14:44 25.01.2020
193 Clouds 19 1018 93 16093 1.5 300 14:19 25.01.2020
194 Clear 18 1018 100 16093 1.5 290 13:56 25.01.2020
195 Clouds 17 1017 93 16093 2.47 263 13:38 25.01.2020
196 Clouds 17 1017 93 16093 2.47 263 13:18 25.01.2020
197 Mist 18 1017 93 1609 2.09 266 12:42 25.01.2020
198 Mist 18 1017 93 1609 2.09 266 12:21 25.01.2020
199 Mist 18 1017 93 1609 2.09 266 11:43 25.01.2020
200 Clouds 18 1017 88 16093 2.85 280 11:21 25.01.2020
201 Clouds 18 1017 88 16093 2.85 280 11:21 25.01.2020
202 Mist 18 1017 93 8047 2.85 280 10:56 25.01.2020
203 Mist 18 1017 93 8047 2.85 280 10:38 25.01.2020
204 Mist 18 1017 93 3219 2.85 280 10:19 25.01.2020
205 Clouds 18 1017 77 16093 2.85 280 09:40 25.01.2020
206 Clouds 19 1017 77 16093 2.85 280 09:20 25.01.2020
207 Clouds 19 1017 77 16093 2.85 280 08:43 25.01.2020
208 Clouds 19 1017 77 16093 2.08 188 08:21 25.01.2020
209 Clouds 19 1018 77 16093 2.08 188 07:42 25.01.2020
210 Clouds 19 1018 73 16093 2.08 188 06:45 25.01.2020
211 Clouds 20 1018 73 16093 2.08 188 06:24 25.01.2020
212 Clouds 20 1018 64 16093 2.08 188 05:44 25.01.2020
213 Clouds 20 1018 64 16093 3.1 135 04:26 25.01.2020
214 Clouds 21 1018 64 16093 1.5 170 03:50 25.01.2020
215 Clouds 21 1017 64 16093 2.1 150 02:53 25.01.2020
216 Clouds 21 1017 64 16093 2.6 140 01:59 25.01.2020
217 Clouds 21 1017 64 16093 2.6 140 01:59 25.01.2020
218 Clouds 22 1017 64 16093 2.6 140 01:37 25.01.2020
219 Clouds 22 1016 83 16093 1.5 100 00:42 25.01.2020
220 Clouds 23 1016 64 16093 2.6 0 00:23 25.01.2020
221 Rain 23 1016 69 16093 3.25 118 23:57 24.01.2020
222 Rain 23 1016 69 16093 3.25 118 23:38 24.01.2020
223 Clouds 24 1016 60 16093 4.6 130 23:20 24.01.2020
224 Clouds 24 1016 57 16093 4.6 130 22:42 24.01.2020
225 Clouds 24 1016 57 16093 4.6 130 22:24 24.01.2020
226 Clouds 25 1016 57 16093 4.6 150 21:42 24.01.2020
227 Clouds 25 1016 57 16093 4.6 150 21:20 24.01.2020
228 Clouds 26 1016 54 16093 5.7 130 20:56 24.01.2020
229 Clouds 25 1016 54 16093 5.7 130 20:37 24.01.2020
230 Clouds 25 1016 54 16093 5.7 130 20:18 24.01.2020
231 Clouds 25 1017 54 16093 4.1 120 19:55 24.01.2020
232 Clouds 25 1017 54 16093 4.1 120 19:37 24.01.2020
233 Clouds 25 1017 54 16093 4.1 120 19:19 24.01.2020
234 Clouds 25 1018 54 16093 4.1 150 18:43 24.01.2020
235 Clouds 25 1018 54 16093 4.1 150 18:23 24.01.2020
236 Clouds 25 1018 57 16093 3.6 120 17:46 24.01.2020
237 Clouds 25 1018 57 16093 3.6 120 17:23 24.01.2020
238 Clouds 24 1018 69 16093 2.1 100 16:58 24.01.2020
239 Clouds 24 1018 69 16093 2.1 100 16:39 24.01.2020
240 Clouds 23 1018 69 16093 2.1 100 16:20 24.01.2020
241 Clouds 22 1018 73 16093 4.25 114 15:43 24.01.2020
242 Clouds 22 1018 73 16093 4.25 114 15:22 24.01.2020
243 -273 0 0 0 0 0 15:22 24.01.2020
244 Clouds 19 1018 100 11265 4.25 114 14:56 24.01.2020
245 Rain 19 1018 100 11265 4.25 114 14:38 24.01.2020
246 Rain 19 1017 82 16093 5.72 109 14:19 24.01.2020
247 Rain 18 1017 88 16093 5.72 109 13:42 24.01.2020
248 Rain 18 1017 88 16093 5.16 109 13:22 24.01.2020
249 Rain 18 1017 100 2816 5.16 109 12:44 24.01.2020
250 Rain 18 1017 100 2816 5.16 109 12:44 24.01.2020
251 Rain 18 1016 93 16093 5.16 109 12:21 24.01.2020
252 Rain 18 1015 100 4828 1.5 40 11:45 24.01.2020
253 Rain 18 1015 88 16093 5.83 105 11:20 24.01.2020
254 Rain 18 1015 93 2816 5.83 105 10:59 24.01.2020
255 Rain 18 1015 93 2816 5.83 105 10:40 24.01.2020
256 Rain 18 1016 88 16093 3.1 340 10:19 24.01.2020
257 Rain 18 1016 88 16093 5.83 105 09:42 24.01.2020
258 Rain 18 1016 88 16093 5.83 105 09:42 24.01.2020
259 Rain 18 1016 88 16093 5.83 105 09:24 24.01.2020
260 Rain 18 1016 100 1207 5.83 105 08:59 24.01.2020
261 Rain 18 1016 100 1207 5.83 105 08:36 24.01.2020
262 Rain 18 1016 88 14484 5.72 108 08:18 24.01.2020
263 Rain 18 1016 93 3219 3.1 0 07:42 24.01.2020
264 Rain 18 1016 88 12874 1.5 0 07:18 24.01.2020
265 Rain 18 1017 93 16093 3.1 290 06:42 24.01.2020
266 Rain 18 1017 93 14484 2.6 280 06:18 24.01.2020
267 Rain 19 1017 93 6437 1.5 320 05:21 24.01.2020
268 Rain 19 1017 88 9656 1.5 290 03:29 24.01.2020
269 Rain 19 1017 93 12874 6.66 100 02:39 24.01.2020
270 Rain 19 1017 93 12874 6.41 84 02:19 24.01.2020
271 Rain 19 1017 93 6437 1.5 330 01:38 24.01.2020
272 Rain 19 1017 93 11265 3.1 10 00:40 24.01.2020
273 Rain 19 1016 93 3219 5.97 80 00:18 24.01.2020
274 Drizzle 19 1015 88 16093 5.1 10 23:41 23.01.2020
275 Rain 21 1016 77 4828 3.1 60 23:21 23.01.2020
276 Rain 21 1016 88 6437 2.6 30 22:58 23.01.2020
277 Rain 21 1016 93 8047 5.68 81 22:36 23.01.2020
278 Rain 21 1016 77 11265 4.1 50 22:18 23.01.2020
279 Rain 22 1015 88 9656 1.5 120 21:55 23.01.2020
280 Rain 22 1015 88 9656 1.5 120 21:37 23.01.2020
281 Rain 23 1016 73 12874 5.7 70 21:18 23.01.2020
282 Rain 23 1015 83 11265 3.1 50 20:41 23.01.2020
283 Rain 23 1016 83 1207 2.6 100 20:22 23.01.2020
284 Rain 24 1015 61 16093 5.7 80 19:57 23.01.2020
285 Rain 23 1015 61 16093 5.7 80 19:39 23.01.2020
286 Rain 23 1015 61 16093 5.7 80 19:39 23.01.2020
287 Rain 24 1016 60 16093 4.1 70 19:21 23.01.2020
288 Rain 24 1017 60 16093 3.1 110 18:57 23.01.2020
289 Rain 24 1017 60 16093 3.1 110 18:38 23.01.2020
290 Rain 24 1017 60 16093 3.1 110 18:19 23.01.2020
291 Rain 23 1018 60 14484 2.6 320 17:45 23.01.2020
292 Clouds 22 1018 60 14484 2.6 320 17:21 23.01.2020
293 Clouds 20 1018 72 11265 2.6 350 16:59 23.01.2020
294 Clouds 20 1018 72 11265 2.6 350 16:39 23.01.2020
295 Clouds 19 1018 72 11265 2.6 350 16:20 23.01.2020
296 Clouds 15 1017 100 11265 3.1 300 15:58 23.01.2020
297 Clouds 15 1017 100 11265 3.1 300 15:39 23.01.2020
298 Mist 16 1018 100 4828 3.1 340 15:19 23.01.2020
299 Mist 14 1018 93 4828 3.1 320 14:58 23.01.2020
300 Mist 14 1018 93 4828 3.1 320 14:40 23.01.2020
301 Fog 14 1017 93 402 3.1 340 14:22 23.01.2020
302 Mist 14 1017 93 1207 2.6 0 13:54 23.01.2020
303 Mist 14 1017 100 1207 2.1 300 13:36 23.01.2020
304 Fog 13 1017 93 402 3.1 340 13:18 23.01.2020
305 Mist 13 1017 100 2012 4.1 330 12:40 23.01.2020
306 Rain 14 1016 93 3219 2.1 350 12:22 23.01.2020
307 Mist 14 1016 100 4828 2.6 340 11:55 23.01.2020
308 Mist 14 1016 100 4023 2.1 310 11:37 23.01.2020
309 Rain 14 1017 93 4828 2.6 320 11:18 23.01.2020
310 Rain 14 1016 100 4023 2.6 290 10:41 23.01.2020
311 Rain 14 1016 93 4828 2.1 310 10:19 23.01.2020
312 Rain 14 1017 93 805 2.1 330 09:42 23.01.2020
313 Rain 14 1017 93 16093 4.6 350 09:23 23.01.2020
314 Rain 14 1017 93 6437 3.1 300 08:57 23.01.2020
315 Rain 14 1016 100 2213 3.6 330 08:38 23.01.2020
316 Rain 14 1017 93 14484 3.6 330 08:20 23.01.2020
317 Rain 14 1016 93 4426 3.6 320 07:42 23.01.2020
318 Rain 14 1017 87 6437 2.6 330 07:24 23.01.2020
319 Rain 14 1018 93 16093 3.6 340 06:46 23.01.2020
320 Rain 14 1018 87 9656 2.6 310 06:19 23.01.2020
321 Rain 13 1018 93 8047 5.1 330 04:44 23.01.2020
322 Rain 13 1018 87 16093 5.1 350 04:21 23.01.2020
323 Clouds 14 1017 82 16093 5.1 320 01:58 23.01.2020
324 Clouds 15 1017 76 16093 4.1 300 00:47 23.01.2020
325 Clouds 15 1017 67 16093 5.1 330 00:26 23.01.2020
326 Clouds 15 1016 67 16093 6.2 310 23:47 22.01.2020
327 Clouds 15 1016 67 16093 6.2 310 23:47 22.01.2020
328 Clouds 15 1016 67 16093 6.2 310 23:28 22.01.2020
329 Clouds 16 1016 76 16093 8.2 290 22:56 22.01.2020
330 Clouds 16 1016 87 16093 4.1 310 22:38 22.01.2020
331 Clouds 16 1016 48 16093 5.7 330 22:20 22.01.2020
332 Clouds 16 1016 51 16093 6.2 320 21:39 22.01.2020
333 Clouds 16 1016 51 16093 6.2 320 21:21 22.01.2020
334 Clouds 16 1016 44 16093 6.7 320 20:56 22.01.2020
335 Clouds 16 1016 44 16093 6.7 320 20:36 22.01.2020
336 Clouds 16 1016 44 16093 6.7 320 20:36 22.01.2020
337 Clouds 16 1016 44 16093 6.7 320 20:18 22.01.2020
338 Clouds 15 1017 47 16093 6.2 320 19:55 22.01.2020
339 Clouds 15 1017 47 16093 6.2 320 19:37 22.01.2020
340 Clouds 15 1017 47 16093 6.2 320 19:18 22.01.2020
341 Clouds 14 1018 47 16093 4.6 320 18:55 22.01.2020
342 Clouds 13 1018 47 16093 4.6 320 18:36 22.01.2020
343 Clouds 13 1018 47 16093 4.6 320 18:18 22.01.2020
344 Clouds 13 1018 47 16093 4.6 320 18:18 22.01.2020
345 Clouds 12 1019 50 16093 3.6 290 17:40 22.01.2020
346 Clouds 11 1019 50 16093 3.6 290 17:21 22.01.2020
347 Clouds 10 1020 52 16093 4.6 300 16:58 22.01.2020
348 Clouds 9 1020 52 16093 4.6 300 16:39 22.01.2020
349 Clouds 9 1020 52 16093 4.6 300 16:21 22.01.2020
350 Clouds 7 1019 56 16093 4.6 310 15:55 22.01.2020
351 Clouds 7 1019 56 16093 4.6 310 15:37 22.01.2020
352 Clouds 6 1019 56 16093 4.6 310 15:18 22.01.2020
353 Clouds 5 1020 60 16093 4.1 320 14:39 22.01.2020
354 Clouds 5 1020 60 16093 4.1 320 14:20 22.01.2020
355 Clouds 5 1020 60 16093 4.1 320 14:20 22.01.2020
356 Clear 4 1020 64 16093 5.1 310 13:58 22.01.2020
357 Clear 4 1020 64 16093 5.1 310 13:37 22.01.2020
358 Clear 4 1020 64 16093 5.1 310 13:19 22.01.2020
359 Clear 4 1019 60 16093 7.2 320 12:57 22.01.2020
360 Clear 4 1019 60 16093 7.2 320 12:39 22.01.2020
361 Clear 4 1019 60 16093 7.2 320 12:19 22.01.2020
362 Clear 5 1019 56 16093 5.7 310 11:57 22.01.2020
363 Clear 5 1019 56 16093 5.7 310 11:39 22.01.2020
364 Clear 5 1019 56 16093 5.7 310 11:19 22.01.2020
365 Clear 5 1019 60 16093 6.2 310 10:46 22.01.2020
366 Clear 5 1019 60 16093 6.2 310 10:21 22.01.2020
367 Clear 6 1020 56 16093 6.2 300 09:59 22.01.2020
368 Clear 6 1020 56 16093 6.2 300 09:40 22.01.2020
369 Clear 6 1020 56 16093 6.2 300 09:22 22.01.2020
370 Clear 6 1020 61 16093 5.1 310 08:56 22.01.2020
371 Clear 7 1020 61 16093 5.1 310 08:37 22.01.2020
372 Clear 7 1020 61 16093 5.1 310 08:19 22.01.2020
373 Clear 7 1020 52 16093 4.6 320 07:44 22.01.2020
374 Clear 7 1020 52 16093 4.6 320 07:26 22.01.2020
375 Clear 8 1020 76 16093 9.3 330 06:36 22.01.2020
376 Clear 8 1020 57 16093 6.2 330 05:57 22.01.2020
377 Clear 10 1019 50 16093 8.2 320 04:26 22.01.2020
378 Clear 11 1020 46 16093 6.7 320 03:27 22.01.2020
379 Clear 12 1019 43 16093 6.2 330 02:48 22.01.2020
380 Clear 14 1019 47 16093 7.7 330 00:47 22.01.2020
381 Clouds 14 1018 36 16093 6.7 330 00:28 22.01.2020
382 Clouds 15 1018 39 16093 6.2 320 23:57 21.01.2020
383 Clouds 16 1018 39 16093 6.2 320 23:37 21.01.2020
384 Clouds 16 1018 39 16093 6.2 320 23:19 21.01.2020
385 Clouds 17 1017 37 16093 5.1 300 22:41 21.01.2020
386 Clouds 18 1017 37 16093 5.1 300 22:23 21.01.2020
387 Clouds 18 1017 45 16093 5.7 320 21:58 21.01.2020
388 Clouds 18 1017 45 16093 5.7 320 21:39 21.01.2020
389 Clouds 18 1017 45 16093 5.7 320 21:20 21.01.2020
390 Clouds 19 1018 52 16093 7.2 310 20:57 21.01.2020
391 Clouds 19 1018 52 16093 7.2 310 20:57 21.01.2020
392 Clouds 19 1018 52 16093 7.2 310 20:39 21.01.2020
393 Clouds 19 1018 52 16093 7.2 310 20:20 21.01.2020
394 Clouds 19 1019 52 16093 6.2 320 19:57 21.01.2020
395 Clouds 19 1019 52 16093 6.2 320 19:39 21.01.2020
396 Clouds 19 1019 52 16093 6.2 320 19:20 21.01.2020
397 Clouds 19 1020 63 16093 5.1 330 18:56 21.01.2020
398 Clouds 18 1020 63 16093 5.1 330 18:38 21.01.2020
399 Clouds 18 1020 63 16093 5.1 330 18:19 21.01.2020
400 Clouds 18 1020 63 16093 4.1 330 17:45 21.01.2020
401 Clouds 17 1020 63 16093 4.1 330 17:21 21.01.2020
402 Clouds 17 1021 63 16093 4.6 320 16:59 21.01.2020
403 Clouds 17 1021 63 16093 4.6 320 16:59 21.01.2020
404 Clouds 17 1021 63 16093 4.6 320 16:37 21.01.2020
405 Clouds 16 1021 63 16093 4.6 320 16:19 21.01.2020
406 Clouds 15 1021 71 16093 3.6 330 15:56 21.01.2020
407 Clouds 15 1021 71 16093 3.6 330 15:37 21.01.2020
408 Clouds 14 1021 71 16093 3.6 330 15:18 21.01.2020
409 Clouds 13 1020 76 16093 4.6 340 14:38 21.01.2020
410 Clouds 12 1020 76 16093 4.6 340 14:20 21.01.2020
411 Clouds 12 1019 87 16093 6.7 330 13:41 21.01.2020
412 Clouds 12 1020 76 16093 3.6 330 13:19 21.01.2020
413 Clouds 12 1018 87 16093 6.2 330 12:56 21.01.2020
414 Clouds 12 1018 87 16093 6.2 330 12:38 21.01.2020
415 Clouds 12 1019 93 16093 6.7 350 12:19 21.01.2020
416 Clear 12 1019 76 16093 3.1 330 11:41 21.01.2020
417 Clear 12 1019 76 16093 3.1 330 11:22 21.01.2020
418 Clouds 12 1019 93 16093 5.7 350 10:59 21.01.2020
419 Clouds 12 1019 93 16093 5.7 350 10:41 21.01.2020
420 Clouds 12 1019 76 16093 3.1 340 10:22 21.01.2020
421 Clear 13 1019 71 16093 3.1 330 09:43 21.01.2020
422 Clear 13 1019 71 16093 3.1 330 09:23 21.01.2020
423 Clear 13 1019 76 16093 4.6 330 08:56 21.01.2020
424 Clear 13 1019 76 16093 4.6 330 08:38 21.01.2020
425 Clear 13 1019 76 16093 4.6 330 08:19 21.01.2020
426 Clear 14 1020 62 16093 4.1 340 07:41 21.01.2020
427 Clear 14 1020 62 16093 4.1 340 07:22 21.01.2020
428 Clear 14 1020 55 16093 2.1 340 06:49 21.01.2020
429 Clear 14 1020 55 16093 2.1 340 06:30 21.01.2020
430 Clouds 15 1021 55 16093 2.1 20 05:44 21.01.2020
431 Clear 16 1021 55 16093 4.1 350 04:41 21.01.2020
432 Clouds 17 1020 45 16093 3.1 340 02:58 21.01.2020
433 Clouds 18 1020 45 16093 3.1 340 02:19 21.01.2020
434 Clouds 19 1020 42 16093 4.6 330 01:26 21.01.2020
435 Clouds 20 1019 53 16093 4.1 330 00:38 21.01.2020
436 Clouds 21 1018 49 16093 3.1 320 23:59 20.01.2020
437 Clouds 21 1018 49 16093 3.1 320 23:41 20.01.2020
438 Clouds 22 1018 49 16093 3.1 320 23:19 20.01.2020
439 Clouds 23 1018 50 16093 5.1 330 22:58 20.01.2020
440 Clouds 23 1018 50 16093 5.1 330 22:38 20.01.2020
441 Clouds 23 1018 50 16093 5.1 330 22:20 20.01.2020
442 Clouds 23 1018 50 16093 5.1 330 22:20 20.01.2020
443 Clouds 23 1018 53 16093 4.1 300 21:58 20.01.2020
444 Clouds 23 1018 53 16093 4.1 300 21:37 20.01.2020
445 Clouds 24 1018 53 16093 4.1 300 21:19 20.01.2020
446 Clouds 24 1018 57 16093 5.1 320 20:57 20.01.2020
447 Clouds 24 1018 57 16093 5.1 320 20:38 20.01.2020
448 Clouds 24 1018 57 16093 5.1 320 20:18 20.01.2020
449 Clouds 24 1018 64 16093 3.6 330 19:56 20.01.2020
450 Clouds 24 1018 64 16093 3.6 330 19:38 20.01.2020
451 Clouds 23 1019 60 16093 5.1 340 19:18 20.01.2020
452 Clouds 23 1019 60 16093 4.1 320 18:44 20.01.2020
453 Clouds 23 1019 64 16093 5.1 300 18:23 20.01.2020
454 Clouds 23 1020 68 16093 3.6 330 17:58 20.01.2020
455 Clouds 23 1020 68 16093 3.6 330 17:36 20.01.2020
456 Clouds 23 1020 69 16093 2.1 0 17:18 20.01.2020
457 Clouds 22 1019 78 16093 5.7 330 16:43 20.01.2020
458 Clouds 22 1020 83 16093 3.6 340 16:25 20.01.2020
459 Clouds 22 1020 73 16093 4.1 340 15:58 20.01.2020
460 Clouds 22 1020 73 16093 4.1 340 15:39 20.01.2020
461 Clouds 22 1019 78 16093 4.1 340 15:21 20.01.2020
462 Clouds 21 1019 88 16093 2.1 360 14:42 20.01.2020
463 Clouds 21 1019 78 16093 2.6 0 14:24 20.01.2020
464 Clouds 21 1018 100 16093 2.1 320 13:59 20.01.2020
465 Clouds 21 1018 100 16093 2.1 320 13:40 20.01.2020
466 Clouds 20 1018 88 16093 2.6 340 13:22 20.01.2020
467 Clouds 20 1018 88 16093 3.6 320 12:47 20.01.2020
468 Clouds 21 1018 83 16093 2.1 300 12:28 20.01.2020
469 Clouds 21 1017 83 16093 2.1 290 11:59 20.01.2020
470 Clouds 21 1017 83 16093 2.1 290 11:40 20.01.2020
471 Clouds 21 1017 83 16093 2.1 280 11:21 20.01.2020
472 Mist 21 1017 83 6437 3.1 290 10:55 20.01.2020
473 Clouds 21 1017 88 16093 2.6 250 10:37 20.01.2020
474 Clouds 21 1017 88 16093 2.6 250 10:37 20.01.2020
475 Clouds 21 1017 83 16093 1.5 280 10:18 20.01.2020
476 Clouds 20 1018 88 16093 4 262 09:40 20.01.2020
477 Clouds 21 1018 88 16093 4 262 09:20 20.01.2020
478 Mist 20 1018 93 2414 4 262 08:46 20.01.2020
479 Clouds 20 1018 83 16093 4.56 262 08:28 20.01.2020
480 Clouds 20 1019 83 16093 4.56 235 07:45 20.01.2020
481 Clouds 20 1019 83 16093 4.56 235 07:26 20.01.2020
482 Clouds 21 1019 83 16093 2.6 280 06:54 20.01.2020
483 Clouds 21 1019 83 16093 2.6 280 06:28 20.01.2020
484 Clouds 21 1019 73 16093 2.1 240 05:43 20.01.2020
485 Clouds 21 1019 73 16093 2.1 240 05:43 20.01.2020
486 Clouds 21 1019 73 16093 2.1 240 05:43 20.01.2020
487 Clouds 21 1019 73 16093 2.1 240 05:22 20.01.2020
488 Clouds 22 1019 78 16093 1.5 230 04:48 20.01.2020
489 Clouds 23 1019 69 16093 2.6 200 02:58 20.01.2020
490 Clouds 23 1018 69 16093 2.1 170 01:57 20.01.2020
491 Clouds 23 1018 69 16093 2.1 170 01:37 20.01.2020
492 Clouds 24 1018 69 16093 4.6 160 00:45 20.01.2020
493 Clouds 24 1018 69 16093 4.6 160 00:25 20.01.2020
494 Clouds 25 1018 61 16093 5.1 160 23:40 19.01.2020
495 Clouds 26 1018 61 16093 5.1 160 23:20 19.01.2020
496 Clouds 26 1018 57 16093 5.7 130 22:57 19.01.2020
497 Clouds 27 1018 57 16093 5.7 130 22:39 19.01.2020
498 Clouds 27 1018 57 16093 5.7 130 22:21 19.01.2020
499 Clouds 27 1018 54 16093 3.1 0 21:57 19.01.2020
500 Clouds 27 1018 54 16093 3.1 0 21:39 19.01.2020
501 Clouds 27 1018 54 16093 3.1 0 21:21 19.01.2020
502 Clouds 27 1019 54 16093 2.1 0 20:57 19.01.2020
503 Clouds 27 1019 54 16093 2.1 0 20:39 19.01.2020
504 Clouds 27 1019 54 16093 2.1 0 20:21 19.01.2020
505 Clouds 27 1020 54 16093 4.1 190 19:58 19.01.2020
506 Clouds 27 1020 54 16093 4.1 190 19:39 19.01.2020
507 Clouds 27 1020 54 16093 4.1 190 19:21 19.01.2020
508 Clouds 27 1021 57 16093 4.6 140 18:59 19.01.2020
509 Clouds 27 1021 57 16093 4.6 140 18:41 19.01.2020
510 Clouds 27 1021 57 16093 4.6 140 18:41 19.01.2020
511 Clouds 27 1021 57 16093 4.6 140 18:21 19.01.2020
512 Clouds 26 1021 54 16093 3.6 160 17:59 19.01.2020
513 Clouds 26 1021 54 16093 3.6 160 17:40 19.01.2020
514 Clouds 26 1021 54 16093 3.6 160 17:22 19.01.2020
515 Clouds 26 1022 54 16093 5.1 160 17:00 19.01.2020
516 Clouds 25 1022 54 16093 5.1 160 16:40 19.01.2020
517 Clouds 26 1022 54 16093 5.1 160 16:40 19.01.2020
518 Clouds 25 1022 54 16093 5.1 160 16:22 19.01.2020
519 Clouds 25 1022 69 16093 1.5 160 16:00 19.01.2020
520 Clouds 24 1022 69 16093 1.5 160 15:40 19.01.2020
521 Clouds 24 1022 69 16093 1.5 160 15:22 19.01.2020
522 Clouds 23 1021 68 16093 2.6 110 14:59 19.01.2020
523 Clouds 23 1021 68 16093 2.6 110 14:59 19.01.2020
524 Clouds 22 1021 68 16093 2.6 110 14:40 19.01.2020
525 Clouds 20 1021 68 16093 2.6 110 14:19 19.01.2020
526 Clouds 19 1021 73 16093 2.1 120 13:58 19.01.2020
527 Clouds 19 1021 73 16093 2.1 120 13:38 19.01.2020
528 Clouds 19 1021 73 16093 2.1 120 13:38 19.01.2020
529 Clouds 19 1021 73 16093 2.1 120 13:20 19.01.2020
530 Clouds 19 1021 64 16093 3.1 110 12:56 19.01.2020
531 Clouds 19 1021 64 16093 3.1 110 12:37 19.01.2020
532 Clouds 19 1021 64 16093 3.1 110 12:19 19.01.2020
533 Clouds 19 1020 72 16093 2.6 110 11:56 19.01.2020
534 Clouds 20 1020 72 16093 2.6 110 11:37 19.01.2020
535 Clouds 19 1020 72 16093 2.6 110 11:18 19.01.2020
536 Clouds 20 1021 68 16093 1.5 120 10:39 19.01.2020
537 Clouds 20 1021 68 16093 1.5 120 10:19 19.01.2020
538 Clouds 20 1022 60 16093 3.1 100 09:57 19.01.2020
539 Clouds 20 1022 60 16093 3.1 100 09:38 19.01.2020
540 Clouds 20 1022 60 16093 3.1 100 09:19 19.01.2020
541 Clouds 20 1022 60 16093 3.6 110 08:54 19.01.2020
542 Clouds 21 1022 60 16093 3.6 110 08:31 19.01.2020
543 Clouds 21 1022 64 16093 3.1 100 07:54 19.01.2020
544 Clouds 21 1022 64 16093 3.1 100 07:28 19.01.2020
545 Clouds 21 1023 60 16093 3.6 110 06:55 19.01.2020
546 Clouds 22 1023 60 16093 3.6 110 06:22 19.01.2020
547 Clouds 22 1024 64 16093 5.1 100 03:55 19.01.2020
548 Clouds 22 1024 64 16093 5.7 110 02:33 19.01.2020
549 Clouds 22 1023 60 16093 5.7 100 01:39 19.01.2020
550 Clouds 22 1023 60 16093 5.7 100 01:20 19.01.2020
551 Clouds 22 1024 56 16093 7.7 100 00:44 19.01.2020
552 Clouds 22 1024 60 16093 4.6 100 00:20 19.01.2020
553 Clouds 23 1024 53 16093 5.7 110 23:47 18.01.2020
554 Clouds 23 1024 53 16093 5.7 110 23:25 18.01.2020
555 Clouds 24 1024 60 16093 7.2 120 22:59 18.01.2020
556 Clouds 24 1024 60 16093 7.2 120 22:41 18.01.2020
557 Clouds 24 1024 47 16093 8.7 90 22:21 18.01.2020
558 Clouds 24 1024 60 16093 7.7 90 21:58 18.01.2020
559 Clouds 24 1024 60 16093 7.7 90 21:38 18.01.2020
560 Clouds 24 1024 60 16093 7.7 90 21:20 18.01.2020
561 Clouds 25 1024 50 16093 8.7 90 20:55 18.01.2020
562 Clouds 25 1024 50 16093 8.7 90 20:36 18.01.2020
563 Clouds 25 1024 50 16093 8.7 90 20:18 18.01.2020
564 Clouds 25 1025 47 16093 7.7 90 19:42 18.01.2020
565 Clouds 25 1025 47 16093 7.7 90 19:24 18.01.2020
566 Clouds 25 1026 44 16093 8.7 110 18:43 18.01.2020
567 Clouds 25 1026 44 16093 8.7 110 18:24 18.01.2020
568 Clouds 25 1027 53 16093 9.3 110 17:59 18.01.2020
569 Clouds 25 1027 53 16093 9.3 110 17:40 18.01.2020
570 Clouds 24 1027 53 16093 9.3 110 17:20 18.01.2020
571 Clouds 24 1027 50 16093 8.7 100 16:57 18.01.2020
572 Clouds 24 1027 50 16093 8.7 100 16:38 18.01.2020
573 Clouds 24 1027 50 16093 8.7 100 16:19 18.01.2020
574 Clouds 23 1026 57 16093 8.7 100 15:44 18.01.2020
575 Clouds 23 1026 57 16093 8.7 100 15:26 18.01.2020
576 Clouds 23 1026 53 16093 9.3 90 14:59 18.01.2020
577 Clouds 22 1026 53 16093 9.3 90 14:40 18.01.2020
578 Clouds 22 1026 53 16093 9.3 90 14:19 18.01.2020
579 Clouds 22 1025 53 16093 6.2 90 13:56 18.01.2020
580 Clouds 22 1025 53 16093 6.2 90 13:36 18.01.2020
581 Clouds 22 1025 53 16093 6.2 90 13:18 18.01.2020
582 Clouds 22 1025 53 16093 8.7 90 12:41 18.01.2020
583 Clouds 22 1025 53 16093 8.7 90 12:21 18.01.2020
584 Clouds 22 1025 60 16093 10.3 90 11:56 18.01.2020
585 Clouds 22 1025 60 16093 10.3 90 11:37 18.01.2020
586 Clouds 22 1025 60 16093 10.3 90 11:18 18.01.2020
587 Clouds 22 1025 56 16093 9.8 90 10:41 18.01.2020
588 Clouds 22 1025 56 16093 9.8 90 10:20 18.01.2020
589 Clouds 22 1025 56 16093 9.8 90 10:20 18.01.2020
590 Clouds 22 1025 53 16093 8.7 90 09:50 18.01.2020
591 Clouds 22 1025 53 16093 8.7 90 09:32 18.01.2020
592 Clouds 22 1025 49 16093 8.2 80 08:58 18.01.2020
593 Clouds 22 1025 49 16093 8.2 80 08:39 18.01.2020
594 Clouds 22 1025 49 16093 8.2 80 08:19 18.01.2020
595 Clouds 22 1026 56 16093 7.2 70 07:52 18.01.2020
596 Clouds 22 1026 56 16093 7.2 70 07:32 18.01.2020
597 Clouds 22 1026 53 16093 6.7 80 06:48 18.01.2020
598 Clouds 22 1026 53 16093 6.7 80 06:18 18.01.2020
599 Clouds 23 1027 56 16093 8.2 70 05:25 18.01.2020
600 Clouds 23 1026 64 16093 8.2 70 03:39 18.01.2020
601 Clouds 23 1024 73 16093 8.7 50 01:59 18.01.2020
602 Clouds 23 1024 73 16093 8.7 50 01:35 18.01.2020
603 Clouds 23 1025 64 16093 9.3 50 00:38 18.01.2020
604 Clouds 24 1025 64 16093 9.3 50 00:19 18.01.2020
605 Clouds 24 1024 73 16093 7.2 80 23:44 17.01.2020
606 Rain 24 1024 61 16093 5.7 50 23:20 17.01.2020
607 Rain 24 1024 61 16093 8.7 40 22:59 17.01.2020
608 Rain 24 1023 88 16093 6.2 50 22:40 17.01.2020
609 Rain 24 1024 65 16093 8.2 60 22:18 17.01.2020
610 Clouds 24 1023 78 16093 8.7 70 21:42 17.01.2020
611 Clouds 25 1023 61 16093 9.8 60 21:24 17.01.2020
612 Rain 25 1024 73 16093 9.3 60 20:59 17.01.2020
613 Rain 25 1024 73 16093 9.3 60 20:40 17.01.2020
614 Rain 25 1024 73 16093 9.3 60 20:20 17.01.2020
615 Rain 26 1024 69 16093 9.3 70 19:57 17.01.2020
616 Rain 26 1024 65 16093 6.7 70 19:38 17.01.2020
617 Rain 26 1024 65 16093 6.7 70 19:19 17.01.2020
618 Rain 26 1025 73 16093 6.2 70 18:57 17.01.2020
619 Rain 25 1025 94 12874 2.6 90 18:36 17.01.2020
620 Rain 25 1025 94 12874 5.1 70 18:18 17.01.2020
621 Rain 24 1025 94 3219 4.1 60 17:39 17.01.2020
622 Rain 24 1025 78 16093 7.2 60 17:21 17.01.2020
623 Rain 24 1025 78 16093 3.6 80 16:44 17.01.2020
624 Rain 23 1025 78 16093 4.6 90 16:21 17.01.2020
625 Rain 23 1025 83 16093 2.6 40 15:58 17.01.2020
626 Rain 23 1025 83 16093 2.6 40 15:40 17.01.2020
627 Rain 23 1025 83 16093 2.6 40 15:40 17.01.2020
628 Rain 23 1025 83 16093 3.6 80 15:21 17.01.2020
629 Rain 23 1024 78 14484 10.86 58 14:43 17.01.2020
630 Rain 22 1025 94 16093 1.5 30 14:24 17.01.2020
631 Rain 21 1024 94 14484 1.5 340 13:45 17.01.2020
632 Rain 21 1024 78 16093 6.94 52 13:23 17.01.2020
633 Rain 21 1024 83 16093 2.1 340 12:48 17.01.2020
634 Rain 21 1023 88 16093 2.1 350 12:23 17.01.2020
635 Rain 20 1023 88 16093 6.94 52 11:56 17.01.2020
636 Rain 20 1023 88 16093 6.94 52 11:37 17.01.2020
637 Clouds 20 1023 83 16093 6.28 50 11:18 17.01.2020
638 Haze 20 1023 83 9656 1.5 330 10:41 17.01.2020
639 Clouds 20 1023 77 16093 6.28 50 10:22 17.01.2020
640 Clouds 20 1023 77 16093 6.28 50 09:56 17.01.2020
641 Clouds 20 1023 77 16093 6.28 50 09:37 17.01.2020
642 Clouds 20 1023 77 16093 6.28 50 09:18 17.01.2020
643 Clouds 20 1023 73 16093 6.28 50 08:42 17.01.2020
644 Clouds 20 1023 73 16093 6.28 50 08:23 17.01.2020
645 Clouds 21 1024 69 16093 1.5 40 07:51 17.01.2020
646 Clouds 21 1024 69 16093 1.5 40 07:31 17.01.2020
647 Clouds 21 1024 69 16093 1.5 50 06:57 17.01.2020
648 Clouds 21 1024 69 16093 1.5 50 06:37 17.01.2020
649 Clouds 21 1024 69 16093 2.1 60 05:27 17.01.2020
650 Clear 22 1024 64 16093 2.1 60 03:39 17.01.2020
651 Clear 22 1024 82 16093 2.6 90 02:44 17.01.2020
652 Clear 23 1024 64 16093 2.6 70 01:46 17.01.2020
653 Clear 23 1024 64 16093 2.6 70 01:27 17.01.2020
654 Clouds 23 1023 69 16093 3.1 60 00:44 17.01.2020
655 Clouds 24 1023 69 16093 3.1 60 00:20 17.01.2020
656 Clouds 25 1023 54 16093 5.1 80 23:42 16.01.2020
657 Clouds 25 1023 54 16093 5.1 80 23:24 16.01.2020
658 Clouds 26 1023 51 16093 5.1 90 22:43 16.01.2020
659 Clouds 26 1023 51 16093 5.1 90 22:22 16.01.2020
660 Clouds 27 1023 51 16093 5.7 80 21:57 16.01.2020
661 Clouds 27 1023 51 16093 5.7 80 21:39 16.01.2020
662 Clouds 27 1023 51 16093 5.7 80 21:20 16.01.2020
663 Clouds 27 1023 51 16093 4.6 80 20:59 16.01.2020
664 Clouds 27 1023 51 16093 4.6 80 20:40 16.01.2020
665 Clouds 27 1023 51 16093 4.6 80 20:20 16.01.2020
666 Clear 27 1023 51 16093 2.6 0 19:57 16.01.2020
667 Clear 27 1023 51 16093 2.6 0 19:39 16.01.2020
668 Clear 27 1023 51 16093 2.6 0 19:20 16.01.2020
669 Clouds 27 1024 51 16093 3.1 80 18:57 16.01.2020
670 Clouds 27 1024 51 16093 3.1 80 18:37 16.01.2020
671 Clouds 27 1024 51 16093 3.1 80 18:18 16.01.2020
672 Clouds 27 1025 54 16093 3.6 80 17:58 16.01.2020
673 Clouds 27 1025 54 16093 3.6 80 17:39 16.01.2020
674 Clouds 26 1025 54 16093 3.6 80 17:20 16.01.2020
675 Clouds 26 1025 54 16093 4.1 100 16:41 16.01.2020
676 Clouds 26 1025 54 16093 4.1 100 16:21 16.01.2020
677 Clouds 25 1025 64 16093 1.5 0 15:57 16.01.2020
678 Clouds 25 1025 64 16093 1.5 0 15:38 16.01.2020
679 Clouds 24 1025 64 16093 1.5 0 15:20 16.01.2020
680 Clouds 21 1024 77 16093 3.79 85 14:42 16.01.2020
681 Clouds 20 1024 77 16093 3.79 85 14:24 16.01.2020
682 Clouds 19 1024 82 16093 3.25 107 13:55 16.01.2020
683 Clouds 18 1024 82 16093 3.25 107 13:37 16.01.2020
684 Clouds 18 1024 82 16093 3.72 110 13:19 16.01.2020
685 Clouds 18 1023 82 16093 3.72 110 12:41 16.01.2020
686 Clouds 18 1023 82 16093 3.72 110 12:21 16.01.2020
687 Clouds 19 1023 82 16093 3.72 110 11:43 16.01.2020
688 Clouds 18 1023 82 16093 3.72 110 11:24 16.01.2020
689 Clouds 18 1023 77 16093 5.13 104 10:59 16.01.2020
690 Clouds 18 1023 77 16093 5.13 104 10:38 16.01.2020
691 Clouds 18 1023 77 16093 5.13 104 10:20 16.01.2020
692 Clouds 18 1023 82 16093 5.13 104 09:54 16.01.2020
693 Clouds 18 1023 82 16093 5.13 104 09:36 16.01.2020
694 Clouds 18 1023 82 16093 5.13 104 09:18 16.01.2020
695 Clouds 19 1023 73 16093 5.13 104 08:42 16.01.2020
696 Clouds 19 1023 73 16093 5 98 08:22 16.01.2020
697 Clouds 19 1024 68 16093 2.1 360 07:43 16.01.2020
698 Clouds 19 1024 68 16093 2.1 360 07:25 16.01.2020
699 Clouds 20 1024 64 16093 5.87 89 06:55 16.01.2020
700 Clouds 20 1024 64 16093 5.87 89 06:35 16.01.2020
701 Clouds 20 1024 64 16093 1.5 110 05:56 16.01.2020
702 Clouds 21 1024 64 16093 1.5 110 05:30 16.01.2020
703 Clouds 21 1024 64 16093 3.1 90 04:37 16.01.2020
704 Clouds 22 1024 60 16093 2.6 40 03:27 16.01.2020
705 Clouds 22 1023 64 16093 2.6 90 02:24 16.01.2020
706 Clouds 23 1022 60 16093 5.1 110 00:44 16.01.2020
707 Clouds 24 1022 60 16093 5.1 110 00:23 16.01.2020
708 Clouds 25 1022 47 16093 5.1 110 23:46 15.01.2020
709 Clouds 25 1022 47 16093 5.1 110 23:22 15.01.2020
710 Clouds 26 1022 54 16093 6.2 120 22:57 15.01.2020
711 Clouds 26 1022 54 16093 6.2 120 22:39 15.01.2020
712 Clouds 26 1022 54 16093 6.2 120 22:19 15.01.2020
713 Clouds 27 1022 47 16093 5.1 120 21:57 15.01.2020
714 Clouds 27 1022 47 16093 5.1 120 21:37 15.01.2020
715 Clouds 27 1022 47 16093 5.1 120 21:19 15.01.2020
716 Clouds 27 1022 51 16093 4.6 120 20:56 15.01.2020
717 Clouds 27 1022 51 16093 4.6 120 20:38 15.01.2020
718 Clouds 27 1022 51 16093 4.6 120 20:19 15.01.2020
719 Clouds 27 1022 57 16093 5.1 130 19:54 15.01.2020
720 Clouds 27 1022 51 16093 4.1 110 19:36 15.01.2020
721 Clouds 27 1022 51 16093 4.1 110 19:18 15.01.2020
722 Clouds 27 1022 51 16093 4.1 110 19:18 15.01.2020
723 Clouds 27 1023 51 16093 5.1 110 18:56 15.01.2020
724 Clouds 27 1023 51 16093 5.1 110 18:37 15.01.2020
725 Clouds 27 1023 51 16093 5.1 110 18:19 15.01.2020
726 Clouds 27 1024 51 16093 6.2 110 17:55 15.01.2020
727 Clouds 27 1024 51 16093 6.2 110 17:37 15.01.2020
728 Clouds 26 1024 51 16093 6.2 110 17:18 15.01.2020
729 Clouds 26 1024 54 16093 5.7 100 16:40 15.01.2020
730 Clouds 26 1024 54 16093 5.7 100 16:21 15.01.2020
731 Clouds 25 1024 57 16093 4.6 110 15:57 15.01.2020
732 Clouds 25 1024 57 16093 4.6 110 15:39 15.01.2020
733 Clouds 24 1024 57 16093 4.6 110 15:18 15.01.2020
734 Smoke 22 1024 64 16093 3.6 90 14:43 15.01.2020
735 Smoke 21 1024 64 16093 3.6 90 14:20 15.01.2020
736 Clouds 20 1023 68 16093 1.5 120 13:46 15.01.2020
737 Clouds 20 1023 68 16093 1.5 120 13:27 15.01.2020
738 Clouds 19 1023 73 16093 4.61 104 12:59 15.01.2020
739 Clouds 19 1023 73 16093 4.61 104 12:40 15.01.2020
740 Clouds 19 1023 73 16093 4.61 104 12:20 15.01.2020
741 Clouds 20 1023 68 16093 2.1 90 11:58 15.01.2020
742 Clouds 20 1023 68 16093 2.1 90 11:37 15.01.2020
743 Clouds 20 1023 68 16093 2.1 90 11:19 15.01.2020
744 Clouds 20 1023 68 16093 2.1 130 10:46 15.01.2020
745 Clouds 20 1023 68 16093 2.1 130 10:27 15.01.2020
746 Clouds 21 1023 68 16093 2.1 110 09:46 15.01.2020
747 Clouds 21 1023 68 16093 2.1 110 09:26 15.01.2020
748 Clouds 21 1023 73 16093 1.5 110 08:59 15.01.2020
749 Clouds 21 1023 73 16093 1.5 110 08:41 15.01.2020
750 Clouds 21 1023 68 16093 3.1 110 08:22 15.01.2020
751 Clouds 21 1024 73 16093 3.1 100 07:52 15.01.2020
752 Clouds 21 1024 73 16093 3.1 100 07:32 15.01.2020
753 Clouds 22 1024 73 16093 3.1 90 06:46 15.01.2020
754 Clouds 22 1024 73 16093 3.1 90 06:20 15.01.2020
755 Clouds 22 1024 73 16093 3.6 90 04:45 15.01.2020
756 Clouds 23 1024 69 16093 4.1 90 02:39 15.01.2020
757 Clouds 23 1023 69 16093 4.1 80 01:28 15.01.2020
758 Clouds 24 1023 65 16093 3.6 110 00:59 15.01.2020
759 Clouds 24 1023 65 16093 3.6 110 00:36 15.01.2020
760 Clouds 24 1023 65 16093 3.6 110 00:18 15.01.2020
761 Clouds 25 1023 57 16093 5.1 110 23:45 14.01.2020
762 Clouds 25 1023 57 16093 5.1 110 23:24 14.01.2020
763 Clouds 26 1023 54 16093 4.6 110 22:41 14.01.2020
764 Clouds 27 1023 54 16093 4.6 110 22:20 14.01.2020
765 Clouds 27 1022 65 16093 4.6 100 21:59 14.01.2020
766 Clouds 27 1022 65 16093 4.6 100 21:41 14.01.2020
767 Clouds 27 1023 51 16093 7.2 130 21:23 14.01.2020
768 Clouds 27 1023 54 16093 8.2 110 20:59 14.01.2020
769 Clouds 27 1023 54 16093 8.2 110 20:41 14.01.2020
770 Clouds 27 1022 61 16093 8.2 130 20:21 14.01.2020
771 Clouds 27 1024 57 16093 8.2 100 19:56 14.01.2020
772 Clouds 27 1024 57 16093 8.2 100 19:38 14.01.2020
773 Clouds 27 1024 57 16093 8.2 100 19:19 14.01.2020
774 Clouds 27 1024 69 16093 5.1 110 18:56 14.01.2020
775 Clouds 27 1024 69 16093 5.1 110 18:37 14.01.2020
776 Clouds 27 1025 61 16093 7.7 140 18:19 14.01.2020
777 Clouds 27 1025 61 16093 8.2 110 17:39 14.01.2020
778 Clouds 27 1025 61 16093 8.2 110 17:19 14.01.2020
779 Clouds 27 1026 61 16093 6.7 110 16:56 14.01.2020
780 Clouds 27 1026 61 16093 6.7 110 16:38 14.01.2020
781 Clouds 27 1025 65 16093 7.2 120 16:19 14.01.2020
782 Clouds 26 1025 69 16093 7.7 120 15:43 14.01.2020
783 Clouds 26 1025 78 16093 6.7 130 15:19 14.01.2020
784 Clouds 25 1025 78 16093 4.6 120 14:59 14.01.2020
785 Clouds 25 1025 78 16093 4.6 120 14:41 14.01.2020
786 Clouds 24 1025 78 16093 6.7 100 14:19 14.01.2020
787 Clouds 24 1025 83 16093 6.2 100 13:42 14.01.2020
788 Rain 24 1025 83 16093 5.1 100 13:20 14.01.2020
789 Rain 24 1025 94 16093 3.6 140 12:56 14.01.2020
790 Rain 24 1025 94 16093 3.6 140 12:56 14.01.2020
791 Rain 24 1025 94 16093 3.6 140 12:38 14.01.2020
792 Rain 24 1025 94 16093 3.6 140 12:20 14.01.2020
793 Rain 24 1024 94 16093 2.6 110 11:42 14.01.2020
794 Rain 24 1024 94 16093 3.1 110 11:22 14.01.2020
795 Rain 24 1025 88 16093 4.6 100 10:57 14.01.2020
796 Rain 24 1025 88 16093 4.6 100 10:38 14.01.2020
797 Rain 24 1024 88 16093 4.1 110 10:19 14.01.2020
798 Rain 24 1024 94 14484 3.6 90 09:56 14.01.2020
799 Rain 24 1024 94 14484 3.6 90 09:37 14.01.2020
800 Rain 24 1024 94 16093 4.6 100 09:19 14.01.2020
801 Rain 24 1025 83 16093 5.7 110 08:41 14.01.2020
802 Rain 24 1025 83 16093 4.6 110 08:22 14.01.2020
803 Rain 24 1026 83 16093 4.6 100 07:53 14.01.2020
804 Clouds 24 1025 94 16093 3.6 100 07:26 14.01.2020
805 Clouds 24 1026 83 16093 3.6 100 06:50 14.01.2020
806 Clouds 24 1026 83 16093 4.6 100 06:18 14.01.2020
807 Clouds 24 1027 88 16093 3.6 110 04:56 14.01.2020
808 Clouds 24 1027 88 16093 5.1 110 03:48 14.01.2020
809 Rain 24 1025 88 16093 3.6 70 02:40 14.01.2020
810 Rain 25 1025 74 16093 5.7 70 01:31 14.01.2020
811 Clouds 25 1024 78 16093 3.6 60 00:48 14.01.2020
812 Clouds 25 1025 73 16093 4.6 90 00:26 14.01.2020
813 Clouds 25 1025 73 16093 4.1 100 23:47 13.01.2020
814 Clouds 26 1025 61 16093 5.1 90 23:19 13.01.2020
815 Clouds 26 1024 57 16093 7.2 100 22:58 13.01.2020
816 Clouds 26 1024 57 16093 7.2 100 22:39 13.01.2020
817 Clouds 26 1024 57 16093 7.2 100 22:20 13.01.2020
818 Clouds 27 1025 57 16093 6.7 100 21:56 13.01.2020
819 Clouds 27 1025 57 16093 6.7 100 21:56 13.01.2020
820 Clouds 27 1025 57 16093 6.7 100 21:37 13.01.2020
821 Clouds 27 1025 57 16093 6.7 100 21:18 13.01.2020
822 Clouds 27 1025 57 16093 6.7 100 21:18 13.01.2020
823 Clouds 27 1025 54 16093 8.2 100 20:56 13.01.2020
824 Clouds 27 1025 54 16093 8.2 100 20:38 13.01.2020
825 Clouds 27 1025 54 16093 8.2 100 20:19 13.01.2020
826 Clouds 27 1025 69 16093 6.2 70 19:42 13.01.2020
827 Clouds 27 1026 61 16093 8.7 90 19:22 13.01.2020
828 Clouds 27 1027 61 16093 7.7 110 18:59 13.01.2020
829 Clouds 27 1027 61 16093 7.7 110 18:40 13.01.2020
830 Clouds 27 1027 61 16093 7.7 110 18:20 13.01.2020
831 Clouds 27 1027 61 16093 7.2 100 17:59 13.01.2020
832 Clouds 27 1027 61 16093 7.2 100 17:40 13.01.2020
833 Clouds 27 1027 61 16093 7.2 100 17:21 13.01.2020
834 Clouds 27 1027 61 16093 7.2 100 17:21 13.01.2020
835 Clouds 26 1027 61 16093 8.2 100 16:55 13.01.2020
836 Clouds 26 1028 57 16093 6.7 110 16:36 13.01.2020
837 Clouds 26 1028 57 16093 6.7 110 16:36 13.01.2020
838 Clouds 26 1028 57 16093 6.7 110 16:18 13.01.2020
839 Clouds 25 1027 69 16093 6.7 100 15:42 13.01.2020
840 Clouds 25 1027 69 16093 6.7 100 15:22 13.01.2020
841 Clouds 24 1026 80 0 1.34 86 14:56 13.01.2020
842 Clouds 24 1026 87 0 0.89 103 14:36 13.01.2020
843 Clouds 24 1025 78 16093 5.7 110 14:18 13.01.2020
844 Clouds 23 1025 78 16093 5.7 110 13:40 13.01.2020
845 Clouds 23 1024 86 0 1.34 86 13:22 13.01.2020
846 Clouds 23 1025 85 0 0.45 133 12:58 13.01.2020
847 Clouds 23 1024 88 0 0.89 103 12:40 13.01.2020
848 Clouds 23 1025 94 16093 4.1 80 12:21 13.01.2020
849 Clouds 23 1025 94 16093 4.1 80 11:56 13.01.2020
850 Clouds 23 1025 94 16093 4.1 80 11:36 13.01.2020
851 Clouds 23 1025 94 16093 4.1 80 11:18 13.01.2020
852 Clouds 23 1025 73 16093 5.1 90 10:55 13.01.2020
853 Clouds 23 1025 73 16093 5.1 90 10:36 13.01.2020
854 Clouds 23 1025 73 16093 5.1 90 10:18 13.01.2020
855 Clouds 23 1024 73 16093 5.1 100 09:40 13.01.2020
856 Clouds 23 1024 73 16093 5.1 100 09:22 13.01.2020
857 Clouds 23 1025 73 16093 5.1 100 08:42 13.01.2020
858 Clouds 23 1025 73 16093 5.1 100 08:21 13.01.2020
859 Clouds 24 1025 88 16093 4.6 110 07:57 13.01.2020
860 Clouds 24 1025 88 16093 4.6 110 07:38 13.01.2020
861 Clouds 24 1025 73 16093 5.7 100 06:55 13.01.2020
862 Clouds 24 1025 73 16093 6.2 120 06:36 13.01.2020
863 Clouds 24 1025 73 16093 6.2 120 06:36 13.01.2020
864 Clouds 24 1026 78 16093 5.1 110 05:36 13.01.2020
865 Clouds 24 1025 78 16093 6.2 100 04:25 13.01.2020
866 Clouds 24 1025 78 16093 8.7 100 03:31 13.01.2020
867 Clouds 24 1025 83 16093 5.1 90 02:47 13.01.2020
868 Clouds 24 1025 83 16093 5.1 90 02:29 13.01.2020
869 Clouds 24 1025 88 16093 3.6 100 01:23 13.01.2020
870 Clouds 25 1025 83 16093 5.1 100 00:42 13.01.2020
871 Clouds 25 1025 83 16093 5.1 100 00:24 13.01.2020
872 Clouds 25 1024 78 16093 4.1 80 23:56 12.01.2020
873 Clouds 25 1024 78 16093 4.1 80 23:37 12.01.2020
874 Clouds 26 1024 74 16093 6.7 100 23:19 12.01.2020
875 Clouds 26 1023 78 16093 4.6 80 22:42 12.01.2020
876 Clouds 26 1024 69 12874 7.7 110 22:24 12.01.2020
877 Clouds 27 1024 69 12874 7.7 100 21:57 12.01.2020
878 Clouds 27 1024 69 12874 7.7 100 21:38 12.01.2020
879 Clouds 27 1024 69 12874 7.7 100 21:20 12.01.2020
880 Clouds 27 1024 74 16093 8.2 120 20:57 12.01.2020
881 Clouds 27 1024 74 16093 8.2 120 20:38 12.01.2020
882 Clouds 27 1024 74 16093 8.2 120 20:20 12.01.2020
883 Clouds 27 1024 78 14484 7.7 120 19:56 12.01.2020
884 Clouds 27 1024 78 14484 7.7 120 19:38 12.01.2020
885 Clouds 27 1025 69 16093 8.7 130 19:19 12.01.2020
886 Rain 27 1025 74 16093 7.7 110 18:57 12.01.2020
887 Rain 27 1025 74 16093 7.7 110 18:39 12.01.2020
888 Rain 27 1025 74 16093 7.7 110 18:21 12.01.2020
889 Rain 27 1026 74 16093 7.7 120 17:56 12.01.2020
890 Rain 26 1026 83 16093 8.2 130 17:37 12.01.2020
891 Rain 26 1026 83 16093 8.2 130 17:18 12.01.2020
892 Clouds 26 1026 74 12874 7.2 110 16:55 12.01.2020
893 Rain 26 1026 83 16093 6.2 110 16:37 12.01.2020
894 Rain 26 1026 78 16093 7.2 130 16:18 12.01.2020
895 Rain 26 1026 83 16093 6.7 130 15:42 12.01.2020
896 Clouds 26 1026 83 16093 5.1 130 15:24 12.01.2020
897 Clouds 26 1026 83 16093 5.1 130 15:24 12.01.2020
898 Clouds 25 1026 78 16093 4.1 130 14:56 12.01.2020
899 Clouds 25 1025 83 16093 4.6 130 14:37 12.01.2020
900 Clouds 25 1025 78 16093 4.6 120 14:18 12.01.2020
901 Clouds 24 1024 88 16093 5.7 130 13:42 12.01.2020
902 Clouds 24 1024 88 16093 5.7 130 13:23 12.01.2020
903 Clouds 24 1024 88 16093 3.6 120 12:58 12.01.2020
904 Clouds 24 1024 88 16093 3.6 120 12:38 12.01.2020
905 Clouds 24 1024 83 16093 3.1 120 12:20 12.01.2020
906 Clouds 24 1024 94 16093 2.6 130 11:57 12.01.2020
907 Clouds 24 1024 83 16093 3.6 130 11:38 12.01.2020
908 Clouds 24 1024 83 16093 3.6 130 11:19 12.01.2020
909 Clouds 24 1023 88 16093 3.1 120 10:41 12.01.2020
910 Clouds 24 1024 83 16093 4.1 110 10:21 12.01.2020
911 Clouds 24 1024 78 16093 5.1 120 09:56 12.01.2020
912 Clouds 24 1024 78 16093 5.1 120 09:38 12.01.2020
913 Clouds 24 1023 83 16093 5.7 120 09:18 12.01.2020
914 Haze 24 1024 78 9656 5.1 130 08:42 12.01.2020
915 Clouds 24 1024 78 16093 4.1 110 08:19 12.01.2020
916 Clouds 24 1024 83 16093 3.6 130 07:40 12.01.2020
917 Clouds 24 1024 88 16093 2.6 130 07:21 12.01.2020
918 Clouds 24 1025 78 16093 4.1 130 06:43 12.01.2020
919 Clouds 24 1025 83 16093 3.1 120 06:19 12.01.2020
920 Clouds 24 1025 83 16093 4.1 130 05:23 12.01.2020
921 Clouds 25 1024 74 16093 5.1 130 03:47 12.01.2020
922 Clouds 25 1024 74 16093 3.6 110 03:22 12.01.2020
923 Clouds 24 1024 83 16093 3.6 120 02:30 12.01.2020
924 Clouds 25 1023 69 16093 4.6 120 01:42 12.01.2020
925 Clouds 25 1023 69 16093 4.6 120 01:22 12.01.2020
926 Clouds 25 1023 69 16093 5.1 130 00:40 12.01.2020
927 Clouds 25 1023 69 16093 5.1 130 00:40 12.01.2020
928 Clouds 25 1023 69 16093 5.1 130 00:20 12.01.2020
929 Clouds 26 1022 74 16093 5.7 130 23:42 11.01.2020
930 Clouds 26 1023 69 16093 6.2 130 23:19 11.01.2020
931 Clouds 26 1022 69 16093 7.7 140 22:58 11.01.2020
932 Clouds 27 1022 74 16093 7.7 140 22:39 11.01.2020
933 Clouds 27 1022 65 16093 7.7 130 22:20 11.01.2020
934 Clouds 27 1022 74 16093 8.2 130 21:58 11.01.2020
935 Clouds 27 1022 74 16093 8.2 130 21:39 11.01.2020
936 Clouds 27 1022 69 16093 9.8 130 21:18 11.01.2020
937 Clouds 27 1022 69 16093 9.8 130 21:18 11.01.2020
938 Clouds 27 1022 69 16093 8.7 140 20:40 11.01.2020
939 Clouds 28 1022 69 16093 8.2 140 20:22 11.01.2020
940 Clouds 28 1022 65 16093 10.3 120 19:58 11.01.2020
941 Clouds 27 1022 65 16093 10.3 120 19:39 11.01.2020
942 Clouds 28 1023 65 16093 10.8 130 19:21 11.01.2020
943 Clouds 27 1022 74 16093 7.7 120 18:58 11.01.2020
944 Clouds 27 1022 74 16093 7.7 120 18:38 11.01.2020
945 Clouds 27 1023 69 16093 11.8 120 18:19 11.01.2020
946 Clouds 27 1024 74 16093 9.3 130 17:57 11.01.2020
947 Clouds 27 1024 74 16093 9.3 130 17:57 11.01.2020
948 Clouds 27 1024 69 16093 10.8 130 17:39 11.01.2020
949 Clouds 27 1024 69 16093 10.8 130 17:39 11.01.2020
950 Clouds 27 1024 69 16093 10.8 130 17:19 11.01.2020
951 Clouds 26 1025 74 16093 10.3 130 16:45 11.01.2020
952 Clouds 26 1025 74 16093 8.7 130 16:27 11.01.2020
953 Clouds 26 1024 78 16093 6.7 130 15:58 11.01.2020
954 Clouds 26 1024 78 16093 6.7 130 15:40 11.01.2020
955 Clouds 25 1024 74 16093 7.2 120 15:20 11.01.2020
956 Clouds 25 1024 83 16093 7.7 130 14:56 11.01.2020
957 Clouds 25 1023 78 16093 6.7 100 14:38 11.01.2020
958 Clouds 24 1024 88 16093 8.2 130 14:19 11.01.2020
959 Clouds 24 1023 88 16093 6.7 120 13:39 11.01.2020
960 Clouds 24 1024 88 16093 7.7 120 13:20 11.01.2020
961 Clouds 24 1023 88 16093 5.7 110 12:58 11.01.2020
962 Clouds 24 1023 88 16093 5.7 110 12:39 11.01.2020
963 Clouds 24 1024 83 16093 8.2 110 12:21 11.01.2020
964 Clouds 24 1022 83 16093 6.7 90 11:47 11.01.2020
965 Clouds 24 1023 88 16093 6.7 110 11:26 11.01.2020
966 Clouds 24 1023 88 16093 6.2 110 10:50 11.01.2020
967 Rain 24 1023 83 14484 7.2 100 10:30 11.01.2020
968 Rain 24 1022 83 16093 6.2 90 09:55 11.01.2020
969 Rain 24 1022 83 16093 6.2 90 09:37 11.01.2020
970 Rain 24 1024 88 16093 10.3 120 09:18 11.01.2020
971 Rain 24 1024 83 16093 9.3 110 08:41 11.01.2020
972 Rain 24 1024 83 11265 9.3 100 08:21 11.01.2020
973 Rain 24 1024 78 16093 7.2 110 07:44 11.01.2020
974 Clouds 24 1024 83 14484 8.7 100 07:25 11.01.2020
975 Rain 24 1025 88 16093 7.7 110 06:48 11.01.2020
976 Rain 24 1025 83 16093 8.7 110 05:34 11.01.2020
977 Rain 24 1025 88 16093 5.7 110 04:46 11.01.2020
978 Rain 24 1025 83 9656 7.7 90 04:27 11.01.2020
979 Rain 24 1025 83 16093 7.2 100 02:49 11.01.2020
980 Rain 24 1025 78 16093 8.7 100 02:20 11.01.2020
981 Rain 24 1025 83 16093 9.3 100 01:42 11.01.2020
982 Rain 24 1025 83 16093 9.3 100 01:18 11.01.2020
983 Clouds 24 1024 69 16093 9.8 90 00:38 11.01.2020
984 Clouds 24 1024 83 14484 9.8 90 23:59 10.01.2020
985 Clouds 25 1024 83 14484 9.8 90 23:40 10.01.2020
986 Clouds 25 1024 61 16093 8.7 100 23:21 10.01.2020
987 Clouds 25 1024 61 16093 9.8 90 22:57 10.01.2020
988 Clouds 25 1024 61 16093 9.8 90 22:39 10.01.2020
989 Clouds 25 1024 61 16093 9.8 90 22:20 10.01.2020
990 Clouds 25 1023 78 16093 7.7 70 21:56 10.01.2020
991 Clouds 25 1023 78 16093 7.7 70 21:36 10.01.2020
992 Clouds 25 1024 65 16093 9.3 110 21:18 10.01.2020
993 Clouds 25 1023 73 16093 6.2 70 20:43 10.01.2020
994 Clouds 25 1023 73 16093 6.2 70 20:43 10.01.2020
995 Clouds 25 1024 61 16093 8.7 100 20:24 10.01.2020
996 Clouds 25 1025 69 16093 9.8 100 19:58 10.01.2020
997 Clouds 26 1025 61 16093 10.3 110 19:38 10.01.2020
998 Clouds 26 1025 57 16093 11.8 90 19:19 10.01.2020
999 Rain 26 1026 73 6437 8.2 100 18:43 10.01.2020
1000 Clouds 26 1026 54 16093 11.8 90 18:19 10.01.2020
1001 Clouds 25 1027 65 16093 8.7 100 17:57 10.01.2020
1002 Clouds 25 1027 65 16093 8.7 100 17:57 10.01.2020
1003 Clouds 25 1027 65 16093 8.7 100 17:39 10.01.2020
1004 Clouds 25 1027 65 16093 8.7 100 17:20 10.01.2020
1005 Clouds 25 1027 61 16093 9.3 100 16:57 10.01.2020
1006 Clouds 25 1027 61 16093 9.3 100 16:38 10.01.2020
1007 Clouds 25 1027 61 16093 9.3 100 16:19 10.01.2020
1008 Clouds 25 1026 78 16093 6.7 80 15:56 10.01.2020
1009 Clouds 25 1026 65 16093 10.3 90 15:37 10.01.2020
1010 Clouds 24 1026 65 16093 10.3 90 15:18 10.01.2020
1011 Clouds 24 1025 73 16093 8.2 70 14:55 10.01.2020
1012 Clouds 24 1025 73 16093 8.2 70 14:37 10.01.2020
1013 Clouds 24 1026 69 16093 9.8 100 14:18 10.01.2020
1014 Clouds 24 1026 69 16093 10.3 100 13:44 10.01.2020
1015 Clouds 23 1025 69 16093 9.3 100 13:26 10.01.2020
1016 Clouds 23 1025 78 16093 7.7 100 12:59 10.01.2020
1017 Clouds 23 1025 78 16093 7.7 100 12:39 10.01.2020
1018 Clouds 23 1025 78 16093 7.7 100 12:21 10.01.2020
1019 Clouds 23 1025 78 16093 7.7 100 12:21 10.01.2020
1020 Clouds 23 1025 73 16093 8.7 110 11:56 10.01.2020
1021 Clouds 23 1026 73 16093 8.7 100 11:38 10.01.2020
1022 Clouds 23 1025 78 16093 7.7 110 11:19 10.01.2020
1023 Clouds 23 1025 78 16093 6.7 110 10:58 10.01.2020
1024 Clouds 23 1025 78 16093 6.7 110 10:58 10.01.2020
1025 Clouds 23 1025 78 16093 9.3 100 10:37 10.01.2020
1026 Clouds 23 1025 69 16093 10.3 90 10:18 10.01.2020
1027 Clouds 23 1025 83 16093 7.7 100 09:45 10.01.2020
1028 Clouds 23 1026 73 16093 7.7 100 09:25 10.01.2020
1029 Rain 23 1026 73 16093 8.7 100 08:44 10.01.2020
1030 Rain 23 1026 69 16093 7.7 90 08:24 10.01.2020
1031 Clouds 23 1026 78 16093 8.7 100 07:58 10.01.2020
1032 Clouds 23 1026 78 16093 8.7 100 07:58 10.01.2020
1033 Clouds 23 1026 78 16093 8.7 100 07:39 10.01.2020
1034 Clouds 23 1026 78 16093 7.7 100 07:19 10.01.2020
1035 Clouds 23 1027 64 16093 8.7 90 06:27 10.01.2020
1036 Clouds 23 1026 73 16093 6.2 70 05:59 10.01.2020
1037 Clouds 23 1028 64 16093 8.2 90 04:44 10.01.2020
1038 Clouds 23 1027 64 16093 7.7 80 03:31 10.01.2020
1039 Clouds 23 1027 60 16093 9.3 80 02:52 10.01.2020
1040 Clouds 23 1027 60 16093 6.7 80 01:53 10.01.2020
1041 Clouds 23 1027 69 16093 7.2 100 01:30 10.01.2020
1042 Clouds 23 1027 60 16093 9.3 80 00:49 10.01.2020
1043 Clouds 23 1027 60 16093 9.3 80 00:31 10.01.2020
1044 Clouds 23 1027 64 16093 8.7 100 23:55 09.01.2020
1045 Clouds 23 1026 57 16093 7.7 80 23:36 09.01.2020
1046 Clouds 23 1026 57 16093 7.7 80 23:18 09.01.2020
1047 Clouds 24 1027 53 16093 10.8 90 22:54 09.01.2020
1048 Clouds 24 1027 53 16093 10.8 90 22:36 09.01.2020
1049 Clouds 24 1027 53 16093 10.8 90 22:18 09.01.2020
1050 Clouds 24 1026 57 16093 9.3 100 21:54 09.01.2020
1051 Clouds 24 1026 57 16093 9.3 100 21:36 09.01.2020
1052 Clouds 25 1026 47 16093 8.2 70 21:18 09.01.2020
1053 Clouds 25 1026 47 16093 12.9 90 20:54 09.01.2020
1054 Clouds 25 1026 47 16093 12.9 90 20:36 09.01.2020
1055 Clouds 25 1026 47 16093 12.9 90 20:18 09.01.2020
1056 Clouds 25 1027 47 16093 9.8 80 19:39 09.01.2020
1057 Clouds 25 1027 47 16093 9.8 80 19:20 09.01.2020
1058 Clouds 25 1027 47 16093 9.8 80 18:56 09.01.2020
1059 Clouds 25 1028 47 16093 10.8 90 18:38 09.01.2020
1060 Clouds 25 1028 47 16093 10.8 90 18:20 09.01.2020
1061 Clouds 25 1028 47 16093 9.8 80 17:41 09.01.2020
1062 Clouds 25 1028 47 16093 9.8 80 17:19 09.01.2020
1063 Clouds 25 1028 47 16093 9.8 80 16:58 09.01.2020
1064 Clouds 25 1029 47 16093 12.3 80 16:39 09.01.2020
1065 Clouds 24 1029 47 16093 12.3 80 16:20 09.01.2020
1066 Clouds 24 1028 47 16093 9.8 90 15:43 09.01.2020
1067 Clouds 24 1028 47 16093 9.8 90 15:22 09.01.2020
1068 Clouds 23 1028 47 16093 9.8 90 14:58 09.01.2020
1069 Clouds 23 1028 46 16093 8.7 80 14:40 09.01.2020
1070 Clouds 23 1028 46 16093 8.7 80 14:19 09.01.2020
1071 Clouds 22 1028 46 16093 8.7 80 13:55 09.01.2020
1072 Clouds 22 1027 49 16093 6.2 70 13:37 09.01.2020
1073 Clouds 22 1027 49 16093 6.2 70 13:18 09.01.2020
1074 Clouds 22 1027 49 16093 6.2 70 12:55 09.01.2020
1075 Clouds 22 1026 53 16093 9.3 90 12:37 09.01.2020
1076 Clouds 22 1026 53 16093 9.3 90 12:18 09.01.2020
1077 Clouds 22 1026 53 16093 5.7 80 11:42 09.01.2020
1078 Clouds 22 1026 53 16093 5.7 80 11:24 09.01.2020
1079 Clouds 22 1026 53 16093 5.7 80 11:24 09.01.2020
1080 Clouds 22 1026 53 16093 5.7 80 10:58 09.01.2020
1081 Clouds 22 1026 49 16093 5.7 70 10:39 09.01.2020
1082 Clouds 22 1026 49 16093 5.7 70 10:20 09.01.2020
1083 Clouds 22 1026 53 16093 5.1 70 09:45 09.01.2020
1084 Clouds 22 1026 53 16093 5.1 70 09:23 09.01.2020
1085 Clouds 22 1026 53 16093 5.1 70 08:57 09.01.2020
1086 Clouds 22 1026 56 16093 5.1 70 08:38 09.01.2020
1087 Clouds 22 1026 56 16093 5.1 70 08:20 09.01.2020
1088 Clouds 21 1026 53 16093 5.7 80 07:46 09.01.2020
1089 Clouds 21 1026 53 16093 5.7 80 07:28 09.01.2020
1090 Clouds 22 1027 49 16093 5.1 60 06:40 09.01.2020
1091 Clouds 21 1027 49 16093 5.1 60 06:22 09.01.2020
1092 Clouds 21 1027 53 16093 3.6 50 05:51 09.01.2020
1093 Clouds 21 1027 53 16093 3.6 50 05:20 09.01.2020
1094 Clouds 21 1027 53 16093 3.6 60 04:39 09.01.2020
1095 Clouds 21 1027 53 16093 3.1 50 03:27 09.01.2020
1096 Clouds 21 1027 53 16093 3.1 40 02:46 09.01.2020
1097 Clouds 21 1026 53 16093 3.1 40 01:42 09.01.2020
1098 Clouds 22 1026 53 16093 3.1 40 00:59 09.01.2020
1099 Clouds 22 1026 49 16093 3.6 40 00:37 09.01.2020
1100 Clouds 22 1026 49 16093 3.6 40 00:19 09.01.2020
1101 Clouds 22 1025 53 16093 7.2 40 23:39 08.01.2020
1102 Clouds 23 1025 53 16093 7.2 40 23:20 08.01.2020
1103 Clouds 23 1025 53 16093 5.1 50 22:41 08.01.2020
1104 Clouds 23 1025 53 16093 5.1 50 22:23 08.01.2020
1105 Clouds 24 1025 53 16093 5.1 50 21:59 08.01.2020
1106 Clouds 24 1024 47 16093 5.1 50 21:40 08.01.2020
1107 Clouds 24 1024 47 16093 5.1 50 21:21 08.01.2020
1108 Clouds 24 1024 47 16093 5.1 50 20:59 08.01.2020
1109 Clouds 24 1024 47 16093 5.1 50 20:59 08.01.2020
1110 Clouds 24 1024 50 16093 6.7 60 20:41 08.01.2020
1111 Clouds 24 1024 50 16093 6.7 60 20:21 08.01.2020
1112 Clouds 24 1024 53 16093 7.7 60 19:58 08.01.2020
1113 Clouds 24 1025 47 16093 7.28 42 19:38 08.01.2020
1114 Clouds 24 1025 47 16093 7.28 42 19:19 08.01.2020
1115 Clouds 24 1025 47 16093 7.28 42 18:58 08.01.2020
1116 Clouds 24 1026 46 16093 2.6 0 18:39 08.01.2020
1117 Clouds 24 1026 46 16093 2.6 0 18:39 08.01.2020
1118 Clouds 23 1026 46 16093 2.6 0 18:19 08.01.2020
1119 Clouds 23 1026 46 16093 2.6 0 17:57 08.01.2020
1120 Clouds 22 1027 46 16093 3.1 350 17:38 08.01.2020
1121 Clouds 22 1027 46 16093 3.1 350 17:19 08.01.2020
1122 Clouds 22 1027 46 16093 3.1 350 17:19 08.01.2020
1123 Clouds 21 1027 46 16093 3.1 350 16:56 08.01.2020
1124 Clouds 21 1027 52 16093 3.1 360 16:38 08.01.2020
1125 Clouds 20 1027 52 16093 3.1 360 16:18 08.01.2020
1126 Clouds 18 1027 63 16093 2.6 0 15:44 08.01.2020
1127 Clouds 18 1027 63 16093 2.6 0 15:44 08.01.2020
1128 Clouds 18 1027 63 16093 2.6 0 15:21 08.01.2020
1129 Clouds 16 1027 63 16093 2.6 0 14:58 08.01.2020
1130 Clouds 16 1026 67 16093 3.6 350 14:40 08.01.2020
1131 Clouds 16 1026 67 16093 3.6 350 14:40 08.01.2020
1132 Clouds 15 1026 67 16093 3.6 350 14:21 08.01.2020
1133 Clear 14 1026 72 16093 2.1 350 13:41 08.01.2020
1134 Clear 14 1026 72 16093 2.1 350 13:22 08.01.2020
1135 Clear 14 1026 72 16093 2.1 350 13:22 08.01.2020
1136 Clear 14 1026 72 16093 2.1 350 12:55 08.01.2020
1137 Clear 14 1025 77 16093 5.1 360 12:37 08.01.2020
1138 Clear 15 1025 77 16093 5.1 360 12:18 08.01.2020
1139 Clear 15 1024 67 16093 2.6 360 11:48 08.01.2020
1140 Clear 15 1024 67 16093 2.6 360 11:19 08.01.2020
1141 Clear 15 1024 67 16093 2.6 360 10:59 08.01.2020
1142 Clear 15 1024 67 16093 2.6 360 10:59 08.01.2020
1143 Clear 14 1024 67 16093 2.6 350 10:40 08.01.2020
1144 Clear 14 1024 67 16093 2.6 350 10:21 08.01.2020
1145 Clear 14 1024 67 16093 2.6 350 10:21 08.01.2020
1146 Clear 14 1024 59 16093 2.1 330 09:43 08.01.2020
1147 Clear 14 1024 59 16093 2.1 330 09:20 08.01.2020
1148 Clear 14 1024 59 16093 2.1 330 08:58 08.01.2020
1149 Clear 14 1024 72 16093 3.1 330 08:40 08.01.2020
1150 Clear 14 1024 48 16093 1.5 330 08:21 08.01.2020
1151 Clear 14 1024 48 16093 1.5 330 07:52 08.01.2020
1152 Clear 14 1024 48 16093 1.5 350 07:34 08.01.2020
1153 Clear 15 1024 48 16093 1.5 350 06:58 08.01.2020
1154 Clear 15 1024 72 16093 6.67 348 06:40 08.01.2020
1155 Clear 16 1024 67 16093 6.67 348 05:56 08.01.2020
1156 Clear 16 1024 59 16093 6.67 348 05:26 08.01.2020
1157 Clear 17 1024 55 16093 1.5 20 04:36 08.01.2020
1158 Clear 18 1023 64 16093 2.6 360 02:46 08.01.2020
1159 Clear 19 1023 64 16093 2.6 360 02:28 08.01.2020
1160 Clear 19 1023 52 16093 1.5 0 01:56 08.01.2020
1161 Clear 19 1022 60 16093 2.1 360 01:32 08.01.2020
1162 Clear 20 1022 53 16093 6.15 330 00:51 08.01.2020
1163 Clear 21 1021 56 16093 3.1 320 00:22 08.01.2020
1164 Clouds 22 1021 44 16093 3.1 310 23:46 07.01.2020
1165 Clouds 23 1021 44 16093 3.1 310 23:21 07.01.2020
1166 Clouds 24 1021 44 16093 3.1 310 22:55 07.01.2020
1167 Clouds 24 1020 41 16093 3.6 300 22:36 07.01.2020
1168 Clouds 24 1020 41 16093 3.6 300 22:18 07.01.2020
1169 Clouds 24 1020 44 16093 3.6 330 21:42 07.01.2020
1170 Clouds 24 1020 44 16093 3.6 330 21:22 07.01.2020
1171 Clouds 24 1020 44 16093 3.6 330 20:58 07.01.2020
1172 Clouds 25 1020 39 16093 2.1 310 20:39 07.01.2020
1173 Clouds 25 1020 39 16093 2.1 310 20:21 07.01.2020
1174 Clouds 25 1020 39 16093 2.1 310 19:57 07.01.2020
1175 Clouds 25 1021 41 16093 3.6 250 19:37 07.01.2020
1176 Clouds 25 1021 41 16093 3.6 250 19:19 07.01.2020
1177 Clouds 25 1021 41 16093 3.6 250 18:56 07.01.2020
1178 Clouds 25 1022 47 16093 1.92 295 18:38 07.01.2020
1179 Clouds 25 1022 47 16093 1.92 295 18:18 07.01.2020
1180 Clouds 25 1022 47 16093 1.92 295 17:54 07.01.2020
1181 Clouds 24 1023 47 16093 1.5 360 17:36 07.01.2020
1182 Clouds 24 1023 47 16093 1.5 360 17:18 07.01.2020
1183 Clouds 23 1023 47 16093 1.5 360 16:54 07.01.2020
1184 Clouds 23 1023 46 16093 2.1 0 16:36 07.01.2020
1185 Clouds 23 1023 46 16093 2.1 0 16:18 07.01.2020
1186 Clouds 21 1023 52 16093 3.99 306 15:42 07.01.2020
1187 Clouds 20 1023 52 16093 3.99 306 15:23 07.01.2020
1188 Clouds 19 1023 52 16093 3.99 306 14:58 07.01.2020
1189 Clouds 18 1022 55 16093 3.99 306 14:38 07.01.2020
1190 Clouds 17 1022 55 16093 1.35 207 14:19 07.01.2020
1191 Clouds 17 1022 55 16093 1.35 207 14:19 07.01.2020
1192 Clouds 15 1021 59 16093 1.5 330 13:44 07.01.2020
1193 Clouds 15 1021 59 16093 1.5 330 13:20 07.01.2020
1194 Clouds 15 1021 59 16093 1.5 330 12:56 07.01.2020
1195 Clouds 15 1021 59 16093 2.07 186 12:37 07.01.2020
1196 Clouds 15 1021 59 16093 2.07 186 12:18 07.01.2020
1197 Clouds 15 1021 59 16093 2.1 350 11:41 07.01.2020
1198 -273 0 0 0 0 0 11:22 07.01.2020
1199 Clouds 15 1021 59 16093 2.1 350 10:56 07.01.2020
1200 Clouds 15 1021 59 16093 2.1 330 10:37 07.01.2020
1201 Clouds 15 1021 59 16093 2.1 330 10:19 07.01.2020
1202 Clouds 16 1021 55 16093 2.1 330 09:39 07.01.2020
1203 Clouds 16 1021 55 16093 2.1 330 09:21 07.01.2020
1204 Clouds 16 1021 55 16093 2.1 330 08:57 07.01.2020
1205 Clouds 16 1021 55 16093 1.5 330 08:37 07.01.2020
1206 Clouds 16 1021 55 16093 1.5 330 08:18 07.01.2020
1207 Clouds 17 1021 48 16093 2.1 350 07:42 07.01.2020
1208 Clouds 17 1021 48 16093 2.1 350 07:18 07.01.2020
1209 Clouds 17 1021 48 16093 2.1 340 06:36 07.01.2020
1210 Clouds 17 1021 48 16093 2.1 340 05:59 07.01.2020
1211 Clouds 17 1022 52 16093 1.5 360 05:40 07.01.2020
1212 Clouds 18 1022 64 16093 2.1 360 03:46 07.01.2020
1213 Clouds 18 1022 64 16093 2.1 360 03:25 07.01.2020
1214 Clouds 19 1022 56 16093 2.1 30 02:19 07.01.2020
1215 Clouds 19 1022 56 16093 2.1 60 01:40 07.01.2020
1216 Clouds 20 1022 56 16093 2.1 60 00:58 07.01.2020
1217 Clouds 20 1021 56 16093 3.6 60 00:21 07.01.2020
1218 Clouds 20 1021 56 16093 3.6 60 00:21 07.01.2020
1219 Clouds 20 1021 56 16093 3.6 60 00:21 07.01.2020
1220 Clouds 20 1021 56 16093 3.6 60 23:57 06.01.2020
1221 Clouds 21 1021 53 16093 5.1 40 23:37 06.01.2020
1222 Clouds 21 1021 53 16093 5.1 40 23:19 06.01.2020
1223 Clouds 22 1021 53 16093 3.6 60 22:44 06.01.2020
1224 Clouds 22 1021 53 16093 3.6 60 22:25 06.01.2020
1225 Clouds 22 1021 53 16093 3.6 60 21:59 06.01.2020
1226 Clouds 22 1021 53 16093 4.1 50 21:40 06.01.2020
1227 Clouds 22 1021 53 16093 4.1 50 21:20 06.01.2020
1228 Clouds 23 1021 53 16093 4.1 50 20:57 06.01.2020
1229 Clouds 23 1021 46 16093 3.1 100 20:39 06.01.2020
1230 Clouds 23 1021 46 16093 3.1 100 20:20 06.01.2020
1231 Clouds 23 1021 46 16093 3.1 100 19:57 06.01.2020
1232 Clouds 23 1022 46 16093 1.5 0 19:39 06.01.2020
1233 Clouds 23 1022 46 16093 1.5 0 19:20 06.01.2020
1234 Clouds 22 1023 46 16093 2.6 0 18:48 06.01.2020
1235 Clouds 22 1023 46 16093 2.6 0 18:25 06.01.2020
1236 Clouds 21 1023 46 16093 2.6 0 17:59 06.01.2020
1237 Clouds 21 1024 43 16093 2.1 0 17:39 06.01.2020
1238 Clouds 20 1024 43 16093 2.1 0 17:19 06.01.2020
1239 Clouds 19 1024 43 16093 2.1 0 16:55 06.01.2020
1240 Clear 19 1025 42 16093 3.1 340 16:36 06.01.2020
1241 Clear 18 1025 42 16093 3.1 340 16:18 06.01.2020
1242 Clouds 17 1024 42 16093 3.1 340 15:42 06.01.2020
1243 Clouds 16 1024 42 16093 3.1 340 15:20 06.01.2020
1244 Clouds 15 1024 42 16093 3.1 340 14:59 06.01.2020
1245 Clouds 14 1024 47 16093 2.6 340 14:40 06.01.2020
1246 Clouds 14 1024 47 16093 2.6 340 14:20 06.01.2020
1247 Clouds 13 1024 47 16093 2.6 340 13:57 06.01.2020
1248 Clouds 13 1024 47 16093 2.6 340 13:57 06.01.2020
1249 Clouds 12 1023 62 16093 2.6 350 13:37 06.01.2020
1250 Clouds 12 1023 62 16093 2.6 350 13:19 06.01.2020
1251 Clouds 12 1023 62 16093 2.6 330 12:43 06.01.2020
1252 Clouds 12 1023 62 16093 2.6 330 12:21 06.01.2020
1253 Clouds 12 1023 62 16093 2.6 330 11:58 06.01.2020
1254 Clear 12 1023 66 16093 4.1 350 11:39 06.01.2020
1255 Clear 12 1023 66 16093 4.1 350 11:20 06.01.2020
1256 Clouds 12 1023 58 16093 2.6 340 10:54 06.01.2020
1257 Clouds 13 1023 58 16093 3.1 330 10:36 06.01.2020
1258 Clouds 13 1023 58 16093 3.1 330 10:18 06.01.2020
1259 Clouds 13 1023 67 16093 2.6 340 09:37 06.01.2020
1260 Clouds 13 1023 67 16093 2.6 340 09:19 06.01.2020
1261 Clouds 13 1023 71 16093 3.1 330 08:43 06.01.2020
1262 Clouds 13 1023 71 16093 3.1 330 08:25 06.01.2020
1263 Clouds 13 1024 71 16093 3.1 330 07:51 06.01.2020
1264 Clouds 13 1024 71 16093 3.1 330 07:26 06.01.2020
1265 Clouds 13 1024 71 16093 4.1 330 06:45 06.01.2020
1266 Clouds 13 1024 71 16093 4.1 330 06:19 06.01.2020
1267 Clear 14 1025 76 16093 4.6 330 05:42 06.01.2020
1268 Clear 14 1025 72 16093 4.6 340 04:37 06.01.2020
1269 Clear 14 1024 63 16093 3.1 320 04:18 06.01.2020
1270 Clouds 15 1024 59 16093 5.1 330 02:46 06.01.2020
1271 Clouds 16 1024 59 16093 5.1 330 02:23 06.01.2020
1272 Clouds 16 1024 55 16093 4.1 340 01:44 06.01.2020
1273 Clouds 16 1024 55 16093 4.1 340 01:24 06.01.2020
1274 Clear 17 1024 55 16093 3.6 360 00:41 06.01.2020
1275 Clouds 17 1023 48 16093 3.1 350 00:20 06.01.2020
1276 Clear 18 1023 49 16093 4.6 20 23:41 05.01.2020
1277 Clear 19 1023 49 16093 4.6 20 23:22 05.01.2020
1278 Clouds 20 1023 43 16093 2.6 0 22:56 05.01.2020
1279 Clear 20 1023 46 16093 5.7 10 22:37 05.01.2020
1280 Clear 20 1023 46 16093 5.7 10 22:19 05.01.2020
1281 Clouds 21 1022 40 16093 3.1 350 21:54 05.01.2020
1282 Clouds 21 1022 40 16093 4.6 350 21:36 05.01.2020
1283 Clouds 21 1022 40 16093 4.6 350 21:18 05.01.2020
1284 Clouds 21 1022 40 16093 4.6 350 20:55 05.01.2020
1285 Clouds 21 1022 40 16093 4.6 350 20:55 05.01.2020
1286 Clouds 21 1023 43 16093 4.6 360 20:36 05.01.2020
1287 Clouds 21 1023 43 16093 4.6 360 20:18 05.01.2020
1288 Clouds 20 1023 43 16093 4.6 360 19:54 05.01.2020
1289 Clouds 20 1023 43 16093 4.6 360 19:54 05.01.2020
1290 Clouds 20 1023 40 16093 3.6 30 19:36 05.01.2020
1291 Clouds 20 1023 40 16093 3.6 30 19:18 05.01.2020
1292 Clouds 20 1023 40 16093 3.6 30 18:54 05.01.2020
1293 Clouds 20 1023 40 16093 3.6 30 18:54 05.01.2020
1294 Clouds 20 1025 42 16093 3.1 0 18:36 05.01.2020
1295 Clouds 19 1025 42 16093 3.1 0 18:18 05.01.2020
1296 Clouds 19 1025 42 16093 3.1 0 18:18 05.01.2020
1297 Clouds 18 1026 39 16093 3.1 0 17:39 05.01.2020
1298 Clouds 18 1026 39 16093 3.1 0 17:21 05.01.2020
1299 Clouds 17 1026 39 16093 3.1 0 16:58 05.01.2020
1300 Clouds 17 1026 41 16093 4.1 10 16:40 05.01.2020
1301 Clouds 17 1026 41 16093 4.1 10 16:20 05.01.2020
1302 Clouds 16 1025 41 16093 5.7 350 15:41 05.01.2020
1303 Clouds 15 1025 41 16093 5.7 350 15:22 05.01.2020
1304 Clouds 14 1025 41 16093 5.7 350 14:58 05.01.2020
1305 Clear 14 1025 61 16093 7.2 340 14:40 05.01.2020
1306 Clear 14 1025 53 16093 7.2 340 14:22 05.01.2020
1307 Clear 13 1025 53 16093 7.2 340 13:59 05.01.2020
1308 Clear 13 1024 50 16093 6.2 350 13:39 05.01.2020
1309 Clouds 13 1024 58 16093 5.1 330 13:20 05.01.2020
1310 Clouds 14 1024 58 16093 5.1 330 12:57 05.01.2020
1311 Rain 14 1024 62 16093 7.2 340 12:38 05.01.2020
1312 Clouds 15 1023 67 16093 4.1 330 12:20 05.01.2020
1313 Clouds 15 1023 67 16093 4.1 330 11:55 05.01.2020
1314 Clouds 15 1023 82 16093 6.2 320 11:37 05.01.2020
1315 Clouds 15 1023 82 16093 6.2 320 11:37 05.01.2020
1316 Clouds 15 1023 82 16093 6.2 320 11:37 05.01.2020
1317 Clouds 16 1023 72 16093 3.1 0 11:18 05.01.2020
1318 Clouds 16 1022 77 16093 5.7 320 10:41 05.01.2020
1319 Clear 17 1022 77 16093 5.7 330 10:20 05.01.2020
1320 Clouds 17 1022 68 16093 5.1 330 09:57 05.01.2020
1321 Clouds 17 1022 72 16093 6.2 320 09:38 05.01.2020
1322 Clouds 17 1022 72 16093 6.2 320 09:38 05.01.2020
1323 Clouds 18 1022 72 16093 6.2 320 09:20 05.01.2020
1324 Clouds 18 1022 72 16093 5.1 310 08:45 05.01.2020
1325 Clouds 18 1022 72 16093 5.1 310 08:21 05.01.2020
1326 Clouds 19 1021 68 16093 5.7 310 07:50 05.01.2020
1327 Clouds 19 1021 68 16093 5.7 310 07:29 05.01.2020
1328 Clouds 19 1021 68 16093 5.7 310 06:56 05.01.2020
1329 Clouds 20 1021 64 16093 5.7 310 05:52 05.01.2020
1330 Clouds 20 1021 73 16093 4.6 310 04:57 05.01.2020
1331 Clouds 21 1021 73 16093 5.7 310 04:19 05.01.2020
1332 Clouds 21 1021 73 16093 5.7 310 04:19 05.01.2020
1333 Rain 21 1021 73 16093 7.2 310 03:45 05.01.2020
1334 Clouds 22 1019 88 16093 4.6 290 02:41 05.01.2020
1335 Clouds 22 1019 94 16093 5.7 280 02:19 05.01.2020
1336 Rain 22 1019 83 16093 4.1 290 01:36 05.01.2020
1337 Rain 22 1019 88 11265 4.6 300 01:18 05.01.2020
1338 Rain 23 1018 83 11265 5.7 260 00:39 05.01.2020
1339 Clouds 26 1017 65 16093 6.2 240 00:21 05.01.2020
1340 Clouds 27 1017 65 16093 6.2 240 23:58 04.01.2020
1341 Clouds 28 1017 54 16093 5.1 240 23:38 04.01.2020
1342 Clouds 28 1017 54 16093 5.1 240 23:18 04.01.2020
1343 Clouds 29 1016 48 16093 6.2 230 22:39 04.01.2020
1344 Clouds 29 1016 48 16093 6.2 230 22:39 04.01.2020
1345 Clouds 29 1016 48 16093 6.2 230 22:21 04.01.2020
1346 Clouds 30 1016 48 16093 6.2 230 21:57 04.01.2020
1347 Clouds 30 1016 45 16093 5.7 230 21:38 04.01.2020
1348 Clouds 30 1016 45 16093 5.7 230 21:19 04.01.2020
1349 Clouds 30 1016 45 16093 5.7 230 21:19 04.01.2020
1350 Clouds 30 1016 45 16093 5.7 230 20:56 04.01.2020
1351 Clouds 30 1017 48 16093 8.2 220 20:37 04.01.2020
1352 Clouds 30 1017 48 16093 8.2 220 20:19 04.01.2020
1353 Clouds 30 1018 51 16093 6.2 200 19:42 04.01.2020
1354 Clouds 30 1018 51 16093 6.2 200 19:23 04.01.2020
1355 Clouds 30 1018 51 16093 6.2 200 18:58 04.01.2020
1356 Clouds 29 1019 55 16093 6.7 190 18:39 04.01.2020
1357 Clouds 29 1019 55 16093 6.7 190 18:20 04.01.2020
1358 Clouds 29 1019 55 16093 6.7 190 17:58 04.01.2020
1359 Clouds 29 1020 62 16093 6.2 190 17:40 04.01.2020
1360 -273 0 0 0 0 0 17:22 04.01.2020
1361 Clouds 28 1020 66 16093 6.2 200 16:42 04.01.2020
1362 Clouds 27 1020 69 16093 5.1 180 16:24 04.01.2020
1363 Clouds 27 1020 74 16093 4.6 170 15:59 04.01.2020
1364 Clouds 27 1020 74 16093 4.6 170 15:59 04.01.2020
1365 Clouds 26 1020 88 16093 4.1 180 15:41 04.01.2020
1366 Clouds 26 1020 78 16093 4.6 170 15:19 04.01.2020
1367 Clouds 25 1020 78 16093 4.6 170 14:58 04.01.2020
1368 Clouds 25 1020 78 16093 4.6 170 14:58 04.01.2020
1369 Clouds 25 1020 88 16093 4.1 180 14:39 04.01.2020
1370 Clouds 24 1019 88 16093 2.1 180 14:19 04.01.2020
1371 Clouds 24 1019 88 16093 2.1 180 13:56 04.01.2020
1372 Clouds 23 1019 94 16093 2.1 200 13:37 04.01.2020
1373 Clouds 23 1019 94 16093 2.1 200 13:37 04.01.2020
1374 Clouds 23 1019 88 16093 2.1 160 13:18 04.01.2020
1375 Clouds 23 1019 88 16093 2.1 160 13:18 04.01.2020
1376 Clouds 23 1018 88 16093 2.1 170 12:42 04.01.2020
1377 Clouds 23 1018 88 16093 2.1 170 12:20 04.01.2020
1378 Clouds 23 1018 88 16093 2.1 170 12:20 04.01.2020
1379 Clouds 23 1018 88 16093 2.1 170 12:20 04.01.2020
1380 Clouds 23 1018 88 16093 2.1 170 11:59 04.01.2020
1381 Clouds 24 1018 88 16093 2.6 160 11:40 04.01.2020
1382 Clouds 24 1018 88 16093 2.6 160 11:19 04.01.2020
1383 Clouds 24 1018 88 16093 2.6 160 10:55 04.01.2020
1384 Clouds 24 1018 94 16093 2.6 150 10:37 04.01.2020
1385 Clouds 24 1018 94 16093 2.6 150 10:19 04.01.2020
1386 Clouds 24 1018 94 16093 3.1 150 09:42 04.01.2020
1387 Clouds 24 1018 83 16093 3.1 150 09:23 04.01.2020
1388 Clouds 24 1018 88 16093 3.6 150 08:42 04.01.2020
1389 Clouds 24 1018 83 16093 3.6 140 08:21 04.01.2020
1390 Clouds 24 1019 83 16093 4.1 140 07:44 04.01.2020
1391 Clouds 24 1019 83 16093 4.1 140 07:26 04.01.2020
1392 Clouds 24 1020 88 16093 3.1 130 06:36 04.01.2020
1393 Clouds 24 1020 83 16093 3.1 120 05:45 04.01.2020
1394 Clouds 23 1020 83 16093 2.1 130 04:44 04.01.2020
1395 Clouds 23 1020 83 16093 2.1 130 04:26 04.01.2020
1396 Clouds 24 1020 78 16093 1.5 0 03:19 04.01.2020
1397 Clouds 24 1019 78 16093 2.6 140 02:23 04.01.2020
1398 Clouds 24 1019 78 16093 2.6 140 02:23 04.01.2020
1399 Clouds 24 1019 78 16093 2.6 140 01:57 04.01.2020
1400 Clear 25 1019 83 16093 3.6 160 01:32 04.01.2020
1401 Clouds 25 1019 74 16093 3.6 150 00:50 04.01.2020
1402 Clouds 25 1018 74 16093 3.1 140 00:28 04.01.2020
1403 Clouds 26 1018 74 16093 3.1 140 23:52 03.01.2020
1404 Clouds 26 1017 69 16093 6.2 140 23:27 03.01.2020
1405 Clouds 27 1017 69 16093 6.2 140 22:55 03.01.2020
1406 Clouds 27 1017 69 16093 6.2 140 22:55 03.01.2020
1407 Clouds 27 1017 65 16093 5.7 140 22:36 03.01.2020
1408 Clouds 28 1017 65 16093 5.7 140 22:18 03.01.2020
1409 Clouds 28 1017 65 16093 5.7 140 21:55 03.01.2020
1410 Clouds 28 1017 65 16093 5.1 150 21:37 03.01.2020
1411 Clouds 28 1017 65 16093 5.1 150 21:18 03.01.2020
1412 Clouds 28 1017 65 16093 5.7 150 20:43 03.01.2020
1413 Clouds 29 1017 65 16093 5.7 150 20:19 03.01.2020
1414 Clouds 29 1017 65 16093 5.7 150 20:19 03.01.2020
1415 Clouds 28 1017 65 16093 5.7 150 19:59 03.01.2020
1416 Clouds 28 1018 61 16093 7.7 150 19:41 03.01.2020
1417 Clouds 28 1018 61 16093 7.7 150 19:22 03.01.2020
1418 Clouds 28 1018 65 16093 7.7 160 18:46 03.01.2020
1419 Clouds 28 1019 65 16093 7.2 160 18:26 03.01.2020
1420 Clouds 28 1019 65 16093 7.2 160 17:58 03.01.2020
1421 Clouds 28 1019 65 16093 8.2 180 17:39 03.01.2020
1422 Clouds 28 1019 65 16093 8.2 180 17:21 03.01.2020
1423 Clouds 27 1019 74 16093 6.7 130 16:43 03.01.2020
1424 Clouds 27 1020 69 16093 6.7 140 16:24 03.01.2020
1425 Clouds 27 1020 69 16093 6.7 140 15:59 03.01.2020
1426 Clouds 27 1019 74 16093 5.1 150 15:41 03.01.2020
1427 Clouds 26 1019 74 16093 5.1 150 15:19 03.01.2020
1428 Clouds 25 1019 83 16093 3.6 150 14:39 03.01.2020
1429 Clouds 25 1019 83 16093 3.6 150 14:20 03.01.2020
1430 Clouds 24 1019 83 16093 3.6 150 13:57 03.01.2020
1431 Clouds 24 1019 78 11265 5.7 150 13:38 03.01.2020
1432 Clouds 24 1018 83 16093 2.6 140 13:20 03.01.2020
1433 Clouds 24 1018 83 16093 3.6 130 12:40 03.01.2020
1434 Clouds 24 1018 83 16093 3.6 130 12:21 03.01.2020
1435 Clouds 24 1018 83 12874 7.2 150 11:49 03.01.2020
1436 Clouds 24 1018 88 16093 4.1 130 11:30 03.01.2020
1437 Clouds 24 1018 83 16093 3.6 130 10:48 03.01.2020
1438 Clouds 24 1018 83 16093 3.6 130 10:29 03.01.2020
1439 Clouds 24 1018 83 16093 3.6 130 09:59 03.01.2020
1440 Clouds 24 1017 88 16093 4.1 140 09:41 03.01.2020
1441 Clouds 24 1017 83 16093 3.6 130 09:23 03.01.2020
1442 Clouds 24 1017 83 16093 3.6 130 08:57 03.01.2020
1443 Clouds 24 1017 88 16093 4.1 140 08:39 03.01.2020
1444 Clouds 24 1017 83 16093 3.6 140 08:21 03.01.2020
1445 Clouds 24 1018 88 16093 4.6 140 07:42 03.01.2020
1446 Clouds 24 1018 83 16093 3.6 130 07:19 03.01.2020
1447 Clouds 24 1018 83 16093 3.6 130 06:56 03.01.2020
1448 Clouds 24 1018 83 14484 6.2 150 06:37 03.01.2020
1449 Clouds 24 1018 83 16093 4.1 130 06:18 03.01.2020
1450 Clouds 24 1019 83 16093 4.6 130 04:43 03.01.2020
1451 Clouds 24 1018 83 16093 6.2 130 03:37 03.01.2020
1452 Clouds 24 1018 88 16093 3.1 100 02:50 03.01.2020
1453 Clouds 24 1018 73 16093 3.1 120 01:48 03.01.2020
1454 Clouds 24 1018 73 16093 3.1 120 00:57 03.01.2020
1455 Clouds 24 1018 73 16093 4.6 120 00:33 03.01.2020
1456 Clouds 24 1018 73 16093 4.6 120 23:58 02.01.2020
1457 Clouds 25 1017 65 16093 5.7 130 23:39 02.01.2020
1458 Clouds 25 1017 65 16093 5.7 130 23:20 02.01.2020
1459 Clouds 25 1017 65 16093 5.7 130 22:58 02.01.2020
1460 Clouds 26 1017 57 16093 4.1 140 22:39 02.01.2020
1461 Clouds 26 1017 57 16093 4.1 140 22:19 02.01.2020
1462 Clouds 27 1017 57 16093 4.1 140 21:55 02.01.2020
1463 Clouds 27 1017 57 16093 5.7 120 21:36 02.01.2020
1464 Clouds 27 1017 57 16093 5.7 120 21:18 02.01.2020
1465 Clouds 27 1017 57 16093 5.7 120 20:54 02.01.2020
1466 Clear 27 1017 57 16093 5.1 130 20:36 02.01.2020
1467 Clear 27 1017 57 16093 5.1 130 20:18 02.01.2020
1468 Clear 27 1017 57 16093 5.1 130 19:54 02.01.2020
1469 Clouds 27 1018 57 16093 5.1 130 19:36 02.01.2020
1470 Clouds 27 1018 57 16093 5.1 130 19:36 02.01.2020
1471 Clouds 27 1018 57 16093 5.1 130 19:18 02.01.2020
1472 Clouds 27 1018 65 16093 3.6 140 18:42 02.01.2020
1473 Clouds 27 1019 54 16093 6.7 120 18:23 02.01.2020
1474 Clouds 27 1019 54 16093 6.7 120 17:58 02.01.2020
1475 Clouds 27 1019 61 16093 5.1 120 17:38 02.01.2020
1476 Clouds 27 1019 61 16093 5.1 120 17:19 02.01.2020
1477 Clouds 26 1019 61 16093 5.1 120 16:58 02.01.2020
1478 Clouds 26 1020 61 16093 4.6 130 16:40 02.01.2020
1479 Clouds 26 1020 61 16093 4.6 130 16:20 02.01.2020
1480 Clouds 25 1020 61 16093 4.6 130 15:57 02.01.2020
1481 Clouds 25 1020 61 16093 4.6 130 15:57 02.01.2020
1482 Clouds 25 1019 69 16093 3.1 110 15:39 02.01.2020
1483 Clouds 24 1019 69 16093 3.1 110 15:19 02.01.2020
1484 Clouds 23 1018 78 16093 2.1 130 14:55 02.01.2020
1485 Clouds 23 1018 78 16093 2.1 130 14:55 02.01.2020
1486 Clouds 22 1018 78 16093 2.1 130 14:36 02.01.2020
1487 Clouds 21 1018 78 16093 2.1 130 14:18 02.01.2020
1488 Clouds 20 1018 77 16093 2.1 130 13:47 02.01.2020
1489 Clouds 19 1018 77 16093 2.1 130 13:29 02.01.2020
1490 Clouds 19 1018 82 16093 5.55 111 12:45 02.01.2020
1491 Clouds 19 1017 77 16093 5.55 111 12:25 02.01.2020
1492 Clouds 19 1017 77 16093 5.55 111 11:57 02.01.2020
1493 Clouds 18 1017 77 16093 5.55 111 11:37 02.01.2020
1494 Clouds 19 1017 77 16093 5.42 102 11:19 02.01.2020
1495 Clear 18 1017 77 16093 5.42 102 10:43 02.01.2020
1496 Clear 18 1017 77 16093 5.42 102 10:25 02.01.2020
1497 Clear 17 1017 68 16093 1.5 10 09:46 02.01.2020
1498 Clear 17 1017 68 16093 1.5 10 09:28 02.01.2020
1499 Clear 17 1017 72 16093 1.5 10 08:45 02.01.2020
1500 Clear 17 1017 72 16093 1.5 10 08:27 02.01.2020
1501 Clear 17 1017 63 16093 4.92 75 07:51 02.01.2020
1502 Clear 17 1017 63 16093 4.92 75 07:30 02.01.2020
1503 Clear 18 1018 56 16093 2.1 30 06:45 02.01.2020
1504 Clear 18 1018 56 16093 2.1 30 06:26 02.01.2020
1505 Clear 18 1019 68 16093 3.1 20 05:21 02.01.2020
1506 Clear 18 1019 68 16093 3.85 66 04:31 02.01.2020
1507 Clear 19 1018 64 16093 3.85 66 02:37 02.01.2020
1508 Clear 20 1018 64 16093 3.5 78 01:59 02.01.2020
1509 Clear 20 1017 60 16093 2.6 110 01:33 02.01.2020
1510 Clear 21 1017 60 16093 2.6 110 00:57 02.01.2020
1511 Clouds 21 1017 56 16093 2.1 130 00:33 02.01.2020
1512 Clouds 23 1017 56 16093 2.1 130 23:52 01.01.2020
1513 Clouds 24 1017 53 16093 2.6 130 23:28 01.01.2020
1514 Clouds 24 1017 53 16093 2.6 130 22:56 01.01.2020
1515 Clouds 25 1016 30 16093 2.6 0 22:38 01.01.2020
1516 Clouds 25 1016 30 16093 2.6 0 22:19 01.01.2020
1517 Clouds 25 1016 30 16093 2.6 0 21:56 01.01.2020
1518 Clouds 25 1016 31 16093 2.87 101 21:37 01.01.2020
1519 Clouds 26 1016 31 16093 2.87 101 21:18 01.01.2020
1520 Clouds 26 1016 31 16093 2.87 101 20:54 01.01.2020
1521 Clouds 26 1017 32 16093 2.1 0 20:36 01.01.2020
1522 Clouds 26 1017 32 16093 2.1 0 20:18 01.01.2020
1523 Clouds 25 1017 32 16093 2.1 0 19:54 01.01.2020
1524 Clear 25 1017 41 16093 2.6 140 19:54 01.01.2020
1525 Clouds 25 1018 34 16093 2.1 0 19:36 01.01.2020
1526 Clouds 25 1018 34 16093 2.1 0 19:18 01.01.2020
1527 Clouds 25 1018 34 16093 2.1 0 18:54 01.01.2020
1528 Clouds 25 1019 44 16093 2.1 0 18:36 01.01.2020
1529 Clouds 24 1019 44 16093 2.1 0 18:18 01.01.2020
1530 Clouds 23 1019 44 16093 2.1 0 17:55 01.01.2020
1531 Clouds 23 1020 40 16093 2.6 350 17:36 01.01.2020
1532 Clouds 23 1020 40 16093 2.6 350 17:18 01.01.2020
1533 Clouds 22 1019 46 16093 2.6 350 16:39 01.01.2020
1534 Clouds 21 1019 46 16093 2.6 350 16:20 01.01.2020
1535 Clouds 20 1019 46 16093 2.6 350 15:57 01.01.2020
1536 Clouds 19 1019 55 16093 2.6 340 15:38 01.01.2020
1537 Clouds 19 1019 55 16093 2.6 340 15:20 01.01.2020
1538 Clouds 18 1019 55 16093 2.6 340 14:56 01.01.2020
1539 Clear 17 1019 63 16093 3.1 340 14:38 01.01.2020
1540 Clear 16 1019 63 16093 3.1 340 14:19 01.01.2020
1541 Clear 15 1019 63 16093 3.1 340 13:55 01.01.2020
1542 Clear 15 1019 63 16093 3.1 340 13:55 01.01.2020
1543 Clear 15 1018 63 16093 2.1 340 13:37 01.01.2020
1544 Clear 15 1018 63 16093 2.1 340 13:18 01.01.2020
1545 Clear 15 1018 63 16093 2.1 340 12:55 01.01.2020
1546 Clear 15 1017 63 16093 1.5 340 12:36 01.01.2020
1547 Clear 15 1017 63 16093 1.5 340 12:18 01.01.2020
1548 Clear 15 1017 72 16093 1.5 340 11:42 01.01.2020
1549 Clear 16 1017 72 16093 1.5 340 11:21 01.01.2020
1550 Clear 16 1017 72 16093 1.5 340 10:57 01.01.2020
1551 Clear 16 1017 77 16093 1.5 0 10:38 01.01.2020
1552 Clear 16 1017 77 16093 1.5 0 10:19 01.01.2020
1553 Clear 16 1017 72 14484 2.1 320 09:42 01.01.2020
1554 Clear 16 1017 72 14484 2.1 320 09:23 01.01.2020
1555 Clear 17 1017 72 14484 2.1 320 08:57 01.01.2020
1556 Clear 17 1017 68 16093 3.31 341 08:39 01.01.2020
1557 Clear 17 1017 68 16093 4.32 6 08:20 01.01.2020
1558 Clear 17 1017 68 16093 4.32 6 07:59 01.01.2020
1559 Clear 17 1017 63 16093 4.32 6 07:41 01.01.2020
1560 Clear 17 1017 63 16093 4.32 6 07:20 01.01.2020
1561 Clear 17 1018 68 16093 4.32 6 06:40 01.01.2020
1562 Clear 17 1018 49 16093 4.32 6 06:19 01.01.2020
1563 Clear 18 1018 49 16093 2.1 350 04:36 01.01.2020
1564 Clear 19 1018 60 16093 2.1 10 03:41 01.01.2020
1565 Clear 19 1018 49 16093 4.51 21 03:22 01.01.2020
1566 Clear 20 1018 49 16093 4.51 21 02:54 01.01.2020
1567 Clouds 21 1018 60 16093 4.51 21 02:30 01.01.2020
1568 Clouds 21 1017 69 16093 2.1 340 01:45 01.01.2020
1569 Clouds 22 1017 69 16093 2.1 340 01:23 01.01.2020
1570 Clouds 22 1017 69 16093 2.1 340 00:54 01.01.2020
1571 Clouds 22 1017 64 16093 1.5 330 00:36 01.01.2020
1572 Clouds 23 1017 64 16093 1.5 330 00:18 01.01.2020
1573 Clouds 24 1016 57 16093 3.1 330 23:38 31.12.2019
1574 Clouds 24 1016 57 16093 3.1 330 23:19 31.12.2019
1575 Rain 25 1016 57 16093 3.1 330 22:56 31.12.2019
1576 Rain 25 1016 61 16093 3.1 300 22:37 31.12.2019
1577 Rain 26 1016 61 16093 3.1 300 22:18 31.12.2019
1578 Clouds 26 1016 69 16093 5.1 320 21:43 31.12.2019
1579 Clouds 26 1016 57 16093 3.1 320 21:25 31.12.2019
1580 Clouds 27 1016 57 16093 3.1 320 20:58 31.12.2019
1581 Clouds 27 1016 61 16093 2.6 290 20:39 31.12.2019
1582 Clouds 27 1016 61 16093 2.6 290 20:21 31.12.2019
1583 Clouds 26 1016 61 16093 2.6 290 19:58 31.12.2019
1584 Clouds 26 1017 61 16093 2.6 310 19:40 31.12.2019
1585 Clouds 26 1017 61 16093 2.6 310 19:22 31.12.2019
1586 Clouds 26 1017 61 16093 2.6 310 18:57 31.12.2019
1587 Clouds 26 1017 61 16093 2.6 310 18:57 31.12.2019
1588 Clouds 26 1017 65 16093 4.1 360 18:39 31.12.2019
1589 Clouds 25 1018 65 16093 3.6 10 18:19 31.12.2019
1590 Clouds 25 1018 73 16093 3.6 330 17:56 31.12.2019
1591 Clouds 24 1018 83 16093 4.1 330 17:37 31.12.2019
1592 Clouds 23 1019 73 16093 6.2 340 17:19 31.12.2019
1593 Clouds 23 1018 83 16093 3.1 310 16:56 31.12.2019
1594 Clouds 23 1018 88 16093 3.6 300 16:37 31.12.2019
1595 Mist 23 1019 88 9656 2.1 330 16:19 31.12.2019
1596 Mist 23 1019 88 9656 2.1 330 15:56 31.12.2019
1597 Clouds 22 1018 88 16093 2.6 350 15:38 31.12.2019
1598 Clouds 22 1018 88 16093 2.6 350 15:20 31.12.2019
1599 Mist 22 1018 94 4023 2.6 330 14:57 31.12.2019
1600 Mist 22 1018 94 6437 2.6 340 14:38 31.12.2019
1601 Mist 21 1017 100 1609 2.1 330 14:19 31.12.2019
1602 Mist 21 1017 100 1609 2.1 330 13:56 31.12.2019
1603 Mist 21 1017 94 402 2.1 330 13:38 31.12.2019
1604 Fog 21 1017 100 805 3.6 340 13:20 31.12.2019
1605 Mist 21 1017 94 0 2.1 320 12:56 31.12.2019
1606 Clouds 21 1016 100 11265 3.6 320 12:38 31.12.2019
1607 Mist 21 1017 94 4828 3.6 310 12:19 31.12.2019
1608 Rain 21 1016 88 402 1.5 300 11:56 31.12.2019
1609 Rain 21 1016 88 201 5.28 333 11:37 31.12.2019
1610 Rain 21 1016 94 2012 1.5 320 11:19 31.12.2019
1611 Fog 21 1015 88 201 1.5 290 10:57 31.12.2019
1612 Fog 21 1015 88 201 1.5 290 10:57 31.12.2019
1613 Fog 21 1015 88 805 4.08 315 10:38 31.12.2019
1614 Mist 21 1015 88 9656 1.5 290 10:19 31.12.2019
1615 Mist 21 1015 88 9656 1.5 290 09:58 31.12.2019
1616 Mist 21 1015 94 4828 2.1 300 09:39 31.12.2019
1617 Fog 21 1015 100 402 4.08 315 09:20 31.12.2019
1618 Clouds 21 1015 88 11265 4.08 315 08:57 31.12.2019
1619 Rain 21 1015 94 16093 1.5 240 08:37 31.12.2019
1620 Rain 21 1015 94 16093 1.5 240 08:18 31.12.2019
1621 Mist 21 1015 100 4023 3.69 299 07:41 31.12.2019
1622 Mist 22 1015 100 4828 2.6 260 07:19 31.12.2019
1623 Mist 22 1015 100 4828 2.1 250 06:48 31.12.2019
1624 Clouds 22 1015 88 16093 1.5 270 05:54 31.12.2019
1625 Clouds 22 1016 88 16093 4.05 176 04:27 31.12.2019
1626 Clouds 23 1015 88 16093 2.6 190 03:27 31.12.2019
1627 Clouds 23 1015 83 16093 4.05 176 02:43 31.12.2019
1628 Clouds 23 1015 83 16093 4.39 176 01:55 31.12.2019
1629 Clouds 24 1014 83 16093 4.39 176 01:34 31.12.2019
1630 Clouds 24 1014 83 16093 5.27 181 00:58 31.12.2019
1631 Clouds 24 1014 78 16093 2.6 140 00:39 31.12.2019
1632 Clouds 25 1014 78 16093 2.6 140 00:21 31.12.2019
1633 Clouds 25 1014 78 16093 2.6 140 23:56 30.12.2019
1634 Clouds 26 1013 69 16093 2.6 150 23:37 30.12.2019
1635 Rain 26 1013 69 16093 2.6 150 23:19 30.12.2019
1636 Clouds 26 1013 69 16093 2.6 150 22:56 30.12.2019
1637 Clouds 26 1013 69 16093 7.97 163 22:37 30.12.2019
1638 Rain 26 1013 69 16093 7.97 163 22:18 30.12.2019
1639 Rain 26 1013 69 16093 7.97 163 21:55 30.12.2019
1640 Rain 26 1013 83 16093 3.1 150 21:37 30.12.2019
1641 Rain 26 1013 65 16093 3.1 200 21:18 30.12.2019
1642 Rain 26 1013 65 16093 3.1 200 20:56 30.12.2019
1643 Rain 26 1013 73 8047 2.1 160 20:37 30.12.2019
1644 Rain 26 1014 74 14484 4.6 140 20:19 30.12.2019
1645 Rain 26 1014 74 14484 4.6 140 19:55 30.12.2019
1646 Rain 26 1014 78 16093 6.7 130 19:37 30.12.2019
1647 Rain 26 1014 78 16093 6.7 130 19:37 30.12.2019
1648 Rain 26 1014 78 16093 6.7 130 19:18 30.12.2019
1649 Clouds 26 1014 78 16093 6.7 130 18:56 30.12.2019
1650 Rain 26 1016 78 16093 4.6 140 18:36 30.12.2019
1651 Rain 26 1016 78 16093 4.6 140 18:18 30.12.2019
1652 Rain 26 1016 78 16093 4.6 140 17:54 30.12.2019
1653 Rain 26 1016 78 16093 4.1 140 17:36 30.12.2019
1654 Rain 26 1016 78 16093 4.1 140 17:36 30.12.2019
1655 Rain 26 1016 78 16093 4.1 150 17:18 30.12.2019
1656 Clouds 26 1016 78 16093 4.6 150 16:41 30.12.2019
1657 Clouds 26 1016 78 16093 4.6 150 16:41 30.12.2019
1658 Rain 25 1017 78 16093 4.6 150 16:21 30.12.2019
1659 Rain 25 1017 78 16093 4.6 150 15:58 30.12.2019
1660 Rain 25 1016 94 4828 1.5 180 15:39 30.12.2019
1661 Clouds 25 1016 88 16093 3.1 140 15:20 30.12.2019
1662 Rain 24 1016 88 9656 1.5 110 14:56 30.12.2019
1663 Rain 24 1016 88 9656 1.5 110 14:38 30.12.2019
1664 Clouds 24 1016 78 16093 3.1 120 14:18 30.12.2019
1665 Clouds 24 1016 88 16093 2.1 150 13:42 30.12.2019
1666 Clouds 24 1016 83 16093 2.6 130 13:24 30.12.2019
1667 Clouds 24 1016 83 16093 2.6 130 12:59 30.12.2019
1668 Clouds 24 1015 83 16093 3.1 130 12:41 30.12.2019
1669 Clouds 24 1015 83 16093 2.6 140 12:19 30.12.2019
1670 Clouds 24 1015 83 16093 2.6 140 11:58 30.12.2019
1671 Clouds 23 1015 88 16093 2.1 140 11:39 30.12.2019
1672 Clouds 23 1015 88 16093 2.1 140 11:18 30.12.2019
1673 Clouds 24 1014 83 16093 3.1 110 10:43 30.12.2019
1674 Clouds 24 1015 73 16093 4.1 120 10:21 30.12.2019
1675 Clouds 24 1015 73 16093 4.1 120 09:55 30.12.2019
1676 Clouds 24 1015 73 16093 4.1 130 09:37 30.12.2019
1677 Clouds 24 1015 73 16093 4.1 130 09:19 30.12.2019
1678 Clouds 24 1016 73 16093 4.6 120 08:46 30.12.2019
1679 Clouds 24 1016 73 16093 4.6 120 08:23 30.12.2019
1680 Clouds 24 1016 73 16093 4.6 120 07:53 30.12.2019
1681 Clouds 24 1016 73 16093 4.6 120 07:33 30.12.2019
1682 Clouds 24 1017 73 16093 5.1 120 06:51 30.12.2019
1683 Clouds 24 1017 73 16093 5.7 120 04:50 30.12.2019
1684 Clouds 24 1017 73 16093 5.7 120 03:53 30.12.2019
1685 Clouds 25 1017 78 16093 4.1 140 02:50 30.12.2019
1686 Clouds 25 1016 78 16093 5.7 110 02:32 30.12.2019
1687 Clouds 25 1016 88 16093 4.1 120 01:50 30.12.2019
1688 Rain 25 1016 83 16093 3.6 120 01:20 30.12.2019
1689 Clouds 25 1015 83 16093 3.1 100 00:43 30.12.2019
1690 Clouds 25 1016 74 16093 5.7 100 23:59 29.12.2019
1691 Clouds 25 1016 74 16093 7.2 100 23:39 29.12.2019
1692 Clouds 25 1016 74 16093 7.2 100 23:21 29.12.2019
1693 Clouds 25 1016 78 16093 5.7 130 22:42 29.12.2019
1694 Clouds 26 1015 74 16093 5.7 120 22:23 29.12.2019
1695 Clouds 26 1015 74 16093 5.7 120 21:59 29.12.2019
1696 Clouds 26 1015 74 16093 7.2 100 21:41 29.12.2019
1697 Clouds 26 1015 74 16093 7.2 100 21:20 29.12.2019
1698 Clouds 26 1015 74 16093 7.2 100 21:20 29.12.2019
1699 Clouds 26 1015 74 16093 7.2 100 20:57 29.12.2019
1700 Rain 26 1016 78 16093 6.2 120 20:39 29.12.2019
1701 Clouds 26 1016 69 16093 6.7 120 20:20 29.12.2019
1702 Clouds 26 1016 69 16093 6.7 120 19:58 29.12.2019
1703 Clouds 26 1016 69 16093 6.2 110 19:40 29.12.2019
1704 Clouds 26 1016 69 16093 6.2 110 19:21 29.12.2019
1705 Clouds 26 1016 69 16093 6.2 110 18:57 29.12.2019
1706 Clouds 26 1018 74 16093 6.7 120 18:38 29.12.2019
1707 Clouds 26 1018 74 16093 6.7 120 18:19 29.12.2019
1708 Rain 26 1018 74 16093 6.2 120 17:58 29.12.2019
1709 Rain 26 1018 78 16093 7.7 120 17:39 29.12.2019
1710 Rain 25 1018 78 16093 7.7 120 17:20 29.12.2019
1711 Rain 25 1018 78 16093 4.6 130 16:56 29.12.2019
1712 Rain 25 1019 88 14484 6.7 120 16:37 29.12.2019
1713 Rain 25 1019 94 16093 5.7 110 16:19 29.12.2019
1714 Rain 25 1019 78 14484 7.7 110 15:57 29.12.2019
1715 Rain 25 1018 88 16093 5.1 90 15:39 29.12.2019
1716 Rain 24 1018 88 16093 5.1 90 15:20 29.12.2019
1717 Rain 24 1018 83 16093 5.7 110 14:57 29.12.2019
1718 Rain 24 1018 94 16093 4.6 110 14:38 29.12.2019
1719 Rain 24 1018 94 16093 4.6 110 14:38 29.12.2019
1720 Rain 24 1018 94 16093 4.6 110 14:18 29.12.2019
1721 Rain 24 1017 88 16093 5.7 100 13:57 29.12.2019
1722 Rain 24 1017 88 16093 5.7 100 13:57 29.12.2019
1723 Rain 24 1018 94 1609 6.2 130 13:38 29.12.2019
1724 Rain 23 1018 94 14484 3.6 120 13:19 29.12.2019
1725 Rain 24 1017 94 16093 3.6 120 12:45 29.12.2019
1726 Rain 24 1017 88 16093 3.1 110 12:27 29.12.2019
1727 Rain 24 1017 88 6437 3.6 110 11:57 29.12.2019
1728 Rain 23 1016 100 16093 3.6 110 11:38 29.12.2019
1729 Rain 24 1016 100 16093 3.6 110 11:20 29.12.2019
1730 Rain 23 1016 94 16093 2.6 100 10:43 29.12.2019
1731 Rain 23 1016 94 16093 4.1 120 10:25 29.12.2019
1732 Rain 24 1016 88 16093 4.6 100 09:58 29.12.2019
1733 Rain 24 1017 88 14484 4.1 120 09:39 29.12.2019
1734 Rain 24 1017 88 14484 4.1 120 09:21 29.12.2019
1735 Rain 24 1015 88 16093 5.1 110 08:48 29.12.2019
1736 Rain 24 1017 83 16093 5.7 130 08:28 29.12.2019
1737 Clouds 24 1016 83 16093 5.7 120 07:56 29.12.2019
1738 Clouds 24 1017 83 16093 6.7 120 07:28 29.12.2019
1739 Clouds 24 1017 83 16093 6.7 120 07:28 29.12.2019
1740 Rain 24 1016 88 16093 6.2 120 06:56 29.12.2019
1741 Rain 24 1017 83 16093 6.2 120 06:26 29.12.2019
1742 Rain 24 1017 78 16093 5.7 120 05:53 29.12.2019
1743 Rain 24 1018 83 16093 5.7 110 04:36 29.12.2019
1744 Clouds 24 1018 83 16093 4.1 110 03:58 29.12.2019
1745 Rain 24 1018 78 16093 5.7 110 03:21 29.12.2019
1746 Clouds 25 1017 88 16093 5.7 120 02:21 29.12.2019
1747 Clouds 25 1017 78 16093 6.2 100 01:40 29.12.2019
1748 Clouds 24 1017 78 16093 6.2 100 01:21 29.12.2019
1749 Rain 25 1017 78 16093 6.2 120 00:42 29.12.2019
1750 Rain 25 1017 78 16093 6.2 120 00:23 29.12.2019
1751 Clouds 25 1017 88 16093 4.6 120 23:44 28.12.2019
1752 Clouds 25 1017 74 16093 6.2 120 23:18 28.12.2019
1753 Clouds 26 1017 74 16093 7.2 110 22:40 28.12.2019
1754 Clouds 26 1016 78 16093 5.1 120 22:21 28.12.2019
1755 Clouds 26 1016 69 16093 7.7 120 21:59 28.12.2019
1756 Clouds 26 1016 69 16093 8.2 100 21:40 28.12.2019
1757 Rain 26 1016 69 16093 8.2 100 21:22 28.12.2019
1758 Rain 26 1016 69 16093 8.2 100 20:59 28.12.2019
1759 Clouds 26 1016 74 16093 6.7 110 20:38 28.12.2019
1760 Rain 26 1017 74 16093 7.7 130 20:20 28.12.2019
1761 Rain 27 1016 69 16093 9.3 110 19:58 28.12.2019
1762 Rain 27 1017 78 16093 9.3 120 19:39 28.12.2019
1763 Rain 27 1017 74 16093 8.7 120 19:21 28.12.2019
1764 Clouds 26 1017 69 16093 9.8 100 18:58 28.12.2019
1765 Rain 26 1018 78 16093 9.3 110 18:40 28.12.2019
1766 Rain 26 1018 78 16093 9.3 110 18:19 28.12.2019
1767 Rain 26 1018 78 16093 9.3 110 17:55 28.12.2019
1768 Rain 26 1019 78 12874 7.2 110 17:37 28.12.2019
1769 Drizzle 25 1018 94 14484 3.6 100 17:18 28.12.2019
1770 Rain 25 1019 94 14484 6.7 110 16:46 28.12.2019
1771 Rain 25 1019 83 12874 5.1 110 16:26 28.12.2019
1772 Rain 25 1019 94 16093 5.1 100 15:47 28.12.2019
1773 Rain 25 1019 83 4828 4.1 120 15:24 28.12.2019
1774 Rain 25 1019 83 16093 6.2 110 14:59 28.12.2019
1775 Rain 24 1018 94 14484 4.1 120 14:39 28.12.2019
1776 Rain 24 1018 88 12874 6.2 130 14:20 28.12.2019
1777 Rain 24 1018 83 12874 8.2 100 13:56 28.12.2019
1778 Rain 23 1018 88 16093 6.7 110 13:37 28.12.2019
1779 Rain 23 1018 88 16093 5.7 110 13:18 28.12.2019
1780 Rain 23 1017 88 16093 4.1 100 12:42 28.12.2019
1781 Rain 23 1017 94 16093 5.1 120 12:23 28.12.2019
1782 Rain 23 1017 83 4828 6.2 110 11:56 28.12.2019
1783 Rain 23 1017 83 4828 6.2 110 11:56 28.12.2019
1784 Rain 23 1017 100 14484 4.1 110 11:38 28.12.2019
1785 Rain 23 1017 100 14484 4.1 110 11:19 28.12.2019
1786 Clouds 23 1017 88 16093 3.6 110 10:44 28.12.2019
1787 Clouds 23 1017 94 16093 4.1 120 10:22 28.12.2019
1788 Rain 23 1017 83 16093 3.6 100 09:57 28.12.2019
1789 Rain 23 1017 94 16093 5.7 110 09:39 28.12.2019
1790 Rain 23 1017 94 8047 3.6 130 09:19 28.12.2019
1791 Rain 23 1017 100 2816 1.5 140 08:44 28.12.2019
1792 Rain 23 1017 94 9656 5.7 130 08:26 28.12.2019
1793 Rain 23 1017 83 16093 2.6 100 07:53 28.12.2019
1794 Rain 23 1017 94 16093 4.1 100 07:30 28.12.2019
1795 Rain 24 1017 88 16093 2.6 170 06:27 28.12.2019
1796 Rain 24 1018 88 16093 6.7 120 04:36 28.12.2019
1797 Rain 24 1018 88 8047 5.7 110 03:39 28.12.2019
1798 Rain 24 1018 88 16093 5.7 110 02:48 28.12.2019
1799 Rain 24 1018 83 16093 6.2 90 01:59 28.12.2019
1800 Rain 24 1018 88 16093 4.6 100 01:30 28.12.2019
1801 Rain 24 1017 78 16093 6.7 100 00:55 28.12.2019
1802 Rain 24 1017 88 16093 4.1 90 00:37 28.12.2019
1803 Rain 24 1017 88 9656 2.6 80 00:19 28.12.2019
1804 Clouds 24 1017 88 16093 4.6 100 23:43 27.12.2019
1805 Clouds 25 1017 69 16093 6.2 90 23:19 27.12.2019
1806 Clouds 25 1017 69 16093 6.2 90 23:19 27.12.2019
1807 Clouds 25 1017 69 16093 6.2 90 22:57 27.12.2019
1808 Clouds 26 1017 74 16093 5.1 90 22:38 27.12.2019
1809 Clouds 26 1017 74 16093 5.1 90 22:20 27.12.2019
1810 Clouds 26 1017 65 16093 6.2 110 21:55 27.12.2019
1811 Clouds 27 1017 65 16093 6.7 120 21:36 27.12.2019
1812 Clouds 27 1017 65 16093 6.7 120 21:36 27.12.2019
1813 Clouds 27 1017 65 16093 6.7 120 21:18 27.12.2019
1814 Clouds 27 1017 65 16093 7.2 100 20:41 27.12.2019
1815 Clouds 27 1017 65 16093 7.2 100 20:22 27.12.2019
1816 Clouds 27 1018 69 16093 5.7 110 19:42 27.12.2019
1817 Clouds 27 1018 69 16093 5.7 110 19:21 27.12.2019
1818 Clouds 27 1018 69 16093 5.7 110 18:59 27.12.2019
1819 Clouds 27 1018 65 16093 6.7 120 18:39 27.12.2019
1820 Clouds 27 1018 65 16093 6.7 120 18:20 27.12.2019
1821 Clouds 27 1018 65 16093 6.7 120 17:57 27.12.2019
1822 Clouds 27 1019 61 16093 8.7 100 17:39 27.12.2019
1823 Clouds 27 1019 61 16093 8.7 100 17:19 27.12.2019
1824 Clouds 27 1019 61 16093 8.7 100 16:58 27.12.2019
1825 Clouds 27 1019 61 16093 7.7 110 16:38 27.12.2019
1826 Clouds 26 1019 61 16093 7.7 110 16:19 27.12.2019
1827 Rain 26 1019 65 16093 7.7 110 15:44 27.12.2019
1828 Rain 25 1019 65 16093 7.7 110 15:22 27.12.2019
1829 Rain 25 1019 65 16093 7.7 110 14:57 27.12.2019
1830 Rain 24 1019 83 8047 6.2 90 14:39 27.12.2019
1831 Rain 24 1018 78 16093 3.6 120 14:20 27.12.2019
1832 Rain 23 1018 78 16093 3.6 120 13:55 27.12.2019
1833 Clouds 23 1018 78 16093 4.6 100 13:37 27.12.2019
1834 Clouds 23 1018 78 16093 4.6 100 13:18 27.12.2019
1835 Clouds 23 1017 88 16093 6.7 110 12:40 27.12.2019
1836 Rain 23 1017 73 16093 6.2 100 12:22 27.12.2019
1837 Rain 23 1017 100 8047 4.1 60 11:46 27.12.2019
1838 Rain 23 1017 78 16093 5.1 100 11:26 27.12.2019
1839 Rain 23 1017 78 16093 5.1 100 11:26 27.12.2019
1840 Rain 23 1017 78 16093 5.1 100 10:58 27.12.2019
1841 Rain 23 1017 94 2816 5.7 100 10:39 27.12.2019
1842 Rain 23 1017 83 16093 3.1 90 10:21 27.12.2019
1843 Rain 23 1016 94 12874 4.6 100 09:44 27.12.2019
1844 Rain 23 1017 88 16093 4.6 90 09:22 27.12.2019
1845 Rain 23 1017 83 16093 4.6 80 08:59 27.12.2019
1846 Rain 23 1016 94 16093 5.7 70 08:36 27.12.2019
1847 Rain 23 1016 83 16093 5.1 90 07:52 27.12.2019
1848 Rain 23 1017 73 16093 6.2 80 07:33 27.12.2019
1849 Rain 23 1017 94 16093 5.1 80 06:38 27.12.2019
1850 Rain 23 1018 88 4828 6.2 90 05:52 27.12.2019
1851 Rain 23 1018 94 16093 5.1 100 03:47 27.12.2019
1852 Rain 23 1018 94 16093 5.1 100 03:47 27.12.2019
1853 Rain 23 1017 78 16093 6.2 70 02:25 27.12.2019
1854 Rain 23 1017 83 16093 5.7 80 01:42 27.12.2019
1855 Rain 23 1017 83 16093 3.6 60 01:20 27.12.2019
1856 Rain 24 1017 83 16093 4.1 70 00:46 27.12.2019
1857 Rain 24 1016 83 16093 5.7 70 00:24 27.12.2019
1858 Rain 24 1016 83 16093 5.7 70 00:24 27.12.2019
1859 Drizzle 24 1015 88 16093 4.1 70 23:42 26.12.2019
1860 Rain 24 1015 88 14484 4.1 50 23:24 26.12.2019
1861 Rain 24 1016 69 16093 5.7 100 22:58 26.12.2019
1862 Rain 24 1016 74 16093 8.2 90 22:37 26.12.2019
1863 Rain 25 1015 88 16093 6.7 90 22:18 26.12.2019
1864 Rain 25 1015 69 16093 8.2 80 21:39 26.12.2019
1865 Rain 25 1015 78 8047 9.3 80 21:21 26.12.2019
1866 Rain 25 1015 65 16093 6.7 60 20:54 26.12.2019
1867 Rain 25 1015 65 16093 6.7 60 20:36 26.12.2019
1868 Rain 26 1015 65 16093 6.7 60 20:18 26.12.2019
1869 Rain 26 1015 65 16093 6.7 60 20:18 26.12.2019
1870 Rain 26 1015 65 16093 6.7 60 19:54 26.12.2019
1871 Rain 26 1016 69 16093 7.7 80 19:36 26.12.2019
1872 Rain 26 1016 69 16093 7.2 70 19:18 26.12.2019
1873 Rain 26 1016 69 16093 6.2 70 18:55 26.12.2019
1874 Rain 26 1016 69 16093 9.8 90 18:36 26.12.2019
1875 Rain 25 1017 78 8047 5.7 60 18:18 26.12.2019
1876 Rain 25 1017 74 8047 7.7 80 17:40 26.12.2019
1877 Rain 25 1016 83 16093 5.7 60 17:20 26.12.2019
1878 Rain 25 1016 83 16093 7.7 50 16:48 26.12.2019
1879 Rain 25 1017 88 8047 4.6 70 16:26 26.12.2019
1880 Rain 25 1017 74 16093 5.1 70 15:57 26.12.2019
1881 Clouds 25 1017 83 16093 6.2 60 15:38 26.12.2019
1882 Clouds 24 1016 74 16093 5.1 60 15:19 26.12.2019
1883 Clouds 24 1016 74 16093 5.1 60 15:19 26.12.2019
1884 Rain 24 1015 83 16093 2.6 40 14:41 26.12.2019
1885 Rain 23 1015 83 16093 2.6 40 14:23 26.12.2019
1886 Rain 22 1015 94 16093 9.23 65 13:45 26.12.2019
1887 Rain 22 1015 78 14484 1.5 40 13:24 26.12.2019
1888 Rain 22 1015 78 16093 1.5 340 12:59 26.12.2019
1889 Rain 22 1014 94 16093 3.1 320 12:41 26.12.2019
1890 Clouds 22 1014 83 16093 2.1 20 12:23 26.12.2019
1891 Clouds 22 1014 83 16093 2.1 20 11:58 26.12.2019
1892 Clouds 22 1014 78 16093 1.5 30 11:40 26.12.2019
1893 Clouds 22 1014 78 16093 1.5 30 11:21 26.12.2019
1894 Clouds 22 1014 78 16093 1.5 10 10:50 26.12.2019
1895 Clouds 22 1014 78 16093 1.5 10 10:25 26.12.2019
1896 Clouds 22 1014 78 16093 1.5 10 09:54 26.12.2019
1897 Clouds 22 1014 73 16093 1.5 360 09:33 26.12.2019
1898 Clouds 22 1014 73 16093 1.5 360 08:58 26.12.2019
1899 Rain 22 1014 73 16093 2.1 50 08:39 26.12.2019
1900 Rain 22 1014 73 16093 2.1 50 08:20 26.12.2019
1901 Clouds 22 1014 73 16093 1.5 20 07:35 26.12.2019
1902 Clouds 22 1014 73 16093 1.5 20 06:57 26.12.2019
1903 Clouds 22 1014 88 16093 2.1 60 06:37 26.12.2019
1904 Clouds 22 1014 88 16093 2.1 60 06:19 26.12.2019
1905 Rain 23 1015 73 16093 4.1 40 05:40 26.12.2019
1906 Rain 23 1015 73 16093 2.6 30 04:32 26.12.2019
1907 Rain 23 1015 73 14484 3.6 50 03:31 26.12.2019
1908 Clouds 23 1014 69 16093 3.1 60 02:46 26.12.2019
1909 Clouds 23 1014 69 16093 3.1 60 02:25 26.12.2019
1910 Clouds 23 1014 69 16093 3.1 60 02:25 26.12.2019
1911 Clouds 23 1014 78 16093 3.1 80 01:44 26.12.2019
1912 Clouds 23 1014 78 16093 3.1 80 01:44 26.12.2019
1913 Clouds 24 1014 61 16093 4.1 30 01:24 26.12.2019
1914 Clouds 24 1013 83 16093 2.6 70 00:43 26.12.2019
1915 Clouds 24 1013 65 16093 4.1 40 00:23 26.12.2019
1916 Rain 24 1013 65 16093 4.1 40 23:57 25.12.2019
1917 Rain 24 1013 69 16093 6.7 60 23:36 25.12.2019
1918 Rain 24 1012 65 16093 5.7 50 23:18 25.12.2019
1919 Rain 24 1013 69 16093 8.2 60 22:55 25.12.2019
1920 Rain 25 1012 61 16093 6.2 50 22:37 25.12.2019
1921 Rain 25 1012 61 16093 6.2 50 22:18 25.12.2019
1922 Clouds 25 1012 57 16093 5.1 50 21:55 25.12.2019
1923 Clouds 26 1012 57 16093 5.1 50 21:37 25.12.2019
1924 Clouds 26 1012 57 16093 5.1 50 21:18 25.12.2019
1925 Clouds 26 1012 57 16093 5.7 40 20:40 25.12.2019
1926 Clouds 26 1012 57 16093 5.7 40 20:21 25.12.2019
1927 Clouds 26 1012 57 16093 5.7 40 19:59 25.12.2019
1928 Clouds 26 1012 65 16093 3.6 30 19:40 25.12.2019
1929 Rain 26 1012 65 16093 3.6 30 19:21 25.12.2019
1930 Clouds 25 1013 73 16093 3.6 10 18:40 25.12.2019
1931 Clouds 25 1013 73 16093 3.6 10 18:21 25.12.2019
1932 Clouds 25 1013 73 16093 3.6 10 18:21 25.12.2019
1933 Clouds 24 1013 69 16093 3.1 10 17:57 25.12.2019
1934 Clouds 24 1013 83 16093 2.1 300 17:39 25.12.2019
1935 Clouds 23 1014 73 16093 3.1 0 17:18 25.12.2019
1936 Clouds 22 1014 73 16093 3.1 0 16:54 25.12.2019
1937 Clouds 21 1014 78 16093 4.1 10 16:36 25.12.2019
1938 Clouds 20 1014 78 16093 4.6 340 16:18 25.12.2019
1939 Clouds 19 1014 88 16093 4.1 340 15:40 25.12.2019
1940 Clouds 19 1014 88 16093 4.1 340 15:22 25.12.2019
1941 Clouds 18 1014 82 16093 3.1 340 14:59 25.12.2019
1942 Mist 18 1013 88 6437 3.1 360 14:41 25.12.2019
1943 Mist 18 1013 88 6437 3.1 360 14:23 25.12.2019
1944 Mist 17 1013 88 6437 3.1 360 13:58 25.12.2019
1945 Clouds 17 1013 93 16093 3.1 320 13:39 25.12.2019
1946 Clouds 17 1013 93 16093 3.1 320 13:20 25.12.2019
1947 Clouds 17 1013 88 12874 3.6 340 12:43 25.12.2019
1948 Mist 17 1012 88 8047 1.5 340 12:22 25.12.2019
1949 Mist 17 1012 88 8047 1.5 340 11:58 25.12.2019
1950 Mist 17 1011 93 4023 1.5 280 11:39 25.12.2019
1951 Clouds 17 1011 82 16093 1.5 300 11:20 25.12.2019
1952 Clouds 17 1011 82 16093 1.5 270 10:39 25.12.2019
1953 Clouds 17 1011 82 16093 1.5 340 10:21 25.12.2019
1954 Clouds 16 1011 82 16093 1.5 340 09:52 25.12.2019
1955 Clouds 16 1011 82 16093 3.1 360 09:34 25.12.2019
1956 Clear 16 1011 82 16093 3.1 330 08:56 25.12.2019
1957 Mist 16 1010 88 8047 5.1 310 08:38 25.12.2019
1958 Clear 16 1011 82 16093 2.1 320 08:19 25.12.2019
1959 Clouds 16 1011 82 16093 2.1 320 07:42 25.12.2019
1960 Clouds 16 1011 82 16093 2.1 320 07:22 25.12.2019
1961 Clouds 17 1012 82 16093 2.6 300 06:24 25.12.2019
1962 Clouds 17 1011 82 16093 5.1 300 05:49 25.12.2019
1963 Clouds 17 1012 77 16093 5.1 340 04:42 25.12.2019
1964 Clouds 17 1012 77 16093 5.1 340 04:24 25.12.2019
1965 Clouds 18 1012 72 16093 3.6 330 03:43 25.12.2019
1966 Clouds 18 1012 72 16093 3.6 330 02:58 25.12.2019
1967 Clouds 18 1011 68 16093 3.1 330 02:29 25.12.2019
1968 Clouds 19 1011 68 16093 6.7 330 01:44 25.12.2019
1969 Clouds 19 1011 68 16093 6.7 330 01:19 25.12.2019
1970 Clear 19 1009 68 16093 4.1 320 00:41 25.12.2019
1971 Clouds 20 1009 60 16093 3.6 320 00:23 25.12.2019
1972 Clouds 21 1008 56 16093 7.2 310 23:40 24.12.2019
1973 Clouds 21 1008 56 16093 7.2 310 23:20 24.12.2019
1974 Clouds 22 1008 49 16093 4.6 300 22:55 24.12.2019
1975 Clouds 22 1008 44 16093 3.6 300 22:37 24.12.2019
1976 Clouds 22 1008 44 16093 3.6 300 22:19 24.12.2019
1977 Clouds 23 1007 44 16093 7.2 260 21:41 24.12.2019
1978 Clouds 23 1007 44 16093 7.2 260 21:20 24.12.2019
1979 Clouds 23 1008 47 16093 7.2 270 20:43 24.12.2019
1980 Clouds 23 1008 47 16093 7.2 270 20:23 24.12.2019
1981 Clouds 23 1008 47 16093 7.2 270 19:56 24.12.2019
1982 Clouds 22 1008 56 16093 5.7 280 19:37 24.12.2019
1983 Clouds 22 1008 56 16093 5.7 280 19:18 24.12.2019
1984 Clouds 22 1008 68 16093 8.2 250 18:42 24.12.2019
1985 Clouds 21 1009 60 16093 4.1 270 18:19 24.12.2019
1986 Clouds 20 1011 56 16093 6.2 270 17:44 24.12.2019
1987 Clouds 20 1011 56 16093 6.2 270 17:22 24.12.2019
1988 Clouds 20 1011 56 16093 6.2 270 16:58 24.12.2019
1989 Clouds 19 1011 63 16093 4.1 310 16:40 24.12.2019
1990 Clouds 19 1011 63 16093 4.1 310 16:21 24.12.2019
1991 Clouds 19 1011 63 16093 4.1 310 16:21 24.12.2019
1992 Clouds 18 1011 63 16093 4.1 310 15:58 24.12.2019
1993 Clouds 18 1011 63 16093 4.1 310 15:58 24.12.2019
1994 Clouds 18 1011 68 16093 3.1 290 15:37 24.12.2019
1995 Clouds 18 1011 68 16093 3.1 290 15:19 24.12.2019
1996 Clouds 17 1011 68 16093 3.1 290 14:58 24.12.2019
1997 Clouds 17 1010 72 16093 2.6 300 14:40 24.12.2019
1998 Clouds 17 1010 72 16093 2.6 300 14:40 24.12.2019
1999 Clouds 17 1010 72 16093 2.6 300 14:40 24.12.2019
2000 Clouds 16 1010 72 16093 2.6 300 14:22 24.12.2019
2001 Clouds 15 1010 72 16093 2.6 300 13:56 24.12.2019
2002 Clouds 15 1010 77 16093 2.6 300 13:38 24.12.2019
2003 Clouds 15 1010 77 16093 2.6 300 13:20 24.12.2019
2004 Clouds 15 1010 77 16093 2.6 300 12:56 24.12.2019
2005 Clouds 15 1010 77 16093 2.6 300 12:56 24.12.2019
2006 Clouds 15 1009 77 16093 2.6 270 12:38 24.12.2019
2007 Clouds 16 1009 77 16093 2.6 270 12:19 24.12.2019
2008 Clouds 16 1009 77 16093 2.6 270 12:19 24.12.2019
2009 Clouds 16 1009 77 16093 2.6 270 11:56 24.12.2019
2010 Clouds 16 1009 72 16093 3.6 280 11:37 24.12.2019
2011 Clouds 16 1009 72 16093 3.6 280 11:19 24.12.2019
2012 Clouds 17 1009 72 16093 3.6 280 10:56 24.12.2019
2013 Clouds 17 1009 77 16093 6.2 310 10:38 24.12.2019
2014 Clouds 17 1009 77 16093 6.2 310 10:19 24.12.2019
2015 Clouds 17 1009 77 16093 6.2 310 10:19 24.12.2019
2016 Clouds 17 1009 72 16093 3.6 300 09:55 24.12.2019
2017 Clouds 17 1009 72 16093 2.6 270 09:37 24.12.2019
2018 Clouds 17 1009 72 16093 2.6 270 09:19 24.12.2019
2019 Clear 17 1009 77 16093 4.1 260 08:46 24.12.2019
2020 Clear 17 1009 77 16093 4.1 260 08:24 24.12.2019
2021 Clear 17 1009 77 16093 4.1 260 07:54 24.12.2019
2022 Clear 17 1009 77 16093 4.1 260 07:36 24.12.2019
2023 Clear 17 1009 77 16093 4.1 260 07:18 24.12.2019
2024 Clouds 18 1010 88 16093 5.7 270 06:39 24.12.2019
2025 Clouds 18 1010 77 16093 3.6 270 06:19 24.12.2019
2026 Clouds 18 1010 77 16093 3.6 260 05:49 24.12.2019
2027 Clouds 18 1010 77 16093 3.6 260 05:18 24.12.2019
2028 Clouds 18 1011 82 16093 2.6 270 03:55 24.12.2019
2029 Rain 18 1010 82 16093 5.7 290 03:33 24.12.2019
2030 Clouds 20 1009 64 16093 3.6 210 02:28 24.12.2019
2031 Clouds 20 1009 64 16093 3.6 210 01:53 24.12.2019
2032 Clear 21 1009 64 16093 5.1 240 01:23 24.12.2019
2033 Clear 21 1009 60 16093 4.1 220 00:55 24.12.2019
2034 Clouds 21 1009 60 16093 4.1 250 00:37 24.12.2019
2035 Clouds 21 1009 60 16093 4.1 250 00:19 24.12.2019
2036 Rain 22 1008 60 16093 5.7 250 23:41 23.12.2019
2037 Rain 23 1008 60 16093 5.7 250 23:23 23.12.2019
2038 Clouds 23 1008 60 16093 5.7 250 22:56 23.12.2019
2039 Clouds 23 1009 60 16093 5.7 250 22:37 23.12.2019
2040 Clouds 23 1009 60 16093 5.7 250 22:19 23.12.2019
2041 Clouds 23 1009 60 16093 5.7 250 21:56 23.12.2019
2042 Clouds 24 1009 64 16093 5.7 250 21:36 23.12.2019
2043 Clouds 24 1009 64 16093 5.7 250 21:36 23.12.2019
2044 Clouds 24 1009 64 16093 5.7 250 21:18 23.12.2019
2045 Clouds 24 1009 64 16093 5.7 250 21:18 23.12.2019
2046 Clouds 24 1009 64 16093 5.7 250 20:57 23.12.2019
2047 Clouds 24 1009 64 16093 3.6 250 20:39 23.12.2019
2048 Clouds 24 1009 64 16093 3.6 250 20:18 23.12.2019
2049 Clouds 24 1009 64 16093 3.6 250 19:56 23.12.2019
2050 Clouds 24 1010 73 16093 4.1 270 19:38 23.12.2019
2051 Clouds 24 1010 73 16093 4.1 270 19:20 23.12.2019
2052 Clouds 23 1010 73 16093 3.1 280 18:58 23.12.2019
2053 Rain 23 1010 73 11265 5.1 280 18:39 23.12.2019
2054 Rain 23 1011 78 16093 4.1 300 18:20 23.12.2019
2055 Rain 23 1011 78 16093 4.1 300 18:20 23.12.2019
2056 Rain 23 1011 78 16093 4.1 300 17:58 23.12.2019
2057 Rain 22 1012 83 11265 2.1 300 17:39 23.12.2019
2058 Rain 22 1012 94 16093 4.1 300 17:19 23.12.2019
2059 Rain 21 1012 83 16093 3.1 310 16:57 23.12.2019
2060 Rain 21 1012 94 16093 3.1 300 16:39 23.12.2019
2061 Rain 21 1013 83 8047 1.5 0 16:18 23.12.2019
2062 Rain 21 1012 100 4828 5.1 270 15:57 23.12.2019
2063 Rain 21 1012 88 16093 2.1 290 15:37 23.12.2019
2064 Rain 21 1013 88 9656 5.1 260 15:19 23.12.2019
2065 Rain 22 1013 88 14484 5.7 290 14:56 23.12.2019
2066 Rain 22 1013 88 14484 5.7 290 14:56 23.12.2019
2067 Rain 22 1013 88 14484 5.7 290 14:56 23.12.2019
2068 Rain 22 1012 94 6437 3.6 250 14:37 23.12.2019
2069 Clouds 22 1012 100 16093 2.1 220 14:18 23.12.2019
2070 Rain 22 1011 94 16093 2.1 220 13:56 23.12.2019
2071 Rain 22 1011 94 16093 2.6 220 13:37 23.12.2019
2072 Rain 22 1011 94 16093 2.6 230 13:19 23.12.2019
2073 Rain 22 1011 94 16093 2.6 220 12:54 23.12.2019
2074 Rain 22 1010 100 16093 2.1 230 12:36 23.12.2019
2075 Rain 22 1011 94 16093 1.5 170 12:18 23.12.2019
2076 Rain 22 1011 100 16093 1.5 190 11:42 23.12.2019
2077 Clouds 22 1011 88 16093 9.41 217 11:22 23.12.2019
2078 Rain 22 1010 94 16093 1.5 180 10:56 23.12.2019
2079 Rain 22 1011 100 16093 1.5 250 10:37 23.12.2019
2080 Rain 22 1011 100 16093 1.5 250 10:37 23.12.2019
2081 Rain 22 1011 100 16093 2.6 260 10:18 23.12.2019
2082 Rain 22 1011 100 16093 2.6 260 10:18 23.12.2019
2083 Rain 22 1010 100 16093 2.6 200 09:56 23.12.2019
2084 Rain 22 1011 94 16093 2.6 180 09:37 23.12.2019
2085 Rain 22 1011 100 16093 3.1 210 09:19 23.12.2019
2086 Rain 22 1012 100 4828 2.6 310 08:41 23.12.2019
2087 Rain 22 1012 94 6437 1.5 320 08:22 23.12.2019
2088 Rain 22 1012 94 3219 11.49 138 07:56 23.12.2019
2089 Thunderstorm 22 1011 100 1609 9.3 70 07:38 23.12.2019
2090 Rain 22 1013 100 2816 1.5 260 07:18 23.12.2019
2091 Rain 22 1013 100 4828 6.2 120 06:39 23.12.2019
2092 Rain 23 1014 94 3219 2.1 0 06:21 23.12.2019
2093 Rain 23 1014 88 2816 6.2 130 05:45 23.12.2019
2094 Rain 24 1016 83 16093 5.1 120 04:44 23.12.2019
2095 Rain 24 1016 73 16093 5.7 110 03:58 23.12.2019
2096 Clouds 24 1016 78 16093 6.2 120 02:47 23.12.2019
2097 Clouds 24 1015 73 16093 5.7 110 02:20 23.12.2019
2098 Clouds 24 1016 73 16093 4.1 140 01:50 23.12.2019
2099 Clouds 24 1015 69 16093 7.7 120 01:31 23.12.2019
2100 Clouds 24 1015 73 16093 6.2 120 00:49 23.12.2019
2101 Clouds 24 1015 73 16093 7.7 100 00:30 23.12.2019
2102 Clouds 24 1015 73 16093 7.7 100 23:57 22.12.2019
2103 Clouds 24 1015 73 16093 6.2 110 23:38 22.12.2019
2104 Clouds 24 1015 73 16093 6.2 110 23:20 22.12.2019
2105 Clouds 24 1015 73 16093 6.2 110 22:56 22.12.2019
2106 Clouds 24 1016 69 16093 5.7 110 22:38 22.12.2019
2107 Clouds 24 1016 69 16093 5.7 110 22:19 22.12.2019
2108 Clouds 24 1016 69 16093 5.7 110 21:56 22.12.2019
2109 Clouds 24 1017 69 16093 5.7 110 21:38 22.12.2019
2110 Clouds 24 1017 69 16093 5.7 110 21:20 22.12.2019
2111 Clouds 24 1017 69 16093 7.2 90 20:41 22.12.2019
2112 Clouds 24 1017 69 16093 7.2 90 20:19 22.12.2019
2113 Clouds 24 1017 69 16093 7.2 90 19:58 22.12.2019
2114 Rain 24 1018 69 16093 6.7 110 19:39 22.12.2019
2115 Rain 24 1018 69 16093 6.7 110 19:20 22.12.2019
2116 Rain 24 1018 69 16093 6.7 110 18:55 22.12.2019
2117 Clouds 24 1018 69 16093 7.7 110 18:37 22.12.2019
2118 Clouds 24 1018 69 16093 7.7 110 18:18 22.12.2019
2119 Clouds 24 1018 69 16093 7.7 110 17:54 22.12.2019
2120 Clouds 24 1019 69 16093 9.3 90 17:36 22.12.2019
2121 Clouds 24 1019 69 16093 9.3 90 17:18 22.12.2019
2122 Rain 25 1020 65 16093 7.7 100 16:42 22.12.2019
2123 Rain 25 1020 65 16093 7.7 100 16:42 22.12.2019
2124 Rain 24 1020 65 16093 7.7 100 16:23 22.12.2019
2125 Clouds 24 1020 65 16093 7.7 100 15:57 22.12.2019
2126 Clouds 24 1020 78 16093 8.2 100 15:39 22.12.2019
2127 Clouds 24 1020 64 16093 6.2 90 15:21 22.12.2019
2128 Clouds 24 1020 64 16093 6.2 90 14:57 22.12.2019
2129 Clouds 24 1020 64 16093 5.7 90 14:38 22.12.2019
2130 Clouds 24 1020 64 16093 5.7 90 14:19 22.12.2019
2131 Clouds 23 1020 64 16093 5.7 90 13:56 22.12.2019
2132 Haze 23 1019 69 9656 8.7 100 13:38 22.12.2019
2133 Clouds 23 1019 64 16093 7.2 100 13:19 22.12.2019
2134 Clouds 23 1019 64 16093 7.2 100 13:19 22.12.2019
2135 Clouds 23 1019 64 16093 7.2 100 12:57 22.12.2019
2136 Clouds 24 1018 64 16093 7.7 110 12:38 22.12.2019
2137 Clouds 24 1018 64 16093 7.7 110 12:19 22.12.2019
2138 Clouds 23 1018 64 16093 7.7 110 11:57 22.12.2019
2139 Clouds 23 1018 78 16093 8.2 110 11:38 22.12.2019
2140 Clouds 23 1018 60 16093 6.7 100 11:19 22.12.2019
2141 Clouds 23 1018 60 16093 6.7 100 10:57 22.12.2019
2142 Clouds 23 1018 60 16093 6.7 100 10:57 22.12.2019
2143 Clouds 23 1018 64 16093 7.2 100 10:38 22.12.2019
2144 Clouds 23 1018 64 16093 7.2 100 10:19 22.12.2019
2145 Clouds 23 1018 64 16093 7.2 100 09:57 22.12.2019
2146 Clouds 23 1018 64 16093 7.7 100 09:39 22.12.2019
2147 Clouds 23 1018 64 16093 7.7 100 09:20 22.12.2019
2148 Clouds 23 1019 64 16093 7.7 100 08:45 22.12.2019
2149 Clouds 23 1019 64 16093 7.7 100 08:22 22.12.2019
2150 Clouds 23 1019 64 16093 7.7 90 07:44 22.12.2019
2151 Clouds 23 1019 64 16093 7.7 90 07:21 22.12.2019
2152 Rain 23 1019 64 16093 7.7 90 06:55 22.12.2019
2153 Rain 23 1020 64 16093 7.2 90 06:26 22.12.2019
2154 Rain 23 1021 73 16093 6.2 100 05:33 22.12.2019
2155 Clouds 23 1021 64 16093 7.7 90 04:55 22.12.2019
2156 Clouds 23 1021 69 16093 7.2 90 04:25 22.12.2019
2157 Clouds 23 1021 64 16093 8.2 90 02:46 22.12.2019
2158 Clouds 23 1021 64 16093 8.2 90 02:46 22.12.2019
2159 Clouds 23 1021 64 16093 8.2 90 02:21 22.12.2019
2160 Rain 23 1020 69 16093 7.2 100 01:31 22.12.2019
2161 Clouds 23 1020 69 16093 7.2 100 00:56 22.12.2019
2162 Clouds 23 1020 64 16093 6.7 100 00:36 22.12.2019
2163 Clouds 23 1020 64 16093 6.7 100 00:18 22.12.2019
2164 Rain 23 1020 64 16093 9.3 100 23:40 21.12.2019
2165 Rain 24 1020 64 16093 9.3 100 23:21 21.12.2019
2166 Rain 24 1020 65 16093 7.2 100 22:56 21.12.2019
2167 Rain 24 1020 65 16093 6.7 100 22:37 21.12.2019
2168 Rain 24 1020 65 16093 6.7 100 22:18 21.12.2019
2169 Rain 24 1020 65 16093 6.7 100 22:18 21.12.2019
2170 Clouds 24 1020 65 16093 6.7 100 21:54 21.12.2019
2171 Rain 24 1019 78 14484 5.7 90 21:36 21.12.2019
2172 Rain 24 1019 78 14484 5.7 90 21:18 21.12.2019
2173 Clouds 25 1019 65 16093 9.8 90 20:55 21.12.2019
2174 Rain 24 1019 69 14484 9.3 100 20:37 21.12.2019
2175 Rain 24 1019 69 14484 9.3 100 20:18 21.12.2019
2176 Rain 24 1019 69 14484 9.3 100 19:55 21.12.2019
2177 Clouds 24 1020 65 16093 11.3 90 19:36 21.12.2019
2178 Clouds 25 1020 65 16093 11.3 90 19:18 21.12.2019
2179 Clouds 24 1021 69 16093 9.8 80 18:40 21.12.2019
2180 Clouds 25 1021 61 16093 11.8 90 18:22 21.12.2019
2181 Clouds 25 1021 61 16093 11.8 90 17:56 21.12.2019
2182 Rain 25 1023 73 16093 10.8 80 17:37 21.12.2019
2183 Rain 25 1023 73 16093 10.8 80 17:18 21.12.2019
2184 Rain 24 1022 78 16093 7.7 70 16:54 21.12.2019
2185 Rain 24 1023 78 12874 8.7 80 16:36 21.12.2019
2186 Rain 24 1023 78 12874 8.7 80 16:36 21.12.2019
2187 Rain 24 1023 78 12874 8.7 80 16:18 21.12.2019
2188 Rain 23 1023 78 12874 8.7 80 15:55 21.12.2019
2189 Rain 23 1024 88 16093 6.7 100 15:36 21.12.2019
2190 Rain 23 1023 78 16093 5.7 70 15:18 21.12.2019
2191 Rain 23 1023 78 16093 10.8 90 14:41 21.12.2019
2192 Rain 22 1023 83 6437 5.7 80 14:22 21.12.2019
2193 Rain 22 1022 69 16093 5.7 80 13:58 21.12.2019
2194 Rain 22 1022 88 14484 10.8 90 13:39 21.12.2019
2195 Rain 22 1022 88 16093 5.7 80 13:19 21.12.2019
2196 Rain 22 1022 78 14484 7.7 100 12:56 21.12.2019
2197 Rain 22 1022 78 14484 4.1 30 12:38 21.12.2019
2198 Rain 22 1022 83 12874 5.1 80 12:19 21.12.2019
2199 Rain 22 1021 83 16093 11.3 100 11:46 21.12.2019
2200 Rain 22 1021 78 16093 6.2 90 11:27 21.12.2019
2201 Rain 22 1021 78 16093 6.2 90 10:58 21.12.2019
2202 Rain 22 1021 83 2816 10.8 80 10:39 21.12.2019
2203 Rain 22 1021 83 6437 9.3 100 10:21 21.12.2019
2204 Rain 22 1021 83 6437 9.3 100 09:57 21.12.2019
2205 Rain 22 1022 83 16093 1.5 0 09:39 21.12.2019
2206 Rain 22 1022 83 16093 7.7 100 09:19 21.12.2019
2207 Rain 23 1022 78 16093 6.7 130 08:47 21.12.2019
2208 Rain 23 1022 78 16093 4.1 100 08:27 21.12.2019
2209 Rain 23 1021 83 16093 3.1 70 07:47 21.12.2019
2210 Rain 23 1022 78 14484 7.7 80 07:23 21.12.2019
2211 Rain 23 1022 78 14484 7.7 80 06:58 21.12.2019
2212 Rain 23 1022 78 9656 8.7 80 06:40 21.12.2019
2213 Rain 23 1022 78 16093 4.6 80 06:21 21.12.2019
2214 Rain 23 1022 73 14484 6.7 80 05:25 21.12.2019
2215 Rain 23 1022 69 16093 9.3 80 04:34 21.12.2019
2216 Rain 23 1022 69 16093 9.3 80 03:56 21.12.2019
2217 Clouds 23 1022 73 16093 4.6 60 02:25 21.12.2019
2218 Clouds 23 1021 69 16093 5.1 60 01:43 21.12.2019
2219 Clouds 23 1021 69 16093 5.1 60 01:24 21.12.2019
2220 Rain 23 1021 78 16093 5.1 40 00:40 21.12.2019
2221 Clouds 23 1022 73 16093 7.7 60 00:21 21.12.2019
2222 Clouds 23 1021 64 16093 5.1 50 23:39 20.12.2019
2223 Clouds 23 1021 64 16093 5.1 50 23:20 20.12.2019
2224 Clouds 23 1021 64 16093 5.1 50 22:59 20.12.2019
2225 Clouds 24 1021 64 16093 5.7 60 22:39 20.12.2019
2226 Clouds 24 1021 64 16093 5.7 60 22:18 20.12.2019
2227 Clouds 24 1021 64 16093 9.8 80 21:41 20.12.2019
2228 Clouds 24 1021 64 16093 9.8 80 21:21 20.12.2019
2229 Clouds 24 1020 78 16093 6.7 50 20:59 20.12.2019
2230 Clouds 24 1021 57 16093 7.7 50 20:38 20.12.2019
2231 Clouds 24 1021 57 16093 7.7 50 20:19 20.12.2019
2232 Clouds 24 1021 57 16093 7.7 50 19:56 20.12.2019
2233 Clouds 24 1020 78 16093 8.7 50 19:38 20.12.2019
2234 Clouds 24 1020 78 16093 8.7 50 19:18 20.12.2019
2235 Clouds 24 1022 64 16093 7.2 60 18:41 20.12.2019
2236 Clouds 23 1022 64 16093 7.2 60 18:22 20.12.2019
2237 Clouds 23 1022 64 16093 7.2 60 17:57 20.12.2019
2238 Clouds 23 1022 64 16093 7.2 60 17:57 20.12.2019
2239 Clouds 23 1023 64 16093 5.1 70 17:39 20.12.2019
2240 Clouds 23 1023 64 16093 5.1 70 17:39 20.12.2019
2241 Clouds 23 1023 64 16093 5.1 70 17:20 20.12.2019
2242 Rain 23 1024 69 9656 9.8 60 16:56 20.12.2019
2243 Rain 23 1023 73 16093 8.7 60 16:38 20.12.2019
2244 Rain 23 1023 73 16093 8.7 60 16:38 20.12.2019
2245 Rain 23 1023 73 16093 8.7 60 16:38 20.12.2019
2246 Rain 23 1023 73 16093 8.7 60 16:19 20.12.2019
2247 Rain 22 1022 78 16093 9.8 70 15:54 20.12.2019
2248 Rain 22 1022 78 16093 9.8 70 15:36 20.12.2019
2249 Rain 22 1023 69 16093 6.2 50 15:18 20.12.2019
2250 Clouds 22 1022 69 16093 6.7 50 14:42 20.12.2019
2251 Clouds 21 1022 78 16093 5.1 40 14:24 20.12.2019
2252 Clouds 21 1021 88 16093 5.7 50 13:57 20.12.2019
2253 Clouds 21 1021 88 16093 5.7 50 13:37 20.12.2019
2254 Rain 21 1022 83 16093 5.1 40 13:19 20.12.2019
2255 Rain 21 1021 83 16093 5.1 40 12:56 20.12.2019
2256 Rain 20 1020 94 16093 7.7 20 12:36 20.12.2019
2257 Rain 20 1021 94 9656 6.7 50 12:18 20.12.2019
2258 Rain 20 1021 83 4023 4.1 50 11:57 20.12.2019
2259 Rain 20 1021 83 4023 4.1 50 11:38 20.12.2019
2260 Rain 20 1021 83 4023 4.1 50 11:38 20.12.2019
2261 Rain 21 1020 78 11265 5.1 50 11:18 20.12.2019
2262 Rain 21 1020 78 11265 5.1 50 10:56 20.12.2019
2263 Rain 21 1019 83 16093 7.7 50 10:37 20.12.2019
2264 Rain 21 1021 83 16093 5.7 50 10:19 20.12.2019
2265 Rain 21 1020 83 16093 5.7 50 09:43 20.12.2019
2266 Rain 20 1020 77 8047 4.1 50 09:21 20.12.2019
2267 Rain 20 1020 88 16093 8.2 50 08:55 20.12.2019
2268 Rain 20 1020 94 16093 6.2 60 08:37 20.12.2019
2269 Rain 20 1021 82 9656 5.7 50 08:19 20.12.2019
2270 Rain 20 1021 77 9656 9.8 70 07:55 20.12.2019
2271 Rain 20 1019 88 16093 9.8 30 07:36 20.12.2019
2272 Rain 20 1021 77 16093 7.7 50 07:18 20.12.2019
2273 Clouds 20 1019 83 16093 9.3 40 06:43 20.12.2019
2274 Rain 20 1021 77 16093 5.1 50 06:25 20.12.2019
2275 Drizzle 20 1020 88 16093 9.8 40 05:47 20.12.2019
2276 Rain 20 1022 73 6437 9.8 70 04:59 20.12.2019
2277 Rain 20 1021 93 16093 5.1 60 03:49 20.12.2019
2278 Rain 20 1020 88 12874 8.2 20 02:55 20.12.2019
2279 Rain 20 1020 100 16093 5.7 60 01:59 20.12.2019
2280 Rain 20 1020 100 16093 5.7 60 01:35 20.12.2019
2281 Rain 20 1021 88 16093 3.1 50 00:55 20.12.2019
2282 Rain 19 1021 82 16093 5.1 40 00:35 20.12.2019
2283 Rain 19 1020 93 4023 6.2 50 23:58 19.12.2019
2284 Rain 19 1020 88 4023 6.7 40 23:40 19.12.2019
2285 Rain 19 1020 88 8047 5.1 50 23:19 19.12.2019
2286 Rain 20 1019 100 3219 6.7 40 22:40 19.12.2019
2287 Rain 20 1019 88 6437 2.1 40 22:22 19.12.2019
2288 Rain 20 1019 77 3219 8.7 60 21:57 19.12.2019
2289 Rain 20 1018 94 3219 7.2 40 21:39 19.12.2019
2290 Rain 20 1019 77 16093 8.2 60 21:19 19.12.2019
2291 Rain 20 1018 73 6437 7.7 60 20:57 19.12.2019
2292 Rain 21 1018 73 6437 7.7 60 20:37 19.12.2019
2293 Rain 21 1019 73 16093 6.7 60 20:19 19.12.2019
2294 Rain 21 1019 73 8047 9.3 50 19:58 19.12.2019
2295 Rain 21 1019 73 8047 9.3 50 19:58 19.12.2019
2296 Rain 21 1019 73 16093 8.2 60 19:39 19.12.2019
2297 Rain 21 1019 73 16093 8.2 60 19:19 19.12.2019
2298 Rain 21 1019 73 16093 8.2 60 19:19 19.12.2019
2299 Rain 21 1019 73 16093 8.2 60 19:19 19.12.2019
2300 Rain 21 1019 73 16093 8.2 60 19:19 19.12.2019
2301 Rain 21 1020 83 16093 6.2 60 18:57 19.12.2019
2302 Rain 21 1019 94 4023 6.2 60 18:39 19.12.2019
2303 Rain 21 1020 83 11265 5.7 50 18:19 19.12.2019
2304 Rain 20 1019 94 3017 7.7 40 17:55 19.12.2019
2305 Rain 20 1019 94 3017 7.7 40 17:37 19.12.2019
2306 Rain 20 1020 83 16093 5.7 60 17:18 19.12.2019
2307 Rain 20 1020 88 12874 2.6 340 16:56 19.12.2019
2308 Rain 20 1019 93 6437 3.1 330 16:37 19.12.2019
2309 Rain 19 1020 93 16093 4.1 20 16:19 19.12.2019
2310 Rain 19 1021 93 9656 3.6 330 15:56 19.12.2019
2311 Rain 19 1021 93 9656 3.6 330 15:37 19.12.2019
2312 Rain 19 1020 82 16093 2.6 0 15:19 19.12.2019
2313 Rain 19 1020 82 16093 2.6 0 15:18 19.12.2019
2314 Rain 18 1019 82 16093 2.1 0 14:43 19.12.2019
2315 Rain 17 1020 93 9656 4.1 340 14:20 19.12.2019
2316 Rain 17 1019 93 6437 4.6 340 13:59 19.12.2019
2317 Rain 17 1019 93 16093 3.1 20 13:38 19.12.2019
2318 Rain 17 1019 87 16093 4.6 330 13:19 19.12.2019
2319 Rain 17 1018 77 16093 4.1 340 12:57 19.12.2019
2320 Rain 16 1018 77 16093 4.1 340 12:39 19.12.2019
2321 Rain 16 1018 87 16093 5.7 350 12:19 19.12.2019
2322 Rain 16 1018 87 16093 5.7 360 11:58 19.12.2019
2323 Rain 16 1018 87 16093 5.7 360 11:40 19.12.2019
2324 Rain 16 1018 87 11265 4.1 340 11:18 19.12.2019
2325 Rain 16 1017 87 16093 3.6 340 10:58 19.12.2019
2326 Clouds 16 1017 82 16093 6.2 10 10:38 19.12.2019
2327 Rain 16 1017 82 16093 6.2 360 10:20 19.12.2019
2328 Rain 16 1017 82 6437 4.6 340 09:55 19.12.2019
2329 Rain 16 1017 82 6437 4.6 340 09:37 19.12.2019
2330 Rain 16 1017 82 6437 4.6 340 09:18 19.12.2019
2331 Rain 16 1017 77 16093 5.1 340 08:42 19.12.2019
2332 Rain 16 1017 82 16093 5.7 350 08:20 19.12.2019
2333 Rain 16 1017 82 16093 5.7 350 08:20 19.12.2019
2334 Rain 16 1017 82 16093 5.7 350 08:20 19.12.2019
2335 Clouds 17 1017 77 16093 5.7 340 07:59 19.12.2019
2336 Clouds 17 1017 77 16093 5.7 340 07:38 19.12.2019
2337 Rain 17 1017 77 16093 5.7 340 07:20 19.12.2019
2338 Rain 17 1017 87 16093 6.2 350 06:52 19.12.2019
2339 Rain 17 1017 87 16093 6.2 350 06:52 19.12.2019
2340 Rain 17 1017 87 16093 6.2 350 06:52 19.12.2019
2341 Rain 17 1018 72 16093 4.6 330 06:32 19.12.2019
2342 Rain 17 1018 82 14484 5.7 350 05:57 19.12.2019
2343 Rain 17 1018 82 14484 5.7 350 05:39 19.12.2019
2344 Rain 17 1018 82 14484 5.7 350 05:18 19.12.2019
2345 Clouds 18 1018 82 16093 5.1 340 03:46 19.12.2019
2346 Clouds 18 1016 77 16093 4.1 340 02:25 19.12.2019
2347 Clouds 19 1016 77 16093 4.1 350 01:24 19.12.2019
2348 Clouds 20 1016 77 16093 6.2 340 00:45 19.12.2019
2349 Clouds 20 1015 78 16093 5.1 340 00:25 19.12.2019
2350 Clouds 21 1015 83 16093 5.1 360 23:59 18.12.2019
2351 Clouds 21 1014 83 16093 6.2 350 23:41 18.12.2019
2352 Clouds 22 1014 73 16093 3.6 330 23:19 18.12.2019
2353 Clouds 22 1014 73 16093 4.6 10 22:56 18.12.2019
2354 Clouds 23 1014 83 16093 3.6 360 22:37 18.12.2019
2355 Clouds 23 1013 69 16093 4.1 340 22:19 18.12.2019
2356 Clouds 23 1013 73 16093 3.6 350 21:57 18.12.2019
2357 Clouds 24 1014 69 16093 4.6 340 21:39 18.12.2019
2358 Clouds 24 1013 69 16093 4.6 330 21:19 18.12.2019
2359 Clouds 25 1013 78 11265 4.6 340 20:55 18.12.2019
2360 Clouds 25 1013 69 16093 4.1 350 20:37 18.12.2019
2361 Clouds 25 1013 69 16093 4.1 350 20:37 18.12.2019
2362 Clouds 24 1013 69 16093 4.1 350 20:19 18.12.2019
2363 Clouds 25 1013 83 16093 4.1 330 19:55 18.12.2019
2364 Clouds 25 1013 83 16093 4.1 330 19:37 18.12.2019
2365 Clouds 25 1013 69 16093 3.1 0 19:18 18.12.2019
2366 Clouds 25 1013 78 16093 4.1 290 18:45 18.12.2019
2367 Clouds 25 1014 65 16093 3.1 300 18:25 18.12.2019
2368 Clouds 25 1014 78 11265 6.2 310 17:57 18.12.2019
2369 Clouds 25 1014 73 16093 3.1 0 17:39 18.12.2019
2370 Clouds 24 1014 73 16093 3.1 0 17:20 18.12.2019
2371 Clouds 24 1014 73 16093 3.1 0 17:20 18.12.2019
2372 Clouds 24 1015 83 16093 2.6 310 16:57 18.12.2019
2373 Clouds 24 1015 83 16093 2.6 310 16:39 18.12.2019
2374 Clouds 23 1015 83 16093 2.6 310 16:20 18.12.2019
2375 Clouds 23 1015 83 16093 2.6 310 15:56 18.12.2019
2376 Rain 22 1015 88 16093 3.1 300 15:37 18.12.2019
2377 Clouds 22 1015 88 16093 2.6 270 15:19 18.12.2019
2378 Clouds 22 1013 78 16093 1.5 0 14:42 18.12.2019
2379 Clouds 22 1013 78 16093 1.5 0 14:22 18.12.2019
2380 Clouds 22 1013 78 16093 1.5 0 13:57 18.12.2019
2381 Clouds 22 1013 83 16093 2.6 280 13:39 18.12.2019
2382 Clouds 22 1013 78 16093 2.1 300 13:20 18.12.2019
2383 Clouds 22 1013 78 16093 2.1 300 12:59 18.12.2019
2384 Mist 23 1013 94 9656 3.1 280 12:39 18.12.2019
2385 Clouds 23 1013 100 16093 4.6 290 12:20 18.12.2019
2386 Mist 23 1013 88 8047 2.6 280 11:56 18.12.2019
2387 Clouds 23 1012 94 16093 2.1 240 11:38 18.12.2019
2388 Clouds 23 1012 94 16093 2.1 240 11:38 18.12.2019
2389 Clouds 23 1012 94 16093 5.63 195 11:19 18.12.2019
2390 Clouds 23 1011 88 16093 5.63 195 10:57 18.12.2019
2391 Clouds 23 1011 88 16093 5.63 195 10:39 18.12.2019
2392 Clouds 23 1011 88 16093 5.63 195 10:20 18.12.2019
2393 Clouds 23 1011 88 16093 5.63 195 09:57 18.12.2019
2394 Rain 23 1012 83 6437 4.6 150 09:19 18.12.2019
2395 Clouds 23 1013 94 16093 5.63 195 08:42 18.12.2019
2396 Clouds 23 1012 100 14484 5.68 192 08:24 18.12.2019
2397 Clouds 23 1012 100 14484 6.32 188 08:24 18.12.2019
2398 Clouds 23 1012 94 16093 6.32 188 07:56 18.12.2019
2399 Clouds 23 1012 94 16093 2.1 160 07:38 18.12.2019
2400 Clouds 23 1012 83 16093 6.32 188 07:19 18.12.2019
2401 Clouds 24 1011 100 16093 1.5 140 06:50 18.12.2019
2402 Clouds 24 1013 83 16093 2.1 140 06:22 18.12.2019
2403 Clouds 24 1013 100 16093 2.1 130 05:30 18.12.2019
2404 Clouds 25 1013 78 16093 3.1 150 03:45 18.12.2019
2405 Clouds 25 1014 78 16093 2.6 150 02:43 18.12.2019
2406 Clouds 25 1014 78 16093 2.6 150 02:25 18.12.2019
2407 Clouds 25 1013 78 16093 3.1 0 01:43 18.12.2019
2408 Clouds 25 1013 78 16093 3.1 0 01:24 18.12.2019
2409 Clouds 26 1013 74 16093 3.6 150 00:42 18.12.2019
2410 Clouds 26 1013 74 16093 3.6 150 00:24 18.12.2019
2411 Clouds 26 1013 74 16093 3.6 150 00:24 18.12.2019
2412 Clouds 26 1013 74 16093 3.6 150 23:58 17.12.2019
2413 Clouds 26 1013 69 16093 4.1 140 23:39 17.12.2019
2414 Clouds 27 1013 69 16093 4.1 140 23:20 17.12.2019
2415 Clouds 27 1013 69 16093 4.1 140 22:57 17.12.2019
2416 Clouds 27 1014 65 16093 6.2 160 22:38 17.12.2019
2417 Clouds 28 1014 65 16093 6.2 160 22:19 17.12.2019
2418 Clouds 28 1014 61 16093 5.1 170 21:57 17.12.2019
2419 Clouds 28 1014 61 16093 6.2 150 21:38 17.12.2019
2420 Clouds 28 1014 61 16093 6.2 150 21:19 17.12.2019
2421 Clouds 28 1014 61 16093 6.2 150 20:58 17.12.2019
2422 Clouds 28 1014 62 16093 6.7 130 20:39 17.12.2019
2423 Clouds 29 1014 62 16093 6.7 130 20:18 17.12.2019
2424 Clouds 29 1014 62 16093 6.7 130 19:56 17.12.2019
2425 Clouds 29 1014 65 16093 7.7 140 19:38 17.12.2019
2426 Clouds 29 1014 65 16093 7.7 140 19:19 17.12.2019
2427 Clouds 28 1014 65 16093 7.7 140 18:55 17.12.2019
2428 Clouds 29 1014 69 16093 5.1 170 18:37 17.12.2019
2429 Clouds 29 1016 65 16093 8.2 130 18:19 17.12.2019
2430 Clouds 28 1017 69 16093 5.1 140 17:42 17.12.2019
2431 Clouds 28 1017 69 16093 5.1 140 17:42 17.12.2019
2432 Clouds 28 1017 69 16093 5.1 140 17:42 17.12.2019
2433 Clouds 28 1017 69 16093 5.1 140 17:42 17.12.2019
2434 Clouds 28 1017 69 16093 5.1 140 17:21 17.12.2019
2435 Clouds 28 1017 74 16093 5.7 130 16:57 17.12.2019
2436 Clouds 28 1017 65 16093 7.2 120 16:38 17.12.2019
2437 Clouds 28 1017 65 16093 7.2 120 16:19 17.12.2019
2438 Clouds 28 1017 65 16093 7.2 120 15:59 17.12.2019
2439 Clouds 27 1017 74 16093 5.7 140 15:38 17.12.2019
2440 Clouds 27 1017 74 16093 5.7 140 15:19 17.12.2019
2441 Clouds 27 1017 74 16093 5.7 140 14:56 17.12.2019
2442 Clouds 26 1017 78 16093 4.6 130 14:38 17.12.2019
2443 Clouds 26 1017 78 16093 4.6 130 14:19 17.12.2019
2444 Clouds 26 1017 78 16093 4.6 130 14:19 17.12.2019
2445 Clouds 25 1017 78 16093 4.6 130 13:56 17.12.2019
2446 Clouds 25 1017 83 16093 5.7 140 13:38 17.12.2019
2447 Clouds 25 1017 78 16093 5.1 120 13:19 17.12.2019
2448 Clouds 25 1017 78 16093 5.1 120 12:56 17.12.2019
2449 Clouds 25 1017 83 16093 3.6 130 12:37 17.12.2019
2450 Clouds 25 1017 83 16093 3.6 130 12:18 17.12.2019
2451 Clouds 25 1017 83 16093 3.6 130 11:56 17.12.2019
2452 Clouds 25 1016 78 16093 4.6 130 11:36 17.12.2019
2453 Clouds 25 1016 78 16093 4.6 130 11:18 17.12.2019
2454 Clouds 25 1016 78 16093 4.6 130 11:18 17.12.2019
2455 Clouds 25 1016 78 14484 5.7 140 10:55 17.12.2019
2456 Clouds 25 1016 78 14484 5.7 140 10:37 17.12.2019
2457 Clouds 25 1016 78 16093 5.7 130 10:18 17.12.2019
2458 Clouds 25 1017 83 16093 5.7 140 09:42 17.12.2019
2459 Clouds 25 1017 78 16093 6.7 140 09:21 17.12.2019
2460 Clouds 25 1016 78 16093 5.1 120 08:58 17.12.2019
2461 Clouds 25 1017 83 16093 5.7 130 08:39 17.12.2019
2462 Clouds 25 1017 83 16093 5.1 130 08:21 17.12.2019
2463 Clouds 26 1017 78 16093 5.7 120 07:57 17.12.2019
2464 Clouds 26 1017 78 16093 5.7 120 07:39 17.12.2019
2465 Clouds 26 1017 78 16093 5.7 120 07:19 17.12.2019
2466 Clouds 26 1018 78 16093 5.7 120 06:36 17.12.2019
2467 Clouds 26 1018 78 16093 5.7 120 06:18 17.12.2019
2468 Clouds 26 1018 83 16093 6.7 120 05:38 17.12.2019
2469 Clouds 26 1019 83 16093 6.7 110 04:48 17.12.2019
2470 Rain 26 1019 83 16093 5.7 120 03:31 17.12.2019
2471 Clouds 26 1019 78 16093 5.7 110 01:58 17.12.2019
2472 Clouds 26 1019 78 16093 4.6 100 01:21 17.12.2019
2473 Rain 25 1018 88 16093 4.1 100 00:39 17.12.2019
2474 Rain 25 1018 88 16093 4.1 100 00:39 17.12.2019
2475 Rain 26 1018 88 16093 4.1 100 00:21 17.12.2019
2476 Clouds 26 1018 88 16093 3.6 60 23:43 16.12.2019
2477 Clouds 26 1019 78 16093 4.6 90 23:20 16.12.2019
2478 Clouds 26 1019 69 16093 5.1 80 22:58 16.12.2019
2479 Clouds 26 1018 83 16093 3.6 70 22:38 16.12.2019
2480 Clouds 26 1018 83 16093 3.6 70 22:20 16.12.2019
2481 Clouds 27 1019 69 16093 6.2 100 21:57 16.12.2019
2482 Clouds 27 1019 69 16093 6.7 110 21:38 16.12.2019
2483 Clouds 27 1019 65 16093 6.2 100 21:20 16.12.2019
2484 Clouds 27 1019 65 16093 6.2 100 20:58 16.12.2019
2485 Clouds 27 1019 69 16093 6.2 100 20:39 16.12.2019
2486 Clouds 27 1019 74 16093 7.2 100 20:19 16.12.2019
2487 Clouds 28 1019 61 16093 6.2 110 19:56 16.12.2019
2488 Clouds 28 1019 58 16093 7.7 110 19:37 16.12.2019
2489 Clouds 28 1019 58 16093 7.7 110 19:19 16.12.2019
2490 Clouds 28 1019 58 16093 7.7 110 18:58 16.12.2019
2491 Clouds 28 1020 65 16093 7.2 120 18:40 16.12.2019
2492 Clouds 28 1020 65 16093 7.2 120 18:20 16.12.2019
2493 Clouds 28 1020 65 16093 7.2 120 17:58 16.12.2019
2494 Clouds 28 1021 65 16093 7.7 100 17:39 16.12.2019
2495 Clouds 27 1021 65 16093 7.7 100 17:21 16.12.2019
2496 Clouds 27 1021 69 16093 8.7 110 16:57 16.12.2019
2497 Clouds 27 1021 69 16093 6.7 110 16:38 16.12.2019
2498 Clouds 27 1021 69 16093 6.7 110 16:19 16.12.2019
2499 Clouds 27 1021 69 16093 6.7 110 15:58 16.12.2019
2500 Clouds 26 1021 69 16093 5.7 90 15:38 16.12.2019
2501 Clouds 26 1021 69 16093 5.7 90 15:20 16.12.2019
2502 Clouds 26 1021 69 16093 5.7 90 14:57 16.12.2019
2503 Clouds 25 1021 78 16093 4.1 90 14:37 16.12.2019
2504 Clouds 24 1021 78 16093 4.1 90 14:19 16.12.2019
2505 Clouds 24 1021 78 16093 4.1 90 14:19 16.12.2019
2506 Clouds 23 1021 78 16093 4.1 90 13:56 16.12.2019
2507 Clouds 23 1021 78 16093 4.1 90 13:56 16.12.2019
2508 Clouds 23 1021 78 16093 3.6 90 13:37 16.12.2019
2509 Clouds 23 1021 78 16093 3.6 90 13:37 16.12.2019
2510 Clouds 23 1021 78 16093 3.6 90 13:19 16.12.2019
2511 Clouds 22 1021 73 16093 2.6 120 12:57 16.12.2019
2512 Clouds 23 1021 78 16093 3.6 90 12:57 16.12.2019
2513 Clouds 22 1020 78 16093 3.1 90 12:39 16.12.2019
2514 Clouds 22 1020 78 16093 3.1 90 12:18 16.12.2019
2515 Clouds 22 1020 78 16093 3.1 90 11:58 16.12.2019
2516 Clouds 22 1020 78 16093 3.1 80 11:40 16.12.2019
2517 Clouds 22 1020 78 16093 3.1 80 11:20 16.12.2019
2518 Clouds 22 1020 78 16093 3.1 80 11:20 16.12.2019
2519 Clouds 22 1020 78 16093 3.1 80 10:56 16.12.2019
2520 Clouds 23 1020 73 16093 4.1 100 10:37 16.12.2019
2521 Clouds 23 1020 73 16093 4.1 100 10:19 16.12.2019
2522 Clouds 23 1019 83 16093 4.1 90 09:45 16.12.2019
2523 Clouds 23 1020 73 16093 4.6 100 09:26 16.12.2019
2524 Clouds 23 1020 69 16093 4.6 100 08:41 16.12.2019
2525 Clouds 23 1020 69 16093 4.6 100 08:21 16.12.2019
2526 Clouds 24 1020 69 16093 4.6 100 07:59 16.12.2019
2527 Clouds 24 1020 73 16093 6.7 110 07:41 16.12.2019
2528 Clouds 24 1020 73 16093 6.7 110 07:20 16.12.2019
2529 Clouds 24 1020 64 16093 4.6 90 06:41 16.12.2019
2530 Clouds 24 1020 64 16093 4.6 90 06:22 16.12.2019
2531 Clouds 23 1021 69 16093 3.6 90 05:47 16.12.2019
2532 Clouds 23 1021 69 16093 3.6 90 05:29 16.12.2019
2533 Clouds 23 1021 61 16093 3.6 70 03:41 16.12.2019
2534 Clouds 23 1020 64 16093 3.6 90 01:58 16.12.2019
2535 Clouds 23 1020 64 16093 4.6 90 01:40 16.12.2019
2536 Clouds 23 1020 61 16093 4.1 100 00:42 16.12.2019
2537 Clouds 24 1020 61 16093 4.1 100 00:23 16.12.2019
2538 Clouds 24 1020 61 16093 4.1 100 23:58 15.12.2019
2539 Clouds 25 1019 54 16093 4.1 70 23:38 15.12.2019
2540 Clouds 25 1019 54 16093 4.1 70 23:19 15.12.2019
2541 Clouds 25 1019 54 16093 4.1 70 22:55 15.12.2019
2542 Clouds 26 1019 54 16093 3.6 80 22:37 15.12.2019
2543 Clouds 26 1019 54 16093 3.6 80 22:18 15.12.2019
2544 Clouds 26 1019 54 16093 3.6 80 21:55 15.12.2019
2545 Clouds 26 1019 51 16093 4.6 80 21:37 15.12.2019
2546 Clouds 26 1019 51 16093 4.6 80 21:19 15.12.2019
2547 Clouds 27 1019 51 16093 4.6 80 20:55 15.12.2019
2548 Clouds 27 1019 51 16093 5.1 90 20:37 15.12.2019
2549 Clouds 27 1019 51 16093 5.1 90 20:18 15.12.2019
2550 Clouds 27 1019 51 16093 5.1 90 19:56 15.12.2019
2551 Clouds 27 1019 51 16093 6.2 80 19:38 15.12.2019
2552 Clouds 27 1019 51 16093 6.2 80 19:18 15.12.2019
2553 Clouds 27 1019 51 16093 6.2 80 18:55 15.12.2019
2554 Clouds 27 1020 51 16093 4.6 80 18:37 15.12.2019
2555 Clouds 27 1020 51 16093 4.6 80 18:18 15.12.2019
2556 Clouds 26 1020 51 16093 5.1 90 17:55 15.12.2019
2557 Clouds 26 1020 61 16093 2.6 0 17:36 15.12.2019
2558 Clouds 25 1020 61 16093 2.6 0 17:18 15.12.2019
2559 Clouds 24 1021 64 16093 1.5 0 16:43 15.12.2019
2560 Clouds 23 1021 64 16093 1.5 0 16:23 15.12.2019
2561 Clouds 22 1021 64 16093 1.5 0 15:57 15.12.2019
2562 Clouds 20 1020 68 16093 2.1 40 15:39 15.12.2019
2563 Clouds 19 1020 68 16093 2.1 40 15:19 15.12.2019
2564 Clouds 18 1020 68 16093 2.1 40 14:56 15.12.2019
2565 Clouds 17 1020 72 16093 2.6 360 14:38 15.12.2019
2566 Clouds 17 1020 72 16093 2.6 360 14:38 15.12.2019
2567 Clouds 16 1020 72 16093 2.6 360 14:19 15.12.2019
2568 Clouds 15 1020 72 16093 2.6 360 13:59 15.12.2019
2569 Clear 15 1019 72 16093 2.6 360 13:39 15.12.2019
2570 Clear 14 1019 72 16093 2.6 360 13:20 15.12.2019
2571 Clear 15 1019 87 16093 2.1 310 12:57 15.12.2019
2572 Clear 15 1018 77 16093 2.1 350 12:39 15.12.2019
2573 Clear 15 1018 77 16093 2.1 350 12:21 15.12.2019
2574 Clear 15 1018 77 16093 2.1 350 11:59 15.12.2019
2575 Clear 15 1017 77 16093 2.1 360 11:38 15.12.2019
2576 Clear 15 1017 77 16093 2.1 360 11:19 15.12.2019
2577 Clear 15 1017 72 16093 2.1 340 10:56 15.12.2019
2578 Clear 16 1017 72 16093 2.1 340 10:37 15.12.2019
2579 Clear 16 1017 72 16093 2.1 340 10:19 15.12.2019
2580 Clear 16 1017 72 16093 2.1 340 09:57 15.12.2019
2581 Clear 16 1017 77 16093 1.5 330 09:37 15.12.2019
2582 Clear 16 1017 77 16093 1.5 330 09:19 15.12.2019
2583 Clear 17 1017 77 16093 1.5 280 08:42 15.12.2019
2584 Clear 17 1017 77 16093 1.5 280 08:23 15.12.2019
2585 Clear 17 1017 77 16093 1.5 280 07:57 15.12.2019
2586 Clear 17 1016 68 16093 2.6 0 07:38 15.12.2019
2587 Clear 18 1016 68 16093 2.6 0 06:59 15.12.2019
2588 Clear 18 1017 72 16093 3.6 320 06:24 15.12.2019
2589 Clear 19 1016 64 16093 3.6 320 05:42 15.12.2019
2590 Clear 19 1016 64 16093 3.6 320 05:20 15.12.2019
2591 Clear 21 1016 68 16093 3.6 310 04:19 15.12.2019
2592 Clear 23 1014 60 16093 3.1 280 02:49 15.12.2019
2593 Clear 23 1014 60 16093 3.1 280 02:30 15.12.2019
2594 Clouds 23 1013 61 16093 3.6 260 01:40 15.12.2019
2595 Clouds 24 1013 61 16093 3.6 260 01:18 15.12.2019
2596 Clouds 25 1012 61 16093 5.1 270 00:47 15.12.2019
2597 Clouds 25 1012 61 16093 5.1 270 00:47 15.12.2019
2598 Clouds 25 1012 61 16093 5.1 270 00:29 15.12.2019
2599 Clouds 26 1012 61 16093 5.7 260 23:41 14.12.2019
2600 Clouds 26 1012 61 16093 5.7 260 23:22 14.12.2019
2601 Clouds 27 1012 61 16093 5.7 260 22:59 14.12.2019
2602 Clouds 27 1011 54 16093 4.6 270 22:41 14.12.2019
2603 Clouds 27 1011 54 16093 4.6 270 22:22 14.12.2019
2604 Clouds 27 1011 54 16093 4.6 270 21:57 14.12.2019
2605 Clouds 27 1011 54 16093 6.2 260 21:38 14.12.2019
2606 Clouds 27 1011 54 16093 6.2 260 21:19 14.12.2019
2607 Clouds 27 1011 54 16093 6.2 260 21:19 14.12.2019
2608 Clouds 27 1011 54 16093 6.2 260 20:59 14.12.2019
2609 Clouds 27 1011 54 16093 7.2 250 20:40 14.12.2019
2610 Clouds 27 1011 54 16093 7.2 250 20:20 14.12.2019
2611 Clouds 28 1011 54 16093 7.2 250 19:57 14.12.2019
2612 Clouds 29 1011 51 16093 8.7 240 19:38 14.12.2019
2613 Clouds 29 1011 51 16093 8.7 240 19:20 14.12.2019
2614 Clouds 29 1011 51 16093 8.7 240 18:56 14.12.2019
2615 Clouds 29 1012 54 16093 8.2 250 18:38 14.12.2019
2616 Clouds 29 1012 54 16093 8.2 250 18:38 14.12.2019
2617 Clouds 29 1012 54 16093 8.2 250 18:19 14.12.2019
2618 Clouds 28 1011 70 16093 6.2 220 17:44 14.12.2019
2619 Clouds 28 1012 65 16093 6.7 250 17:24 14.12.2019
2620 Clouds 27 1012 65 16093 6.7 250 16:59 14.12.2019
2621 Clouds 27 1012 69 16093 5.7 240 16:40 14.12.2019
2622 Clouds 27 1012 69 16093 5.7 240 16:19 14.12.2019
2623 Clouds 26 1012 69 16093 5.1 230 15:43 14.12.2019
2624 Clouds 25 1012 69 16093 5.1 230 15:25 14.12.2019
2625 Clouds 24 1012 69 16093 5.1 230 14:59 14.12.2019
2626 Clouds 24 1012 78 16093 3.6 220 14:39 14.12.2019
2627 Clouds 23 1012 78 16093 3.6 220 14:20 14.12.2019
2628 Clouds 22 1012 78 16093 3.6 220 13:58 14.12.2019
2629 Clouds 21 1011 88 16093 3.1 190 13:39 14.12.2019
2630 Clouds 21 1011 88 16093 3.1 190 13:19 14.12.2019
2631 Clouds 21 1011 88 16093 3.1 190 12:56 14.12.2019
2632 Clouds 21 1011 83 16093 2.1 150 12:37 14.12.2019
2633 Clouds 21 1011 83 16093 2.1 150 12:19 14.12.2019
2634 Clouds 20 1011 88 16093 7.51 218 11:56 14.12.2019
2635 Clouds 20 1011 88 16093 7.52 215 11:37 14.12.2019
2636 Clouds 20 1011 88 16093 6.03 227 11:18 14.12.2019
2637 Clouds 20 1011 88 16093 6.23 219 10:55 14.12.2019
2638 Clouds 20 1011 88 16093 6.03 227 10:55 14.12.2019
2639 Clouds 20 1012 83 16093 6.23 219 10:37 14.12.2019
2640 Clouds 20 1012 83 16093 6.23 219 10:19 14.12.2019
2641 Clouds 21 1012 83 16093 6.03 227 09:41 14.12.2019
2642 Clouds 21 1012 83 16093 6.23 219 09:21 14.12.2019
2643 Clouds 21 1012 83 16093 6.03 227 08:56 14.12.2019
2644 Clouds 22 1011 78 16093 2.6 290 08:37 14.12.2019
2645 Clouds 22 1011 78 16093 2.6 290 08:18 14.12.2019
2646 Clouds 22 1010 78 16093 2.1 170 07:40 14.12.2019
2647 Clouds 23 1010 78 16093 2.1 170 07:20 14.12.2019
2648 Clouds 23 1010 78 16093 2.6 170 06:42 14.12.2019
2649 Clouds 23 1010 78 16093 2.6 170 06:22 14.12.2019
2650 Clouds 23 1011 78 16093 3.6 160 05:35 14.12.2019
2651 Clouds 23 1013 69 16093 3.1 220 03:34 14.12.2019
2652 Clear 23 1013 78 16093 2.6 250 02:23 14.12.2019
2653 Clear 23 1013 73 16093 3.1 240 01:44 14.12.2019
2654 Clouds 24 1012 73 16093 3.6 240 00:58 14.12.2019
2655 Clear 24 1013 69 16093 3.6 260 00:40 14.12.2019
2656 Clear 24 1013 69 16093 3.6 260 00:19 14.12.2019
2657 Clear 25 1013 61 16093 4.6 250 23:41 13.12.2019
2658 Clear 25 1013 61 16093 4.6 250 23:41 13.12.2019
2659 Clouds 26 1013 54 16093 3.6 220 23:19 13.12.2019
2660 Clouds 26 1013 54 16093 3.6 220 22:56 13.12.2019
2661 Clouds 26 1012 54 16093 4.1 240 22:37 13.12.2019
2662 Clouds 26 1012 54 16093 4.1 240 22:18 13.12.2019
2663 Clouds 27 1012 61 16093 5.1 200 21:44 13.12.2019
2664 Clouds 27 1012 61 16093 5.1 200 21:22 13.12.2019
2665 Clouds 27 1012 61 16093 5.1 200 20:59 13.12.2019
2666 Clouds 27 1013 61 16093 3.6 160 20:39 13.12.2019
2667 Clouds 27 1013 58 16093 4.6 210 20:20 13.12.2019
2668 Clouds 27 1014 69 16093 4.1 170 19:56 13.12.2019
2669 Clouds 27 1014 69 16093 4.1 170 19:38 13.12.2019
2670 Clouds 27 1014 69 16093 4.1 170 19:19 13.12.2019
2671 Clouds 27 1014 69 16093 4.1 150 18:55 13.12.2019
2672 Clouds 27 1015 69 16093 4.1 150 18:36 13.12.2019
2673 Clouds 27 1015 69 16093 4.1 150 18:18 13.12.2019
2674 Clouds 27 1015 69 16093 3.6 140 17:40 13.12.2019
2675 Clouds 27 1016 69 16093 4.1 150 17:19 13.12.2019
2676 Clouds 27 1016 78 16093 2.6 140 16:57 13.12.2019
2677 Clouds 27 1016 78 16093 2.6 140 16:57 13.12.2019
2678 Clouds 26 1016 78 16093 2.6 140 16:38 13.12.2019
2679 Clouds 26 1016 74 16093 3.6 130 16:20 13.12.2019
2680 Clouds 25 1016 78 16093 2.6 110 15:43 13.12.2019
2681 Clouds 25 1016 78 16093 2.6 110 15:22 13.12.2019
2682 Clouds 24 1016 74 11265 6.7 130 14:57 13.12.2019
2683 Clouds 24 1016 88 16093 2.1 110 14:39 13.12.2019
2684 Clouds 23 1016 88 16093 2.1 110 14:20 13.12.2019
2685 Clouds 23 1016 83 16093 1.5 110 13:44 13.12.2019
2686 Clouds 22 1016 83 16093 1.5 110 13:26 13.12.2019
2687 Rain 23 1016 78 16093 3.6 110 12:59 13.12.2019
2688 Rain 23 1016 78 16093 3.6 110 12:41 13.12.2019
2689 Rain 23 1016 78 16093 3.6 110 12:19 13.12.2019
2690 Clouds 23 1016 78 16093 3.6 110 11:45 13.12.2019
2691 Clouds 23 1016 78 16093 3.6 110 11:27 13.12.2019
2692 Clouds 23 1016 73 11265 4.6 120 10:58 13.12.2019
2693 Clouds 23 1016 78 16093 3.1 120 10:40 13.12.2019
2694 Clouds 23 1016 78 16093 3.1 120 10:21 13.12.2019
2695 Rain 23 1017 73 16093 4.1 110 09:43 13.12.2019
2696 Rain 23 1017 73 16093 4.1 110 09:22 13.12.2019
2697 Rain 23 1017 83 16093 2.1 130 08:59 13.12.2019
2698 Rain 23 1017 83 16093 2.1 130 08:40 13.12.2019
2699 Rain 23 1017 83 16093 2.1 130 08:22 13.12.2019
2700 Clouds 23 1018 73 16093 2.1 100 07:43 13.12.2019
2701 Clouds 23 1018 73 16093 2.1 100 07:20 13.12.2019
2702 Clouds 23 1019 64 16093 3.1 80 06:50 13.12.2019
2703 Clouds 23 1019 64 16093 3.1 80 06:28 13.12.2019
2704 Clouds 23 1019 69 16093 4.1 90 05:43 13.12.2019
2705 Clouds 23 1019 69 16093 4.1 90 05:20 13.12.2019
2706 Rain 23 1020 73 16093 3.1 90 04:33 13.12.2019
2707 Rain 23 1020 69 16093 4.1 100 03:29 13.12.2019
2708 Rain 23 1020 73 16093 2.6 110 02:32 13.12.2019
2709 Rain 23 1020 73 16093 2.6 110 02:32 13.12.2019
2710 Rain 23 1020 78 9656 5.1 70 01:40 13.12.2019
2711 Clouds 24 1020 78 16093 2.6 110 00:51 13.12.2019
2712 Clouds 24 1020 73 16093 3.6 120 00:32 13.12.2019
2713 Rain 25 1019 61 16093 6.2 100 23:47 12.12.2019
2714 Rain 25 1019 61 16093 6.2 100 23:47 12.12.2019
2715 Rain 25 1019 61 16093 6.2 100 23:27 12.12.2019
2716 Clouds 26 1020 65 16093 5.1 120 22:59 12.12.2019
2717 Clouds 26 1020 65 16093 5.1 120 22:41 12.12.2019
2718 Clouds 26 1020 65 16093 5.1 120 22:41 12.12.2019
2719 Clouds 26 1019 61 16093 5.1 120 22:22 12.12.2019
2720 Clouds 26 1020 61 16093 6.2 120 21:56 12.12.2019
2721 Clouds 26 1020 61 16093 6.2 120 21:56 12.12.2019
2722 Clouds 26 1020 61 16093 6.2 120 21:38 12.12.2019
2723 Clouds 27 1020 65 16093 5.1 120 21:20 12.12.2019
2724 Clouds 26 1020 65 16093 5.1 140 20:59 12.12.2019
2725 Clouds 26 1020 61 16093 5.1 100 20:41 12.12.2019
2726 Clouds 26 1020 61 16093 5.1 100 20:23 12.12.2019
2727 Rain 26 1021 74 16093 2.6 80 19:59 12.12.2019
2728 Rain 26 1021 74 16093 2.6 80 19:59 12.12.2019
2729 Rain 26 1021 74 16093 2.6 80 19:40 12.12.2019
2730 Rain 26 1021 74 16093 2.6 80 19:21 12.12.2019
2731 Rain 25 1021 78 16093 4.6 80 18:57 12.12.2019
2732 Rain 25 1021 78 16093 4.6 80 18:57 12.12.2019
2733 Rain 25 1021 78 16093 4.6 80 18:38 12.12.2019
2734 Rain 25 1022 83 16093 2.6 70 18:20 12.12.2019
2735 Rain 24 1023 88 16093 3.1 70 17:57 12.12.2019
2736 Rain 24 1023 88 6437 5.1 100 17:38 12.12.2019
2737 Rain 23 1023 88 6437 5.1 100 17:20 12.12.2019
2738 Rain 23 1022 100 16093 3.6 310 16:56 12.12.2019
2739 Rain 23 1022 100 16093 3.6 310 16:37 12.12.2019
2740 Rain 23 1023 83 16093 1.5 50 16:19 12.12.2019
2741 Rain 23 1023 94 16093 2.1 270 15:54 12.12.2019
2742 Rain 23 1023 94 16093 2.1 270 15:36 12.12.2019
2743 Rain 23 1023 88 16093 4.1 130 15:18 12.12.2019
2744 Rain 22 1023 88 4023 2.6 40 14:38 12.12.2019
2745 Rain 22 1023 88 4023 2.6 40 14:38 12.12.2019
2746 Rain 22 1022 94 8047 2.6 50 14:20 12.12.2019
2747 Rain 22 1022 88 9656 4.1 40 13:57 12.12.2019
2748 Rain 22 1022 88 9656 4.1 40 13:39 12.12.2019
2749 Rain 22 1022 88 16093 2.6 360 13:21 12.12.2019
2750 Rain 22 1022 94 16093 2.6 350 12:57 12.12.2019
2751 Rain 22 1022 94 16093 2.1 340 12:38 12.12.2019
2752 Rain 22 1022 94 4828 3.1 30 12:20 12.12.2019
2753 Rain 22 1021 94 11265 4.6 20 11:55 12.12.2019
2754 Rain 22 1021 100 14484 1.5 20 11:37 12.12.2019
2755 Rain 22 1021 88 16093 1.5 360 11:19 12.12.2019
2756 Rain 22 1021 100 11265 3.1 360 10:54 12.12.2019
2757 Rain 22 1021 94 16093 3.6 360 10:36 12.12.2019
2758 Rain 22 1021 100 16093 3.6 10 10:18 12.12.2019
2759 Rain 22 1021 100 16093 2.1 10 09:41 12.12.2019
2760 Rain 22 1021 88 16093 2.6 330 09:23 12.12.2019
2761 Rain 22 1022 94 16093 2.6 320 08:56 12.12.2019
2762 Rain 22 1022 94 16093 2.6 320 08:38 12.12.2019
2763 Rain 22 1022 94 16093 2.6 320 08:38 12.12.2019
2764 Rain 22 1022 88 16093 1.5 340 08:19 12.12.2019
2765 Rain 22 1022 88 16093 6.79 56 07:42 12.12.2019
2766 Rain 22 1022 88 16093 6.79 56 07:24 12.12.2019
2767 Rain 23 1021 94 16093 2.6 20 06:48 12.12.2019
2768 Rain 23 1022 94 11265 5.1 20 06:30 12.12.2019
2769 Rain 23 1023 88 16093 6.79 56 05:36 12.12.2019
2770 Rain 23 1023 83 11265 2.6 70 04:51 12.12.2019
2771 Rain 23 1023 83 11265 2.6 70 04:51 12.12.2019
2772 Rain 23 1022 94 16093 2.1 10 03:20 12.12.2019
2773 Rain 24 1022 94 2414 2.6 40 02:37 12.12.2019
2774 Rain 24 1022 83 16093 1.5 310 02:19 12.12.2019
2775 Clouds 24 1021 88 16093 3.43 95 01:37 12.12.2019
2776 Clouds 24 1021 88 16093 3.43 95 01:18 12.12.2019
2777 Rain 25 1021 78 16093 1.5 80 00:40 12.12.2019
2778 Rain 25 1021 78 16093 1.5 80 00:19 12.12.2019
2779 Rain 25 1021 73 11265 2.1 40 23:44 11.12.2019
2780 Clouds 26 1021 65 16093 3.83 117 23:20 11.12.2019
2781 Rain 26 1021 73 16093 3.6 70 22:57 11.12.2019
2782 Clouds 26 1020 78 16093 3.1 90 22:38 11.12.2019
2783 Clouds 26 1021 65 16093 2.6 340 22:19 11.12.2019
2784 Rain 27 1021 69 16093 2.6 270 21:57 11.12.2019
2785 Rain 27 1021 69 16093 2.6 270 21:37 11.12.2019
2786 Rain 27 1021 69 16093 5.7 360 21:19 11.12.2019
2787 Thunderstorm 27 1021 69 16093 4.1 130 20:56 11.12.2019
2788 Thunderstorm 27 1021 69 16093 4.1 130 20:37 11.12.2019
2789 Thunderstorm 27 1021 69 16093 4.1 130 20:37 11.12.2019
2790 Clouds 28 1020 65 16093 4.6 120 20:19 11.12.2019
2791 Haze 28 1021 74 9656 2.1 270 19:57 11.12.2019
2792 Clouds 29 1021 62 16093 5.1 150 19:38 11.12.2019
2793 Clouds 29 1021 62 16093 5.1 150 19:18 11.12.2019
2794 Clouds 29 1021 69 16093 4.1 160 18:40 11.12.2019
2795 Clouds 29 1021 69 16093 4.1 160 18:21 11.12.2019
2796 Haze 29 1022 69 9656 5.1 160 17:57 11.12.2019
2797 Haze 29 1022 69 9656 5.1 160 17:57 11.12.2019
2798 Clouds 29 1022 69 16093 4.6 140 17:39 11.12.2019
2799 Clouds 28 1022 69 16093 4.6 140 17:18 11.12.2019
2800 Clouds 28 1022 74 16093 6.2 150 16:57 11.12.2019
2801 Clouds 28 1022 74 16093 6.2 150 16:57 11.12.2019
2802 Clouds 28 1022 74 16093 6.2 150 16:38 11.12.2019
2803 Clouds 28 1022 74 16093 6.2 150 16:38 11.12.2019
2804 Clouds 28 1022 74 16093 4.6 140 16:20 11.12.2019
2805 Clouds 28 1022 78 16093 4.1 160 15:59 11.12.2019
2806 Clouds 27 1022 78 16093 4.1 160 15:39 11.12.2019
2807 Clouds 27 1022 74 16093 4.1 130 15:21 11.12.2019
2808 Clouds 26 1021 83 16093 2.6 130 14:56 11.12.2019
2809 Rain 25 1021 83 16093 2.6 130 14:37 11.12.2019
2810 Rain 25 1021 83 16093 2.6 130 14:19 11.12.2019
2811 Clouds 24 1021 83 16093 2.1 150 13:55 11.12.2019
2812 Rain 24 1021 83 16093 2.1 130 13:36 11.12.2019
2813 Rain 24 1021 83 16093 2.1 130 13:18 11.12.2019
2814 Rain 24 1020 100 16093 1.5 110 12:55 11.12.2019
2815 Rain 24 1020 100 16093 1.5 110 12:37 11.12.2019
2816 Rain 24 1020 83 16093 2.6 130 12:18 11.12.2019
2817 Rain 24 1020 88 16093 2.1 130 11:56 11.12.2019
2818 Rain 24 1020 94 4828 5.69 136 11:37 11.12.2019
2819 Rain 24 1020 94 4828 5.7 141 11:18 11.12.2019
2820 Clouds 24 1020 94 16093 5.7 141 10:44 11.12.2019
2821 Clouds 24 1020 94 16093 1.5 0 10:25 11.12.2019
2822 Clouds 24 1020 94 16093 2.1 140 09:58 11.12.2019
2823 Clouds 24 1020 88 16093 2.6 180 09:38 11.12.2019
2824 Clouds 24 1020 94 16093 2.1 140 09:20 11.12.2019
2825 Clouds 24 1020 94 16093 2.1 130 08:56 11.12.2019
2826 Clouds 25 1020 83 16093 2.6 140 08:37 11.12.2019
2827 Clouds 25 1020 83 16093 2.6 140 08:18 11.12.2019
2828 Mist 25 1020 83 8047 4.6 150 07:45 11.12.2019
2829 Clouds 24 1020 83 16093 3.6 120 07:25 11.12.2019
2830 Clouds 24 1020 88 16093 2.6 120 06:47 11.12.2019
2831 Clouds 24 1020 88 16093 1.5 130 06:25 11.12.2019
2832 Clouds 25 1021 94 16093 5.04 149 05:58 11.12.2019
2833 Clouds 25 1020 83 16093 3.6 130 05:37 11.12.2019
2834 Clouds 25 1021 94 16093 2.1 120 04:55 11.12.2019
2835 Clouds 25 1020 83 16093 3.1 110 03:41 11.12.2019
2836 Clouds 25 1020 83 16093 3.6 110 02:40 11.12.2019
2837 Clouds 25 1020 83 16093 3.1 110 01:23 11.12.2019
2838 Clouds 26 1020 83 16093 3.1 130 00:46 11.12.2019
2839 Clouds 26 1019 78 16093 3.6 130 00:21 11.12.2019
2840 Clouds 26 1019 83 16093 5.7 110 23:46 10.12.2019
2841 Clouds 26 1018 74 16093 5.7 140 23:28 10.12.2019
2842 Clouds 27 1018 74 16093 4.6 130 22:57 10.12.2019
2843 Clouds 27 1018 74 16093 4.6 130 22:39 10.12.2019
2844 Clouds 27 1018 74 16093 4.6 130 22:21 10.12.2019
2845 Clouds 28 1018 69 16093 4.6 130 21:55 10.12.2019
2846 Clouds 28 1018 69 16093 4.6 130 21:37 10.12.2019
2847 Clouds 28 1018 69 16093 4.6 130 21:19 10.12.2019
2848 Haze 28 1018 69 8047 5.7 140 20:56 10.12.2019
2849 Clouds 28 1018 69 16093 6.7 120 20:37 10.12.2019
2850 Clouds 28 1018 69 16093 6.7 120 20:37 10.12.2019
2851 Clouds 28 1018 69 16093 6.7 120 20:19 10.12.2019
2852 Clouds 28 1018 69 16093 6.7 120 20:19 10.12.2019
2853 Clouds 28 1019 69 16093 5.7 140 19:54 10.12.2019
2854 Clouds 28 1019 69 16093 5.7 140 19:36 10.12.2019
2855 Clouds 29 1019 69 16093 7.2 120 19:18 10.12.2019
2856 Clouds 29 1020 66 16093 6.7 150 18:40 10.12.2019
2857 Clouds 28 1020 66 16093 6.7 150 18:20 10.12.2019
2858 Clouds 28 1020 69 16093 6.7 130 17:58 10.12.2019
2859 Clouds 28 1020 69 16093 6.7 130 17:39 10.12.2019
2860 Clouds 28 1020 69 16093 6.7 130 17:20 10.12.2019
2861 Clouds 28 1021 69 16093 6.7 130 16:43 10.12.2019
2862 Clouds 28 1021 69 16093 7.2 120 16:21 10.12.2019
2863 Clouds 28 1021 69 16093 7.2 120 16:21 10.12.2019
2864 Clouds 27 1020 74 16093 7.7 130 15:59 10.12.2019
2865 Clouds 27 1020 74 16093 7.7 130 15:38 10.12.2019
2866 Clouds 27 1020 74 16093 5.7 120 15:18 10.12.2019
2867 Clouds 26 1020 78 16093 6.2 120 14:56 10.12.2019
2868 Clouds 26 1020 78 16093 6.2 120 14:37 10.12.2019
2869 Clouds 26 1020 78 16093 6.2 120 14:37 10.12.2019
2870 Clouds 25 1020 78 16093 3.6 130 14:19 10.12.2019
2871 Clouds 25 1020 88 16093 1.5 180 13:56 10.12.2019
2872 Clouds 24 1019 83 16093 2.6 120 13:38 10.12.2019
2873 Clouds 24 1019 83 16093 2.6 120 13:19 10.12.2019
2874 Clouds 24 1019 78 16093 4.1 110 12:45 10.12.2019
2875 Clouds 24 1019 78 16093 4.1 110 12:45 10.12.2019
2876 Clouds 24 1019 83 16093 3.6 110 12:25 10.12.2019
2877 Clouds 24 1019 83 16093 2.1 120 11:45 10.12.2019
2878 Clouds 24 1019 83 16093 2.1 120 11:25 10.12.2019
2879 Clouds 24 1019 83 16093 4.6 110 10:58 10.12.2019
2880 Clouds 24 1019 83 16093 4.6 110 10:40 10.12.2019
2881 Clouds 24 1019 83 16093 4.6 110 10:22 10.12.2019
2882 Clouds 24 1019 83 16093 3.1 110 09:56 10.12.2019
2883 Clouds 24 1019 83 16093 3.1 110 09:56 10.12.2019
2884 Clouds 24 1019 83 16093 3.1 110 09:38 10.12.2019
2885 Clouds 24 1019 83 16093 3.1 110 09:38 10.12.2019
2886 Clouds 24 1019 83 16093 3.1 110 09:20 10.12.2019
2887 Clouds 24 1019 83 16093 3.6 110 08:57 10.12.2019
2888 Clouds 24 1019 83 16093 3.6 110 08:38 10.12.2019
2889 Clouds 24 1019 83 16093 3.6 110 08:19 10.12.2019
2890 Clouds 24 1019 94 16093 2.6 110 07:44 10.12.2019
2891 Clouds 24 1019 83 16093 3.6 110 07:26 10.12.2019
2892 Clouds 24 1019 83 16093 3.6 110 07:26 10.12.2019
2893 Haze 24 1019 78 9656 5.7 140 06:49 10.12.2019
2894 Clouds 24 1020 83 16093 3.1 110 06:24 10.12.2019
2895 Rain 24 1020 78 16093 3.6 110 05:55 10.12.2019
2896 Rain 24 1020 78 16093 3.6 110 05:19 10.12.2019
2897 Clouds 24 1020 78 16093 3.1 110 03:54 10.12.2019
2898 Clouds 24 1019 74 16093 5.7 120 02:48 10.12.2019
2899 Clouds 24 1019 78 16093 4.1 110 01:54 10.12.2019
2900 Clouds 24 1019 78 16093 4.1 110 01:26 10.12.2019
2901 Clear 24 1019 78 16093 4.1 110 00:51 10.12.2019
2902 Clear 25 1019 78 16093 4.1 110 00:24 10.12.2019
2903 Clouds 25 1018 65 16093 4.6 110 23:55 09.12.2019
2904 Clouds 25 1018 65 16093 4.6 110 23:36 09.12.2019
2905 Clouds 26 1018 65 16093 4.6 110 23:18 09.12.2019
2906 Clouds 26 1018 61 16093 5.7 110 22:54 09.12.2019
2907 Clouds 26 1018 61 16093 5.7 110 22:36 09.12.2019
2908 Clouds 26 1018 61 16093 5.7 110 22:18 09.12.2019
2909 Clouds 27 1018 74 16093 4.6 90 21:54 09.12.2019
2910 Clouds 27 1018 74 16093 4.6 90 21:36 09.12.2019
2911 Clouds 27 1018 61 16093 6.2 110 21:18 09.12.2019
2912 Clouds 27 1018 54 16093 6.2 110 20:54 09.12.2019
2913 Clouds 27 1018 54 16093 6.2 110 20:36 09.12.2019
2914 Clouds 27 1018 54 16093 6.2 110 20:18 09.12.2019
2915 Clouds 27 1018 65 16093 5.7 100 19:54 09.12.2019
2916 Clouds 28 1019 54 16093 5.1 110 19:36 09.12.2019
2917 Clouds 28 1019 54 16093 5.1 110 19:18 09.12.2019
2918 Clouds 28 1020 54 16093 6.2 110 18:40 09.12.2019
2919 Clouds 28 1020 54 16093 6.2 110 18:20 09.12.2019
2920 Clouds 28 1020 54 16093 6.2 110 18:20 09.12.2019
2921 Clouds 27 1020 57 16093 5.1 100 17:59 09.12.2019
2922 Clouds 27 1020 57 16093 5.1 100 17:41 09.12.2019
2923 Clouds 27 1020 57 16093 5.1 100 17:21 09.12.2019
2924 Clouds 27 1021 57 16093 5.1 120 16:58 09.12.2019
2925 Clouds 27 1021 57 16093 5.1 120 16:39 09.12.2019
2926 Clouds 27 1021 57 16093 5.7 100 16:21 09.12.2019
2927 Clouds 26 1021 65 16093 3.6 120 15:57 09.12.2019
2928 Clouds 26 1021 65 16093 3.6 120 15:38 09.12.2019
2929 Clouds 26 1021 65 16093 3.6 120 15:38 09.12.2019
2930 Clouds 25 1021 65 16093 3.6 120 15:19 09.12.2019
2931 Clouds 23 1020 73 16093 5.58 121 14:59 09.12.2019
2932 Clouds 22 1020 73 16093 5.58 121 14:41 09.12.2019
2933 Clouds 21 1020 73 16093 4.35 122 14:18 09.12.2019
2934 Clouds 20 1020 82 16093 1.5 30 13:56 09.12.2019
2935 Clouds 19 1020 82 16093 1.5 30 13:37 09.12.2019
2936 Clouds 18 1020 82 16093 1.5 30 13:19 09.12.2019
2937 Clouds 18 1020 93 16093 4.57 121 12:55 09.12.2019
2938 Clouds 18 1020 77 16093 4.57 121 12:36 09.12.2019
2939 Clouds 18 1020 77 16093 4.57 121 12:18 09.12.2019
2940 Clouds 18 1019 82 16093 4.57 121 11:40 09.12.2019
2941 Clouds 18 1019 82 16093 4.94 112 11:22 09.12.2019
2942 Clouds 18 1019 82 16093 4.94 112 10:59 09.12.2019
2943 Clouds 19 1019 82 16093 4.94 112 10:39 09.12.2019
2944 Clouds 18 1019 82 16093 4.94 112 10:19 09.12.2019
2945 Mist 18 1019 100 4828 4.94 112 09:55 09.12.2019
2946 Mist 19 1019 100 4828 4.94 112 09:36 09.12.2019
2947 Clear 19 1019 100 16093 4.94 112 09:18 09.12.2019
2948 Mist 19 1019 100 4828 4.94 112 08:40 09.12.2019
2949 Clouds 20 1019 68 16093 2.1 110 08:22 09.12.2019
2950 Clouds 20 1020 64 16093 3.1 100 07:52 09.12.2019
2951 Clouds 20 1020 64 16093 3.1 100 07:34 09.12.2019
2952 Clouds 21 1020 64 16093 2.6 110 06:59 09.12.2019
2953 Clouds 21 1020 64 16093 2.6 110 06:32 09.12.2019
2954 Clouds 21 1020 64 16093 2.6 110 05:51 09.12.2019
2955 Clouds 22 1020 64 16093 2.6 110 05:25 09.12.2019
2956 Clouds 22 1021 64 16093 3.1 100 04:28 09.12.2019
2957 Clouds 22 1020 60 16093 4.6 90 02:46 09.12.2019
2958 Clouds 22 1020 57 16093 4.6 90 01:48 09.12.2019
2959 Clouds 23 1020 57 16093 4.6 90 01:28 09.12.2019
2960 Clear 23 1020 64 16093 3.6 100 00:39 09.12.2019
2961 Clouds 23 1020 53 16093 5.7 100 00:19 09.12.2019
2962 Clouds 24 1020 64 16093 6.2 70 23:39 08.12.2019
2963 Clouds 24 1020 64 16093 6.2 70 23:20 08.12.2019
2964 Clouds 25 1019 61 16093 4.6 90 22:56 08.12.2019
2965 Clouds 25 1019 61 16093 4.6 90 22:38 08.12.2019
2966 Clouds 25 1020 54 16093 4.6 80 22:18 08.12.2019
2967 Rain 25 1019 57 16093 5.7 90 21:57 08.12.2019
2968 Rain 25 1019 57 16093 5.7 90 21:38 08.12.2019
2969 Rain 25 1019 57 16093 5.7 90 21:19 08.12.2019
2970 Rain 25 1019 69 16093 5.7 100 20:57 08.12.2019
2971 Rain 26 1019 69 16093 5.7 100 20:38 08.12.2019
2972 Rain 26 1019 65 16093 7.7 110 20:19 08.12.2019
2973 Clouds 26 1020 54 16093 5.7 50 19:57 08.12.2019
2974 Clouds 26 1020 54 16093 5.7 50 19:39 08.12.2019
2975 Clouds 26 1020 54 16093 5.7 50 19:21 08.12.2019
2976 Clouds 26 1021 54 16093 5.7 90 18:55 08.12.2019
2977 Clouds 27 1021 54 16093 5.7 90 18:36 08.12.2019
2978 Clouds 27 1021 54 16093 5.7 90 18:18 08.12.2019
2979 Clouds 26 1021 57 16093 3.6 100 17:56 08.12.2019
2980 Clouds 26 1021 57 16093 3.6 100 17:37 08.12.2019
2981 Clouds 26 1021 57 16093 3.6 100 17:19 08.12.2019
2982 Clouds 26 1022 57 16093 3.6 100 16:55 08.12.2019
2983 Clouds 26 1022 57 16093 3.6 100 16:37 08.12.2019
2984 Clouds 25 1022 57 16093 3.6 100 16:19 08.12.2019
2985 Clouds 25 1021 64 16093 1.5 60 15:38 08.12.2019
2986 Clouds 24 1021 64 16093 1.5 60 15:19 08.12.2019
2987 Clouds 22 1021 68 16093 1.5 20 14:59 08.12.2019
2988 Clouds 21 1021 68 16093 1.5 20 14:39 08.12.2019
2989 Clouds 21 1021 68 16093 1.5 20 14:21 08.12.2019
2990 Clouds 20 1021 72 16093 2.1 360 13:57 08.12.2019
2991 Clouds 19 1021 72 16093 2.1 360 13:38 08.12.2019
2992 Clouds 19 1021 72 16093 2.1 360 13:20 08.12.2019
2993 Clouds 19 1020 72 16093 5.14 85 12:54 08.12.2019
2994 Clouds 19 1020 72 16093 5.14 85 12:36 08.12.2019
2995 Clouds 18 1020 72 16093 5.14 85 12:18 08.12.2019
2996 Clouds 18 1020 88 16093 5.14 85 11:39 08.12.2019
2997 Clouds 18 1020 88 16093 5.14 85 11:39 08.12.2019
2998 Clouds 18 1020 88 16093 4.82 84 11:20 08.12.2019
2999 Clouds 18 1019 72 16093 4.82 84 10:59 08.12.2019
3000 Clouds 18 1019 72 16093 4.82 84 10:38 08.12.2019
3001 Clouds 18 1019 72 16093 4.82 84 10:20 08.12.2019
3002 Clouds 18 1020 72 16093 4.82 84 09:57 08.12.2019
3003 Clouds 18 1020 72 16093 4.82 84 09:57 08.12.2019
3004 Clouds 18 1020 72 16093 4.82 84 09:38 08.12.2019
3005 Clouds 18 1020 72 16093 4.82 84 09:19 08.12.2019
3006 Clouds 18 1020 77 16093 1.5 340 08:58 08.12.2019
3007 Clouds 18 1020 77 16093 1.5 340 08:37 08.12.2019
3008 Clouds 18 1020 77 16093 1.5 340 08:19 08.12.2019
3009 Clear 18 1020 72 16093 5.07 71 07:43 08.12.2019
3010 Clear 18 1020 72 16093 5.07 71 07:20 08.12.2019
3011 Clouds 18 1020 64 16093 2.1 350 06:50 08.12.2019
3012 Clouds 18 1020 64 16093 2.1 350 06:22 08.12.2019
3013 Clouds 19 1021 64 16093 2.1 350 05:49 08.12.2019
3014 Clouds 18 1021 64 16093 2.1 350 05:18 08.12.2019
3015 Clouds 19 1021 68 16093 1.5 350 03:50 08.12.2019
3016 Clouds 19 1021 68 16093 1.5 350 03:23 08.12.2019
3017 Clear 20 1020 64 16093 5.18 61 02:39 08.12.2019
3018 Clouds 20 1020 60 16093 1.5 40 01:56 08.12.2019
3019 Clouds 21 1020 60 16093 1.5 40 01:23 08.12.2019
3020 Clouds 22 1020 56 16093 2.6 80 00:40 08.12.2019
3021 Clouds 22 1020 56 16093 2.6 80 00:21 08.12.2019
3022 Clouds 22 1020 56 16093 2.6 80 00:21 08.12.2019
3023 Clouds 23 1019 44 16093 2.6 60 23:41 07.12.2019
3024 Clouds 24 1019 44 16093 2.6 60 23:21 07.12.2019
3025 Clouds 24 1019 44 16093 2.6 60 23:21 07.12.2019
3026 Clouds 25 1019 44 16093 4.1 90 22:58 07.12.2019
3027 Clouds 25 1019 44 16093 4.1 90 22:40 07.12.2019
3028 Clouds 25 1019 44 16093 4.1 90 22:40 07.12.2019
3029 Clouds 25 1019 44 16093 4.1 90 22:40 07.12.2019
3030 Clouds 25 1019 44 16093 4.1 90 22:21 07.12.2019
3031 Clouds 26 1019 44 16093 4.1 110 21:56 07.12.2019
3032 Clouds 26 1019 44 16093 4.1 110 21:38 07.12.2019
3033 Clouds 26 1019 44 16093 4.1 110 21:19 07.12.2019
3034 Clouds 26 1019 39 16093 2.6 60 20:59 07.12.2019
3035 Clouds 26 1019 39 16093 2.6 60 20:37 07.12.2019
3036 Clouds 26 1019 39 16093 2.6 60 20:18 07.12.2019
3037 Clouds 26 1020 42 16093 3.1 60 19:56 07.12.2019
3038 Clouds 26 1020 42 16093 3.1 60 19:38 07.12.2019
3039 Clouds 26 1020 42 16093 3.1 60 19:20 07.12.2019
3040 Clouds 26 1021 44 16093 2.24 32 18:44 07.12.2019
3041 Clouds 26 1021 44 16093 2.24 32 18:20 07.12.2019
3042 Clouds 25 1022 50 16093 2.1 320 17:58 07.12.2019
3043 Clouds 25 1022 50 16093 2.1 320 17:40 07.12.2019
3044 Clouds 25 1022 50 16093 2.1 320 17:21 07.12.2019
3045 Clouds 24 1022 53 16093 1.5 360 16:57 07.12.2019
3046 Clouds 23 1022 53 16093 1.5 360 16:38 07.12.2019
3047 Clouds 23 1022 53 16093 1.5 360 16:20 07.12.2019
3048 Clouds 22 1022 60 16093 2.1 350 15:57 07.12.2019
3049 Clouds 21 1022 60 16093 2.1 350 15:38 07.12.2019
3050 Clouds 21 1022 60 16093 2.1 350 15:20 07.12.2019
3051 Clouds 18 1021 68 16093 3.7 341 14:42 07.12.2019
3052 Clouds 17 1021 68 16093 3.69 317 14:19 07.12.2019
3053 Clouds 16 1020 82 16093 1.5 360 13:56 07.12.2019
3054 Clouds 15 1020 82 16093 1.5 360 13:37 07.12.2019
3055 Clouds 15 1020 82 16093 1.5 360 13:19 07.12.2019
3056 Clouds 15 1020 82 16093 1.5 320 12:41 07.12.2019
3057 Clouds 15 1020 82 16093 1.5 320 12:23 07.12.2019
3058 Clouds 15 1019 87 16093 1.5 300 11:58 07.12.2019
3059 Clouds 15 1019 87 16093 1.5 300 11:40 07.12.2019
3060 Clouds 15 1019 87 16093 1.5 300 11:22 07.12.2019
3061 Clouds 15 1020 82 16093 2.31 274 10:39 07.12.2019
3062 Clouds 15 1020 82 16093 2.31 274 10:20 07.12.2019
3063 Clouds 15 1020 82 16093 2.31 274 09:58 07.12.2019
3064 Clouds 16 1020 82 16093 2.31 274 09:38 07.12.2019
3065 Clear 16 1020 87 16093 2.31 274 09:19 07.12.2019
3066 Clouds 16 1020 77 16093 1.5 270 08:43 07.12.2019
3067 Clouds 16 1020 77 16093 1.5 270 08:21 07.12.2019
3068 Clouds 16 1021 72 16093 1.5 290 07:47 07.12.2019
3069 Clouds 16 1021 72 16093 1.5 290 07:27 07.12.2019
3070 Clear 17 1022 82 16093 2.6 290 06:51 07.12.2019
3071 Clear 17 1022 82 16093 2.6 290 06:25 07.12.2019
3072 Clear 17 1022 77 16093 1.71 107 05:38 07.12.2019
3073 Clouds 18 1022 64 16093 1.75 116 04:19 07.12.2019
3074 Clouds 18 1022 72 16093 1.75 116 03:47 07.12.2019
3075 Clouds 19 1021 53 16093 1.5 160 02:22 07.12.2019
3076 Clear 20 1021 68 16093 3.59 101 01:35 07.12.2019
3077 Clouds 21 1020 56 16093 2.6 130 00:57 07.12.2019
3078 Clouds 22 1020 56 16093 2.6 130 00:21 07.12.2019
3079 Clouds 22 1020 49 16093 3.6 130 23:56 06.12.2019
3080 Clouds 23 1020 49 16093 3.6 130 23:38 06.12.2019
3081 Clouds 23 1020 49 16093 3.6 130 23:18 06.12.2019
3082 Clouds 24 1020 50 16093 2.6 170 22:39 06.12.2019
3083 Clouds 24 1020 50 16093 2.6 170 22:20 06.12.2019
3084 Clouds 25 1020 47 16093 4.1 140 21:58 06.12.2019
3085 Clouds 25 1020 47 16093 4.1 140 21:39 06.12.2019
3086 Clouds 25 1020 47 16093 4.1 140 21:20 06.12.2019
3087 Clouds 25 1020 44 16093 4.1 110 20:45 06.12.2019
3088 Clouds 25 1020 44 16093 4.1 110 20:25 06.12.2019
3089 Clouds 25 1020 41 16093 3.1 130 19:59 06.12.2019
3090 Clouds 25 1020 41 16093 3.1 130 19:40 06.12.2019
3091 Clouds 25 1020 41 16093 3.1 130 19:22 06.12.2019
3092 Clouds 25 1020 41 16093 3.1 130 19:22 06.12.2019
3093 Clouds 25 1020 41 16093 3.1 130 19:22 06.12.2019
3094 Clouds 25 1021 44 16093 4.1 100 18:58 06.12.2019
3095 Clouds 25 1021 44 16093 4.1 100 18:40 06.12.2019
3096 Clouds 25 1021 44 16093 4.1 100 18:20 06.12.2019
3097 Clouds 25 1022 50 16093 2.1 120 17:57 06.12.2019
3098 Clouds 25 1022 50 16093 2.1 120 17:39 06.12.2019
3099 Clouds 25 1022 50 16093 2.1 120 17:20 06.12.2019
3100 Clouds 23 1022 53 16093 2.1 30 16:56 06.12.2019
3101 Clouds 23 1022 53 16093 2.1 30 16:37 06.12.2019
3102 Clouds 22 1022 53 16093 2.1 30 16:18 06.12.2019
3103 Clouds 20 1022 56 16093 3.1 350 15:41 06.12.2019
3104 Clouds 19 1022 56 16093 3.1 350 15:21 06.12.2019
3105 Clouds 16 1022 63 16093 2.1 360 14:57 06.12.2019
3106 Clouds 16 1022 63 16093 2.1 360 14:39 06.12.2019
3107 Clouds 17 1022 63 16093 2.1 360 14:19 06.12.2019
3108 Clouds 15 1021 72 16093 1.5 350 13:45 06.12.2019
3109 Clouds 14 1021 72 16093 1.5 350 13:26 06.12.2019
3110 Clouds 14 1021 67 16093 1.5 350 12:56 06.12.2019
3111 Clouds 14 1021 67 16093 1.5 350 12:38 06.12.2019
3112 Clouds 14 1021 67 16093 1.5 350 12:19 06.12.2019
3113 Clouds 14 1020 67 16093 2.1 10 11:42 06.12.2019
3114 Clouds 14 1020 67 16093 2.1 10 11:23 06.12.2019
3115 Clouds 14 1020 67 16093 2.6 350 10:54 06.12.2019
3116 Clouds 14 1020 67 16093 2.6 350 10:36 06.12.2019
3117 Clouds 14 1020 67 16093 2.6 350 10:18 06.12.2019
3118 Clouds 14 1020 59 16093 2.1 340 09:54 06.12.2019
3119 Clouds 14 1020 59 16093 2.1 340 09:36 06.12.2019
3120 Clouds 14 1020 59 16093 2.1 340 09:18 06.12.2019
3121 Clouds 14 1021 48 16093 2.1 340 08:40 06.12.2019
3122 Clouds 14 1021 48 16093 2.1 340 08:21 06.12.2019
3123 Clouds 14 1021 51 16093 3.49 39 07:38 06.12.2019
3124 Clouds 14 1021 51 16093 3.49 39 07:20 06.12.2019
3125 Clouds 15 1021 48 16093 3.49 39 06:31 06.12.2019
3126 Clouds 15 1021 48 16093 3.49 39 06:31 06.12.2019
3127 Clouds 15 1021 51 16093 2.1 330 05:57 06.12.2019
3128 Clouds 15 1021 51 16093 2.1 330 05:38 06.12.2019
3129 Clouds 16 1021 48 16093 1.5 330 02:20 06.12.2019
3130 Clouds 16 1020 45 16093 2.6 330 01:43 06.12.2019
3131 Clear 18 1020 45 16093 2.1 360 00:49 06.12.2019
3132 Clear 18 1020 45 16093 2.1 360 00:22 06.12.2019
3133 Clouds 19 1019 35 16093 3.1 30 23:50 05.12.2019
3134 Clear 20 1019 40 16093 3.1 360 23:20 05.12.2019
3135 Clouds 21 1019 37 16093 3.1 340 22:58 05.12.2019
3136 Clouds 21 1019 37 16093 3.1 340 22:38 05.12.2019
3137 Clouds 21 1019 37 16093 3.1 340 22:18 05.12.2019
3138 Clouds 22 1018 40 16093 3.6 360 21:55 05.12.2019
3139 Clouds 22 1018 40 16093 3.6 360 21:37 05.12.2019
3140 Clouds 22 1018 40 16093 3.6 360 21:37 05.12.2019
3141 Clouds 22 1018 40 16093 3.6 360 21:19 05.12.2019
3142 Clouds 22 1018 40 16093 3.1 320 20:55 05.12.2019
3143 Clouds 22 1018 40 16093 3.1 320 20:36 05.12.2019
3144 Clouds 22 1018 40 16093 3.1 320 20:36 05.12.2019
3145 Clouds 22 1018 40 16093 3.1 320 20:18 05.12.2019
3146 Clouds 22 1018 40 16093 3.1 320 20:18 05.12.2019
3147 Clouds 22 1019 37 16093 3.6 340 19:40 05.12.2019
3148 Clouds 22 1019 37 16093 3.6 340 19:21 05.12.2019
3149 Clouds 22 1019 37 16093 3.6 340 18:58 05.12.2019
3150 Clouds 22 1020 37 16093 2.6 0 18:38 05.12.2019
3151 Clouds 22 1020 37 16093 2.6 0 18:38 05.12.2019
3152 Clouds 21 1020 37 16093 2.6 0 18:20 05.12.2019
3153 Clouds 20 1020 43 16093 3.6 350 17:40 05.12.2019
3154 Clouds 20 1020 43 16093 3.6 350 17:20 05.12.2019
3155 Clouds 19 1020 43 16093 3.6 350 16:58 05.12.2019
3156 Clouds 19 1020 52 16093 3.1 360 16:39 05.12.2019
3157 Clouds 19 1020 52 16093 3.1 360 16:39 05.12.2019
3158 Clouds 19 1020 52 16093 3.1 360 16:21 05.12.2019
3159 Clouds 18 1020 52 16093 3.1 360 15:58 05.12.2019
3160 Clouds 17 1020 63 16093 2.6 20 15:39 05.12.2019
3161 Clouds 17 1020 63 16093 2.6 20 15:20 05.12.2019
3162 Clouds 15 1020 63 16093 2.6 20 14:56 05.12.2019
3163 Clouds 14 1019 63 16093 1.5 30 14:38 05.12.2019
3164 Clouds 15 1019 63 16093 1.5 30 14:19 05.12.2019
3165 Clear 14 1019 82 16093 2.1 10 13:57 05.12.2019
3166 Clouds 13 1019 67 16093 2.1 360 13:39 05.12.2019
3167 Clear 12 1019 82 16093 2.1 10 13:20 05.12.2019
3168 Clear 12 1018 76 16093 2.6 350 12:57 05.12.2019
3169 Clear 12 1018 76 16093 1.5 350 12:38 05.12.2019
3170 Clear 13 1018 76 16093 1.5 350 12:20 05.12.2019
3171 Clear 13 1017 76 16093 1.5 340 11:39 05.12.2019
3172 Clouds 13 1017 62 16093 1.5 360 11:21 05.12.2019
3173 Clouds 13 1017 62 16093 1.5 360 10:58 05.12.2019
3174 Clear 13 1017 76 16093 2.6 330 10:40 05.12.2019
3175 Clear 13 1017 76 16093 2.6 330 10:19 05.12.2019
3176 Clear 13 1017 82 16093 3.1 310 09:55 05.12.2019
3177 Clear 13 1017 82 16093 3.1 310 09:37 05.12.2019
3178 Clear 13 1017 82 16093 3.1 310 09:18 05.12.2019
3179 Clear 13 1017 77 16093 2.6 320 08:39 05.12.2019
3180 Clouds 14 1017 72 16093 4.46 320 08:21 05.12.2019
3181 Clouds 14 1017 72 16093 4.46 320 08:21 05.12.2019
3182 Clouds 14 1017 72 16093 4.77 320 07:59 05.12.2019
3183 Clear 14 1017 77 16093 2.6 320 07:40 05.12.2019
3184 Clear 14 1017 77 16093 2.6 320 07:21 05.12.2019
3185 Clear 14 1017 82 16093 4.77 320 06:47 05.12.2019
3186 Clear 14 1017 82 16093 4.77 320 06:23 05.12.2019
3187 Clear 14 1017 72 16093 4.77 320 05:53 05.12.2019
3188 Clear 15 1017 72 16093 4.98 324 05:24 05.12.2019
3189 Clear 15 1017 72 16093 1.5 350 04:33 05.12.2019
3190 Clear 15 1017 72 16093 1.5 350 04:33 05.12.2019
3191 Clear 16 1016 72 16093 4.98 324 03:33 05.12.2019
3192 Clouds 17 1016 68 16093 4.98 324 02:41 05.12.2019
3193 Clouds 17 1016 68 16093 4.37 341 02:21 05.12.2019
3194 Clouds 18 1015 64 16093 2.1 360 01:49 05.12.2019
3195 Clouds 18 1015 64 16093 2.1 360 01:22 05.12.2019
3196 Clear 20 1015 60 16093 2.6 350 00:38 05.12.2019
3197 Clear 20 1015 60 16093 2.6 350 00:20 05.12.2019
3198 Clouds 21 1014 43 16093 1.5 0 23:45 04.12.2019
3199 Clouds 22 1014 43 16093 1.5 0 23:22 04.12.2019
3200 Clouds 22 1014 43 16093 1.5 0 22:57 04.12.2019
3201 Clouds 23 1014 41 16093 3.1 300 22:38 04.12.2019
3202 Clouds 23 1014 41 16093 3.1 300 22:19 04.12.2019
3203 Clouds 23 1014 41 16093 3.1 300 21:56 04.12.2019
3204 Clouds 23 1014 41 16093 3.1 300 21:56 04.12.2019
3205 Clouds 23 1014 44 16093 2.6 270 21:37 04.12.2019
3206 Clouds 23 1014 44 16093 2.6 270 21:19 04.12.2019
3207 Clouds 23 1014 44 16093 2.6 270 20:56 04.12.2019
3208 Clouds 23 1014 44 16093 2.6 270 20:56 04.12.2019
3209 Clouds 23 1014 47 16093 2.6 0 20:38 04.12.2019
3210 Clouds 23 1014 47 16093 2.6 0 20:20 04.12.2019
3211 Clouds 23 1014 47 16093 2.6 0 19:54 04.12.2019
3212 Clouds 23 1015 49 16093 3.1 0 19:36 04.12.2019
3213 Clouds 23 1015 49 16093 3.1 0 19:18 04.12.2019
3214 Clouds 23 1015 50 16093 5.7 310 18:41 04.12.2019
3215 Clouds 23 1016 49 16093 4.1 320 18:22 04.12.2019
3216 Clouds 23 1016 49 16093 4.1 320 18:22 04.12.2019
3217 Clouds 22 1016 49 16093 4.1 320 17:58 04.12.2019
3218 Clouds 22 1016 49 16093 4.1 320 17:58 04.12.2019
3219 Clouds 22 1016 53 16093 3.6 300 17:39 04.12.2019
3220 Clouds 22 1016 53 16093 3.6 300 17:19 04.12.2019
3221 Clear 21 1016 56 16093 5.1 330 16:56 04.12.2019
3222 Clouds 21 1017 56 16093 3.1 340 16:38 04.12.2019
3223 Clouds 21 1017 56 16093 3.1 340 16:38 04.12.2019
3224 Clouds 21 1017 56 16093 3.1 340 16:18 04.12.2019
3225 Clouds 19 1017 56 16093 3.1 340 15:54 04.12.2019
3226 Clouds 19 1016 63 16093 5.92 292 15:36 04.12.2019
3227 Clouds 19 1016 63 16093 5.92 292 15:18 04.12.2019
3228 Clouds 16 1016 72 16093 5.92 292 14:41 04.12.2019
3229 Clouds 14 1016 72 16093 6.96 300 14:23 04.12.2019
3230 Clear 13 1015 87 16093 6.96 300 13:56 04.12.2019
3231 Clear 12 1015 87 16093 6.96 300 13:37 04.12.2019
3232 Clear 11 1015 87 16093 6.56 303 13:18 04.12.2019
3233 Clouds 11 1014 76 16093 6.56 303 12:43 04.12.2019
3234 Clouds 11 1014 76 16093 6.56 303 12:23 04.12.2019
3235 Clouds 11 1014 82 16093 6.56 303 11:45 04.12.2019
3236 Clouds 11 1014 82 16093 6.56 303 11:27 04.12.2019
3237 Clouds 11 1014 82 16093 5.54 284 10:59 04.12.2019
3238 Clouds 11 1014 82 16093 5.54 284 10:41 04.12.2019
3239 Clouds 11 1014 82 16093 5.54 284 10:22 04.12.2019
3240 Clouds 11 1015 87 16093 5.54 284 09:46 04.12.2019
3241 Clouds 12 1014 82 16093 5.54 284 09:25 04.12.2019
3242 Clouds 12 1014 82 16093 5.54 284 09:25 04.12.2019
3243 Clouds 12 1014 82 16093 5.54 284 08:59 04.12.2019
3244 Clouds 11 1014 82 16093 5.54 284 08:38 04.12.2019
3245 Clouds 12 1014 82 16093 6.28 294 08:19 04.12.2019
3246 Clouds 12 1015 71 16093 6.28 294 07:42 04.12.2019
3247 Clouds 12 1015 71 16093 6.28 294 07:23 04.12.2019
3248 Clear 12 1015 76 16093 1.5 300 06:33 04.12.2019
3249 Clouds 12 1015 72 16093 1.5 250 05:48 04.12.2019
3250 Clouds 13 1015 72 16093 1.5 250 04:58 04.12.2019
3251 Clouds 13 1015 67 16093 1.5 290 03:54 04.12.2019
3252 Clouds 13 1015 67 16093 1.5 290 03:54 04.12.2019
3253 Clear 14 1015 63 16093 5.33 308 02:21 04.12.2019
3254 Clouds 16 1014 58 16093 2.1 10 00:50 04.12.2019
3255 Clouds 16 1014 52 16093 2.1 300 00:23 04.12.2019
3256 Clouds 17 1014 52 16093 2.1 300 23:56 03.12.2019
3257 Clouds 18 1014 48 16093 3.1 280 23:38 03.12.2019
3258 Clouds 18 1014 48 16093 3.1 280 23:19 03.12.2019
3259 Clouds 19 1014 45 16093 2.6 0 22:40 03.12.2019
3260 Clouds 19 1014 45 16093 2.6 0 22:19 03.12.2019
3261 Clouds 19 1014 45 16093 2.6 0 21:58 03.12.2019
3262 Clear 19 1014 45 16093 3.6 310 21:37 03.12.2019
3263 Clear 19 1014 45 16093 3.6 310 21:19 03.12.2019
3264 Clear 19 1014 45 16093 3.6 310 20:57 03.12.2019
3265 Clear 19 1014 45 16093 2.6 270 20:39 03.12.2019
3266 Clear 19 1014 45 16093 2.6 270 20:18 03.12.2019
3267 Clear 19 1014 45 16093 2.6 270 19:55 03.12.2019
3268 Clear 19 1015 45 16093 4.6 340 19:37 03.12.2019
3269 Clear 19 1015 45 16093 4.6 340 19:18 03.12.2019
3270 Clear 18 1015 45 16093 4.6 340 18:55 03.12.2019
3271 Clear 18 1016 48 16093 5.1 320 18:37 03.12.2019
3272 Clear 18 1016 48 16093 5.1 320 18:19 03.12.2019
3273 Clear 18 1016 48 16093 5.1 320 18:19 03.12.2019
3274 Clear 17 1017 42 16093 4.6 320 17:40 03.12.2019
3275 Clear 17 1017 42 16093 4.6 320 17:19 03.12.2019
3276 Clear 16 1017 42 16093 4.6 320 16:59 03.12.2019
3277 Clear 16 1018 41 16093 5.1 330 16:40 03.12.2019
3278 Clear 15 1018 41 16093 5.1 330 16:21 03.12.2019
3279 Clear 15 1018 41 16093 5.1 330 15:59 03.12.2019
3280 Clear 14 1017 54 16093 4.6 350 15:40 03.12.2019
3281 Clear 14 1017 54 16093 4.6 350 15:20 03.12.2019
3282 Clear 14 1017 54 16093 4.6 350 15:20 03.12.2019
3283 Clear 12 1017 54 16093 4.6 350 14:58 03.12.2019
3284 Clear 11 1017 62 16093 3.1 330 14:40 03.12.2019
3285 Clear 12 1017 62 16093 3.1 330 14:19 03.12.2019
3286 Clear 11 1016 71 16093 2.6 310 13:39 03.12.2019
3287 Clear 10 1016 71 16093 2.6 310 13:20 03.12.2019
3288 Clear 10 1016 71 16093 2.6 310 13:20 03.12.2019
3289 Clear 10 1016 71 16093 2.6 310 12:58 03.12.2019
3290 Clear 10 1016 71 16093 1.5 320 12:37 03.12.2019
3291 Clear 11 1016 71 16093 1.5 320 12:37 03.12.2019
3292 Clear 11 1016 71 16093 1.5 320 12:18 03.12.2019
3293 Clear 11 1016 71 16093 1.5 320 11:58 03.12.2019
3294 Clear 11 1015 71 16093 1.5 330 11:38 03.12.2019
3295 Clear 11 1015 71 16093 1.5 330 11:19 03.12.2019
3296 Clear 11 1015 71 16093 1.5 330 10:56 03.12.2019
3297 Clouds 11 1015 66 16093 3.6 330 10:38 03.12.2019
3298 Clouds 12 1015 66 16093 3.6 330 10:19 03.12.2019
3299 Clouds 12 1015 66 16093 3.6 320 09:45 03.12.2019
3300 Clouds 12 1015 66 16093 3.6 320 09:24 03.12.2019
3301 Clouds 12 1015 66 16093 3.6 320 08:57 03.12.2019
3302 Clouds 13 1015 67 16093 3.6 330 08:38 03.12.2019
3303 Clouds 13 1015 67 16093 3.6 330 08:20 03.12.2019
3304 Clouds 13 1015 71 16093 4.1 330 07:51 03.12.2019
3305 Clouds 13 1015 71 16093 4.1 330 07:51 03.12.2019
3306 Clouds 13 1015 71 16093 4.1 330 07:28 03.12.2019
3307 Clouds 14 1016 67 16093 4.1 320 06:45 03.12.2019
3308 Clouds 14 1016 67 16093 4.1 320 06:20 03.12.2019
3309 Clouds 15 1016 67 16093 4.1 320 05:53 03.12.2019
3310 Clouds 17 1015 59 16093 4.1 330 03:42 03.12.2019
3311 Clouds 17 1015 59 16093 4.1 330 03:22 03.12.2019
3312 Clouds 18 1015 59 16093 4.1 330 02:53 03.12.2019
3313 Clouds 18 1014 63 16093 7.2 330 02:32 03.12.2019
3314 Clouds 19 1014 56 16093 5.1 310 01:58 03.12.2019
3315 Clear 19 1013 56 16093 4.1 280 01:38 03.12.2019
3316 Clear 20 1013 56 16093 4.1 280 01:19 03.12.2019
3317 Clouds 21 1012 53 16093 4.6 280 00:41 03.12.2019
3318 Clouds 21 1012 53 16093 4.6 280 00:41 03.12.2019
3319 Clouds 21 1012 53 16093 4.6 280 00:23 03.12.2019
3320 Clouds 22 1012 50 16093 6.2 280 23:44 02.12.2019
3321 Clouds 23 1012 50 16093 6.2 280 23:22 02.12.2019
3322 Clouds 24 1012 50 16093 6.2 280 22:56 02.12.2019
3323 Clear 25 1011 47 16093 8.7 300 22:37 02.12.2019
3324 Clouds 26 1011 44 16093 5.7 280 22:19 02.12.2019
3325 Clouds 26 1011 42 16093 7.2 280 21:39 02.12.2019
3326 Clouds 27 1011 42 16093 7.2 280 21:20 02.12.2019
3327 Clouds 27 1011 42 16093 7.2 280 20:58 02.12.2019
3328 Clouds 28 1011 39 16093 8.2 260 20:39 02.12.2019
3329 Clouds 28 1011 39 16093 8.2 260 20:20 02.12.2019
3330 Clouds 28 1011 39 16093 8.2 260 19:59 02.12.2019
3331 Clouds 28 1011 54 16093 5.7 260 19:41 02.12.2019
3332 Clouds 28 1011 54 16093 5.7 260 19:21 02.12.2019
3333 Rain 27 1013 74 16093 4.1 270 18:48 02.12.2019
3334 Rain 27 1013 74 16093 4.1 270 18:48 02.12.2019
3335 Rain 27 1013 74 16093 4.1 270 18:24 02.12.2019
3336 Rain 27 1013 74 16093 4.1 270 17:59 02.12.2019
3337 Rain 27 1014 83 9656 5.1 290 17:41 02.12.2019
3338 Rain 26 1013 69 11265 8.2 270 17:21 02.12.2019
3339 Rain 26 1013 69 11265 8.2 270 17:21 02.12.2019
3340 Rain 26 1013 69 11265 8.2 270 16:57 02.12.2019
3341 Clouds 26 1014 74 16093 6.7 250 16:39 02.12.2019
3342 Clouds 26 1014 69 16093 5.1 240 16:18 02.12.2019
3343 Clouds 26 1014 69 16093 5.1 240 15:56 02.12.2019
3344 Clouds 25 1014 78 16093 6.7 220 15:38 02.12.2019
3345 Clouds 25 1014 78 16093 6.7 220 15:20 02.12.2019
3346 Clouds 25 1014 78 16093 6.7 220 15:20 02.12.2019
3347 Clouds 24 1014 78 16093 6.7 220 14:55 02.12.2019
3348 Clouds 23 1014 83 16093 5.1 220 14:37 02.12.2019
3349 Clouds 23 1014 83 16093 5.1 220 14:19 02.12.2019
3350 Clouds 23 1014 83 16093 5.1 220 13:54 02.12.2019
3351 Clouds 22 1014 78 16093 4.1 210 13:36 02.12.2019
3352 Clouds 22 1014 78 16093 4.1 210 13:18 02.12.2019
3353 Clouds 22 1013 83 16093 3.1 210 12:41 02.12.2019
3354 Clouds 22 1013 83 16093 3.1 210 12:20 02.12.2019
3355 Clouds 22 1013 83 16093 3.1 210 11:57 02.12.2019
3356 Clouds 22 1013 83 16093 4.1 230 11:37 02.12.2019
3357 Clouds 22 1013 83 16093 4.1 230 11:37 02.12.2019
3358 Clouds 22 1013 83 16093 4.1 230 11:19 02.12.2019
3359 Clouds 22 1013 83 16093 4.1 230 10:57 02.12.2019
3360 Clear 22 1014 83 16093 3.6 220 10:38 02.12.2019
3361 Clear 22 1014 83 16093 3.6 220 10:20 02.12.2019
3362 Clouds 22 1014 83 16093 2.6 210 09:42 02.12.2019
3363 Clouds 22 1014 83 16093 2.6 210 09:19 02.12.2019
3364 Clouds 22 1014 83 16093 2.6 210 08:59 02.12.2019
3365 Clear 22 1014 83 16093 3.1 200 08:40 02.12.2019
3366 Clear 22 1014 83 16093 3.1 200 08:22 02.12.2019
3367 Clouds 22 1015 78 16093 1.5 220 07:45 02.12.2019
3368 Clouds 22 1015 78 16093 1.5 220 07:25 02.12.2019
3369 Clouds 22 1015 78 16093 1.5 220 06:59 02.12.2019
3370 Clouds 22 1015 73 16093 2.1 210 06:39 02.12.2019
3371 Clouds 22 1015 73 16093 2.1 210 05:43 02.12.2019
3372 Clouds 22 1015 73 16093 2.1 210 04:59 02.12.2019
3373 Clear 23 1015 64 16093 2.6 210 03:19 02.12.2019
3374 Clear 23 1016 73 16093 3.1 250 02:45 02.12.2019
3375 Clouds 24 1016 57 16093 4.1 260 01:46 02.12.2019
3376 Clouds 25 1016 57 16093 4.1 260 01:19 02.12.2019
3377 Clouds 25 1015 54 16093 3.6 250 00:34 02.12.2019
3378 Clouds 26 1015 54 16093 3.6 250 23:59 01.12.2019
3379 Clouds 26 1014 54 16093 4.1 240 23:41 01.12.2019
3380 Clouds 26 1014 54 16093 4.1 240 23:21 01.12.2019
3381 Clouds 27 1014 54 16093 4.1 240 22:56 01.12.2019
3382 Clouds 27 1014 51 16093 5.1 250 22:38 01.12.2019
3383 Clouds 27 1014 51 16093 5.1 250 22:18 01.12.2019
3384 Clouds 28 1014 51 16093 5.1 250 21:56 01.12.2019
3385 Clouds 28 1014 48 16093 4.1 260 21:38 01.12.2019
3386 Clouds 28 1014 48 16093 4.1 260 21:19 01.12.2019
3387 Clouds 28 1014 48 16093 4.1 260 20:57 01.12.2019
3388 Clouds 28 1014 48 16093 5.1 200 20:39 01.12.2019
3389 Clouds 28 1014 48 16093 5.1 200 20:21 01.12.2019
3390 Clouds 28 1014 48 16093 5.1 200 19:55 01.12.2019
3391 Clouds 28 1014 54 16093 5.7 160 19:37 01.12.2019
3392 Clouds 28 1014 54 16093 5.7 160 19:37 01.12.2019
3393 Clouds 28 1014 54 16093 5.7 160 19:19 01.12.2019
3394 Clouds 28 1014 54 16093 5.7 160 18:55 01.12.2019
3395 Clouds 28 1015 51 16093 5.1 150 18:37 01.12.2019
3396 Clouds 27 1015 51 16093 5.1 150 18:18 01.12.2019
3397 Clouds 27 1015 51 16093 5.1 150 17:56 01.12.2019
3398 Clouds 27 1017 54 16093 3.6 170 17:38 01.12.2019
3399 Clouds 27 1017 54 16093 3.6 170 17:19 01.12.2019
3400 Clouds 26 1018 57 16093 4.6 150 16:44 01.12.2019
3401 Clouds 26 1018 57 16093 4.6 150 16:24 01.12.2019
3402 Clouds 25 1018 57 16093 4.6 150 15:58 01.12.2019
3403 Clouds 25 1018 57 16093 4.6 150 15:58 01.12.2019
3404 Clouds 25 1017 69 16093 2.1 160 15:40 01.12.2019
3405 Clouds 25 1017 69 16093 2.1 160 15:40 01.12.2019
3406 Clouds 24 1017 69 16093 2.1 160 15:20 01.12.2019
3407 Clouds 22 1017 78 16093 5.73 180 14:38 01.12.2019
3408 Clouds 21 1017 78 16093 3.88 188 14:19 01.12.2019
3409 Clouds 19 1016 82 16093 3.88 188 13:40 01.12.2019
3410 Clouds 19 1016 82 16093 4.28 192 13:22 01.12.2019
3411 Clouds 19 1016 77 16093 4.28 192 12:47 01.12.2019
3412 Clouds 19 1016 77 16093 4.28 192 12:20 01.12.2019
3413 Clouds 19 1016 77 16093 4.28 192 12:20 01.12.2019
3414 Clouds 19 1016 83 16093 4.28 192 11:44 01.12.2019
3415 Clouds 19 1016 83 16093 4.28 192 11:24 01.12.2019
3416 Clouds 19 1016 83 16093 4.93 167 10:55 01.12.2019
3417 Clouds 19 1016 83 16093 4.93 167 10:55 01.12.2019
3418 Clouds 19 1016 77 16093 4.93 167 10:37 01.12.2019
3419 Clouds 19 1016 77 16093 4.93 167 10:19 01.12.2019
3420 Clouds 20 1015 88 16093 4.93 167 09:41 01.12.2019
3421 Clouds 20 1015 93 16093 4.93 167 09:21 01.12.2019
3422 Clouds 20 1016 73 16093 4.93 167 08:49 01.12.2019
3423 Clouds 20 1016 73 16093 4.93 167 08:24 01.12.2019
3424 Clouds 20 1016 73 16093 5.33 142 07:54 01.12.2019
3425 Clouds 20 1016 73 16093 1.5 130 07:36 01.12.2019
3426 Clouds 20 1016 73 16093 1.5 130 07:18 01.12.2019
3427 Clouds 21 1016 69 16093 2.6 150 06:49 01.12.2019
3428 Clouds 21 1016 69 16093 1.5 110 05:57 01.12.2019
3429 Clouds 21 1016 73 16093 2.6 120 04:54 01.12.2019
3430 Clouds 21 1016 69 16093 3.1 120 04:22 01.12.2019
3431 Clouds 22 1016 69 16093 2.6 120 02:43 01.12.2019
3432 Clouds 22 1016 69 16093 2.6 120 02:24 01.12.2019
3433 Clouds 22 1016 69 16093 2.6 120 01:53 01.12.2019
3434 Clouds 22 1016 60 16093 3.6 100 01:29 01.12.2019
3435 Clouds 23 1016 64 16093 3.6 90 00:44 01.12.2019
3436 Clouds 23 1016 64 16093 3.6 90 00:26 01.12.2019
3437 Clear 24 1016 64 16093 4.1 90 23:45 30.11.2019
3438 Clouds 24 1016 61 16093 4.1 90 23:25 30.11.2019
3439 Clouds 25 1016 61 16093 4.1 90 22:58 30.11.2019
3440 Clouds 25 1016 54 16093 3.6 120 22:39 30.11.2019
3441 Clouds 25 1016 54 16093 3.6 120 22:20 30.11.2019
3442 Clouds 26 1016 54 16093 3.6 110 21:47 30.11.2019
3443 Clouds 26 1016 54 16093 3.6 110 21:28 30.11.2019
3444 Clouds 26 1016 54 16093 3.6 110 21:28 30.11.2019
3445 Clouds 26 1016 54 16093 3.6 110 20:58 30.11.2019
3446 Clouds 26 1016 54 16093 3.6 100 20:39 30.11.2019
3447 Clouds 27 1016 51 16093 4.1 110 20:19 30.11.2019
3448 Clouds 27 1016 51 16093 4.1 110 20:19 30.11.2019
3449 Clouds 27 1016 51 16093 4.1 110 19:56 30.11.2019
3450 Clouds 27 1017 51 16093 2.6 110 19:38 30.11.2019
3451 Clouds 27 1017 51 16093 2.6 110 19:20 30.11.2019
3452 Clouds 27 1017 51 16093 2.6 110 18:58 30.11.2019
3453 Clouds 27 1018 51 16093 3.1 100 18:38 30.11.2019
3454 Clouds 27 1018 51 16093 3.1 100 18:38 30.11.2019
3455 Clouds 27 1018 51 16093 3.1 100 18:20 30.11.2019
3456 Clouds 26 1018 51 16093 3.1 100 17:58 30.11.2019
3457 Clouds 26 1018 54 16093 1.5 80 17:39 30.11.2019
3458 Clouds 26 1018 54 16093 1.5 80 17:20 30.11.2019
3459 Clouds 26 1018 54 16093 1.5 80 16:57 30.11.2019
3460 Clouds 26 1018 54 16093 1.5 80 16:57 30.11.2019
3461 Clouds 25 1018 57 16093 2.1 50 16:39 30.11.2019
3462 Clouds 25 1018 57 16093 2.1 50 16:20 30.11.2019
3463 Clouds 24 1019 64 16093 2.94 97 15:42 30.11.2019
3464 Clouds 24 1019 64 16093 2.94 97 15:42 30.11.2019
3465 Clouds 23 1019 64 16093 2.94 97 15:19 30.11.2019
3466 Clouds 22 1019 64 16093 2.94 97 14:58 30.11.2019
3467 Clouds 21 1018 73 16093 2.1 340 14:38 30.11.2019
3468 Clouds 20 1018 73 16093 2.1 340 14:19 30.11.2019
3469 Clouds 19 1018 73 16093 2.1 340 13:58 30.11.2019
3470 Clouds 18 1018 82 16093 3.28 75 13:38 30.11.2019
3471 Clouds 18 1018 82 16093 3.28 75 13:20 30.11.2019
3472 Clouds 18 1017 77 16093 2.1 350 12:47 30.11.2019
3473 Clouds 18 1017 77 16093 2.1 350 12:29 30.11.2019
3474 Clouds 18 1017 77 16093 2.1 350 11:58 30.11.2019
3475 Clouds 18 1017 77 16093 1.5 340 11:40 30.11.2019
3476 Clouds 18 1017 77 16093 1.5 340 11:18 30.11.2019
3477 Clouds 18 1017 82 16093 4.51 63 10:45 30.11.2019
3478 Clouds 18 1017 82 16093 4.51 63 10:21 30.11.2019
3479 Clouds 18 1017 82 16093 4.51 63 09:59 30.11.2019
3480 Clouds 18 1017 77 16093 4.51 63 09:40 30.11.2019
3481 Clouds 19 1017 77 16093 4.51 63 09:20 30.11.2019
3482 Clouds 19 1017 77 16093 4.51 63 08:41 30.11.2019
3483 Clouds 19 1017 77 16093 5.6 55 08:19 30.11.2019
3484 Clouds 20 1018 68 16093 1.5 350 07:43 30.11.2019
3485 Clouds 20 1018 68 16093 1.5 350 07:24 30.11.2019
3486 Clouds 20 1018 68 16093 1.5 340 06:46 30.11.2019
3487 Clouds 20 1018 68 16093 1.5 340 06:28 30.11.2019
3488 Clouds 21 1019 68 16093 6.53 49 05:29 30.11.2019
3489 Clouds 22 1019 64 16093 1.5 360 03:40 30.11.2019
3490 Clouds 22 1018 60 16093 3.1 20 02:26 30.11.2019
3491 Clouds 23 1018 60 16093 3.1 20 01:56 30.11.2019
3492 Clouds 23 1018 60 16093 3.1 20 01:24 30.11.2019
3493 Clouds 23 1018 60 16093 4.1 30 00:46 30.11.2019
3494 Clouds 24 1018 60 16093 4.1 30 00:27 30.11.2019
3495 Clear 24 1018 61 16093 5.7 50 23:45 29.11.2019
3496 Clear 24 1018 61 16093 5.7 50 23:25 29.11.2019
3497 Clouds 25 1018 54 16093 5.1 60 22:58 29.11.2019
3498 Clouds 26 1017 51 16093 4.1 40 22:39 29.11.2019
3499 Clouds 26 1017 51 16093 4.1 40 22:21 29.11.2019
3500 Clouds 26 1017 51 16093 5.7 60 21:41 29.11.2019
3501 Clouds 27 1017 51 16093 5.7 60 21:22 29.11.2019
3502 Clouds 27 1017 51 16093 5.7 60 20:56 29.11.2019
3503 Clouds 27 1018 48 16093 4.6 60 20:37 29.11.2019
3504 Clouds 27 1018 48 16093 4.6 60 20:18 29.11.2019
3505 Clouds 27 1018 57 16093 6.7 30 19:55 29.11.2019
3506 Clouds 27 1018 51 16093 4.6 50 19:37 29.11.2019
3507 Clouds 27 1018 51 16093 4.6 50 19:19 29.11.2019
3508 Clouds 27 1019 51 16093 4.6 30 18:42 29.11.2019
3509 Clouds 27 1019 51 16093 4.6 30 18:24 29.11.2019
3510 Clouds 27 1019 51 16093 4.6 30 17:58 29.11.2019
3511 Clouds 27 1020 54 16093 3.1 350 17:40 29.11.2019
3512 Clouds 27 1020 54 16093 3.1 350 17:21 29.11.2019
3513 Clouds 25 1021 61 16093 3.6 350 16:43 29.11.2019
3514 Clouds 25 1021 61 16093 3.6 350 16:21 29.11.2019
3515 Clouds 23 1021 61 16093 3.6 350 15:57 29.11.2019
3516 Clouds 23 1021 68 16093 2.1 0 15:39 29.11.2019
3517 Clouds 22 1021 68 16093 2.1 0 15:20 29.11.2019
3518 Clouds 20 1020 68 16093 8.02 31 14:40 29.11.2019
3519 Clouds 20 1020 68 16093 5.98 3 14:22 29.11.2019
3520 Clear 19 1020 77 16093 1.5 340 13:58 29.11.2019
3521 Clear 18 1020 72 16093 2.1 0 13:38 29.11.2019
3522 Clear 18 1020 72 16093 2.1 0 13:20 29.11.2019
3523 Clear 18 1020 72 16093 3.1 0 12:44 29.11.2019
3524 Clear 18 1020 72 16093 3.1 0 12:25 29.11.2019
3525 Clear 18 1020 72 16093 3.1 0 11:57 29.11.2019
3526 Clear 18 1019 72 16093 3.1 340 11:38 29.11.2019
3527 Clear 18 1019 72 16093 3.1 340 11:19 29.11.2019
3528 Clear 18 1019 72 16093 3.1 340 10:58 29.11.2019
3529 Clear 18 1020 82 16093 2.6 340 10:39 29.11.2019
3530 Clear 18 1020 82 16093 2.6 340 10:21 29.11.2019
3531 Clear 19 1019 73 16093 2.6 340 09:59 29.11.2019
3532 Clear 19 1019 73 16093 2.1 0 09:39 29.11.2019
3533 Clear 19 1019 73 16093 2.1 0 09:21 29.11.2019
3534 Clear 19 1019 73 16093 2.1 0 08:55 29.11.2019
3535 Clear 19 1020 88 16093 3.1 350 08:37 29.11.2019
3536 Clear 19 1020 88 16093 3.1 350 08:19 29.11.2019
3537 Mist 19 1019 100 2414 1.5 310 07:42 29.11.2019
3538 Mist 19 1019 100 2414 1.5 310 07:42 29.11.2019
3539 Mist 19 1019 100 2414 1.5 310 07:23 29.11.2019
3540 Clear 20 1020 88 16093 2.6 360 06:49 29.11.2019
3541 Clear 20 1020 88 16093 2.6 360 06:28 29.11.2019
3542 Clear 21 1020 83 16093 2.6 360 05:46 29.11.2019
3543 Clouds 21 1020 78 16093 2.6 350 05:23 29.11.2019
3544 -273 0 0 0 0 0 05:23 29.11.2019
3545 Clear 22 1020 88 16093 3.1 310 03:41 29.11.2019
3546 Clear 22 1020 88 16093 3.1 310 03:18 29.11.2019
3547 Clear 22 1020 78 16093 7.7 9 02:25 29.11.2019
3548 Clear 23 1020 83 16093 6.84 19 01:45 29.11.2019
3549 Clear 23 1020 83 16093 6.84 19 01:23 29.11.2019
3550 Clear 24 1019 78 16093 3.1 60 00:40 29.11.2019
3551 Clear 24 1019 78 16093 3.1 60 00:18 29.11.2019
3552 Clear 25 1019 74 16093 4.6 60 23:42 28.11.2019
3553 Clouds 26 1019 61 16093 3.6 60 23:21 28.11.2019
3554 Clouds 26 1019 61 16093 3.6 60 22:57 28.11.2019
3555 Clouds 27 1019 45 16093 4.1 20 22:37 28.11.2019
3556 Clouds 27 1019 45 16093 4.1 20 22:37 28.11.2019
3557 Clouds 27 1019 45 16093 4.1 20 22:19 28.11.2019
3558 Clouds 28 1019 45 16093 4.1 20 21:55 28.11.2019
3559 Clear 28 1019 45 16093 1.5 10 21:36 28.11.2019
3560 Clear 28 1019 45 16093 1.5 10 21:18 28.11.2019
3561 Clear 28 1019 45 16093 2.6 20 20:42 28.11.2019
3562 Clear 28 1019 45 16093 2.6 20 20:22 28.11.2019
3563 Clear 28 1019 45 16093 2.6 20 19:58 28.11.2019
3564 Clear 28 1020 48 16093 3.1 0 19:40 28.11.2019
3565 Clear 28 1020 48 16093 3.1 0 19:22 28.11.2019
3566 Clear 27 1020 48 16093 3.1 0 18:59 28.11.2019
3567 Clear 27 1022 47 16093 3.6 340 18:39 28.11.2019
3568 Clear 27 1022 47 16093 3.6 340 18:18 28.11.2019
3569 Clear 27 1022 47 16093 3.6 340 17:59 28.11.2019
3570 Clear 27 1023 54 16093 3.6 330 17:41 28.11.2019
3571 Clear 26 1023 54 16093 3.6 330 17:21 28.11.2019
3572 -273 0 0 0 0 0 16:56 28.11.2019
3573 Clear 26 1023 54 16093 3.6 330 16:56 28.11.2019
3574 -273 0 0 0 0 0 16:55 28.11.2019
3575 Clear 25 1023 61 16093 2.6 0 16:37 28.11.2019
3576 Clear 25 1023 61 16093 2.6 0 16:18 28.11.2019
3577 Clear 23 1023 73 11265 2.6 350 15:41 28.11.2019
3578 Clear 23 1023 73 11265 2.6 350 15:20 28.11.2019
3579 Clear 22 1023 73 11265 2.6 350 14:58 28.11.2019
3580 Mist 21 1023 83 9656 2.1 360 14:40 28.11.2019
3581 Rain 20 1023 83 9656 2.1 360 14:20 28.11.2019
3582 Rain 19 1023 83 9656 2.1 360 13:55 28.11.2019
3583 Rain 18 1022 88 6437 2.1 340 13:37 28.11.2019
3584 Mist 18 1022 88 6437 2.1 340 13:19 28.11.2019
3585 Mist 18 1022 88 4828 2.1 330 12:41 28.11.2019
3586 Mist 18 1022 88 4828 2.1 330 12:23 28.11.2019
3587 Mist 18 1022 88 2414 1.5 340 11:57 28.11.2019
3588 Mist 18 1021 100 2012 4.43 346 11:39 28.11.2019
3589 Mist 18 1021 100 2012 2.86 5 11:20 28.11.2019
3590 Mist 18 1021 93 2816 1.5 320 10:43 28.11.2019
3591 Mist 18 1021 93 2816 1.5 320 10:22 28.11.2019
3592 Clear 19 1021 88 11265 2.86 5 09:59 28.11.2019
3593 Clear 19 1021 83 16093 1.5 330 09:40 28.11.2019
3594 Clear 19 1021 83 16093 1.5 330 09:20 28.11.2019
3595 Clear 19 1021 83 16093 1.5 330 09:20 28.11.2019
3596 Clear 19 1021 83 16093 1.5 330 09:20 28.11.2019
3597 Clear 19 1021 83 16093 1.5 330 08:54 28.11.2019
3598 Mist 19 1021 100 1609 2.86 5 08:36 28.11.2019
3599 Mist 19 1021 100 1609 2.6 62 08:18 28.11.2019
3600 Fog 19 1021 100 402 2.6 62 07:41 28.11.2019
3601 Fog 19 1021 100 402 2.6 62 07:23 28.11.2019
3602 Fog 19 1021 100 402 1.5 290 06:43 28.11.2019
3603 Fog 19 1021 100 402 1.5 290 06:18 28.11.2019
3604 Mist 20 1021 100 2414 1.5 300 05:44 28.11.2019
3605 Clouds 20 1022 78 16093 4.64 45 04:54 28.11.2019
3606 Clouds 22 1021 69 16093 2.1 60 02:36 28.11.2019
3607 Clear 23 1021 78 16093 2.1 70 01:28 28.11.2019
3608 Clouds 24 1020 65 16093 2.6 120 00:43 28.11.2019
3609 Clouds 24 1020 65 16093 2.6 120 00:20 28.11.2019
3610 Clouds 25 1020 61 16093 3.6 130 23:40 27.11.2019
3611 Clouds 25 1020 61 16093 3.6 130 23:22 27.11.2019
3612 Clouds 26 1020 61 16093 3.6 130 22:58 27.11.2019
3613 Clouds 26 1019 57 16093 4.1 120 22:38 27.11.2019
3614 Clouds 27 1019 57 16093 4.1 120 22:19 27.11.2019
3615 Clouds 27 1019 57 16093 4.1 120 21:56 27.11.2019
3616 Clouds 27 1019 57 16093 4.1 120 21:56 27.11.2019
3617 Clouds 27 1020 54 16093 2.1 160 21:37 27.11.2019
3618 Clouds 27 1020 54 16093 2.1 160 21:19 27.11.2019
3619 Clouds 27 1020 54 16093 2.1 160 20:57 27.11.2019
3620 Clouds 28 1020 54 16093 2.1 0 20:38 27.11.2019
3621 Clouds 28 1020 54 16093 2.1 0 20:19 27.11.2019
3622 Clouds 28 1020 54 16093 2.1 0 19:57 27.11.2019
3623 Clouds 28 1020 54 16093 4.1 120 19:38 27.11.2019
3624 Clouds 28 1020 54 16093 4.1 120 19:19 27.11.2019
3625 Clouds 28 1020 54 16093 4.1 120 18:58 27.11.2019
3626 Clouds 28 1021 54 16093 1.8 109 18:36 27.11.2019
3627 Clouds 28 1021 54 16093 1.8 109 18:18 27.11.2019
3628 Clouds 27 1021 54 16093 1.8 109 17:56 27.11.2019
3629 Smoke 27 1021 57 16093 2.6 0 17:37 27.11.2019
3630 Clouds 27 1021 57 16093 3.1 120 17:18 27.11.2019
3631 -273 0 0 0 0 0 16:56 27.11.2019
3632 Clouds 27 1021 57 16093 3.1 120 16:55 27.11.2019
3633 Clouds 27 1021 57 16093 3.1 120 16:55 27.11.2019
3634 Clouds 27 1021 61 16093 3.1 120 16:36 27.11.2019
3635 Clouds 26 1021 61 16093 3.1 120 16:18 27.11.2019
3636 Clouds 25 1021 61 16093 3.1 120 15:56 27.11.2019
3637 Clouds 25 1021 69 16093 2.1 110 15:37 27.11.2019
3638 Clouds 24 1021 69 16093 2.1 110 15:19 27.11.2019
3639 Clouds 22 1021 69 16093 2.1 110 14:56 27.11.2019
3640 Clear 22 1021 73 16093 3.6 136 14:38 27.11.2019
3641 Clear 20 1021 73 16093 0.72 44 14:19 27.11.2019
3642 Clear 20 1021 73 16093 0.72 44 14:19 27.11.2019
3643 Clear 19 1021 73 16093 0.72 44 13:55 27.11.2019
3644 Rain 18 1020 77 16093 0.72 44 13:37 27.11.2019
3645 Clear 17 1020 77 16093 0.39 24 13:18 27.11.2019
3646 Rain 17 1020 100 2816 0.39 24 12:41 27.11.2019
3647 Mist 17 1020 100 2816 0.39 24 12:21 27.11.2019
3648 Mist 17 1019 93 6437 0.39 24 11:56 27.11.2019
3649 Clear 17 1018 82 16093 0.39 24 11:36 27.11.2019
3650 Clear 17 1018 82 16093 2.6 137 11:18 27.11.2019
3651 Clear 17 1018 82 16093 2.6 137 10:46 27.11.2019
3652 Clear 17 1018 82 16093 2.6 137 10:24 27.11.2019
3653 Clear 17 1018 82 16093 2.6 137 09:57 27.11.2019
3654 Clear 17 1018 77 16093 2.6 137 09:39 27.11.2019
3655 Clear 17 1018 77 16093 2.6 137 09:18 27.11.2019
3656 Clear 17 1019 77 16093 2.6 137 08:42 27.11.2019
3657 Clear 17 1019 77 16093 3.35 132 08:22 27.11.2019
3658 Clouds 17 1019 72 16093 3.35 132 07:47 27.11.2019
3659 Clouds 17 1019 72 16093 3.35 132 07:29 27.11.2019
3660 Clouds 17 1019 68 16093 3.35 132 06:54 27.11.2019
3661 Clouds 18 1019 68 16093 3.35 132 06:36 27.11.2019
3662 Clouds 18 1019 68 16093 3.35 132 05:47 27.11.2019
3663 Clouds 18 1019 68 16093 2.76 107 05:22 27.11.2019
3664 Clouds 18 1019 64 16093 2.76 107 04:49 27.11.2019
3665 Clouds 18 1019 64 16093 2.76 107 04:30 27.11.2019
3666 Clouds 19 1018 64 16093 2.76 107 03:41 27.11.2019
3667 Clouds 19 1018 64 16093 2.76 107 03:20 27.11.2019
3668 Clear 19 1018 60 16093 1.5 70 02:28 27.11.2019
3669 Clouds 21 1017 49 16093 2.1 130 00:50 27.11.2019
3670 Clouds 21 1017 49 16093 2.1 130 00:30 27.11.2019
3671 Clear 23 1017 68 16093 2.6 100 23:55 26.11.2019
3672 Clouds 23 1016 50 16093 3.6 110 23:37 26.11.2019
3673 Clouds 23 1016 50 16093 3.6 110 23:18 26.11.2019
3674 Clouds 24 1016 44 16093 3.1 110 22:39 26.11.2019
3675 Clouds 25 1016 44 16093 3.1 110 22:20 26.11.2019
3676 Clouds 25 1016 44 16093 3.1 110 21:59 26.11.2019
3677 Clouds 25 1016 44 16093 2.1 140 21:38 26.11.2019
3678 Clouds 26 1016 44 16093 2.1 140 21:20 26.11.2019
3679 Clouds 25 1016 44 16093 2.1 140 20:57 26.11.2019
3680 Clouds 25 1016 44 16093 3.6 100 20:37 26.11.2019
3681 Clouds 25 1016 44 16093 3.6 100 20:19 26.11.2019
3682 Clear 25 1016 50 16093 2.1 56 19:55 26.11.2019
3683 Clouds 25 1017 41 16093 2.1 80 19:37 26.11.2019
3684 Clouds 25 1017 41 16093 2.1 80 19:19 26.11.2019
3685 Clouds 25 1017 41 16093 2.1 80 18:57 26.11.2019
3686 Clouds 25 1018 44 16093 2.1 0 18:39 26.11.2019
3687 Clouds 25 1018 44 16093 2.1 0 18:20 26.11.2019
3688 Clouds 25 1018 44 16093 2.1 0 18:20 26.11.2019
3689 Clear 25 1018 44 16093 2.6 300 17:57 26.11.2019
3690 Clouds 24 1018 50 16093 2.1 80 17:38 26.11.2019
3691 Clouds 24 1018 50 16093 2.1 80 17:20 26.11.2019
3692 Clear 24 1018 50 16093 2.1 0 16:56 26.11.2019
3693 Clouds 23 1018 53 16093 1.5 50 16:37 26.11.2019
3694 Clouds 23 1018 53 16093 1.5 50 16:18 26.11.2019
3695 Clouds 22 1018 53 16093 1.5 50 15:58 26.11.2019
3696 Clouds 21 1018 53 16093 2.1 350 15:37 26.11.2019
3697 Clouds 21 1018 53 16093 2.1 350 15:19 26.11.2019
3698 Clouds 19 1017 59 16093 2.6 360 14:46 26.11.2019
3699 Clouds 18 1017 59 16093 2.6 360 14:24 26.11.2019
3700 Clouds 16 1016 63 16093 2.1 10 13:45 26.11.2019
3701 Clouds 15 1016 63 16093 2.1 10 13:25 26.11.2019
3702 Clouds 15 1016 63 16093 2.1 10 12:58 26.11.2019
3703 Clouds 15 1016 67 16093 2.1 20 12:38 26.11.2019
3704 Clouds 15 1016 67 16093 2.1 20 12:19 26.11.2019
3705 Clouds 15 1015 63 16093 2.1 20 11:56 26.11.2019
3706 Clouds 15 1015 63 16093 2.1 20 11:38 26.11.2019
3707 Clouds 15 1015 63 16093 2.1 20 11:19 26.11.2019
3708 Clouds 15 1015 68 16093 2.1 10 10:57 26.11.2019
3709 Clouds 16 1015 68 16093 2.1 10 10:39 26.11.2019
3710 Clouds 16 1015 68 16093 2.1 10 10:20 26.11.2019
3711 Clouds 16 1015 68 16093 2.74 1 09:44 26.11.2019
3712 Clouds 16 1015 68 16093 2.74 1 09:25 26.11.2019
3713 Clouds 16 1015 68 16093 2.74 1 08:59 26.11.2019
3714 Clouds 16 1015 63 16093 2.1 10 08:38 26.11.2019
3715 Clouds 16 1015 63 16093 2.1 10 08:20 26.11.2019
3716 Clouds 16 1015 63 16093 1.5 360 07:43 26.11.2019
3717 Clouds 16 1015 63 16093 1.5 360 07:24 26.11.2019
3718 Clouds 17 1015 68 16093 1.5 10 06:54 26.11.2019
3719 Clouds 17 1015 68 16093 1.5 10 06:21 26.11.2019
3720 Clouds 17 1015 68 16093 1.5 360 05:36 26.11.2019
3721 Clouds 18 1015 72 16093 1.5 30 03:43 26.11.2019
3722 Clouds 19 1014 77 16093 5.4 342 01:53 26.11.2019
3723 Clouds 19 1014 60 16093 2.6 30 01:28 26.11.2019
3724 Clear 20 1014 64 16093 3.1 10 00:48 26.11.2019
3725 Clear 20 1014 64 16093 3.1 10 00:21 26.11.2019
3726 Clouds 22 1013 56 16093 4.32 338 23:39 25.11.2019
3727 Clouds 22 1013 56 16093 4.32 338 23:39 25.11.2019
3728 Clouds 22 1013 56 16093 4.56 306 23:20 25.11.2019
3729 Clear 23 1014 64 16093 5.1 350 22:56 25.11.2019
3730 Clouds 23 1013 53 16093 2.1 0 22:37 25.11.2019
3731 Clouds 23 1013 53 16093 2.1 0 22:18 25.11.2019
3732 Clouds 24 1013 53 16093 2.1 0 21:56 25.11.2019
3733 Clouds 24 1013 50 16093 3.6 300 21:38 25.11.2019
3734 Clear 24 1013 57 16093 5.1 300 21:18 25.11.2019
3735 Clouds 24 1013 53 16093 3.1 320 20:55 25.11.2019
3736 Clouds 24 1013 53 16093 3.1 320 20:36 25.11.2019
3737 Clouds 24 1013 53 16093 3.1 320 20:18 25.11.2019
3738 Clouds 24 1013 53 16093 3.1 320 19:54 25.11.2019
3739 Clouds 24 1013 53 16093 3.1 320 19:54 25.11.2019
3740 Clouds 24 1013 50 16093 3.1 320 19:36 25.11.2019
3741 Clouds 24 1013 50 16093 3.1 320 19:18 25.11.2019
3742 Clear 23 1013 56 16093 4.1 350 18:55 25.11.2019
3743 Clouds 24 1014 53 16093 3.1 0 18:37 25.11.2019
3744 Clouds 23 1014 53 16093 3.1 0 18:18 25.11.2019
3745 Clouds 23 1015 56 16093 2.6 320 17:55 25.11.2019
3746 Clouds 22 1015 56 16093 2.6 320 17:36 25.11.2019
3747 Clouds 22 1015 56 16093 2.6 320 17:36 25.11.2019
3748 Clouds 22 1015 56 16093 2.6 320 17:18 25.11.2019
3749 Clouds 21 1015 60 16093 1.5 0 16:42 25.11.2019
3750 Clouds 21 1015 60 16093 1.5 0 16:23 25.11.2019
3751 Clouds 19 1015 60 16093 1.5 0 15:58 25.11.2019
3752 Clear 18 1015 68 16093 2.6 40 15:39 25.11.2019
3753 Clear 18 1015 68 16093 2.6 40 15:20 25.11.2019
3754 Clear 17 1015 68 16093 2.6 40 14:56 25.11.2019
3755 Clear 16 1014 77 16093 2.1 30 14:38 25.11.2019
3756 Clear 16 1014 77 16093 2.1 30 14:20 25.11.2019
3757 Clear 14 1014 77 16093 1.5 10 13:40 25.11.2019
3758 Clear 14 1014 77 16093 1.5 10 13:21 25.11.2019
3759 Clear 14 1014 77 16093 1.5 10 12:59 25.11.2019
3760 Clear 14 1013 72 16093 1.5 360 12:40 25.11.2019
3761 Clear 14 1013 72 16093 1.5 360 12:40 25.11.2019
3762 Clear 14 1014 87 16093 2.6 360 12:20 25.11.2019
3763 Clear 14 1013 87 16093 2.1 360 11:56 25.11.2019
3764 Clear 14 1013 72 16093 2.1 350 11:38 25.11.2019
3765 Clear 14 1013 72 16093 2.1 350 11:19 25.11.2019
3766 Clear 14 1013 72 16093 2.1 340 10:42 25.11.2019
3767 Clear 14 1013 72 16093 2.1 340 10:23 25.11.2019
3768 Clear 15 1013 72 16093 2.1 340 09:56 25.11.2019
3769 Clear 15 1013 82 16093 3.6 320 09:38 25.11.2019
3770 Clear 15 1013 77 16093 2.6 340 09:20 25.11.2019
3771 Clear 16 1013 82 16093 2.6 330 08:40 25.11.2019
3772 Clear 16 1013 82 16093 2.6 330 08:21 25.11.2019
3773 Clouds 17 1013 77 16093 3.1 320 07:42 25.11.2019
3774 Clouds 17 1013 77 16093 3.1 320 07:24 25.11.2019
3775 Clear 18 1013 77 16093 2.1 300 06:48 25.11.2019
3776 Clear 18 1013 77 16093 2.1 300 06:21 25.11.2019
3777 Clear 18 1013 77 16093 2.1 300 06:21 25.11.2019
3778 Clouds 19 1013 77 16093 3.1 300 05:39 25.11.2019
3779 Clouds 20 1013 78 16093 3.1 290 04:52 25.11.2019
3780 Clouds 22 1013 78 16093 2.6 290 03:18 25.11.2019
3781 Rain 22 1013 73 16093 3.6 260 02:26 25.11.2019
3782 Rain 23 1012 73 16093 2.6 250 01:40 25.11.2019
3783 Rain 23 1012 73 16093 2.6 250 01:21 25.11.2019
3784 Clouds 24 1012 65 16093 2.6 240 00:23 25.11.2019
3785 Clouds 25 1012 65 16093 2.6 240 23:58 24.11.2019
3786 Clouds 25 1011 61 16093 4.1 240 23:39 24.11.2019
3787 Clouds 26 1011 61 16093 4.1 240 23:19 24.11.2019
3788 Clouds 26 1011 65 16093 3.6 300 22:55 24.11.2019
3789 Clouds 26 1011 61 16093 3.6 270 22:36 24.11.2019
3790 Clouds 26 1011 61 16093 3.6 270 22:36 24.11.2019
3791 Clouds 26 1011 61 16093 3.6 270 22:18 24.11.2019
3792 Clouds 26 1011 74 16093 3.1 270 21:42 24.11.2019
3793 Clouds 26 1011 74 16093 3.1 270 21:22 24.11.2019
3794 Rain 25 1011 74 16093 3.1 270 20:59 24.11.2019
3795 Rain 25 1012 83 16093 2.6 240 20:40 24.11.2019
3796 Rain 25 1012 83 16093 2.6 240 20:20 24.11.2019
3797 Rain 24 1012 83 16093 2.6 240 19:58 24.11.2019
3798 Rain 24 1012 88 9656 3.1 240 19:40 24.11.2019
3799 Rain 24 1012 69 12874 6.2 300 19:21 24.11.2019
3800 Rain 25 1012 69 12874 6.2 300 19:00 24.11.2019
3801 Rain 26 1013 58 16093 4.6 250 18:38 24.11.2019
3802 Rain 26 1013 58 16093 4.6 250 18:20 24.11.2019
3803 Clouds 27 1014 61 16093 4.6 220 17:59 24.11.2019
3804 Clouds 27 1014 61 16093 4.6 220 17:41 24.11.2019
3805 Clouds 27 1014 61 16093 4.6 220 17:22 24.11.2019
3806 Clouds 26 1014 61 16093 4.6 220 16:59 24.11.2019
3807 Clouds 26 1014 61 16093 5.1 210 16:40 24.11.2019
3808 Clouds 26 1014 61 16093 5.1 210 16:22 24.11.2019
3809 Clouds 26 1014 61 16093 5.1 210 15:56 24.11.2019
3810 Clouds 26 1014 65 16093 4.6 210 15:38 24.11.2019
3811 Clouds 26 1014 65 16093 4.6 210 15:38 24.11.2019
3812 Clouds 26 1014 65 16093 4.6 210 15:38 24.11.2019
3813 Clouds 26 1014 65 16093 4.6 210 15:37 24.11.2019
3814 Clouds 25 1014 65 16093 4.6 210 15:19 24.11.2019
3815 Clouds 24 1014 78 16093 2.6 220 14:39 24.11.2019
3816 Clouds 23 1014 78 16093 2.6 220 14:19 24.11.2019
3817 Clouds 23 1014 78 16093 2.6 220 13:59 24.11.2019
3818 Clouds 21 1014 83 16093 1.5 210 13:38 24.11.2019
3819 Clouds 21 1014 83 16093 1.5 210 13:19 24.11.2019
3820 Clear 21 1013 88 16093 3.6 230 12:56 24.11.2019
3821 Clouds 21 1013 78 16093 6.9 223 12:38 24.11.2019
3822 Clouds 21 1013 78 16093 6.9 223 12:18 24.11.2019
3823 Clouds 21 1013 78 16093 2.1 220 11:38 24.11.2019
3824 Clouds 21 1013 78 16093 2.1 220 11:19 24.11.2019
3825 Clouds 21 1013 78 16093 2.1 220 10:57 24.11.2019
3826 Clouds 22 1013 78 16093 2.1 190 10:38 24.11.2019
3827 Clouds 22 1013 78 16093 2.1 190 10:20 24.11.2019
3828 Clouds 22 1013 78 16093 3.1 190 09:40 24.11.2019
3829 Clouds 22 1013 69 16093 1.5 190 09:20 24.11.2019
3830 Clouds 22 1013 69 16093 1.5 190 08:57 24.11.2019
3831 Clouds 22 1013 73 16093 3.1 190 08:39 24.11.2019
3832 Clouds 22 1013 73 16093 3.1 190 08:20 24.11.2019
3833 Clouds 22 1014 73 16093 2.6 190 07:52 24.11.2019
3834 Clouds 22 1014 73 16093 2.6 190 07:25 24.11.2019
3835 Clouds 22 1015 73 16093 2.1 190 06:55 24.11.2019
3836 Clouds 22 1016 73 16093 1.5 230 05:40 24.11.2019
3837 Clouds 22 1016 69 16093 2.1 190 04:42 24.11.2019
3838 Clouds 23 1016 64 16093 2.1 170 02:49 24.11.2019
3839 Clouds 23 1016 64 16093 2.1 170 02:49 24.11.2019
3840 Clouds 24 1016 64 16093 2.1 170 01:56 24.11.2019
3841 Clouds 24 1015 61 16093 2.6 150 01:37 24.11.2019
3842 Clouds 24 1015 61 16093 2.6 150 01:18 24.11.2019
3843 Clouds 24 1015 57 16093 3.1 160 00:42 24.11.2019
3844 Clouds 24 1015 57 16093 3.1 160 00:20 24.11.2019
3845 Clouds 25 1015 57 16093 4.6 140 23:44 23.11.2019
3846 Clouds 25 1015 57 16093 4.6 140 23:21 23.11.2019
3847 Clouds 26 1015 57 16093 4.6 140 22:57 23.11.2019
3848 Clouds 26 1015 54 16093 5.7 120 22:38 23.11.2019
3849 Clouds 26 1015 54 16093 5.7 120 22:20 23.11.2019
3850 Clouds 26 1015 54 16093 5.7 120 21:57 23.11.2019
3851 Clouds 27 1015 48 16093 5.1 150 21:39 23.11.2019
3852 Clouds 27 1015 48 16093 5.1 150 21:20 23.11.2019
3853 Clouds 27 1015 51 16093 5.1 140 20:39 23.11.2019
3854 Clouds 27 1015 51 16093 5.1 140 20:21 23.11.2019
3855 Clouds 27 1015 51 16093 5.1 140 19:58 23.11.2019
3856 Clouds 27 1016 51 16093 3.6 140 19:39 23.11.2019
3857 Clouds 27 1016 51 16093 3.6 140 19:19 23.11.2019
3858 Clouds 27 1016 51 16093 3.6 140 19:19 23.11.2019
3859 Clouds 27 1016 51 16093 3.6 140 18:58 23.11.2019
3860 Clouds 27 1017 51 16093 5.1 130 18:39 23.11.2019
3861 Clouds 27 1017 51 16093 5.1 130 18:19 23.11.2019
3862 Clouds 27 1018 54 16093 4.6 110 17:44 23.11.2019
3863 Clouds 27 1018 54 16093 4.6 110 17:22 23.11.2019
3864 Clouds 27 1018 54 16093 4.6 110 16:57 23.11.2019
3865 Clouds 27 1018 47 16093 3.6 100 16:39 23.11.2019
3866 Clouds 27 1018 47 16093 3.6 100 16:21 23.11.2019
3867 Clouds 26 1018 47 16093 3.6 100 15:59 23.11.2019
3868 Clouds 26 1018 64 16093 1.5 50 15:39 23.11.2019
3869 Clouds 25 1018 64 16093 1.5 50 15:19 23.11.2019
3870 Clouds 23 1018 64 16093 1.5 50 14:57 23.11.2019
3871 Clouds 22 1017 77 16093 5.24 133 14:39 23.11.2019
3872 Clouds 22 1017 77 16093 5.66 126 14:21 23.11.2019
3873 Clouds 20 1017 77 16093 5.66 126 13:54 23.11.2019
3874 Clouds 19 1017 82 16093 5.66 126 13:36 23.11.2019
3875 Clouds 19 1017 82 16093 5.66 126 13:18 23.11.2019
3876 Clouds 18 1017 82 16093 5.31 128 12:41 23.11.2019
3877 Clouds 18 1017 82 16093 5.31 128 12:22 23.11.2019
3878 Clouds 18 1016 82 16093 5.31 128 11:44 23.11.2019
3879 Clouds 19 1016 82 16093 5.23 122 11:22 23.11.2019
3880 Clouds 19 1016 82 16093 5.23 122 10:45 23.11.2019
3881 Clouds 19 1016 82 16093 5.23 122 10:23 23.11.2019
3882 Clouds 19 1016 82 16093 5.23 122 09:58 23.11.2019
3883 Clouds 19 1017 77 16093 5.23 122 09:39 23.11.2019
3884 Clouds 19 1017 77 16093 5.23 122 09:18 23.11.2019
3885 Clouds 19 1017 82 16093 5.23 122 08:41 23.11.2019
3886 Clouds 20 1017 82 16093 5.38 115 08:18 23.11.2019
3887 Clouds 20 1017 73 16093 5.18 104 07:41 23.11.2019
3888 Clouds 21 1018 73 16093 5.18 104 06:52 23.11.2019
3889 Clouds 21 1018 73 16093 5.18 104 06:26 23.11.2019
3890 Clouds 21 1018 68 16093 5.18 104 05:57 23.11.2019
3891 Clouds 22 1018 68 16093 5.18 104 05:31 23.11.2019
3892 Clouds 22 1019 64 16093 2.1 100 04:54 23.11.2019
3893 Clouds 22 1019 64 16093 2.1 100 04:32 23.11.2019
3894 Clouds 22 1018 64 16093 2.1 120 03:25 23.11.2019
3895 Clouds 22 1018 57 16093 1.5 110 02:37 23.11.2019
3896 Clouds 23 1018 53 16093 3.1 90 01:39 23.11.2019
3897 Clouds 23 1018 53 16093 3.1 90 01:39 23.11.2019
3898 Clouds 23 1017 78 16093 2.1 70 00:47 23.11.2019
3899 Clouds 23 1018 64 16093 2.6 80 00:19 23.11.2019
3900 Clouds 24 1018 57 16093 3.6 80 23:54 22.11.2019
3901 Clouds 24 1018 57 16093 3.6 80 23:36 22.11.2019
3902 Clouds 24 1018 57 16093 3.6 80 23:18 22.11.2019
3903 Clouds 25 1017 44 16093 2.6 100 22:42 22.11.2019
3904 Clouds 25 1017 44 16093 2.6 100 22:23 22.11.2019
3905 Clouds 26 1017 44 16093 2.6 100 21:59 22.11.2019
3906 Clouds 26 1017 47 16093 3.1 140 21:40 22.11.2019
3907 Clouds 26 1017 47 16093 3.1 140 21:21 22.11.2019
3908 Clouds 26 1017 44 16093 2.6 150 20:44 22.11.2019
3909 Clouds 26 1017 44 16093 2.6 150 20:23 22.11.2019
3910 Clouds 26 1017 44 16093 2.6 150 19:58 22.11.2019
3911 Clouds 26 1018 47 16093 6.2 110 19:39 22.11.2019
3912 Clouds 26 1018 47 16093 6.2 110 19:39 22.11.2019
3913 Clouds 26 1018 47 16093 6.2 110 19:20 22.11.2019
3914 Clouds 26 1018 47 16093 6.2 110 18:59 22.11.2019
3915 Clouds 26 1019 44 16093 4.1 130 18:37 22.11.2019
3916 Clouds 26 1019 44 16093 4.1 130 18:19 22.11.2019
3917 Clouds 26 1020 44 16093 4.1 120 17:42 22.11.2019
3918 Clouds 26 1020 44 16093 4.1 120 17:22 22.11.2019
3919 Clouds 26 1020 54 16093 1.5 0 16:48 22.11.2019
3920 Clouds 25 1020 54 16093 1.5 0 16:30 22.11.2019
3921 Clouds 25 1020 54 16093 1.5 0 15:58 22.11.2019
3922 Clouds 24 1020 64 16093 5.15 106 15:38 22.11.2019
3923 Clouds 24 1020 64 16093 5.15 106 15:20 22.11.2019
3924 Clouds 23 1020 64 16093 5.15 106 14:54 22.11.2019
3925 Clouds 23 1019 73 16093 5.15 106 14:36 22.11.2019
3926 Clouds 22 1019 73 16093 5.99 93 14:18 22.11.2019
3927 Clouds 21 1019 77 16093 5.99 93 13:38 22.11.2019
3928 Clouds 20 1019 77 16093 5.74 90 13:19 22.11.2019
3929 Clouds 20 1019 77 16093 5.74 90 12:58 22.11.2019
3930 Clouds 21 1019 73 16093 5.74 90 12:40 22.11.2019
3931 Clouds 21 1019 73 16093 5.74 90 12:40 22.11.2019
3932 Clouds 21 1019 73 16093 5.74 90 12:19 22.11.2019
3933 Clouds 21 1019 73 16093 5.74 90 11:57 22.11.2019
3934 Clouds 21 1018 68 16093 5.74 90 11:37 22.11.2019
3935 Clouds 21 1018 68 16093 6.36 76 11:18 22.11.2019
3936 Clouds 21 1018 68 16093 6.36 76 11:18 22.11.2019
3937 Clouds 21 1018 68 16093 6.36 76 10:55 22.11.2019
3938 Clouds 21 1018 64 16093 2.6 350 10:37 22.11.2019
3939 Clouds 21 1018 64 16093 2.6 350 10:18 22.11.2019
3940 Clouds 21 1018 60 16093 1.5 110 09:41 22.11.2019
3941 Clouds 21 1018 60 16093 1.5 110 09:41 22.11.2019
3942 Clouds 20 1018 60 16093 1.5 110 09:22 22.11.2019
3943 Clouds 20 1018 60 16093 1.5 110 08:59 22.11.2019
3944 Clouds 21 1019 56 16093 4.6 90 08:39 22.11.2019
3945 Clouds 21 1019 56 16093 4.6 90 08:21 22.11.2019
3946 Clouds 21 1019 56 16093 1.5 30 07:43 22.11.2019
3947 Clouds 21 1019 56 16093 1.5 30 07:43 22.11.2019
3948 Clouds 21 1019 56 16093 1.5 30 07:21 22.11.2019
3949 Clouds 22 1020 53 16093 2.6 50 06:48 22.11.2019
3950 Clouds 22 1020 53 16093 2.6 50 06:28 22.11.2019
3951 Clouds 22 1020 60 16093 2.1 20 05:37 22.11.2019
3952 Clouds 22 1020 56 16093 2.1 10 03:34 22.11.2019
3953 Clouds 22 1020 53 16093 2.1 10 02:47 22.11.2019
3954 Clouds 22 1020 53 16093 2.1 10 02:28 22.11.2019
3955 Clouds 22 1020 53 16093 2.1 30 01:44 22.11.2019
3956 Clouds 22 1020 53 16093 2.1 30 01:19 22.11.2019
3957 Clouds 22 1020 53 16093 2.6 40 00:49 22.11.2019
3958 Clouds 22 1020 53 16093 2.6 40 00:23 22.11.2019
3959 Clouds 23 1020 50 16093 2.6 50 23:44 21.11.2019
3960 Clouds 23 1020 50 16093 2.6 50 23:25 21.11.2019
3961 Clouds 24 1020 50 16093 2.6 50 22:58 21.11.2019
3962 Clouds 24 1019 44 16093 3.1 40 22:38 21.11.2019
3963 Clouds 25 1019 44 16093 3.1 40 22:20 21.11.2019
3964 Clouds 25 1019 44 16093 3.1 40 21:56 21.11.2019
3965 Clouds 25 1019 44 16093 4.6 50 21:37 21.11.2019
3966 Clouds 25 1019 44 16093 4.6 50 21:19 21.11.2019
3967 Clouds 25 1019 44 16093 4.6 50 20:57 21.11.2019
3968 Clouds 25 1020 41 16093 6.2 90 20:38 21.11.2019
3969 Clouds 25 1020 41 16093 6.2 90 20:19 21.11.2019
3970 Clouds 25 1020 41 16093 6.2 90 19:58 21.11.2019
3971 Clouds 25 1020 41 16093 6.2 90 19:58 21.11.2019
3972 Clouds 25 1020 41 16093 5.7 70 19:39 21.11.2019
3973 Clouds 25 1020 41 16093 5.7 70 19:21 21.11.2019
3974 Clouds 25 1020 41 16093 5.7 70 18:56 21.11.2019
3975 Clouds 25 1021 44 16093 4.1 60 18:37 21.11.2019
3976 Clouds 25 1021 44 16093 4.1 60 18:18 21.11.2019
3977 Clouds 25 1022 41 16093 6.2 80 17:41 21.11.2019
3978 Clouds 25 1022 41 16093 6.2 80 17:22 21.11.2019
3979 Clouds 25 1022 41 16093 6.2 80 16:59 21.11.2019
3980 Clouds 25 1022 41 16093 6.2 80 16:59 21.11.2019
3981 Clouds 24 1022 50 16093 3.1 0 16:40 21.11.2019
3982 Clouds 24 1022 50 16093 3.1 0 16:21 21.11.2019
3983 Clouds 22 1022 50 16093 3.1 0 15:56 21.11.2019
3984 Clouds 21 1022 56 16093 2.6 350 15:38 21.11.2019
3985 Clouds 21 1022 56 16093 2.6 350 15:19 21.11.2019
3986 Clouds 19 1021 63 16093 2.1 360 14:42 21.11.2019
3987 Clouds 18 1021 63 16093 2.1 360 14:23 21.11.2019
3988 Clouds 18 1021 63 16093 2.1 360 13:59 21.11.2019
3989 Clouds 17 1021 68 16093 1.5 330 13:38 21.11.2019
3990 Clouds 17 1021 68 16093 1.5 330 13:19 21.11.2019
3991 Clouds 17 1021 68 16093 1.5 330 12:56 21.11.2019
3992 Clouds 17 1020 68 16093 2.1 320 12:37 21.11.2019
3993 Clouds 17 1020 68 16093 2.1 320 12:19 21.11.2019
3994 Clouds 17 1020 68 16093 2.6 340 11:41 21.11.2019
3995 Clouds 17 1020 68 16093 2.6 340 11:21 21.11.2019
3996 Clouds 16 1020 68 16093 2.6 340 10:57 21.11.2019
3997 Clouds 16 1020 63 16093 3.6 330 10:39 21.11.2019
3998 Clouds 16 1020 63 16093 3.6 330 10:20 21.11.2019
3999 Clouds 17 1019 63 16093 3.1 340 09:43 21.11.2019
4000 Clouds 17 1019 63 16093 3.1 340 09:24 21.11.2019
4001 Clouds 17 1019 63 16093 3.1 340 08:59 21.11.2019
4002 Clouds 17 1020 52 16093 2.6 360 08:40 21.11.2019
4003 Clouds 17 1020 52 16093 2.6 360 08:19 21.11.2019
4004 Clouds 17 1020 45 16093 3.1 350 07:40 21.11.2019
4005 Clouds 17 1020 45 16093 3.1 350 07:18 21.11.2019
4006 Clouds 17 1020 45 16093 3.1 350 06:57 21.11.2019
4007 Clouds 17 1020 42 16093 3.1 350 06:33 21.11.2019
4008 Clear 17 1021 59 16093 2.6 350 05:32 21.11.2019
4009 Clear 18 1021 63 16093 2.6 10 03:32 21.11.2019
4010 Clear 18 1020 52 16093 1.5 350 02:41 21.11.2019
4011 Clear 19 1020 43 16093 1.5 350 01:54 21.11.2019
4012 Clear 19 1020 43 16093 1.5 350 01:54 21.11.2019
4013 Clear 19 1020 43 16093 2.1 360 01:36 21.11.2019
4014 Clear 20 1020 35 16093 2.1 360 00:54 21.11.2019
4015 Clear 21 1019 37 16093 1.5 20 00:21 21.11.2019
4016 Clear 22 1019 31 16093 8.07 24 23:57 20.11.2019
4017 Clouds 22 1019 27 16093 3.1 350 23:39 20.11.2019
4018 Clouds 23 1019 27 16093 3.1 350 23:20 20.11.2019
4019 Clouds 23 1019 27 16093 3.1 350 22:55 20.11.2019
4020 Clear 24 1019 31 16093 5.1 350 22:37 20.11.2019
4021 Clear 24 1019 31 16093 5.1 350 22:37 20.11.2019
4022 Clear 24 1019 31 16093 5.1 350 22:18 20.11.2019
4023 Clouds 25 1018 24 16093 1.5 0 21:55 20.11.2019
4024 Clouds 25 1018 24 16093 1.5 0 21:36 20.11.2019
4025 Clouds 25 1018 24 16093 1.5 0 21:18 20.11.2019
4026 Clouds 25 1018 24 16093 1.5 0 20:54 20.11.2019
4027 Clouds 25 1018 26 16093 2.1 0 20:36 20.11.2019
4028 Clouds 25 1018 26 16093 2.1 0 20:18 20.11.2019
4029 Clouds 25 1018 26 16093 2.1 0 20:18 20.11.2019
4030 Clouds 25 1018 26 16093 2.1 0 19:54 20.11.2019
4031 Clouds 25 1019 26 16093 2.1 0 19:36 20.11.2019
4032 Clouds 25 1019 26 16093 2.1 0 19:18 20.11.2019
4033 Clouds 24 1020 31 16093 4.1 40 18:41 20.11.2019
4034 Clouds 24 1020 31 16093 4.1 40 18:23 20.11.2019
4035 Clouds 24 1020 31 16093 4.1 40 17:59 20.11.2019
4036 Clouds 23 1021 33 16093 4.6 350 17:40 20.11.2019
4037 Clouds 23 1021 33 16093 4.6 350 17:21 20.11.2019
4038 Clouds 22 1021 33 16093 4.6 350 16:59 20.11.2019
4039 Clouds 22 1021 33 16093 4.6 350 16:59 20.11.2019
4040 Clear 22 1020 46 16093 7.7 10 16:41 20.11.2019
4041 Clear 21 1020 46 16093 7.7 10 16:20 20.11.2019
4042 Clouds 20 1021 37 16093 5.1 320 15:57 20.11.2019
4043 Clouds 19 1021 48 16093 4.1 340 15:38 20.11.2019
4044 Clouds 19 1021 48 16093 4.1 340 15:19 20.11.2019
4045 Clouds 18 1021 48 16093 4.1 340 14:55 20.11.2019
4046 Clouds 17 1020 55 16093 4.1 330 14:37 20.11.2019
4047 Clouds 17 1020 55 16093 4.1 330 14:18 20.11.2019
4048 Clouds 15 1020 55 16093 4.1 330 13:55 20.11.2019
4049 Clear 14 1019 67 16093 2.6 340 13:36 20.11.2019
4050 Clear 14 1019 87 16093 3.6 330 13:18 20.11.2019
4051 Clear 14 1018 67 16093 2.1 0 12:40 20.11.2019
4052 Clear 14 1018 82 16093 3.1 330 12:21 20.11.2019
4053 Clear 14 1018 67 16093 4.1 340 11:46 20.11.2019
4054 Clear 14 1018 67 16093 4.1 340 11:23 20.11.2019
4055 Clear 14 1018 67 16093 4.1 340 10:59 20.11.2019
4056 Clear 14 1017 67 16093 1.5 0 10:39 20.11.2019
4057 Clear 15 1017 67 16093 1.5 0 10:20 20.11.2019
4058 Clear 15 1017 67 16093 1.5 0 09:59 20.11.2019
4059 Clear 15 1017 59 16093 2.6 330 09:41 20.11.2019
4060 Clear 15 1017 59 16093 2.6 330 09:19 20.11.2019
4061 Clear 16 1017 59 16093 2.6 330 08:43 20.11.2019
4062 Clear 16 1017 59 16093 2.6 330 08:24 20.11.2019
4063 Clear 16 1017 59 16093 2.6 330 07:56 20.11.2019
4064 Clear 16 1017 59 16093 2.6 330 07:36 20.11.2019
4065 Clear 17 1017 59 16093 2.6 330 07:18 20.11.2019
4066 Clear 17 1017 59 16093 3.6 330 06:43 20.11.2019
4067 Clear 17 1017 59 16093 3.6 330 06:18 20.11.2019
4068 Clear 19 1017 64 16093 4.1 350 04:43 20.11.2019
4069 Clouds 21 1016 64 16093 4.1 340 02:29 20.11.2019
4070 Clouds 22 1015 53 16093 3.1 260 01:38 20.11.2019
4071 Clear 22 1014 53 16093 3.1 360 00:50 20.11.2019
4072 Clear 23 1014 53 16093 3.1 360 00:22 20.11.2019
4073 Clear 24 1014 44 16093 3.1 290 23:41 19.11.2019
4074 Clear 25 1014 44 16093 3.1 290 23:22 19.11.2019
4075 Clouds 25 1014 39 16093 4.1 290 22:56 19.11.2019
4076 Clouds 26 1013 42 16093 6.2 310 22:37 19.11.2019
4077 Clouds 26 1013 42 16093 6.2 310 22:18 19.11.2019
4078 Clouds 26 1013 42 16093 6.2 310 22:18 19.11.2019
4079 Clouds 27 1013 37 16093 5.1 300 21:55 19.11.2019
4080 Clouds 27 1013 39 16093 4.6 280 21:36 19.11.2019
4081 Clouds 27 1013 39 16093 4.6 280 21:18 19.11.2019
4082 Clouds 27 1013 39 16093 4.6 280 20:54 19.11.2019
4083 Clouds 27 1013 42 16093 3.6 290 20:36 19.11.2019
4084 Clouds 27 1013 42 16093 3.6 290 20:18 19.11.2019
4085 Clouds 26 1013 44 16093 2.6 250 19:42 19.11.2019
4086 Clouds 26 1013 44 16093 2.6 250 19:20 19.11.2019
4087 Clouds 26 1013 44 16093 2.6 250 18:58 19.11.2019
4088 Clouds 26 1014 44 16093 3.6 250 18:40 19.11.2019
4089 Clouds 26 1014 44 16093 3.6 250 18:20 19.11.2019
4090 Clouds 26 1014 44 16093 3.6 250 17:58 19.11.2019
4091 Clouds 25 1014 47 16093 1.5 0 17:39 19.11.2019
4092 Clouds 25 1014 47 16093 1.5 0 17:20 19.11.2019
4093 Clouds 25 1014 47 16093 1.5 0 16:59 19.11.2019
4094 Clear 24 1015 57 16093 2.1 190 16:39 19.11.2019
4095 Clear 24 1015 57 16093 2.1 190 16:19 19.11.2019
4096 Clouds 23 1015 56 16093 2.08 214 15:47 19.11.2019
4097 Clouds 22 1015 56 16093 2.08 214 15:26 19.11.2019
4098 Clouds 22 1015 56 16093 2.08 214 15:26 19.11.2019
4099 Clouds 20 1015 56 16093 2.08 214 14:58 19.11.2019
4100 Clouds 20 1014 77 16093 2.08 214 14:39 19.11.2019
4101 Clouds 19 1014 77 16093 1.88 295 14:20 19.11.2019
4102 Clouds 17 1014 82 16093 1.88 295 13:42 19.11.2019
4103 Clear 16 1014 93 16093 3.19 310 13:21 19.11.2019
4104 Clouds 16 1013 93 16093 3.19 310 12:56 19.11.2019
4105 Clouds 16 1013 88 16093 3.19 310 12:38 19.11.2019
4106 Clouds 16 1013 88 16093 3.19 310 12:20 19.11.2019
4107 Clouds 16 1013 88 16093 3.19 310 11:55 19.11.2019
4108 Clouds 16 1013 82 16093 3.19 310 11:36 19.11.2019
4109 Clouds 16 1013 82 16093 4.66 302 11:18 19.11.2019
4110 Clouds 16 1012 82 16093 4.66 302 10:44 19.11.2019
4111 Clouds 16 1012 82 16093 4.66 302 10:20 19.11.2019
4112 Clouds 16 1012 82 16093 4.66 302 09:43 19.11.2019
4113 Clouds 16 1012 82 16093 4.66 302 09:21 19.11.2019
4114 Clouds 16 1012 82 16093 4.66 302 08:58 19.11.2019
4115 Clouds 16 1012 82 16093 4.66 302 08:39 19.11.2019
4116 Clouds 16 1012 82 16093 3.5 300 08:21 19.11.2019
4117 Clouds 16 1012 82 16093 3.5 300 07:55 19.11.2019
4118 Clouds 16 1012 77 16093 3.5 300 07:36 19.11.2019
4119 Clouds 16 1012 77 16093 3.5 300 07:18 19.11.2019
4120 Clouds 16 1012 77 16093 3.5 300 06:42 19.11.2019
4121 Clouds 17 1012 77 16093 3.5 300 06:18 19.11.2019
4122 Clouds 17 1012 77 16093 1.5 290 05:18 19.11.2019
4123 Clouds 18 1012 72 16093 2.6 250 03:40 19.11.2019
4124 Clear 18 1012 77 16093 2.6 270 03:19 19.11.2019
4125 Clear 18 1012 68 16093 2.1 280 02:47 19.11.2019
4126 Clear 19 1011 64 16093 6.03 306 01:48 19.11.2019
4127 Clouds 20 1011 56 16093 2.1 290 00:49 19.11.2019
4128 Clouds 21 1011 56 16093 2.1 290 00:20 19.11.2019
4129 Clouds 22 1010 53 16093 3.1 320 23:40 18.11.2019
4130 Clouds 22 1010 53 16093 3.1 320 23:20 18.11.2019
4131 Clouds 23 1010 53 16093 3.1 300 22:47 18.11.2019
4132 Clouds 23 1010 53 16093 3.1 300 22:24 18.11.2019
4133 Clouds 23 1010 53 16093 3.1 300 21:59 18.11.2019
4134 Clouds 23 1010 50 16093 3.6 280 21:40 18.11.2019
4135 Clouds 23 1010 50 16093 3.6 280 21:40 18.11.2019
4136 Clouds 23 1010 50 16093 3.6 280 21:21 18.11.2019
4137 Clouds 23 1010 50 16093 3.6 280 20:59 18.11.2019
4138 Clouds 23 1011 53 16093 3.6 300 20:41 18.11.2019
4139 Clouds 23 1011 53 16093 3.6 300 20:41 18.11.2019
4140 Clouds 23 1011 53 16093 3.6 300 20:19 18.11.2019
4141 Clouds 22 1011 53 16093 3.6 300 19:58 18.11.2019
4142 Clouds 22 1011 56 16093 5.7 330 19:38 18.11.2019
4143 Clouds 22 1011 56 16093 5.7 330 19:20 18.11.2019
4144 Clouds 21 1011 56 16093 5.7 330 18:56 18.11.2019
4145 Clouds 20 1012 60 16093 5.1 290 18:38 18.11.2019
4146 Clouds 21 1012 60 16093 5.1 290 18:19 18.11.2019
4147 Clouds 20 1012 60 16093 5.1 290 17:59 18.11.2019
4148 Clouds 19 1012 72 16093 3.6 300 17:37 18.11.2019
4149 Clouds 18 1013 72 16093 3.1 280 17:19 18.11.2019
4150 Clouds 17 1012 77 16093 4.1 280 16:43 18.11.2019
4151 Clouds 17 1013 68 16093 3.1 0 16:24 18.11.2019
4152 Clouds 16 1013 77 16093 2.6 0 15:59 18.11.2019
4153 Clouds 15 1013 82 16093 2.6 280 15:40 18.11.2019
4154 Clouds 15 1013 82 16093 2.6 280 15:21 18.11.2019
4155 Clouds 15 1013 82 16093 2.6 280 14:58 18.11.2019
4156 Clouds 15 1013 87 16093 3.1 0 14:39 18.11.2019
4157 Clouds 14 1013 87 16093 3.1 0 14:20 18.11.2019
4158 Clouds 14 1012 87 16093 2.1 300 13:43 18.11.2019
4159 Clouds 14 1012 87 16093 2.1 300 13:25 18.11.2019
4160 Clouds 14 1012 93 16093 4.6 320 12:45 18.11.2019
4161 Clouds 14 1012 93 16093 4.6 320 12:20 18.11.2019
4162 Clouds 14 1012 87 16093 3.1 300 11:58 18.11.2019
4163 Clouds 14 1012 87 16093 2.6 320 11:40 18.11.2019
4164 Clouds 14 1012 87 16093 2.6 320 11:22 18.11.2019
4165 Clouds 14 1011 87 16093 3.1 270 10:44 18.11.2019
4166 Clouds 14 1011 87 16093 2.1 310 10:26 18.11.2019
4167 Clouds 14 1011 87 16093 2.1 310 09:59 18.11.2019
4168 Clouds 15 1012 93 16093 4.1 300 09:38 18.11.2019
4169 Clouds 15 1011 82 16093 3.6 300 09:20 18.11.2019
4170 Clouds 15 1011 82 16093 3.6 300 08:57 18.11.2019
4171 Clouds 15 1012 77 16093 3.6 280 08:39 18.11.2019
4172 Clouds 15 1012 77 16093 3.6 280 08:19 18.11.2019
4173 Clouds 15 1012 77 16093 3.6 280 08:19 18.11.2019
4174 Clouds 15 1012 77 16093 2.6 290 07:45 18.11.2019
4175 Clouds 15 1012 77 16093 2.6 290 07:25 18.11.2019
4176 Clouds 15 1012 77 16093 4.47 296 06:49 18.11.2019
4177 Clouds 15 1012 77 16093 4.47 296 06:28 18.11.2019
4178 Clouds 15 1012 77 16093 4.47 296 05:45 18.11.2019
4179 Clouds 15 1013 77 16093 3.6 300 04:28 18.11.2019
4180 Clouds 16 1012 77 16093 4.1 340 01:47 18.11.2019
4181 Clouds 16 1012 77 16093 4.1 340 01:25 18.11.2019
4182 Clouds 16 1012 72 16093 3.6 340 00:21 18.11.2019
4183 Clouds 16 1011 67 11265 3.6 310 23:41 17.11.2019
4184 Clouds 17 1011 67 11265 3.6 310 23:23 17.11.2019
4185 Clouds 17 1011 67 11265 3.6 310 22:58 17.11.2019
4186 Clouds 17 1011 67 16093 4.6 330 22:39 17.11.2019
4187 Clouds 17 1011 67 16093 4.6 330 22:21 17.11.2019
4188 Clouds 18 1011 67 16093 4.6 330 21:57 17.11.2019
4189 Clouds 18 1011 67 16093 4.6 330 21:57 17.11.2019
4190 Clouds 17 1011 67 16093 4.1 330 21:39 17.11.2019
4191 Clouds 18 1011 67 16093 4.1 330 21:18 17.11.2019
4192 Clouds 18 1011 67 16093 4.1 330 20:55 17.11.2019
4193 Clouds 18 1011 68 16093 5.1 330 20:37 17.11.2019
4194 Clouds 18 1011 68 16093 5.1 330 20:18 17.11.2019
4195 Clouds 18 1011 68 16093 5.1 330 19:55 17.11.2019
4196 Clouds 17 1012 63 16093 5.7 330 19:37 17.11.2019
4197 Clouds 17 1012 63 16093 5.7 330 19:37 17.11.2019
4198 Clouds 17 1012 67 16093 5.1 310 19:19 17.11.2019
4199 Clouds 17 1012 67 16093 5.1 310 18:54 17.11.2019
4200 Clouds 17 1013 72 16093 5.7 330 18:36 17.11.2019
4201 Clouds 17 1013 67 16093 3.6 320 18:18 17.11.2019
4202 Clouds 17 1013 67 16093 3.6 320 17:57 17.11.2019
4203 Clouds 16 1014 77 16093 4.1 310 17:38 17.11.2019
4204 Clouds 16 1014 77 16093 4.1 310 17:19 17.11.2019
4205 Clouds 16 1014 77 16093 4.1 310 17:19 17.11.2019
4206 Clouds 15 1013 87 16093 4.6 310 16:55 17.11.2019
4207 Clouds 15 1014 82 16093 4.6 310 16:37 17.11.2019
4208 Clouds 15 1014 82 16093 4.6 310 16:37 17.11.2019
4209 Clouds 15 1014 82 16093 4.6 310 16:19 17.11.2019
4210 Clouds 14 1014 82 16093 4.1 320 15:41 17.11.2019
4211 Clouds 14 1014 82 16093 4.1 320 15:41 17.11.2019
4212 Clouds 14 1014 82 16093 4.1 320 15:19 17.11.2019
4213 Clouds 14 1014 82 16093 4.1 320 14:58 17.11.2019
4214 Clouds 14 1014 82 16093 4.1 320 14:58 17.11.2019
4215 Clouds 14 1013 82 16093 6.7 310 14:40 17.11.2019
4216 Clouds 14 1013 82 16093 4.1 320 14:21 17.11.2019
4217 Clouds 14 1013 82 16093 4.1 320 13:59 17.11.2019
4218 Clouds 14 1013 82 16093 4.1 330 13:40 17.11.2019
4219 Clouds 14 1013 82 16093 4.1 330 13:20 17.11.2019
4220 Clouds 14 1013 82 16093 4.1 330 12:55 17.11.2019
4221 Clouds 14 1012 82 16093 3.6 320 12:36 17.11.2019
4222 Clouds 14 1012 82 16093 3.6 320 12:18 17.11.2019
4223 Clouds 14 1012 82 16093 3.6 320 12:18 17.11.2019
4224 Clouds 14 1012 82 16093 3.6 320 11:54 17.11.2019
4225 Clouds 14 1011 82 16093 4.6 330 11:36 17.11.2019
4226 Clouds 15 1011 77 16093 4.6 330 11:18 17.11.2019
4227 Clouds 15 1011 82 16093 5.1 330 10:41 17.11.2019
4228 Clouds 15 1011 82 16093 5.1 330 10:21 17.11.2019
4229 Clouds 15 1011 87 16093 4.6 340 09:42 17.11.2019
4230 Clouds 15 1012 82 16093 3.6 320 09:24 17.11.2019
4231 Clouds 15 1011 93 16093 4.6 330 08:47 17.11.2019
4232 Clouds 15 1011 82 16093 3.1 300 08:27 17.11.2019
4233 Clouds 15 1012 82 16093 3.6 310 07:59 17.11.2019
4234 Clouds 16 1012 77 16093 2.6 310 07:40 17.11.2019
4235 Clouds 16 1012 77 16093 2.6 310 07:20 17.11.2019
4236 Clouds 16 1012 77 16093 2.6 310 06:53 17.11.2019
4237 Clouds 16 1013 72 16093 4.1 330 06:29 17.11.2019
4238 Clouds 17 1013 72 16093 2.6 330 05:24 17.11.2019
4239 Clear 17 1013 68 16093 4.1 330 04:18 17.11.2019
4240 Clear 18 1012 72 16093 4.1 330 03:39 17.11.2019
4241 Clear 18 1012 68 16093 3.1 330 03:20 17.11.2019
4242 Clear 19 1011 64 16093 2.1 0 01:59 17.11.2019
4243 Clear 19 1011 68 16093 4.1 330 01:21 17.11.2019
4244 Clear 20 1011 64 16093 5.1 320 00:41 17.11.2019
4245 Clear 20 1011 64 16093 5.1 320 00:21 17.11.2019
4246 Clouds 21 1010 53 16093 4.1 300 23:42 16.11.2019
4247 Clouds 21 1010 53 16093 4.1 300 23:19 16.11.2019
4248 Clouds 22 1010 60 16093 7.2 310 22:55 16.11.2019
4249 Clouds 22 1010 50 16093 4.6 310 22:36 16.11.2019
4250 Clouds 23 1010 50 16093 4.6 310 22:18 16.11.2019
4251 Clouds 23 1010 47 16093 4.6 300 21:41 16.11.2019
4252 Clouds 23 1010 47 16093 4.6 300 21:23 16.11.2019
4253 Clouds 24 1010 47 16093 4.6 300 20:58 16.11.2019
4254 Clouds 24 1010 47 16093 5.7 270 20:39 16.11.2019
4255 Clouds 24 1010 47 16093 5.7 270 20:19 16.11.2019
4256 Clouds 24 1010 47 16093 5.7 270 19:56 16.11.2019
4257 Clouds 24 1011 50 16093 4.6 300 19:37 16.11.2019
4258 Clouds 23 1011 50 16093 4.6 300 19:19 16.11.2019
4259 Clouds 23 1012 53 16093 5.7 310 18:43 16.11.2019
4260 Clouds 23 1012 53 16093 5.7 310 18:25 16.11.2019
4261 Clouds 23 1012 53 16093 5.7 310 17:56 16.11.2019
4262 Clouds 23 1012 53 16093 5.7 310 17:56 16.11.2019
4263 Clouds 22 1013 56 16093 4.6 320 17:37 16.11.2019
4264 Clouds 22 1013 56 16093 4.6 320 17:18 16.11.2019
4265 Clouds 22 1014 56 16093 4.6 330 16:45 16.11.2019
4266 Clouds 21 1014 56 16093 4.6 330 16:27 16.11.2019
4267 Clouds 20 1014 56 16093 4.6 330 15:56 16.11.2019
4268 Clouds 20 1014 64 16093 5.7 320 15:37 16.11.2019
4269 Clouds 20 1014 64 16093 5.7 320 15:19 16.11.2019
4270 Clouds 19 1013 72 16093 3.6 300 14:41 16.11.2019
4271 Clouds 19 1013 72 16093 3.6 300 14:21 16.11.2019
4272 Clouds 19 1013 72 16093 3.6 300 13:57 16.11.2019
4273 Clouds 18 1013 72 16093 4.6 320 13:39 16.11.2019
4274 Clouds 18 1013 72 16093 4.6 320 13:39 16.11.2019
4275 Clouds 18 1013 72 16093 4.6 320 13:19 16.11.2019
4276 Clouds 18 1013 72 16093 4.6 320 12:59 16.11.2019
4277 Clouds 18 1012 72 16093 3.1 310 12:40 16.11.2019
4278 Clouds 18 1012 72 16093 3.1 310 12:20 16.11.2019
4279 Clouds 19 1012 82 16093 3.6 310 11:46 16.11.2019
4280 Clouds 19 1012 82 16093 3.6 310 11:28 16.11.2019
4281 Clouds 19 1012 82 16093 3.6 310 10:58 16.11.2019
4282 Rain 19 1012 82 16093 4.1 320 10:39 16.11.2019
4283 Clouds 19 1012 77 16093 4.6 310 10:21 16.11.2019
4284 Clouds 19 1012 88 16093 3.6 300 09:45 16.11.2019
4285 Clouds 19 1012 88 16093 5.1 320 09:22 16.11.2019
4286 Clouds 20 1012 88 16093 5.7 330 08:59 16.11.2019
4287 Clouds 20 1012 88 16093 5.7 330 08:40 16.11.2019
4288 Clouds 20 1012 94 16093 4.1 340 08:19 16.11.2019
4289 Clouds 20 1012 94 16093 4.1 340 08:19 16.11.2019
4290 Clouds 20 1012 93 16093 3.1 310 07:43 16.11.2019
4291 Clouds 20 1012 93 16093 3.1 310 07:43 16.11.2019
4292 Clouds 20 1012 77 16093 4.1 330 07:21 16.11.2019
4293 Clouds 20 1012 77 16093 4.1 330 06:56 16.11.2019
4294 Clouds 21 1013 83 16093 4.1 330 06:34 16.11.2019
4295 Clouds 21 1012 94 16093 2.6 310 05:42 16.11.2019
4296 Clouds 22 1013 94 16093 3.6 290 04:20 16.11.2019
4297 Clouds 23 1013 94 16093 1.5 260 03:26 16.11.2019
4298 Rain 23 1013 94 16093 1.5 280 02:21 16.11.2019
4299 Drizzle 23 1012 100 16093 1.5 220 01:29 16.11.2019
4300 Rain 23 1012 94 16093 3.89 310 00:47 16.11.2019
4301 Rain 23 1012 94 16093 3.89 310 00:27 16.11.2019
4302 Rain 23 1013 88 9656 2.1 250 23:43 15.11.2019
4303 Rain 23 1013 88 9656 2.1 250 23:21 15.11.2019
4304 Rain 23 1013 88 9656 2.1 250 22:59 15.11.2019
4305 Rain 23 1012 94 16093 2.6 280 22:39 15.11.2019
4306 Rain 23 1013 83 16093 4.1 290 22:19 15.11.2019
4307 Rain 23 1013 83 16093 4.1 290 21:55 15.11.2019
4308 Rain 24 1013 78 16093 5.7 290 21:36 15.11.2019
4309 Thunderstorm 26 1013 78 16093 7.7 270 21:18 15.11.2019
4310 Rain 26 1013 61 16093 4.1 250 20:55 15.11.2019
4311 Rain 28 1012 62 16093 5.1 200 20:37 15.11.2019
4312 Rain 28 1013 62 16093 4.1 230 20:19 15.11.2019
4313 Clouds 28 1013 62 16093 4.1 230 19:56 15.11.2019
4314 Clouds 28 1013 65 16093 5.1 210 19:37 15.11.2019
4315 Clouds 28 1013 65 16093 4.1 200 19:18 15.11.2019
4316 Clouds 28 1014 62 16093 3.1 200 18:42 15.11.2019
4317 Clouds 28 1014 62 16093 3.1 200 18:24 15.11.2019
4318 Clouds 28 1014 62 16093 3.1 200 17:57 15.11.2019
4319 Clouds 28 1015 65 16093 4.1 200 17:39 15.11.2019
4320 Clouds 28 1015 65 16093 4.1 200 17:20 15.11.2019
4321 Clouds 27 1015 65 16093 4.1 200 16:54 15.11.2019
4322 Clouds 27 1015 69 16093 3.6 190 16:36 15.11.2019
4323 Clouds 27 1015 69 16093 3.6 190 16:18 15.11.2019
4324 Clouds 26 1016 74 16093 2.6 180 15:37 15.11.2019
4325 Clouds 26 1016 74 16093 2.6 180 15:19 15.11.2019
4326 Clouds 25 1016 74 16093 2.6 180 14:56 15.11.2019
4327 Clouds 25 1016 83 16093 6.19 183 14:37 15.11.2019
4328 Clouds 24 1016 83 16093 5.6 150 14:18 15.11.2019
4329 Clouds 24 1016 83 16093 5.6 150 13:56 15.11.2019
4330 Clouds 24 1015 88 16093 1.5 160 13:38 15.11.2019
4331 Clouds 23 1015 88 16093 1.5 160 13:19 15.11.2019
4332 Clouds 23 1015 88 16093 1.5 160 12:56 15.11.2019
4333 Clouds 23 1015 88 16093 5.11 161 12:37 15.11.2019
4334 Clouds 23 1015 88 16093 5.11 161 12:18 15.11.2019
4335 Clouds 23 1014 88 16093 5.11 161 11:55 15.11.2019
4336 Clouds 23 1014 88 16093 5.11 161 11:37 15.11.2019
4337 Clouds 23 1014 88 16093 5.89 161 11:18 15.11.2019
4338 Clouds 23 1015 88 16093 5.89 161 10:39 15.11.2019
4339 Clouds 23 1015 88 16093 5.89 161 10:21 15.11.2019
4340 Clouds 23 1015 88 16093 5.89 161 09:56 15.11.2019
4341 Clouds 23 1015 88 16093 5.89 161 09:56 15.11.2019
4342 Clouds 23 1015 88 16093 5.89 161 09:38 15.11.2019
4343 Clouds 23 1015 88 16093 5.89 161 09:18 15.11.2019
4344 Clouds 23 1015 88 16093 2.6 100 08:42 15.11.2019
4345 Clouds 23 1015 88 16093 2.6 100 08:21 15.11.2019
4346 Clouds 23 1016 88 16093 5.1 184 07:45 15.11.2019
4347 Clouds 23 1016 88 16093 5.1 184 07:26 15.11.2019
4348 Rain 23 1017 88 16093 5.1 184 06:36 15.11.2019
4349 Clouds 23 1017 88 16093 5.1 184 05:57 15.11.2019
4350 Clouds 23 1017 83 16093 2.6 100 05:38 15.11.2019
4351 Clouds 24 1017 83 16093 2.6 100 04:55 15.11.2019
4352 Clouds 24 1017 74 16093 2.1 110 03:44 15.11.2019
4353 Rain 24 1017 83 16093 4.62 166 02:37 15.11.2019
4354 Rain 24 1017 83 16093 7.01 100 01:58 15.11.2019
4355 Rain 24 1016 83 16093 7.01 100 01:32 15.11.2019
4356 Rain 24 1016 88 14484 3.1 190 00:42 15.11.2019
4357 Rain 24 1016 88 14484 3.1 190 00:24 15.11.2019
4358 Rain 24 1016 88 16093 1.5 350 23:47 14.11.2019
4359 Rain 24 1016 88 16093 6.5 111 23:27 14.11.2019
4360 Rain 24 1016 88 16093 6.5 111 23:27 14.11.2019
4361 Rain 24 1016 94 6437 7.2 90 22:55 14.11.2019
4362 Rain 24 1016 83 16093 1.5 230 22:37 14.11.2019
4363 Rain 24 1016 83 16093 1.5 230 22:19 14.11.2019
4364 Rain 24 1016 83 11265 7.13 105 21:42 14.11.2019
4365 Rain 25 1016 73 16093 4.1 180 21:22 14.11.2019
4366 Rain 25 1017 88 6437 2.1 0 20:56 14.11.2019
4367 Rain 25 1016 78 16093 3.6 60 20:37 14.11.2019
4368 Rain 25 1016 65 16093 6.7 110 20:19 14.11.2019
4369 Rain 25 1016 65 16093 6.7 110 19:57 14.11.2019
4370 Rain 25 1017 78 16093 6.2 70 19:38 14.11.2019
4371 Rain 26 1017 88 16093 4.6 60 19:18 14.11.2019
4372 Rain 26 1018 88 16093 5.1 110 18:43 14.11.2019
4373 Rain 26 1018 88 16093 5.1 110 18:43 14.11.2019
4374 Rain 26 1018 88 4828 7.7 70 18:24 14.11.2019
4375 Rain 25 1018 88 12874 2.6 110 17:58 14.11.2019
4376 Rain 25 1018 94 3219 5.1 70 17:38 14.11.2019
4377 Rain 25 1019 88 3219 7.2 60 17:20 14.11.2019
4378 Rain 25 1019 88 16093 5.1 20 16:58 14.11.2019
4379 Rain 25 1019 88 16093 5.1 20 16:58 14.11.2019
4380 Rain 25 1019 83 6437 3.1 0 16:58 14.11.2019
4381 Rain 25 1019 88 16093 5.1 20 16:38 14.11.2019
4382 Rain 25 1019 88 8047 5.7 50 16:19 14.11.2019
4383 Rain 25 1019 78 16093 3.1 60 15:58 14.11.2019
4384 Rain 25 1019 94 9656 8.7 70 15:39 14.11.2019
4385 Rain 25 1019 88 6437 9.3 100 15:20 14.11.2019
4386 Rain 24 1018 78 16093 4.6 70 14:57 14.11.2019
4387 Rain 25 1018 88 16093 4.1 50 14:39 14.11.2019
4388 Rain 24 1018 94 16093 3.6 50 14:20 14.11.2019
4389 Rain 23 1018 94 805 5.1 60 13:42 14.11.2019
4390 Rain 23 1017 88 16093 4.1 60 13:23 14.11.2019
4391 Rain 23 1017 88 16093 4.1 60 12:57 14.11.2019
4392 Rain 23 1017 83 16093 7.7 110 12:39 14.11.2019
4393 Rain 23 1017 88 6437 3.6 60 12:21 14.11.2019
4394 Rain 23 1017 88 6437 3.6 60 11:55 14.11.2019
4395 Rain 23 1017 94 16093 2.6 50 11:37 14.11.2019
4396 Rain 23 1017 94 16093 2.6 50 11:37 14.11.2019
4397 Rain 23 1016 94 16093 4.6 60 11:18 14.11.2019
4398 Rain 24 1016 88 9656 2.6 50 10:56 14.11.2019
4399 Rain 23 1016 88 11265 3.1 50 10:37 14.11.2019
4400 Rain 23 1017 83 11265 5.7 80 10:19 14.11.2019
4401 Rain 23 1017 83 11265 5.7 80 10:19 14.11.2019
4402 Rain 24 1016 88 3219 5.1 100 09:42 14.11.2019
4403 Rain 24 1016 73 16093 7.2 70 09:24 14.11.2019
4404 Rain 24 1016 88 8047 4.1 140 08:58 14.11.2019
4405 Rain 24 1016 88 8047 4.1 140 08:39 14.11.2019
4406 Clouds 24 1016 69 16093 5.7 70 08:21 14.11.2019
4407 Rain 24 1017 94 9656 5.1 120 07:42 14.11.2019
4408 Rain 24 1017 94 9656 5.1 120 07:23 14.11.2019
4409 Rain 24 1017 94 9656 5.1 120 07:23 14.11.2019
4410 Rain 23 1016 94 16093 5.7 70 06:46 14.11.2019
4411 Rain 23 1017 83 16093 1.5 40 06:20 14.11.2019
4412 Rain 23 1018 83 9656 6.2 50 05:27 14.11.2019
4413 Rain 23 1018 94 4828 5.1 40 04:35 14.11.2019
4414 Rain 23 1017 88 14484 3.6 60 03:26 14.11.2019
4415 Rain 23 1017 94 16093 4.1 20 02:35 14.11.2019
4416 Rain 23 1016 88 14484 6.2 30 01:40 14.11.2019
4417 Rain 23 1017 88 9656 4.1 20 00:57 14.11.2019
4418 Rain 23 1016 100 12874 5.1 30 00:37 14.11.2019
4419 Rain 23 1016 100 12874 5.1 30 00:18 14.11.2019
4420 Rain 24 1016 94 1609 3.6 20 23:38 13.11.2019
4421 Rain 23 1016 94 3219 5.1 50 23:19 13.11.2019
4422 Rain 24 1015 83 9656 4.1 20 22:55 13.11.2019
4423 Rain 25 1016 88 4023 3.6 20 22:37 13.11.2019
4424 Rain 24 1016 88 4023 3.6 20 22:37 13.11.2019
4425 Rain 25 1016 88 4023 3.6 20 22:18 13.11.2019
4426 Rain 25 1015 73 16093 5.1 50 21:54 13.11.2019
4427 Rain 25 1015 88 6437 5.7 30 21:36 13.11.2019
4428 Rain 25 1016 88 8047 4.6 50 21:18 13.11.2019
4429 Rain 25 1015 65 16093 5.1 40 20:54 13.11.2019
4430 Rain 26 1015 94 8047 3.1 60 20:36 13.11.2019
4431 Clouds 26 1015 61 16093 6.2 30 20:18 13.11.2019
4432 Clouds 27 1015 48 16093 3.6 30 19:41 13.11.2019
4433 Clouds 27 1015 48 16093 3.6 30 19:19 13.11.2019
4434 Clouds 28 1015 48 16093 3.6 30 18:56 13.11.2019
4435 Clouds 28 1016 58 16093 3.1 0 18:37 13.11.2019
4436 Clouds 28 1016 58 16093 3.1 0 18:19 13.11.2019
4437 Clouds 27 1016 58 16093 3.1 0 17:57 13.11.2019
4438 Clouds 27 1017 61 16093 4.1 360 17:38 13.11.2019
4439 Clouds 27 1017 61 16093 4.1 360 17:19 13.11.2019
4440 Clouds 26 1017 61 16093 4.1 360 16:57 13.11.2019
4441 Clouds 26 1017 69 16093 3.1 340 16:38 13.11.2019
4442 Clouds 25 1017 69 16093 3.1 340 16:20 13.11.2019
4443 Clouds 24 1016 69 16093 3.6 350 15:57 13.11.2019
4444 Clouds 24 1016 69 16093 3.6 350 15:38 13.11.2019
4445 Clouds 24 1016 69 16093 3.6 350 15:18 13.11.2019
4446 Clouds 23 1016 83 16093 7.96 3 14:42 13.11.2019
4447 Clouds 22 1016 78 16093 2.6 350 14:21 13.11.2019
4448 Clouds 22 1015 73 16093 2.6 0 13:56 13.11.2019
4449 Clouds 22 1015 83 16093 3.1 360 13:36 13.11.2019
4450 Clouds 22 1015 83 16093 3.1 360 13:36 13.11.2019
4451 Clouds 21 1015 73 16093 2.6 0 13:18 13.11.2019
4452 Clouds 21 1014 73 16093 2.1 0 12:42 13.11.2019
4453 Clouds 21 1014 73 16093 2.1 0 12:24 13.11.2019
4454 Clouds 21 1014 73 16093 2.1 0 11:59 13.11.2019
4455 Clouds 21 1014 73 16093 1.5 340 11:38 13.11.2019
4456 Clouds 21 1014 73 16093 1.5 340 11:19 13.11.2019
4457 Clear 21 1014 78 16093 3.1 320 10:57 13.11.2019
4458 Clear 21 1014 78 16093 3.1 320 10:39 13.11.2019
4459 Clear 21 1014 78 16093 3.1 320 10:19 13.11.2019
4460 Clear 21 1014 78 16093 3.1 320 09:43 13.11.2019
4461 Clear 21 1014 78 16093 3.1 320 09:21 13.11.2019
4462 Clear 21 1014 78 16093 3.1 320 09:21 13.11.2019
4463 Clear 21 1014 78 16093 3.1 320 09:21 13.11.2019
4464 Clear 21 1014 78 16093 3.1 320 09:21 13.11.2019
4465 Clear 21 1014 78 16093 3.1 320 09:21 13.11.2019
4466 Clouds 21 1013 69 16093 1.5 300 08:46 13.11.2019
4467 Clouds 21 1013 69 16093 1.5 300 08:28 13.11.2019
4468 Clouds 22 1013 69 16093 1.5 300 07:59 13.11.2019
4469 -273 0 0 0 0 0 07:41 13.11.2019
4470 Clouds 22 1014 69 16093 1.5 270 07:20 13.11.2019
4471 Clouds 22 1014 69 16093 2.1 280 06:43 13.11.2019
4472 Clouds 22 1014 69 16093 2.1 280 06:19 13.11.2019
4473 Clouds 22 1014 69 16093 2.1 280 06:19 13.11.2019
4474 Clouds 22 1014 69 16093 2.1 280 06:19 13.11.2019
4475 Clouds 22 1014 69 16093 2.1 280 06:19 13.11.2019
4476 Clouds 23 1014 69 16093 1.5 300 05:51 13.11.2019
4477 Clouds 23 1014 69 16093 1.5 300 05:30 13.11.2019
4478 Clouds 24 1014 65 16093 1.5 290 04:20 13.11.2019
4479 Clouds 26 1013 65 16093 2.1 230 01:58 13.11.2019
4480 Clouds 26 1013 61 16093 3.1 150 01:40 13.11.2019
4481 Clouds 26 1013 78 16093 1.5 200 00:44 13.11.2019
4482 Clouds 26 1012 61 16093 3.1 170 23:59 12.11.2019
4483 Clouds 27 1012 61 16093 3.6 140 23:41 12.11.2019
4484 Clouds 27 1012 61 16093 3.6 140 23:21 12.11.2019
4485 Clouds 28 1012 58 16093 4.6 130 22:43 12.11.2019
4486 Clouds 29 1012 58 16093 4.6 130 22:20 12.11.2019
4487 Clouds 29 1012 58 16093 4.6 130 21:59 12.11.2019
4488 Clouds 29 1012 42 16093 2.1 310 21:40 12.11.2019
4489 Clouds 29 1012 42 16093 2.1 310 21:22 12.11.2019
4490 Clouds 29 1013 40 16093 3.6 250 20:56 12.11.2019
4491 Clouds 29 1013 40 16093 2.1 0 20:37 12.11.2019
4492 Clouds 30 1013 40 16093 2.1 0 20:18 12.11.2019
4493 Clouds 30 1013 40 16093 2.1 0 19:57 12.11.2019
4494 Clouds 29 1014 45 16093 3.52 169 19:38 12.11.2019
4495 Clouds 29 1014 45 16093 3.52 169 19:19 12.11.2019
4496 Clouds 29 1014 45 16093 3.52 169 18:58 12.11.2019
4497 Clouds 29 1015 48 16093 1.5 0 18:39 12.11.2019
4498 Clouds 29 1015 48 16093 1.5 0 18:21 12.11.2019
4499 Clouds 29 1015 48 16093 1.5 0 17:57 12.11.2019
4500 Clouds 29 1015 51 16093 3.52 169 17:39 12.11.2019
4501 Clouds 29 1015 51 16093 4.64 162 17:20 12.11.2019
4502 Clouds 28 1016 54 16093 2.1 200 16:44 12.11.2019
4503 Clouds 28 1016 54 16093 2.1 200 16:26 12.11.2019
4504 Clouds 28 1016 54 16093 2.1 200 15:58 12.11.2019
4505 Clouds 27 1015 61 16093 1.5 0 15:40 12.11.2019
4506 Clouds 27 1015 61 16093 1.5 0 15:21 12.11.2019
4507 Clouds 25 1015 61 16093 1.5 0 14:56 12.11.2019
4508 Clouds 25 1015 69 16093 4.64 162 14:37 12.11.2019
4509 Clouds 24 1015 69 16093 4.56 124 14:18 12.11.2019
4510 Clouds 23 1015 69 16093 4.56 124 13:55 12.11.2019
4511 Clouds 22 1015 78 16093 4.56 124 13:36 12.11.2019
4512 Clouds 22 1015 78 16093 3.27 191 13:18 12.11.2019
4513 Clouds 22 1015 78 16093 3.24 144 12:42 12.11.2019
4514 Clouds 22 1015 78 16093 3.24 144 12:19 12.11.2019
4515 Clouds 22 1015 78 16093 3.24 144 11:58 12.11.2019
4516 Clouds 22 1014 78 16093 1.5 340 11:39 12.11.2019
4517 Clouds 22 1014 78 16093 1.5 340 11:21 12.11.2019
4518 Clouds 22 1014 78 16093 1.5 340 10:55 12.11.2019
4519 Clouds 22 1014 78 16093 4.43 120 10:37 12.11.2019
4520 Clouds 22 1014 78 16093 4.63 118 10:19 12.11.2019
4521 Clouds 22 1014 78 16093 4.43 120 09:40 12.11.2019
4522 Clouds 22 1014 78 16093 4.43 120 09:21 12.11.2019
4523 Clouds 22 1015 69 16093 4.43 120 08:51 12.11.2019
4524 Clouds 22 1015 69 16093 4.63 118 08:30 12.11.2019
4525 Clouds 22 1016 73 16093 5.97 124 07:45 12.11.2019
4526 Clouds 23 1016 73 16093 5.97 124 07:26 12.11.2019
4527 Clouds 23 1016 73 16093 5.97 124 06:58 12.11.2019
4528 Clouds 23 1016 64 16093 5.97 124 06:39 12.11.2019
4529 Clouds 23 1016 64 16093 5.97 124 06:21 12.11.2019
4530 Clouds 23 1017 64 16093 1.5 110 05:43 12.11.2019
4531 Clouds 24 1017 61 16093 1.5 120 04:42 12.11.2019
4532 Clouds 24 1017 57 16093 3.6 110 03:30 12.11.2019
4533 Clouds 25 1017 54 16093 4.1 90 01:42 12.11.2019
4534 Clouds 25 1017 54 16093 4.1 90 01:20 12.11.2019
4535 Clear 25 1017 61 16093 3.6 100 00:47 12.11.2019
4536 Clear 25 1017 61 16093 3.6 100 00:22 12.11.2019
4537 Clouds 26 1016 51 16093 5.7 110 23:44 11.11.2019
4538 Clouds 26 1016 51 16093 5.7 110 23:22 11.11.2019
4539 Clouds 27 1016 51 16093 5.7 110 22:57 11.11.2019
4540 Clouds 27 1016 45 16093 5.7 110 22:36 11.11.2019
4541 Clouds 27 1016 45 16093 5.7 110 22:18 11.11.2019
4542 Clouds 28 1016 45 16093 5.7 110 21:56 11.11.2019
4543 Clouds 28 1016 45 16093 6.2 100 21:37 11.11.2019
4544 Clouds 28 1016 45 16093 6.2 100 21:19 11.11.2019
4545 Clouds 28 1017 42 16093 4.6 90 20:42 11.11.2019
4546 Clouds 28 1017 42 16093 4.6 90 20:20 11.11.2019
4547 Clouds 28 1017 42 16093 4.6 90 19:57 11.11.2019
4548 Clouds 28 1017 42 16093 4.6 70 19:39 11.11.2019
4549 Clouds 29 1017 42 16093 4.6 70 19:18 11.11.2019
4550 Clouds 28 1017 42 16093 4.6 70 18:54 11.11.2019
4551 Clouds 28 1018 48 16093 6.2 90 18:36 11.11.2019
4552 Clouds 28 1018 48 16093 6.2 90 18:18 11.11.2019
4553 Clouds 28 1019 48 16093 6.2 110 17:41 11.11.2019
4554 Clouds 28 1019 48 16093 6.2 110 17:23 11.11.2019
4555 Clouds 27 1019 48 16093 5.7 80 16:41 11.11.2019
4556 Clouds 27 1019 48 16093 5.7 80 16:22 11.11.2019
4557 Clouds 27 1019 48 16093 5.7 80 15:57 11.11.2019
4558 Clouds 27 1019 51 16093 7.2 90 15:39 11.11.2019
4559 Clouds 26 1019 51 16093 7.2 90 15:19 11.11.2019
4560 Clouds 26 1018 61 16093 5.1 90 14:43 11.11.2019
4561 Clouds 26 1018 61 16093 5.1 90 14:25 11.11.2019
4562 Clouds 25 1018 61 16093 5.1 90 13:58 11.11.2019
4563 Clouds 24 1018 69 16093 2.1 60 13:38 11.11.2019
4564 Clouds 24 1018 69 16093 2.1 60 13:19 11.11.2019
4565 Clouds 24 1018 69 16093 2.1 60 13:19 11.11.2019
4566 Clouds 24 1018 69 16093 2.1 60 12:57 11.11.2019
4567 Rain 23 1018 73 16093 4.6 80 12:39 11.11.2019
4568 Rain 24 1018 73 16093 4.6 80 12:21 11.11.2019
4569 Clouds 23 1017 69 16093 1.5 350 11:42 11.11.2019
4570 Clouds 23 1017 69 16093 1.5 350 11:22 11.11.2019
4571 Clouds 23 1017 69 16093 1.5 350 10:57 11.11.2019
4572 Clouds 23 1017 69 16093 2.1 350 10:38 11.11.2019
4573 Clouds 23 1017 69 16093 2.1 350 10:18 11.11.2019
4574 Clouds 23 1017 69 16093 2.1 350 09:54 11.11.2019
4575 Clouds 23 1017 64 16093 2.6 10 09:36 11.11.2019
4576 Clouds 23 1017 64 16093 2.6 10 09:18 11.11.2019
4577 Clouds 23 1018 60 16093 2.1 360 08:37 11.11.2019
4578 Clouds 23 1018 60 16093 2.1 360 08:19 11.11.2019
4579 Clouds 23 1018 60 16093 2.1 360 07:54 11.11.2019
4580 Clouds 23 1018 60 16093 1.5 10 07:36 11.11.2019
4581 Clouds 23 1018 60 16093 1.5 10 07:18 11.11.2019
4582 Clouds 23 1019 53 16093 2.1 40 06:41 11.11.2019
4583 Clouds 23 1019 53 16093 2.1 40 06:20 11.11.2019
4584 Clouds 23 1019 53 16093 2.6 50 05:49 11.11.2019
4585 Clouds 24 1019 53 16093 3.1 60 03:56 11.11.2019
4586 Clouds 24 1019 47 16093 3.6 50 03:20 11.11.2019
4587 Clouds 24 1019 53 16093 5.7 70 02:20 11.11.2019
4588 Clouds 24 1019 57 16093 7.2 90 01:52 11.11.2019
4589 Clouds 24 1018 47 16093 4.6 60 01:31 11.11.2019
4590 Clouds 24 1018 50 16093 5.1 60 00:42 11.11.2019
4591 Clouds 25 1018 41 16093 4.1 50 23:59 10.11.2019
4592 Clouds 25 1018 47 16093 5.7 60 23:39 10.11.2019
4593 Clouds 25 1018 47 16093 5.7 60 23:19 10.11.2019
4594 Clouds 26 1018 47 16093 5.7 60 22:57 10.11.2019
4595 Clouds 26 1017 44 16093 6.2 60 22:38 10.11.2019
4596 Clouds 26 1017 44 16093 6.2 60 22:20 10.11.2019
4597 Clouds 26 1017 44 16093 6.2 60 21:57 10.11.2019
4598 Clouds 27 1017 39 16093 5.7 70 21:39 10.11.2019
4599 Clouds 27 1017 39 16093 5.7 70 21:20 10.11.2019
4600 Clouds 27 1018 42 16093 5.7 50 20:43 10.11.2019
4601 Clouds 27 1018 42 16093 5.7 50 20:23 10.11.2019
4602 Clouds 27 1018 42 16093 5.7 50 19:57 10.11.2019
4603 Clouds 27 1018 42 16093 5.7 50 19:57 10.11.2019
4604 Clouds 28 1018 42 16093 6.2 60 19:38 10.11.2019
4605 Clouds 28 1018 42 16093 6.2 60 19:19 10.11.2019
4606 Clouds 28 1018 42 16093 6.2 60 19:19 10.11.2019
4607 Clouds 28 1018 42 16093 6.2 60 18:58 10.11.2019
4608 Clouds 28 1019 47 16093 6.2 60 18:40 10.11.2019
4609 Clouds 27 1019 47 16093 6.2 60 18:20 10.11.2019
4610 Clouds 27 1019 47 16093 6.2 60 17:57 10.11.2019
4611 Clouds 28 1019 45 16093 8.7 80 17:39 10.11.2019
4612 Clouds 27 1019 45 16093 8.7 80 17:20 10.11.2019
4613 Clouds 27 1019 45 16093 8.7 80 17:20 10.11.2019
4614 Clouds 27 1019 45 16093 8.7 80 16:59 10.11.2019
4615 Clouds 27 1020 51 16093 7.2 50 16:41 10.11.2019
4616 Clouds 27 1020 51 16093 7.2 50 16:22 10.11.2019
4617 Rain 26 1020 51 16093 7.2 50 15:56 10.11.2019
4618 Rain 26 1020 61 16093 2.6 10 15:37 10.11.2019
4619 Rain 25 1020 61 16093 2.6 10 15:18 10.11.2019
4620 Clouds 24 1020 61 16093 2.6 10 14:55 10.11.2019
4621 Clouds 24 1019 69 16093 2.1 360 14:36 10.11.2019
4622 Clouds 23 1019 69 16093 2.1 360 14:18 10.11.2019
4623 Clouds 21 1019 73 16093 2.6 360 13:43 10.11.2019
4624 Clouds 21 1019 73 16093 2.6 360 13:21 10.11.2019
4625 Clouds 21 1019 73 16093 2.6 360 12:58 10.11.2019
4626 Clouds 20 1018 73 16093 1.5 350 12:40 10.11.2019
4627 Clouds 20 1018 73 16093 1.5 350 12:18 10.11.2019
4628 Clouds 21 1018 73 16093 1.5 350 11:54 10.11.2019
4629 Clouds 21 1017 73 16093 2.1 330 11:36 10.11.2019
4630 Clouds 21 1017 73 16093 2.1 330 11:18 10.11.2019
4631 Clouds 21 1017 64 16093 1.5 360 10:42 10.11.2019
4632 Clouds 22 1017 64 16093 1.5 360 10:20 10.11.2019
4633 Clouds 22 1017 64 16093 1.5 360 09:55 10.11.2019
4634 Clouds 22 1017 60 16093 3.1 60 09:37 10.11.2019
4635 Clouds 22 1017 60 16093 2.1 10 09:18 10.11.2019
4636 Clouds 22 1017 53 16093 2.6 30 08:38 10.11.2019
4637 Clouds 22 1017 53 16093 2.6 30 08:38 10.11.2019
4638 Clouds 22 1017 53 16093 2.6 30 08:19 10.11.2019
4639 Clouds 23 1017 60 16093 2.1 40 07:43 10.11.2019
4640 Clouds 23 1017 60 16093 2.1 40 07:25 10.11.2019
4641 Clouds 23 1017 57 16093 3.1 50 06:38 10.11.2019
4642 Clouds 23 1017 60 16093 3.1 60 05:43 10.11.2019
4643 Rain 22 1017 69 16093 3.1 30 03:22 10.11.2019
4644 Rain 21 1017 94 16093 4.1 60 02:18 10.11.2019
4645 Rain 21 1016 88 11265 9.5 40 01:19 10.11.2019
4646 Rain 21 1016 83 8047 4.1 360 00:42 10.11.2019
4647 Rain 22 1016 83 16093 2.1 0 23:58 09.11.2019
4648 Rain 22 1016 83 4023 4.1 10 23:38 09.11.2019
4649 Rain 22 1016 83 4023 4.1 10 23:18 09.11.2019
4650 Rain 22 1015 88 3219 2.6 0 22:41 09.11.2019
4651 Rain 22 1015 73 16093 3.1 30 22:21 09.11.2019
4652 Rain 22 1015 73 16093 3.1 30 21:58 09.11.2019
4653 Rain 22 1015 88 11265 2.6 20 21:38 09.11.2019
4654 Rain 22 1015 73 16093 5.1 50 21:20 09.11.2019
4655 Rain 22 1015 69 16093 4.6 30 20:44 09.11.2019
4656 Rain 22 1015 69 16093 4.6 30 20:23 09.11.2019
4657 Rain 22 1015 69 16093 4.6 30 19:58 09.11.2019
4658 Rain 22 1015 88 16093 4.1 50 19:40 09.11.2019
4659 Rain 23 1015 69 16093 9.3 20 19:22 09.11.2019
4660 Rain 23 1016 64 16093 5.1 10 18:57 09.11.2019
4661 Rain 23 1016 88 6437 4.1 30 18:38 09.11.2019
4662 Rain 23 1016 73 14484 7.2 30 18:18 09.11.2019
4663 Drizzle 23 1015 83 16093 9.3 20 17:41 09.11.2019
4664 Rain 23 1016 73 12874 6.2 30 17:22 09.11.2019
4665 Rain 23 1016 73 12874 6.2 30 17:22 09.11.2019
4666 Clouds 23 1016 73 12874 6.2 30 16:56 09.11.2019
4667 Rain 24 1016 88 16093 8.2 20 16:37 09.11.2019
4668 Rain 24 1016 69 16093 8.2 30 16:18 09.11.2019
4669 Rain 24 1015 78 16093 7.2 10 15:41 09.11.2019
4670 Clouds 24 1016 78 16093 8.7 20 15:23 09.11.2019
4671 Clouds 24 1016 83 16093 9.3 10 14:46 09.11.2019
4672 Clouds 24 1015 78 16093 2.1 360 14:23 09.11.2019
4673 Clouds 24 1015 78 16093 2.1 360 13:58 09.11.2019
4674 Clouds 23 1014 83 16093 5.1 360 13:40 09.11.2019
4675 Clouds 23 1014 83 16093 5.1 360 13:21 09.11.2019
4676 Clouds 23 1014 83 16093 5.1 360 12:58 09.11.2019
4677 Clouds 23 1014 94 16093 5.1 360 12:40 09.11.2019
4678 Clouds 23 1014 83 16093 3.6 350 12:22 09.11.2019
4679 Clouds 23 1013 94 16093 4.1 360 11:48 09.11.2019
4680 Clouds 23 1013 88 16093 3.6 350 11:23 09.11.2019
4681 Clouds 23 1013 88 16093 4.6 350 10:59 09.11.2019
4682 Clouds 23 1013 88 16093 3.6 350 10:39 09.11.2019
4683 Clouds 23 1013 88 16093 3.6 350 10:19 09.11.2019
4684 Clouds 24 1013 88 16093 3.1 330 09:45 09.11.2019
4685 Clouds 24 1013 88 16093 3.1 330 09:27 09.11.2019
4686 Clouds 24 1013 83 16093 2.6 340 08:58 09.11.2019
4687 Clouds 24 1013 94 16093 3.1 340 08:39 09.11.2019
4688 Clouds 24 1013 83 16093 2.1 320 08:19 09.11.2019
4689 Rain 24 1013 88 16093 3.1 350 07:45 09.11.2019
4690 Rain 24 1013 78 16093 3.1 330 07:23 09.11.2019
4691 Rain 25 1014 88 16093 3.1 320 06:49 09.11.2019
4692 Thunderstorm 25 1013 88 16093 2.1 270 06:30 09.11.2019
4693 Clouds 25 1014 78 16093 1.5 240 05:43 09.11.2019
4694 Rain 25 1014 78 14484 2.6 350 04:58 09.11.2019
4695 Mist 26 1015 94 6437 2.1 360 03:52 09.11.2019
4696 Clouds 27 1014 69 16093 2.6 110 02:43 09.11.2019
4697 Clouds 27 1014 65 16093 3.1 120 01:55 09.11.2019
4698 Clouds 27 1014 65 16093 3.1 120 00:52 09.11.2019
4699 Clouds 27 1013 65 16093 3.1 110 00:31 09.11.2019
4700 Clouds 28 1013 65 16093 3.1 110 23:58 08.11.2019
4701 Clouds 28 1013 69 16093 3.1 90 23:39 08.11.2019
4702 Clouds 28 1013 62 16093 3.1 110 23:19 08.11.2019
4703 Clouds 28 1013 62 16093 3.1 110 23:19 08.11.2019
4704 Clouds 29 1012 58 16093 3.6 110 22:48 08.11.2019
4705 Clouds 29 1012 58 16093 3.6 110 22:22 08.11.2019
4706 Clouds 29 1012 58 16093 3.6 110 21:56 08.11.2019
4707 Clouds 29 1012 58 16093 3.1 110 21:38 08.11.2019
4708 Clouds 29 1012 58 16093 3.1 110 21:18 08.11.2019
4709 Clouds 30 1013 58 16093 4.1 110 20:42 08.11.2019
4710 Clouds 30 1013 58 16093 4.1 110 20:22 08.11.2019
4711 Clouds 30 1013 58 16093 4.1 110 19:58 08.11.2019
4712 Clouds 30 1014 62 16093 3.1 0 19:38 08.11.2019
4713 Clouds 30 1014 62 16093 3.1 0 19:38 08.11.2019
4714 Clouds 30 1014 62 16093 3.1 0 19:18 08.11.2019
4715 Clouds 30 1015 55 16093 2.66 89 18:55 08.11.2019
4716 Clouds 30 1015 55 16093 2.66 89 18:37 08.11.2019
4717 Clouds 30 1015 55 16093 2.66 89 18:37 08.11.2019
4718 Clouds 30 1015 55 16093 2.66 89 18:19 08.11.2019
4719 Clouds 30 1015 55 16093 2.66 89 17:55 08.11.2019
4720 Clouds 30 1015 55 16093 2.66 89 17:55 08.11.2019
4721 Clouds 30 1016 58 16093 1.5 0 17:37 08.11.2019
4722 Clouds 30 1016 58 16093 1.5 0 17:19 08.11.2019
4723 Clouds 29 1016 58 16093 1.5 0 16:58 08.11.2019
4724 Clouds 29 1016 70 16093 2.1 0 16:39 08.11.2019
4725 Clouds 29 1016 66 16093 1.5 90 16:19 08.11.2019
4726 Clouds 29 1016 66 16093 1.5 90 15:56 08.11.2019
4727 Clouds 28 1016 74 16093 1.78 101 15:38 08.11.2019
4728 Clouds 28 1016 69 16093 1.5 50 15:20 08.11.2019
4729 Clouds 28 1016 69 16093 1.5 50 14:55 08.11.2019
4730 Clouds 27 1016 74 16093 1.5 360 14:36 08.11.2019
4731 Clouds 26 1016 74 16093 1.5 360 14:18 08.11.2019
4732 Clouds 25 1015 88 16093 2.54 76 13:43 08.11.2019
4733 Clouds 24 1015 88 16093 2.54 76 13:23 08.11.2019
4734 Clouds 24 1015 88 16093 2.83 112 12:59 08.11.2019
4735 Clouds 23 1015 88 16093 1.5 350 12:41 08.11.2019
4736 Clouds 24 1015 83 16093 2.83 112 12:23 08.11.2019
4737 Clouds 24 1015 88 16093 2.83 112 11:55 08.11.2019
4738 Clouds 24 1015 88 16093 2.83 112 11:37 08.11.2019
4739 Clouds 24 1015 88 16093 3.73 80 11:19 08.11.2019
4740 Clouds 24 1014 83 16093 3.73 80 10:43 08.11.2019
4741 Clouds 24 1014 83 16093 3.73 80 10:22 08.11.2019
4742 Clouds 24 1014 83 16093 3.73 80 09:59 08.11.2019
4743 Clouds 24 1015 83 16093 1.5 350 09:41 08.11.2019
4744 Clouds 24 1015 83 16093 1.5 350 09:20 08.11.2019
4745 Clouds 24 1015 83 16093 3.73 80 08:47 08.11.2019
4746 Clouds 24 1015 83 16093 3.73 80 08:29 08.11.2019
4747 Clouds 24 1015 83 16093 4.59 72 07:57 08.11.2019
4748 Clouds 25 1016 74 16093 4.59 72 07:39 08.11.2019
4749 Clouds 25 1016 74 16093 4.59 72 07:20 08.11.2019
4750 Clouds 25 1016 74 16093 2.1 90 06:40 08.11.2019
4751 Clouds 25 1016 74 16093 2.1 90 06:20 08.11.2019
4752 Clouds 26 1017 69 16093 3.1 80 05:40 08.11.2019
4753 Clouds 27 1017 74 16093 3.6 100 04:43 08.11.2019
4754 Clouds 27 1017 65 16093 4.6 70 03:44 08.11.2019
4755 Clouds 27 1017 65 16093 4.6 70 03:21 08.11.2019
4756 Clouds 27 1017 69 16093 3.1 60 02:41 08.11.2019
4757 Clear 27 1017 65 16093 3.1 50 01:46 08.11.2019
4758 Clear 27 1017 65 16093 3.1 50 01:18 08.11.2019
4759 Clouds 28 1017 65 16093 4.1 50 00:24 08.11.2019
4760 Clouds 28 1017 65 16093 4.1 50 23:57 07.11.2019
4761 Clouds 28 1017 62 16093 3.6 70 23:39 07.11.2019
4762 Clouds 28 1017 62 16093 3.6 70 23:20 07.11.2019
4763 Clouds 29 1016 58 16093 5.1 80 22:42 07.11.2019
4764 Clouds 29 1016 58 16093 5.1 80 22:21 07.11.2019
4765 Clouds 29 1017 66 16093 5.1 80 21:56 07.11.2019
4766 Clouds 29 1016 58 16093 5.1 80 21:37 07.11.2019
4767 Clouds 29 1016 58 16093 5.1 80 21:19 07.11.2019
4768 Clouds 30 1016 58 16093 5.1 80 20:55 07.11.2019
4769 Clouds 30 1017 55 16093 6.2 70 20:37 07.11.2019
4770 Clouds 30 1017 55 16093 6.2 70 20:19 07.11.2019
4771 Clouds 30 1018 55 16093 4.6 60 19:42 07.11.2019
4772 Clouds 30 1018 55 16093 4.6 60 19:23 07.11.2019
4773 Clouds 30 1018 55 16093 4.6 60 18:59 07.11.2019
4774 Clouds 30 1019 55 16093 5.7 80 18:40 07.11.2019
4775 Clouds 30 1019 55 16093 5.7 80 18:20 07.11.2019
4776 Clouds 30 1019 55 16093 5.7 80 18:20 07.11.2019
4777 Clouds 30 1019 55 16093 5.7 80 17:59 07.11.2019
4778 Clouds 30 1019 58 16093 7.2 90 17:40 07.11.2019
4779 Clouds 30 1019 58 16093 7.2 90 17:20 07.11.2019
4780 Clouds 30 1019 58 16093 7.7 90 16:58 07.11.2019
4781 Clouds 30 1019 58 16093 7.7 90 16:58 07.11.2019
4782 Clouds 30 1019 58 16093 7.7 90 16:39 07.11.2019
4783 Clouds 29 1019 58 16093 7.7 90 16:19 07.11.2019
4784 Clouds 29 1019 62 16093 5.7 100 15:56 07.11.2019
4785 Clouds 29 1019 62 16093 5.7 100 15:37 07.11.2019
4786 Clouds 29 1019 62 16093 5.7 100 15:18 07.11.2019
4787 Clouds 28 1019 65 16093 4.6 90 14:44 07.11.2019
4788 Clouds 28 1019 65 16093 4.6 90 14:26 07.11.2019
4789 Clouds 27 1018 69 16093 5.1 80 13:56 07.11.2019
4790 Clouds 27 1018 69 16093 5.1 80 13:38 07.11.2019
4791 Clouds 26 1018 69 16093 5.1 80 13:20 07.11.2019
4792 Clouds 26 1018 74 16093 3.6 80 12:58 07.11.2019
4793 Clouds 26 1018 74 16093 3.6 80 12:39 07.11.2019
4794 Clouds 26 1018 74 16093 3.6 80 12:20 07.11.2019
4795 Clouds 26 1018 74 16093 3.6 80 12:20 07.11.2019
4796 Clouds 26 1018 74 16093 3.1 90 11:44 07.11.2019
4797 Clouds 26 1018 74 16093 3.1 90 11:24 07.11.2019
4798 Clouds 26 1018 69 16093 3.1 80 10:59 07.11.2019
4799 Clouds 26 1018 69 16093 3.1 80 10:40 07.11.2019
4800 Clouds 26 1018 69 16093 3.1 80 10:18 07.11.2019
4801 Clouds 26 1018 69 16093 4.1 80 09:43 07.11.2019
4802 Clouds 26 1018 69 16093 4.1 80 09:22 07.11.2019
4803 -273 0 0 0 0 0 08:57 07.11.2019
4804 Clouds 26 1018 78 16093 4.6 60 08:56 07.11.2019
4805 Clouds 26 1018 78 16093 4.6 60 08:56 07.11.2019
4806 Clouds 26 1018 78 16093 4.6 60 08:55 07.11.2019
4807 Clouds 26 1018 78 16093 4.6 60 08:37 07.11.2019
4808 Clouds 26 1019 69 16093 2.6 50 08:19 07.11.2019
4809 Clouds 27 1019 78 16093 3.6 90 07:41 07.11.2019
4810 Clouds 27 1019 78 16093 3.6 90 07:22 07.11.2019
4811 Clouds 27 1019 74 16093 3.6 70 06:48 07.11.2019
4812 Clouds 27 1019 74 16093 3.6 70 06:48 07.11.2019
4813 Clouds 27 1019 74 16093 3.6 70 06:28 07.11.2019
4814 Clear 27 1020 78 16093 5.1 80 05:57 07.11.2019
4815 Clouds 27 1020 65 16093 4.6 70 05:38 07.11.2019
4816 Clouds 27 1020 65 16093 4.6 70 05:19 07.11.2019
4817 Clouds 27 1020 65 16093 4.6 70 05:19 07.11.2019
4818 Rain 27 1020 83 16093 4.1 70 04:41 07.11.2019
4819 Clouds 27 1020 74 16093 5.1 60 02:58 07.11.2019
4820 Clouds 27 1020 74 16093 5.1 60 02:57 07.11.2019
4821 Clouds 28 1019 65 16093 4.6 50 00:47 07.11.2019
4822 Clouds 28 1019 65 16093 4.6 50 00:20 07.11.2019
4823 Clouds 28 1019 74 16093 5.7 60 23:47 06.11.2019
4824 Clouds 28 1019 74 16093 5.7 60 23:22 06.11.2019
4825 Clouds 28 1018 62 16093 6.2 70 22:56 06.11.2019
4826 Clouds 29 1018 62 16093 6.2 70 22:38 06.11.2019
4827 Clouds 29 1018 62 16093 6.2 70 22:18 06.11.2019
4828 Rain 29 1018 74 16093 5.7 60 21:42 06.11.2019
4829 Rain 29 1018 66 16093 5.7 60 21:21 06.11.2019
4830 Clouds 29 1018 70 16093 6.7 50 20:59 06.11.2019
4831 Clouds 29 1018 70 16093 6.7 50 20:40 06.11.2019
4832 Clouds 30 1019 58 16093 8.2 80 20:22 06.11.2019
4833 Clouds 30 1019 55 16093 5.7 70 19:59 06.11.2019
4834 Clouds 30 1019 55 16093 5.7 70 19:40 06.11.2019
4835 Clouds 30 1019 55 16093 5.7 70 19:21 06.11.2019
4836 Clouds 30 1020 66 16093 7.7 80 18:58 06.11.2019
4837 Clouds 30 1020 58 16093 6.2 80 18:39 06.11.2019
4838 Clouds 30 1020 58 16093 6.2 80 18:19 06.11.2019
4839 Clouds 30 1020 58 16093 5.7 80 17:57 06.11.2019
4840 Clouds 30 1021 62 16093 6.2 80 17:39 06.11.2019
4841 Clouds 30 1021 62 16093 6.2 80 17:21 06.11.2019
4842 Clouds 30 1021 62 16093 6.2 80 16:55 06.11.2019
4843 Clouds 30 1021 70 16093 6.2 70 16:37 06.11.2019
4844 Clouds 30 1021 70 16093 6.2 70 16:18 06.11.2019
4845 Clouds 29 1021 66 16093 5.1 80 15:54 06.11.2019
4846 Clouds 29 1021 65 16093 4.1 60 15:36 06.11.2019
4847 Clouds 29 1021 65 16093 4.1 60 15:18 06.11.2019
4848 Clouds 28 1021 65 16093 4.1 60 14:55 06.11.2019
4849 Clouds 28 1020 69 16093 1.5 360 14:37 06.11.2019
4850 Clouds 28 1020 69 16093 1.5 360 14:37 06.11.2019
4851 Clouds 27 1020 69 16093 1.5 360 14:19 06.11.2019
4852 Clouds 26 1020 69 16093 1.5 10 13:40 06.11.2019
4853 Clouds 26 1020 69 16093 1.5 10 13:40 06.11.2019
4854 Clouds 26 1020 69 16093 1.5 10 13:22 06.11.2019
4855 Clouds 25 1020 69 16093 1.5 10 12:58 06.11.2019
4856 Clouds 25 1019 74 16093 5.89 77 12:39 06.11.2019
4857 Clouds 25 1019 74 16093 5.89 77 12:39 06.11.2019
4858 Clouds 25 1019 74 16093 5.89 77 12:21 06.11.2019
4859 Clouds 25 1019 74 16093 5.89 77 11:58 06.11.2019
4860 Clouds 25 1019 74 16093 1.5 10 11:37 06.11.2019
4861 Clouds 25 1019 74 16093 1.5 10 11:18 06.11.2019
4862 Clouds 25 1019 74 16093 1.5 10 10:56 06.11.2019
4863 Clouds 25 1018 74 16093 2.1 10 10:38 06.11.2019
4864 Clouds 25 1018 74 16093 2.1 10 10:19 06.11.2019
4865 Clouds 25 1019 74 16093 2.1 360 09:44 06.11.2019
4866 Clouds 25 1019 74 16093 2.1 360 09:24 06.11.2019
4867 Clouds 25 1019 74 16093 2.1 360 08:59 06.11.2019
4868 Clouds 25 1019 74 16093 6.33 87 08:39 06.11.2019
4869 Clouds 25 1019 74 16093 5.72 98 08:20 06.11.2019
4870 Clouds 25 1019 74 16093 5.72 98 07:59 06.11.2019
4871 Clouds 25 1019 74 16093 2.6 90 07:40 06.11.2019
4872 Clouds 25 1019 74 16093 2.6 90 07:20 06.11.2019
4873 Clouds 25 1019 78 16093 2.6 90 06:44 06.11.2019
4874 Clouds 26 1019 78 16093 2.6 90 06:24 06.11.2019
4875 Clouds 26 1020 69 16093 3.6 90 04:32 06.11.2019
4876 Clouds 27 1019 74 16093 3.6 100 02:20 06.11.2019
4877 Clouds 27 1019 65 16093 3.1 90 01:31 06.11.2019
4878 Clouds 27 1018 65 16093 4.1 80 00:39 06.11.2019
4879 Clouds 28 1018 65 16093 4.1 80 23:58 05.11.2019
4880 Clouds 28 1018 69 16093 3.1 100 23:38 05.11.2019
4881 Clouds 28 1018 69 16093 3.1 100 23:38 05.11.2019
4882 Clouds 28 1018 62 16093 3.6 90 23:20 05.11.2019
4883 -273 0 0 0 0 0 22:43 05.11.2019
4884 Clouds 29 1018 58 16093 4.1 90 22:20 05.11.2019
4885 Clouds 29 1018 58 16093 4.1 90 21:59 05.11.2019
4886 Clouds 29 1018 58 16093 4.1 90 21:59 05.11.2019
4887 Clouds 29 1017 55 16093 3.6 70 21:41 05.11.2019
4888 Clouds 29 1017 55 16093 3.6 70 21:20 05.11.2019
4889 Clouds 29 1017 55 16093 3.6 70 20:57 05.11.2019
4890 Clouds 29 1018 58 16093 4.1 100 20:38 05.11.2019
4891 Clouds 29 1018 58 16093 4.1 100 20:20 05.11.2019
4892 Clouds 30 1018 58 16093 4.1 100 19:56 05.11.2019
4893 Clouds 30 1018 58 16093 3.1 110 19:38 05.11.2019
4894 Clouds 30 1018 58 16093 3.1 110 19:19 05.11.2019
4895 Clouds 30 1018 58 16093 3.1 110 18:56 05.11.2019
4896 Clouds 30 1019 55 16093 3.6 90 18:38 05.11.2019
4897 Clouds 30 1019 55 16093 3.6 90 18:19 05.11.2019
4898 Clouds 30 1019 55 16093 3.6 90 17:56 05.11.2019
4899 Clouds 30 1020 70 16093 5.7 60 17:37 05.11.2019
4900 Clouds 29 1020 70 16093 5.7 60 17:18 05.11.2019
4901 Clouds 30 1019 58 16093 4.1 110 16:42 05.11.2019
4902 Clouds 30 1019 58 16093 4.1 110 16:21 05.11.2019
4903 Clouds 29 1019 58 16093 4.1 110 15:59 05.11.2019
4904 Clouds 29 1019 62 16093 3.6 100 15:37 05.11.2019
4905 Clouds 29 1019 62 16093 3.6 100 15:18 05.11.2019
4906 Clouds 28 1019 62 16093 3.6 100 14:55 05.11.2019
4907 Clouds 28 1019 62 16093 3.6 100 14:55 05.11.2019
4908 Clouds 28 1019 65 16093 3.6 100 14:36 05.11.2019
4909 Rain 28 1019 65 16093 3.6 100 14:18 05.11.2019
4910 Clouds 26 1018 74 16093 1.5 110 13:43 05.11.2019
4911 Clouds 26 1018 74 16093 1.5 110 13:24 05.11.2019
4912 Clouds 26 1019 74 16093 1.5 350 12:42 05.11.2019
4913 Clouds 26 1018 74 16093 2.6 110 12:23 05.11.2019
4914 Clouds 26 1018 74 16093 2.6 110 11:59 05.11.2019
4915 Clouds 26 1017 65 16093 4.1 110 11:40 05.11.2019
4916 Clouds 26 1017 65 16093 4.1 110 11:21 05.11.2019
4917 Clouds 26 1017 65 16093 4.1 110 10:59 05.11.2019
4918 Clouds 26 1017 69 16093 4.1 100 10:40 05.11.2019
4919 Clouds 26 1017 69 16093 4.1 100 10:22 05.11.2019
4920 Clouds 26 1017 69 16093 4.1 100 09:55 05.11.2019
4921 Clouds 26 1017 69 16093 3.1 110 09:37 05.11.2019
4922 Clouds 26 1017 69 16093 3.1 110 09:18 05.11.2019
4923 Clouds 26 1018 74 16093 3.1 100 08:39 05.11.2019
4924 Clouds 26 1018 74 16093 3.1 100 08:20 05.11.2019
4925 Clouds 26 1018 74 16093 3.1 100 07:58 05.11.2019
4926 Clouds 26 1018 69 16093 3.6 100 07:40 05.11.2019
4927 Clouds 26 1018 69 16093 3.6 100 07:22 05.11.2019
4928 Clouds 27 1018 69 16093 4.6 100 06:50 05.11.2019
4929 Clouds 27 1018 65 16093 4.6 110 05:51 05.11.2019
4930 Clouds 27 1018 65 16093 4.6 110 05:51 05.11.2019
4931 Clouds 27 1018 65 16093 4.6 110 05:23 05.11.2019
4932 Clouds 27 1018 65 16093 3.6 100 04:31 05.11.2019
4933 Clouds 27 1018 65 16093 3.6 100 03:56 05.11.2019
4934 Clouds 27 1018 65 16093 5.1 90 02:48 05.11.2019
4935 Clouds 27 1018 65 16093 5.1 90 02:22 05.11.2019
4936 Clouds 27 1018 65 16093 3.1 100 01:25 05.11.2019
4937 Clouds 27 1017 61 16093 4.1 110 00:38 05.11.2019
4938 Clouds 28 1017 61 16093 4.1 110 23:57 04.11.2019
4939 Clouds 28 1017 65 16093 4.1 120 23:37 04.11.2019
4940 Clouds 28 1017 65 16093 4.1 120 23:18 04.11.2019
4941 Clouds 28 1017 62 16093 3.6 120 22:42 04.11.2019
4942 Clouds 29 1017 62 16093 3.6 120 22:23 04.11.2019
4943 Clouds 29 1017 62 16093 3.6 120 21:56 04.11.2019
4944 Clouds 29 1017 62 16093 3.6 120 21:56 04.11.2019
4945 Clouds 29 1016 62 16093 5.1 110 21:38 04.11.2019
4946 Clouds 29 1016 62 16093 5.1 110 21:19 04.11.2019
4947 Clouds 29 1016 62 16093 5.1 110 20:59 04.11.2019
4948 Clouds 30 1017 55 16093 5.7 150 20:40 04.11.2019
4949 Clouds 30 1017 55 16093 5.7 150 20:21 04.11.2019
4950 Clouds 30 1017 55 16093 5.7 150 20:21 04.11.2019
4951 Clouds 30 1017 55 16093 5.7 150 19:59 04.11.2019
4952 Clouds 30 1017 62 16093 5.1 130 19:41 04.11.2019
4953 Clouds 30 1017 62 16093 5.1 130 19:21 04.11.2019
4954 Rain 30 1017 62 16093 5.1 130 18:57 04.11.2019
4955 Rain 30 1018 66 16093 3.6 140 18:39 04.11.2019
4956 Rain 30 1018 66 16093 3.6 140 18:19 04.11.2019
4957 Rain 30 1018 74 16093 6.2 130 17:41 04.11.2019
4958 Rain 29 1018 70 16093 4.6 130 17:22 04.11.2019
4959 Rain 29 1018 70 16093 4.6 130 16:59 04.11.2019
4960 Rain 29 1018 66 16093 4.1 110 16:41 04.11.2019
4961 Rain 29 1018 66 16093 4.1 110 16:23 04.11.2019
4962 Clouds 29 1018 66 16093 4.1 110 15:57 04.11.2019
4963 Rain 29 1018 69 16093 5.1 110 15:39 04.11.2019
4964 Rain 28 1018 69 16093 5.1 110 15:19 04.11.2019
4965 Rain 28 1018 69 16093 5.1 110 14:57 04.11.2019
4966 Rain 27 1017 83 11265 1.5 0 14:39 04.11.2019
4967 Rain 27 1017 83 11265 1.5 0 14:19 04.11.2019
4968 Rain 26 1017 83 11265 1.5 0 13:55 04.11.2019
4969 Clouds 25 1017 83 16093 2.1 10 13:37 04.11.2019
4970 Clouds 25 1017 83 16093 2.1 10 13:19 04.11.2019
4971 Rain 25 1016 83 16093 2.1 350 12:44 04.11.2019
4972 Rain 25 1016 83 16093 2.1 350 12:24 04.11.2019
4973 Rain 25 1016 83 16093 2.1 350 11:57 04.11.2019
4974 Rain 25 1016 83 16093 6.15 94 11:39 04.11.2019
4975 Rain 24 1016 83 16093 6.14 88 11:21 04.11.2019
4976 Rain 24 1015 94 11265 2.6 320 10:45 04.11.2019
4977 Rain 24 1016 88 16093 1.5 360 10:26 04.11.2019
4978 Rain 24 1016 88 16093 1.5 360 09:55 04.11.2019
4979 Rain 24 1015 83 16093 1.5 10 09:37 04.11.2019
4980 Rain 24 1015 83 16093 1.5 10 09:18 04.11.2019
4981 Rain 24 1016 94 16093 2.1 350 08:42 04.11.2019
4982 Rain 24 1016 94 16093 2.1 350 08:21 04.11.2019
4983 Clouds 24 1016 83 16093 1.5 0 07:45 04.11.2019
4984 Clouds 24 1016 83 16093 1.5 0 07:25 04.11.2019
4985 Clouds 24 1016 83 16093 1.5 0 07:25 04.11.2019
4986 Clouds 25 1016 83 16093 1.5 0 06:59 04.11.2019
4987 Clouds 24 1016 88 16093 2.1 360 06:38 04.11.2019
4988 Rain 24 1016 88 16093 2.1 360 05:59 04.11.2019
4989 Rain 24 1017 94 16093 3.1 30 05:23 04.11.2019
4990 Rain 24 1017 88 16093 4.1 40 04:26 04.11.2019
4991 Rain 23 1018 88 16093 3.1 40 03:29 04.11.2019
4992 Rain 23 1017 88 16093 5.1 10 01:24 04.11.2019
4993 Rain 23 1016 83 16093 3.1 30 00:54 04.11.2019
4994 Rain 23 1016 83 16093 3.1 350 00:22 04.11.2019
4995 Clouds 24 1016 83 16093 3.1 350 23:58 03.11.2019
4996 Clouds 24 1016 83 16093 3.1 350 23:58 03.11.2019
4997 Rain 24 1016 83 16093 4.6 360 23:37 03.11.2019
4998 Rain 24 1016 83 16093 4.6 360 23:37 03.11.2019
4999 Rain 24 1016 88 16093 6.7 360 23:18 03.11.2019
5000 Rain 24 1016 88 16093 6.7 360 23:18 03.11.2019
5001 Rain 24 1016 88 16093 6.7 360 23:18 03.11.2019
5002 Rain 24 1016 88 16093 6.7 360 23:18 03.11.2019
5003 Rain 24 1016 78 16093 4.1 20 22:56 03.11.2019
5004 Rain 24 1016 78 16093 8.2 350 22:38 03.11.2019
5005 Rain 25 1016 78 16093 8.2 350 22:18 03.11.2019
5006 Rain 25 1015 94 4828 5.7 340 21:42 03.11.2019
5007 Rain 26 1015 78 16093 3.6 50 21:21 03.11.2019
5008 Rain 26 1015 78 16093 3.6 50 20:58 03.11.2019
5009 Rain 27 1016 88 4828 5.7 340 20:37 03.11.2019
5010 Rain 27 1015 62 16093 3.1 330 20:19 03.11.2019
5011 Rain 27 1015 62 16093 3.1 330 20:19 03.11.2019
5012 Rain 28 1015 62 16093 3.1 330 19:57 03.11.2019
5013 Rain 28 1016 62 16093 3.6 330 19:38 03.11.2019
5014 Rain 28 1016 62 16093 3.6 330 19:20 03.11.2019
5015 Rain 28 1016 62 16093 3.6 330 18:55 03.11.2019
5016 Clouds 28 1016 62 16093 3.1 0 18:36 03.11.2019
5017 Clouds 29 1016 62 16093 3.1 0 18:18 03.11.2019
5018 Clouds 28 1017 65 16093 2.6 300 17:42 03.11.2019
5019 Clouds 28 1017 65 16093 2.6 300 17:20 03.11.2019
5020 Clouds 28 1017 65 16093 2.6 300 16:57 03.11.2019
5021 Clouds 28 1017 65 16093 2.6 300 16:57 03.11.2019
5022 Clouds 28 1017 65 16093 2.1 0 16:39 03.11.2019
5023 Clouds 28 1017 65 16093 2.1 0 16:21 03.11.2019
5024 Clouds 28 1017 65 16093 2.1 0 15:58 03.11.2019
5025 Clouds 27 1017 69 16093 2.1 0 15:39 03.11.2019
5026 Clouds 27 1017 69 16093 2.1 0 15:21 03.11.2019
5027 Clouds 27 1016 74 16093 2.6 360 14:43 03.11.2019
5028 Clouds 27 1016 74 16093 2.6 360 14:20 03.11.2019
5029 Clouds 26 1016 74 16093 2.6 360 13:59 03.11.2019
5030 Clouds 25 1016 88 16093 2.6 350 13:40 03.11.2019
5031 Clouds 25 1016 78 16093 1.5 340 13:18 03.11.2019
5032 Clouds 25 1016 78 16093 1.5 340 12:54 03.11.2019
5033 Clouds 25 1015 78 16093 3.75 71 12:36 03.11.2019
5034 Clouds 25 1015 78 16093 3.75 71 12:36 03.11.2019
5035 Clouds 25 1015 78 16093 3.75 71 12:18 03.11.2019
5036 Clouds 25 1015 78 16093 1.5 360 11:42 03.11.2019
5037 Clouds 25 1015 78 16093 1.5 360 11:21 03.11.2019
5038 Clouds 25 1015 78 16093 1.5 360 10:55 03.11.2019
5039 Clouds 25 1015 74 16093 3.86 62 10:37 03.11.2019
5040 Clouds 25 1015 74 16093 3.86 62 10:18 03.11.2019
5041 Clouds 26 1014 78 16093 1.5 100 09:43 03.11.2019
5042 Clouds 26 1014 78 16093 1.5 100 09:43 03.11.2019
5043 Clouds 26 1014 78 16093 1.5 100 09:24 03.11.2019
5044 Clouds 26 1014 78 16093 1.5 100 08:56 03.11.2019
5045 Clouds 26 1015 74 16093 3.86 62 08:36 03.11.2019
5046 Clouds 26 1015 74 16093 4.67 77 08:18 03.11.2019
5047 Clouds 26 1015 74 16093 1.5 130 07:44 03.11.2019
5048 Clouds 26 1015 74 16093 1.5 130 07:21 03.11.2019
5049 Clouds 26 1016 74 16093 3.6 80 06:39 03.11.2019
5050 Clouds 27 1016 74 16093 3.6 80 05:54 03.11.2019
5051 Clouds 27 1016 74 16093 3.6 90 05:34 03.11.2019
5052 Clouds 27 1016 74 16093 3.6 90 04:53 03.11.2019
5053 Clouds 27 1016 74 16093 3.6 90 03:59 03.11.2019
5054 Clouds 27 1016 65 16093 1.5 70 03:21 03.11.2019
5055 Clouds 27 1016 69 16093 3.1 80 02:23 03.11.2019
5056 Clouds 27 1015 65 16093 3.6 100 01:49 03.11.2019
5057 Clouds 27 1015 65 16093 3.6 100 01:27 03.11.2019
5058 Clouds 27 1015 65 16093 3.6 100 00:59 03.11.2019
5059 Clouds 28 1015 69 16093 3.6 120 00:38 03.11.2019
5060 Clouds 28 1015 69 16093 3.6 120 00:20 03.11.2019
5061 Clouds 28 1015 69 16093 3.6 120 23:54 02.11.2019
5062 Clouds 28 1015 62 16093 4.6 100 23:36 02.11.2019
5063 Clouds 28 1015 62 16093 4.6 100 23:18 02.11.2019
5064 Clouds 29 1015 62 16093 4.6 100 22:54 02.11.2019
5065 Clouds 29 1015 58 16093 5.1 120 22:36 02.11.2019
5066 Clouds 30 1015 58 16093 5.1 120 22:18 02.11.2019
5067 Clouds 30 1015 58 16093 5.1 120 21:55 02.11.2019
5068 Clouds 30 1015 62 16093 4.1 100 21:36 02.11.2019
5069 Clouds 30 1015 62 16093 4.1 100 21:18 02.11.2019
5070 Clouds 30 1015 62 16093 4.1 100 21:18 02.11.2019
5071 Clouds 30 1015 62 16093 4.1 100 21:18 02.11.2019
5072 Clouds 30 1015 55 16093 4.1 100 20:41 02.11.2019
5073 Clouds 31 1015 55 16093 4.1 100 20:22 02.11.2019
5074 Clouds 31 1015 55 16093 4.1 100 19:59 02.11.2019
5075 Clouds 31 1015 55 16093 5.1 80 19:38 02.11.2019
5076 Clouds 31 1015 55 16093 5.1 80 19:19 02.11.2019
5077 Clouds 31 1015 55 16093 5.1 80 18:54 02.11.2019
5078 Clouds 31 1016 58 16093 3.6 70 18:36 02.11.2019
5079 Clouds 31 1016 58 16093 3.6 70 18:18 02.11.2019
5080 Clouds 31 1016 58 16093 3.6 70 17:55 02.11.2019
5081 Clouds 31 1017 55 16093 3.1 90 17:36 02.11.2019
5082 Clouds 30 1017 55 16093 3.1 90 17:18 02.11.2019
5083 Clouds 30 1017 58 16093 3.6 100 16:40 02.11.2019
5084 Clouds 30 1017 58 16093 3.6 100 16:20 02.11.2019
5085 Clouds 29 1017 66 16093 3.1 40 15:44 02.11.2019
5086 Clouds 29 1017 66 16093 3.1 40 15:22 02.11.2019
5087 Clouds 29 1017 66 16093 3.1 40 14:59 02.11.2019
5088 Clouds 28 1017 74 16093 2.1 360 14:41 02.11.2019
5089 Clouds 28 1017 74 16093 2.1 360 14:41 02.11.2019
5090 Clouds 28 1017 74 16093 2.1 360 14:22 02.11.2019
5091 Clouds 27 1017 74 16093 2.1 360 13:55 02.11.2019
5092 Clouds 26 1017 78 16093 3.87 77 13:37 02.11.2019
5093 Clouds 26 1017 78 16093 3.59 77 13:18 02.11.2019
5094 Clouds 26 1017 83 16093 1.5 20 12:40 02.11.2019
5095 Clouds 26 1016 74 16093 3.59 77 12:22 02.11.2019
5096 Clouds 25 1016 74 16093 3.59 77 11:56 02.11.2019
5097 Clouds 25 1016 74 16093 1.5 360 11:38 02.11.2019
5098 Clouds 25 1016 74 16093 1.5 360 11:19 02.11.2019
5099 Clouds 26 1016 78 16093 5.33 96 10:43 02.11.2019
5100 Clouds 26 1016 78 16093 5.33 96 10:24 02.11.2019
5101 Clouds 26 1016 78 16093 5.33 96 09:54 02.11.2019
5102 Clouds 26 1016 78 16093 2.6 20 09:36 02.11.2019
5103 Clouds 26 1016 78 16093 2.6 20 09:18 02.11.2019
5104 Clouds 26 1016 74 16093 2.1 40 08:42 02.11.2019
5105 Clouds 26 1016 74 16093 2.1 40 08:20 02.11.2019
5106 Clouds 26 1017 78 16093 1.5 40 07:47 02.11.2019
5107 Clouds 26 1017 78 16093 1.5 40 07:27 02.11.2019
5108 Clouds 26 1017 78 16093 1.5 40 06:54 02.11.2019
5109 Clouds 27 1017 69 16093 3.6 70 06:26 02.11.2019
5110 Clouds 27 1017 69 16093 3.6 70 05:55 02.11.2019
5111 Clouds 27 1017 78 16093 1.5 30 04:51 02.11.2019
5112 Clouds 27 1018 74 16093 1.5 20 04:19 02.11.2019
5113 Clouds 27 1018 74 16093 3.1 60 03:45 02.11.2019
5114 Clouds 28 1018 74 16093 2.6 40 02:38 02.11.2019
5115 Clouds 28 1017 69 16093 3.1 40 01:42 02.11.2019
5116 Clouds 28 1017 69 16093 3.1 40 01:20 02.11.2019
5117 Clouds 28 1017 66 16093 4.6 60 00:42 02.11.2019
5118 Clouds 28 1017 66 16093 4.6 60 00:24 02.11.2019
5119 Clouds 28 1016 62 16093 4.1 90 23:45 01.11.2019
5120 Clouds 29 1016 62 16093 4.1 90 23:20 01.11.2019
5121 Clouds 29 1016 62 16093 4.1 90 22:57 01.11.2019
5122 Clouds 29 1016 58 16093 4.1 70 22:38 01.11.2019
5123 Clouds 30 1016 58 16093 4.1 70 22:20 01.11.2019
5124 Clouds 31 1016 58 16093 3.1 60 21:40 01.11.2019
5125 Clouds 31 1016 58 16093 3.1 60 21:22 01.11.2019
5126 Clouds 31 1016 70 16093 5.7 70 20:56 01.11.2019
5127 Clouds 31 1016 58 16093 3.6 110 20:38 01.11.2019
5128 Clouds 31 1016 58 16093 3.6 110 20:19 01.11.2019
5129 Clouds 31 1016 58 16093 3.6 110 19:55 01.11.2019
5130 Clouds 31 1017 52 16093 3.24 87 19:36 01.11.2019
5131 Clouds 31 1017 52 16093 3.24 87 19:18 01.11.2019
5132 Clouds 31 1018 55 16093 3.6 360 18:39 01.11.2019
5133 Clouds 31 1018 55 16093 3.6 360 18:20 01.11.2019
5134 Clouds 31 1018 55 16093 3.6 360 17:55 01.11.2019
5135 Clouds 31 1018 62 16093 3.1 280 17:36 01.11.2019
5136 Clouds 31 1018 62 16093 3.1 280 17:18 01.11.2019
5137 Clouds 30 1019 55 16093 2.55 93 16:37 01.11.2019
5138 Clouds 30 1019 55 16093 2.55 93 16:18 01.11.2019
5139 Clouds 29 1018 66 16093 2.1 120 15:41 01.11.2019
5140 Clouds 29 1018 66 16093 2.1 120 15:23 01.11.2019
5141 Clouds 29 1018 66 16093 2.1 120 14:58 01.11.2019
5142 Clouds 28 1018 69 16093 2.55 93 14:40 01.11.2019
5143 Clouds 27 1018 69 16093 2.34 127 14:22 01.11.2019
5144 Clouds 26 1018 69 16093 2.34 127 13:57 01.11.2019
5145 Clouds 26 1018 78 16093 2.34 127 13:37 01.11.2019
5146 Clouds 25 1018 78 16093 2.41 100 13:19 01.11.2019
5147 Clouds 24 1017 78 16093 2.41 100 12:43 01.11.2019
5148 Clouds 24 1017 78 16093 2.41 100 12:25 01.11.2019
5149 Clouds 25 1017 78 16093 2.41 100 11:55 01.11.2019
5150 Clouds 25 1017 78 16093 2.41 100 11:37 01.11.2019
5151 Clouds 25 1017 78 16093 2.1 136 11:18 01.11.2019
5152 Clouds 25 1017 78 16093 2.1 136 10:41 01.11.2019
5153 Clouds 25 1017 78 16093 2.1 136 10:21 01.11.2019
5154 Clouds 25 1017 78 16093 2.1 136 09:56 01.11.2019
5155 Clouds 25 1017 74 16093 2.1 136 09:37 01.11.2019
5156 Clouds 25 1017 74 16093 2.1 136 09:19 01.11.2019
5157 Clouds 25 1017 83 16093 2.1 136 08:42 01.11.2019
5158 Clouds 25 1017 78 16093 2.81 137 08:22 01.11.2019
5159 Clouds 25 1017 78 16093 2.81 137 08:22 01.11.2019
5160 Clouds 26 1017 78 16093 3.14 125 07:55 01.11.2019
5161 Clouds 26 1017 78 16093 3.14 125 07:36 01.11.2019
5162 Clouds 26 1017 78 16093 3.14 125 07:18 01.11.2019
5163 Clouds 26 1018 78 16093 2.1 240 06:40 01.11.2019
5164 Clouds 26 1018 78 16093 2.1 240 06:21 01.11.2019
5165 Clouds 26 1018 78 16093 2.1 240 06:21 01.11.2019
5166 Clouds 26 1018 74 16093 1.5 150 05:43 01.11.2019
5167 Clouds 27 1018 69 16093 2.1 130 03:42 01.11.2019
5168 Clouds 27 1017 69 16093 2.6 120 02:47 01.11.2019
5169 Clouds 28 1017 69 16093 2.6 130 01:28 01.11.2019
5170 Clouds 28 1016 69 16093 3.6 120 00:22 01.11.2019
5171 Clouds 28 1016 69 16093 3.6 120 23:59 31.10.2019
5172 Clouds 29 1016 62 16093 4.1 120 23:41 31.10.2019
5173 Clouds 29 1016 62 16093 4.1 120 23:22 31.10.2019
5174 Clouds 30 1016 55 16093 3.6 110 22:42 31.10.2019
5175 Clouds 30 1016 55 16093 3.6 110 22:24 31.10.2019
5176 Clouds 31 1016 55 16093 3.6 110 21:59 31.10.2019
5177 Clouds 31 1016 55 16093 4.1 140 21:41 31.10.2019
5178 Clouds 31 1016 55 16093 4.1 140 21:41 31.10.2019
5179 Clouds 31 1016 55 16093 4.1 140 21:20 31.10.2019
5180 Clouds 31 1016 55 16093 4.1 140 20:55 31.10.2019
5181 Clouds 31 1016 55 16093 4.1 110 20:37 31.10.2019
5182 Clouds 31 1016 55 16093 4.1 110 20:19 31.10.2019
5183 Clouds 31 1016 55 16093 4.6 140 19:40 31.10.2019
5184 Clouds 31 1016 55 16093 4.6 140 19:40 31.10.2019
5185 Clouds 31 1016 55 16093 4.6 140 19:40 31.10.2019
5186 Clouds 31 1016 55 16093 4.6 140 19:21 31.10.2019
5187 Clouds 31 1016 55 16093 4.6 140 19:21 31.10.2019
5188 Clouds 31 1016 55 16093 4.6 140 18:56 31.10.2019
5189 Clouds 31 1017 58 16093 5.1 130 18:37 31.10.2019
5190 Clouds 31 1017 58 16093 5.1 130 18:18 31.10.2019
5191 Clouds 31 1018 62 16093 4.6 110 17:41 31.10.2019
5192 Clouds 31 1018 62 16093 4.6 110 17:21 31.10.2019
5193 Clouds 31 1018 58 16093 5.1 130 16:57 31.10.2019
5194 Clouds 31 1018 58 16093 5.1 130 16:39 31.10.2019
5195 Clouds 30 1018 58 16093 5.1 130 16:20 31.10.2019
5196 Clouds 30 1018 58 16093 5.1 130 15:54 31.10.2019
5197 Clouds 30 1017 66 16093 4.6 130 15:36 31.10.2019
5198 Clouds 29 1017 66 16093 3.6 130 15:18 31.10.2019
5199 Clouds 29 1017 69 16093 4.1 110 14:41 31.10.2019
5200 Clouds 28 1017 69 16093 4.1 110 14:23 31.10.2019
5201 Clouds 28 1017 69 16093 4.1 110 13:59 31.10.2019
5202 Clouds 27 1016 74 16093 3.1 100 13:39 31.10.2019
5203 Clouds 26 1016 74 16093 3.1 100 13:20 31.10.2019
5204 Clouds 26 1016 74 16093 3.1 100 12:58 31.10.2019
5205 Clouds 26 1016 74 16093 3.1 100 12:38 31.10.2019
5206 Clouds 26 1016 74 16093 3.1 100 12:20 31.10.2019
5207 Clouds 26 1016 74 16093 3.6 100 11:46 31.10.2019
5208 Clouds 26 1016 74 16093 3.6 100 11:21 31.10.2019
5209 Clouds 26 1016 74 16093 3.6 100 10:59 31.10.2019
5210 Clouds 26 1016 74 16093 1.5 90 10:40 31.10.2019
5211 Clouds 26 1016 74 16093 1.5 90 10:21 31.10.2019
5212 Clouds 26 1016 74 16093 1.5 90 09:56 31.10.2019
5213 Clouds 26 1016 74 16093 3.6 120 09:38 31.10.2019
5214 Clouds 26 1016 74 16093 3.6 120 09:18 31.10.2019
5215 Rain 26 1015 83 16093 2.6 80 08:46 31.10.2019
5216 Rain 26 1015 83 16093 2.6 80 08:46 31.10.2019
5217 Rain 26 1016 74 16093 2.6 100 08:26 31.10.2019
5218 Clouds 26 1016 78 16093 2.6 90 07:48 31.10.2019
5219 Clouds 27 1017 74 16093 2.6 90 07:28 31.10.2019
5220 Clouds 27 1017 74 16093 2.6 90 06:55 31.10.2019
5221 Clouds 27 1017 74 16093 3.6 90 06:32 31.10.2019
5222 Clouds 27 1017 69 16093 4.1 90 05:28 31.10.2019
5223 Clouds 27 1017 69 16093 4.6 90 03:21 31.10.2019
5224 Clouds 28 1017 69 16093 4.6 90 02:30 31.10.2019
5225 Clouds 28 1016 69 16093 5.7 90 01:25 31.10.2019
5226 Clear 28 1016 74 16093 4.1 90 00:34 31.10.2019
5227 Rain 28 1016 74 16093 4.1 120 23:53 30.10.2019
5228 Rain 28 1016 62 16093 4.6 110 23:27 30.10.2019
5229 Clouds 29 1016 58 16093 5.1 120 22:43 30.10.2019
5230 Clouds 29 1016 58 16093 5.1 120 22:20 30.10.2019
5231 Clouds 30 1016 58 16093 5.1 120 21:55 30.10.2019
5232 Clouds 30 1016 55 16093 5.1 120 21:37 30.10.2019
5233 Clouds 30 1016 55 16093 5.1 120 21:37 30.10.2019
5234 Clouds 30 1016 55 16093 5.1 120 21:37 30.10.2019
5235 Clouds 30 1016 55 16093 5.1 120 21:37 30.10.2019
5236 Clouds 30 1016 55 16093 5.1 120 21:18 30.10.2019
5237 Clouds 31 1016 55 16093 5.1 120 20:58 30.10.2019
5238 Clouds 31 1016 58 16093 5.7 110 20:39 30.10.2019
5239 Clouds 31 1016 58 16093 5.7 110 20:39 30.10.2019
5240 Clouds 31 1016 58 16093 5.7 110 20:21 30.10.2019
5241 Clouds 31 1016 58 16093 5.7 110 19:57 30.10.2019
5242 Clouds 31 1016 52 16093 5.7 110 19:37 30.10.2019
5243 Clouds 31 1016 52 16093 5.7 110 19:19 30.10.2019
5244 Clouds 31 1018 55 16093 5.1 130 18:39 30.10.2019
5245 Clouds 31 1018 55 16093 5.1 130 18:19 30.10.2019
5246 Clouds 31 1018 55 16093 5.1 130 18:19 30.10.2019
5247 Clouds 31 1018 55 16093 5.1 130 17:57 30.10.2019
5248 Clouds 31 1018 62 16093 6.2 100 17:38 30.10.2019
5249 Clouds 31 1018 62 16093 6.2 100 17:19 30.10.2019
5250 Clouds 30 1018 62 16093 6.2 100 16:55 30.10.2019
5251 Clouds 30 1018 66 16093 5.7 90 16:37 30.10.2019
5252 Clouds 30 1018 66 16093 5.7 90 16:18 30.10.2019
5253 Clouds 30 1018 66 16093 5.7 90 15:55 30.10.2019
5254 Rain 30 1018 70 14484 7.2 100 15:37 30.10.2019
5255 Clouds 29 1018 66 16093 5.7 120 15:19 30.10.2019
5256 Rain 29 1018 66 16093 6.2 80 14:42 30.10.2019
5257 Rain 28 1018 66 16093 6.2 80 14:22 30.10.2019
5258 Rain 28 1018 66 16093 6.2 80 13:58 30.10.2019
5259 Rain 27 1017 69 16093 3.6 100 13:40 30.10.2019
5260 Rain 27 1017 69 16093 4.1 110 13:20 30.10.2019
5261 Clouds 27 1017 69 16093 4.1 110 12:57 30.10.2019
5262 Clouds 27 1017 78 16093 3.6 110 12:38 30.10.2019
5263 Clouds 27 1017 78 16093 3.6 110 12:19 30.10.2019
5264 Rain 27 1017 83 16093 2.6 110 11:41 30.10.2019
5265 Rain 26 1016 74 16093 4.1 110 11:23 30.10.2019
5266 Rain 27 1016 83 16093 3.1 80 10:46 30.10.2019
5267 Rain 27 1017 78 16093 3.6 100 10:27 30.10.2019
5268 Rain 27 1016 69 16093 5.1 100 09:58 30.10.2019
5269 Rain 27 1016 88 16093 4.6 100 09:39 30.10.2019
5270 Rain 27 1016 74 16093 4.6 100 09:21 30.10.2019
5271 Rain 27 1017 74 16093 4.6 90 08:42 30.10.2019
5272 Rain 27 1017 74 16093 4.6 90 08:42 30.10.2019
5273 Rain 27 1017 74 16093 4.6 90 08:22 30.10.2019
5274 Clouds 27 1017 74 16093 4.6 90 07:56 30.10.2019
5275 Clouds 27 1016 74 16093 4.1 90 07:37 30.10.2019
5276 Clouds 27 1016 74 16093 4.1 90 07:37 30.10.2019
5277 Clouds 27 1017 78 16093 4.6 80 06:43 30.10.2019
5278 Clouds 27 1017 74 16093 4.1 80 06:25 30.10.2019
5279 Clouds 28 1017 74 16093 4.1 80 05:54 30.10.2019
5280 Clouds 27 1018 74 16093 5.1 70 05:35 30.10.2019
5281 Rain 28 1018 74 16093 4.1 60 03:48 30.10.2019
5282 Rain 28 1018 74 16093 4.1 60 03:21 30.10.2019
5283 Clouds 28 1017 74 16093 3.6 60 02:48 30.10.2019
5284 Clouds 28 1017 69 16093 3.6 70 01:42 30.10.2019
5285 Clear 28 1017 74 16093 4.1 100 00:36 30.10.2019
5286 Clear 28 1017 74 16093 4.1 100 00:18 30.10.2019
5287 Clouds 29 1016 62 16093 5.7 100 23:38 29.10.2019
5288 Clouds 29 1016 62 16093 5.7 100 23:18 29.10.2019
5289 Clouds 29 1016 70 16093 5.7 90 22:41 29.10.2019
5290 Clouds 29 1016 70 16093 5.7 90 22:41 29.10.2019
5291 Clouds 30 1016 55 16093 5.1 100 22:19 29.10.2019
5292 Clouds 30 1016 55 16093 5.1 100 21:55 29.10.2019
5293 Clouds 30 1016 70 16093 6.2 100 21:36 29.10.2019
5294 Clouds 30 1016 58 16093 5.7 90 21:18 29.10.2019
5295 Clouds 30 1016 66 16093 5.1 80 20:42 29.10.2019
5296 Clouds 31 1016 66 16093 5.1 80 20:23 29.10.2019
5297 Clouds 31 1016 66 16093 5.1 80 19:58 29.10.2019
5298 Clouds 31 1017 58 16093 4.1 110 19:39 29.10.2019
5299 Clouds 31 1017 58 16093 4.1 110 19:20 29.10.2019
5300 Clouds 31 1017 58 16093 4.1 110 18:58 29.10.2019
5301 Clouds 31 1018 62 16093 4.6 100 18:39 29.10.2019
5302 Clouds 31 1018 62 16093 4.6 100 18:20 29.10.2019
5303 Clouds 31 1018 62 16093 4.6 100 17:57 29.10.2019
5304 Clouds 31 1018 58 16093 6.7 80 17:38 29.10.2019
5305 Clouds 31 1018 58 16093 6.7 80 17:20 29.10.2019
5306 Rain 30 1018 74 16093 6.7 100 16:41 29.10.2019
5307 Rain 30 1018 74 16093 5.1 70 16:23 29.10.2019
5308 Rain 30 1019 70 16093 5.1 80 15:59 29.10.2019
5309 Rain 30 1018 66 16093 5.1 100 15:41 29.10.2019
5310 Clouds 30 1018 66 16093 5.1 100 15:21 29.10.2019
5311 Clouds 29 1018 66 16093 5.1 100 14:57 29.10.2019
5312 Clouds 29 1018 74 16093 6.2 110 14:39 29.10.2019
5313 Clouds 29 1018 74 16093 4.6 100 14:21 29.10.2019
5314 Clouds 28 1018 74 16093 4.6 100 13:57 29.10.2019
5315 Clouds 28 1017 78 16093 3.1 90 13:36 29.10.2019
5316 Clouds 28 1017 78 16093 3.1 90 13:18 29.10.2019
5317 Clouds 27 1017 78 16093 3.6 100 12:42 29.10.2019
5318 Clouds 27 1017 78 16093 3.6 100 12:24 29.10.2019
5319 Rain 27 1017 78 16093 4.1 110 11:54 29.10.2019
5320 Rain 27 1016 74 16093 4.1 100 11:36 29.10.2019
5321 Rain 27 1016 74 16093 4.1 100 11:18 29.10.2019
5322 Clouds 27 1016 74 16093 4.1 100 10:55 29.10.2019
5323 Clouds 27 1016 74 16093 2.1 80 10:36 29.10.2019
5324 Clouds 27 1016 74 16093 2.1 80 10:18 29.10.2019
5325 Clouds 27 1016 83 16093 2.6 100 09:41 29.10.2019
5326 Clouds 27 1016 83 16093 2.6 100 09:41 29.10.2019
5327 Clouds 27 1016 74 16093 3.1 100 09:23 29.10.2019
5328 Clouds 27 1016 74 16093 3.1 100 09:23 29.10.2019
5329 Clouds 27 1016 74 16093 3.1 100 08:55 29.10.2019
5330 Clouds 27 1016 74 16093 2.6 80 08:36 29.10.2019
5331 Clouds 27 1016 74 16093 2.6 80 08:18 29.10.2019
5332 Clouds 27 1017 74 16093 4.1 100 07:47 29.10.2019
5333 Clouds 27 1017 74 16093 4.1 100 07:19 29.10.2019
5334 Clouds 27 1017 74 16093 4.1 100 06:47 29.10.2019
5335 Clouds 27 1017 74 16093 4.1 100 06:28 29.10.2019
5336 Clouds 27 1017 88 16093 3.6 90 05:53 29.10.2019
5337 Clouds 27 1017 83 16093 3.1 90 05:35 29.10.2019
5338 Clouds 27 1018 74 16093 3.6 90 04:34 29.10.2019
5339 Clouds 28 1017 74 16093 4.6 80 02:34 29.10.2019
5340 Clouds 28 1017 74 16093 4.6 80 01:55 29.10.2019
5341 Clouds 28 1017 70 16093 4.6 80 01:33 29.10.2019
5342 Clouds 28 1017 78 16093 3.1 120 00:52 29.10.2019
5343 Clouds 28 1016 66 16093 3.6 110 23:58 28.10.2019
5344 Clouds 29 1016 62 16093 4.1 120 23:37 28.10.2019
5345 Clouds 29 1016 62 16093 4.1 120 23:19 28.10.2019
5346 Clouds 30 1016 58 16093 5.1 90 22:39 28.10.2019
5347 Clouds 30 1016 58 16093 5.1 90 22:20 28.10.2019
5348 Clouds 30 1016 58 16093 5.1 90 21:56 28.10.2019
5349 Clouds 31 1016 55 16093 4.6 90 21:38 28.10.2019
5350 Clouds 31 1016 55 16093 4.6 90 21:20 28.10.2019
5351 Clouds 31 1016 55 16093 4.6 80 20:57 28.10.2019
5352 Clouds 31 1016 55 16093 4.6 80 20:39 28.10.2019
5353 Clouds 31 1016 55 16093 4.6 80 20:20 28.10.2019
5354 Clouds 31 1016 55 16093 4.6 80 20:20 28.10.2019
5355 Clouds 31 1016 55 16093 4.6 80 19:54 28.10.2019
5356 Clouds 31 1017 55 16093 3.6 80 19:36 28.10.2019
5357 Clouds 31 1017 55 16093 3.6 80 19:18 28.10.2019
5358 Clouds 31 1017 55 16093 3.6 80 18:55 28.10.2019
5359 Clouds 31 1018 55 16093 5.7 130 18:36 28.10.2019
5360 Clouds 32 1018 55 16093 5.7 130 18:18 28.10.2019
5361 Clouds 31 1018 55 16093 5.7 130 17:54 28.10.2019
5362 Clouds 31 1018 55 16093 4.1 110 17:36 28.10.2019
5363 Clouds 31 1018 55 16093 4.1 110 17:18 28.10.2019
5364 Clouds 31 1018 66 16093 4.6 120 16:44 28.10.2019
5365 Clouds 31 1018 66 16093 4.6 120 16:24 28.10.2019
5366 Clouds 30 1018 66 16093 4.6 120 15:59 28.10.2019
5367 Clouds 30 1018 66 16093 5.1 100 15:40 28.10.2019
5368 Clouds 30 1018 70 16093 5.1 130 15:21 28.10.2019
5369 Clouds 29 1018 70 16093 5.1 130 14:58 28.10.2019
5370 Clouds 29 1017 70 16093 3.1 120 14:40 28.10.2019
5371 Clouds 29 1017 70 16093 3.1 120 14:19 28.10.2019
5372 Clouds 28 1017 78 16093 2.6 110 13:58 28.10.2019
5373 Clouds 28 1017 78 16093 2.6 110 13:40 28.10.2019
5374 Clouds 27 1017 78 16093 2.6 110 13:18 28.10.2019
5375 Clouds 26 1016 78 16093 5.9 128 12:43 28.10.2019
5376 Clouds 26 1016 78 16093 5.9 128 12:21 28.10.2019
5377 Clouds 26 1016 88 16093 2.1 0 11:57 28.10.2019
5378 Clouds 26 1016 83 16093 1.5 120 11:37 28.10.2019
5379 Clouds 26 1016 83 16093 1.5 120 11:18 28.10.2019
5380 Clouds 27 1016 78 16093 2.6 120 10:40 28.10.2019
5381 Clouds 27 1016 78 16093 2.6 120 10:21 28.10.2019
5382 Clouds 27 1016 78 16093 2.6 120 09:57 28.10.2019
5383 Clouds 26 1015 83 16093 2.1 130 09:39 28.10.2019
5384 Clouds 26 1015 83 16093 2.1 130 09:19 28.10.2019
5385 Clouds 27 1015 83 16093 2.1 130 08:57 28.10.2019
5386 Clouds 27 1015 83 16093 2.1 130 08:57 28.10.2019
5387 Clouds 27 1016 78 16093 2.1 100 08:38 28.10.2019
5388 Clouds 27 1016 78 16093 2.1 100 08:19 28.10.2019
5389 Clouds 27 1016 78 16093 2.1 100 08:19 28.10.2019
5390 Clouds 27 1016 78 16093 2.1 100 07:56 28.10.2019
5391 Clouds 27 1016 78 16093 3.1 110 07:36 28.10.2019
5392 Clouds 27 1016 78 16093 3.1 110 07:18 28.10.2019
5393 Clouds 27 1016 78 16093 3.1 110 06:40 28.10.2019
5394 Clouds 27 1017 74 16093 2.1 110 05:41 28.10.2019
5395 Clouds 28 1016 74 16093 1.5 120 03:48 28.10.2019
5396 Clouds 28 1016 78 16093 4.1 120 02:46 28.10.2019
5397 Clouds 28 1016 78 16093 4.1 120 02:27 28.10.2019
5398 Clouds 28 1016 74 16093 4.6 120 00:57 28.10.2019
5399 Clouds 28 1015 74 16093 4.6 130 00:33 28.10.2019
5400 Clouds 29 1015 70 16093 5.1 130 23:47 27.10.2019
5401 Clouds 29 1015 70 16093 5.1 130 23:24 27.10.2019
5402 Clouds 30 1015 70 16093 5.1 130 22:58 27.10.2019
5403 Clouds 30 1015 62 16093 5.1 140 22:40 27.10.2019
5404 Clouds 31 1015 62 16093 5.1 140 22:21 27.10.2019
5405 Clouds 31 1015 62 16093 5.1 140 22:21 27.10.2019
5406 Clouds 31 1015 62 16093 5.1 140 21:57 27.10.2019
5407 Clouds 31 1015 62 16093 4.6 120 21:39 27.10.2019
5408 Clouds 31 1015 62 16093 4.6 120 21:39 27.10.2019
5409 Clouds 31 1015 62 16093 4.6 120 21:21 27.10.2019
5410 Clouds 31 1015 62 16093 4.6 120 20:57 27.10.2019
5411 Clouds 31 1015 66 16093 5.7 130 20:38 27.10.2019
5412 Clouds 31 1015 66 16093 5.7 130 20:20 27.10.2019
5413 Clouds 32 1015 66 16093 5.7 130 19:55 27.10.2019
5414 Clouds 32 1015 62 16093 3.1 120 19:36 27.10.2019
5415 Clouds 32 1015 62 16093 3.1 120 19:18 27.10.2019
5416 Clouds 32 1015 62 16093 3.1 120 18:55 27.10.2019
5417 Clouds 31 1016 62 16093 3.6 110 18:36 27.10.2019
5418 Clouds 31 1016 62 16093 4.1 140 18:18 27.10.2019
5419 Clouds 31 1017 62 16093 4.6 140 17:40 27.10.2019
5420 Clouds 31 1017 62 16093 4.6 140 17:19 27.10.2019
5421 Clouds 31 1017 62 16093 4.6 140 17:19 27.10.2019
5422 Clouds 31 1017 62 16093 4.6 140 16:58 27.10.2019
5423 Clouds 30 1017 66 16093 2.6 160 16:39 27.10.2019
5424 Clouds 31 1017 66 16093 2.6 160 16:21 27.10.2019
5425 Clouds 30 1017 66 16093 4.6 130 15:56 27.10.2019
5426 Clouds 29 1017 79 16093 1.5 0 15:37 27.10.2019
5427 Clouds 29 1017 79 16093 1.5 0 15:19 27.10.2019
5428 Clouds 28 1017 78 16093 5.07 147 14:42 27.10.2019
5429 Clouds 28 1017 78 16093 5.28 147 14:21 27.10.2019
5430 Clouds 26 1016 83 16093 2.1 120 13:58 27.10.2019
5431 Mist 26 1015 100 3219 5.28 147 13:38 27.10.2019
5432 Mist 26 1015 100 3219 5.14 153 13:20 27.10.2019
5433 Clouds 25 1016 83 16093 5.14 153 12:55 27.10.2019
5434 Clouds 25 1015 83 16093 1.5 180 12:37 27.10.2019
5435 Clouds 25 1015 83 16093 1.5 180 12:19 27.10.2019
5436 Clouds 25 1015 83 16093 5.14 153 11:41 27.10.2019
5437 Clouds 25 1015 83 16093 5.91 152 11:21 27.10.2019
5438 Clouds 25 1014 83 16093 1.5 120 10:44 27.10.2019
5439 Clouds 25 1014 83 16093 1.5 120 10:25 27.10.2019
5440 Clouds 25 1014 83 16093 1.5 120 09:58 27.10.2019
5441 Clouds 26 1015 83 16093 5.91 152 09:39 27.10.2019
5442 Clouds 26 1015 83 16093 5.91 152 09:18 27.10.2019
5443 Clouds 26 1015 83 16093 5.91 152 09:18 27.10.2019
5444 Clouds 26 1014 83 16093 3.6 170 08:56 27.10.2019
5445 Clouds 26 1014 83 16093 3.6 170 08:37 27.10.2019
5446 Clouds 26 1015 83 16093 2.1 170 08:18 27.10.2019
5447 Rain 26 1015 78 16093 2.1 120 07:43 27.10.2019
5448 Rain 26 1015 78 16093 2.1 120 07:24 27.10.2019
5449 Clouds 27 1015 78 16093 2.1 160 06:49 27.10.2019
5450 Clouds 27 1015 78 16093 2.1 160 06:26 27.10.2019
5451 Clouds 27 1016 78 16093 2.6 110 05:41 27.10.2019
5452 Clouds 27 1016 78 16093 2.6 110 04:54 27.10.2019
5453 Clouds 27 1015 78 16093 2.6 140 02:55 27.10.2019
5454 Clouds 27 1014 70 16093 3.1 140 01:49 27.10.2019
5455 Clouds 27 1014 70 16093 3.1 140 01:21 27.10.2019
5456 Rain 28 1013 70 16093 3.6 150 00:46 27.10.2019
5457 Rain 28 1013 70 16093 3.6 150 00:24 27.10.2019
5458 Rain 28 1013 70 16093 3.6 150 23:56 26.10.2019
5459 Rain 28 1014 94 16093 2.6 210 23:56 26.10.2019
5460 Rain 28 1013 70 16093 3.6 170 23:37 26.10.2019
5461 Rain 28 1013 70 16093 3.6 170 23:19 26.10.2019
5462 Rain 28 1013 70 16093 3.6 170 22:55 26.10.2019
5463 Rain 29 1014 69 16093 4.1 240 22:36 26.10.2019
5464 Thunderstorm 29 1014 74 16093 8.2 240 22:18 26.10.2019
5465 Thunderstorm 30 1013 70 16093 6.2 170 21:42 26.10.2019
5466 Rain 30 1014 62 16093 5.1 150 21:21 26.10.2019
5467 Rain 30 1014 62 16093 6.2 160 20:55 26.10.2019
5468 Rain 30 1014 62 16093 6.2 160 20:36 26.10.2019
5469 Rain 30 1014 62 16093 6.7 160 20:18 26.10.2019
5470 Rain 30 1015 84 16093 6.2 180 19:41 26.10.2019
5471 Rain 30 1015 74 16093 3.1 160 19:20 26.10.2019
5472 Clouds 30 1014 74 16093 6.7 130 18:57 26.10.2019
5473 Clouds 30 1015 70 16093 8.2 130 18:38 26.10.2019
5474 Rain 30 1015 74 16093 4.6 130 18:19 26.10.2019
5475 Clouds 30 1015 66 16093 6.2 160 17:56 26.10.2019
5476 Clouds 30 1015 66 16093 7.7 130 17:37 26.10.2019
5477 Rain 29 1015 66 16093 7.7 130 17:19 26.10.2019
5478 Clouds 29 1015 79 16093 4.6 120 16:43 26.10.2019
5479 Clouds 28 1015 88 16093 6.2 150 16:24 26.10.2019
5480 Clouds 27 1014 83 16093 3.6 130 15:44 26.10.2019
5481 Clouds 27 1014 83 16093 3.6 130 15:22 26.10.2019
5482 Rain 26 1014 83 16093 3.6 130 14:59 26.10.2019
5483 Rain 26 1014 83 16093 3.1 120 14:37 26.10.2019
5484 Rain 26 1014 83 16093 3.1 120 14:19 26.10.2019
5485 Rain 25 1013 94 16093 3.6 110 13:42 26.10.2019
5486 Rain 28 1014 80 0 10.41 122 13:22 26.10.2019
5487 Rain 28 1014 80 0 10.41 122 13:22 26.10.2019
5488 Rain 25 1013 90 0 1.79 128 12:49 26.10.2019
5489 Rain 25 1013 94 16093 2.6 50 12:27 26.10.2019
5490 Thunderstorm 25 1014 83 16093 2.1 80 11:57 26.10.2019
5491 Thunderstorm 25 1014 83 16093 2.1 80 11:38 26.10.2019
5492 Thunderstorm 25 1014 83 16093 2.1 80 11:38 26.10.2019
5493 Thunderstorm 25 1014 83 16093 2.1 80 11:20 26.10.2019
5494 Rain 25 1015 83 16093 8.99 115 10:45 26.10.2019
5495 Rain 25 1014 83 16093 2.6 290 10:24 26.10.2019
5496 Rain 26 1015 83 16093 2.6 60 09:48 26.10.2019
5497 Rain 27 1014 74 16093 3.1 110 09:28 26.10.2019
5498 Clouds 27 1014 94 16093 3.1 110 08:47 26.10.2019
5499 Clouds 27 1015 74 16093 5.1 110 08:26 26.10.2019
5500 Rain 27 1015 74 16093 5.1 110 07:57 26.10.2019
5501 Rain 27 1015 74 16093 6.2 110 07:33 26.10.2019
5502 Rain 27 1015 74 16093 6.2 110 06:56 26.10.2019
5503 Rain 27 1015 74 16093 5.1 110 06:38 26.10.2019
5504 Rain 26 1016 74 12874 3.6 100 05:21 26.10.2019
5505 Rain 27 1016 74 12874 3.6 100 04:59 26.10.2019
5506 Clouds 28 1015 62 16093 7.2 100 03:25 26.10.2019
5507 Clouds 28 1015 69 16093 5.1 100 02:23 26.10.2019
5508 Clear 28 1014 65 16093 7.2 90 01:44 26.10.2019
5509 Clouds 28 1014 62 16093 6.2 110 00:33 26.10.2019
5510 Clouds 29 1013 74 16093 6.7 80 23:47 25.10.2019
5511 Clouds 29 1014 58 16093 9.8 90 23:22 25.10.2019
5512 Clouds 29 1014 58 16093 9.8 90 23:22 25.10.2019
5513 Clouds 30 1014 58 16093 9.8 90 22:56 25.10.2019
5514 Clouds 30 1014 58 16093 11.3 90 22:38 25.10.2019
5515 Clouds 30 1014 58 16093 11.3 90 22:38 25.10.2019
5516 Clouds 30 1014 58 16093 11.3 90 22:20 25.10.2019
5517 Clouds 30 1014 58 16093 11.3 90 21:55 25.10.2019
5518 Clouds 30 1015 62 16093 8.7 90 21:37 25.10.2019
5519 Clouds 30 1015 62 16093 8.7 90 21:18 25.10.2019
5520 Clouds 31 1015 55 16093 9.8 110 20:42 25.10.2019
5521 Clouds 30 1015 70 16093 8.7 80 20:19 25.10.2019
5522 Rain 30 1016 62 16093 8.2 100 19:47 25.10.2019
5523 Rain 30 1016 62 16093 8.2 100 19:27 25.10.2019
5524 Clouds 30 1017 58 16093 8.2 80 18:48 25.10.2019
5525 Clouds 30 1017 58 16093 8.2 80 18:29 25.10.2019
5526 Clouds 30 1017 58 16093 8.2 80 17:59 25.10.2019
5527 Clouds 30 1017 66 16093 10.3 90 17:36 25.10.2019
5528 Clouds 30 1017 66 16093 10.3 90 17:36 25.10.2019
5529 Clouds 30 1017 66 16093 10.3 90 17:18 25.10.2019
5530 Clouds 29 1017 66 16093 10.3 90 16:46 25.10.2019
5531 Rain 29 1017 62 16093 8.7 90 16:22 25.10.2019
5532 Clouds 29 1017 62 16093 8.7 90 15:55 25.10.2019
5533 Clouds 29 1018 74 16093 5.1 100 15:37 25.10.2019
5534 Clouds 28 1018 74 16093 5.1 100 15:18 25.10.2019
5535 Clouds 28 1017 74 16093 6.7 90 14:42 25.10.2019
5536 Rain 28 1017 78 9656 6.7 90 14:23 25.10.2019
5537 Clouds 27 1017 74 16093 6.7 90 13:57 25.10.2019
5538 Rain 27 1017 69 16093 6.7 90 13:38 25.10.2019
5539 Rain 27 1016 74 16093 6.2 90 13:18 25.10.2019
5540 Clouds 27 1016 74 16093 5.1 80 12:42 25.10.2019
5541 Clouds 27 1016 74 16093 5.1 80 12:22 25.10.2019
5542 Rain 27 1016 74 16093 5.1 80 11:58 25.10.2019
5543 Rain 27 1016 78 16093 6.2 90 11:38 25.10.2019
5544 Rain 27 1016 65 16093 6.2 80 11:18 25.10.2019
5545 Clouds 27 1016 69 16093 5.7 80 10:41 25.10.2019
5546 Clouds 27 1016 69 16093 5.7 80 10:41 25.10.2019
5547 Clouds 27 1016 69 16093 5.7 80 10:22 25.10.2019
5548 Clouds 27 1016 69 16093 5.7 80 09:58 25.10.2019
5549 Clouds 27 1016 69 16093 6.2 90 09:38 25.10.2019
5550 Clouds 27 1016 69 16093 6.2 90 09:19 25.10.2019
5551 Clouds 28 1017 78 16093 7.7 110 08:50 25.10.2019
5552 Clouds 27 1017 69 16093 5.7 90 08:32 25.10.2019
5553 Clouds 27 1018 74 16093 5.1 90 07:56 25.10.2019
5554 Clouds 27 1018 74 16093 5.1 90 07:34 25.10.2019
5555 Rain 28 1018 69 16093 7.2 80 06:42 25.10.2019
5556 Rain 28 1018 69 16093 7.2 80 05:57 25.10.2019
5557 Rain 28 1018 69 16093 6.2 90 05:37 25.10.2019
5558 Clouds 28 1018 74 16093 5.7 70 04:52 25.10.2019
5559 Rain 28 1018 70 16093 7.2 90 03:37 25.10.2019
5560 Clouds 28 1017 66 16093 5.7 80 01:54 25.10.2019
5561 Clouds 28 1016 66 16093 6.7 90 00:59 25.10.2019
5562 Clouds 29 1016 66 16093 6.7 80 00:20 25.10.2019
5563 Clouds 29 1016 70 16093 7.2 100 23:40 24.10.2019
5564 Clouds 30 1016 62 16093 6.2 80 23:22 24.10.2019
5565 Clouds 30 1016 62 16093 6.7 60 22:55 24.10.2019
5566 Clouds 30 1016 58 16093 8.2 90 22:37 24.10.2019
5567 Clouds 30 1016 58 16093 8.2 90 22:18 24.10.2019
5568 Clouds 31 1016 58 16093 8.2 90 21:56 24.10.2019
5569 Clouds 31 1016 66 16093 7.2 100 21:37 24.10.2019
5570 Clouds 31 1016 66 16093 7.2 100 21:37 24.10.2019
5571 Clouds 30 1016 66 16093 7.2 100 21:19 24.10.2019
5572 Clouds 30 1016 62 16093 7.2 70 20:56 24.10.2019
5573 Clouds 30 1017 66 16093 8.2 80 20:38 24.10.2019
5574 Clouds 31 1017 66 16093 8.2 80 20:19 24.10.2019
5575 Rain 31 1017 59 16093 8.2 90 19:44 24.10.2019
5576 Clouds 31 1017 66 16093 6.2 100 19:23 24.10.2019
5577 Clouds 31 1017 74 16093 6.2 90 18:59 24.10.2019
5578 Clouds 31 1018 70 16093 7.2 80 18:40 24.10.2019
5579 Clouds 31 1018 66 16093 8.2 90 18:21 24.10.2019
5580 Clouds 30 1018 66 16093 8.2 90 17:59 24.10.2019
5581 Clouds 30 1018 70 16093 5.7 80 17:39 24.10.2019
5582 Clouds 30 1018 70 16093 5.7 80 17:19 24.10.2019
5583 Clouds 30 1018 70 16093 5.7 80 16:55 24.10.2019
5584 Clouds 30 1018 70 16093 5.1 80 16:37 24.10.2019
5585 Clouds 29 1018 70 16093 5.1 80 16:18 24.10.2019
5586 Clouds 29 1018 70 16093 5.1 80 15:54 24.10.2019
5587 Rain 29 1018 78 16093 5.1 100 15:36 24.10.2019
5588 Rain 29 1018 78 16093 5.1 100 15:18 24.10.2019
5589 Rain 28 1017 78 16093 4.6 80 14:44 24.10.2019
5590 Rain 28 1017 78 16093 4.6 80 14:26 24.10.2019
5591 Clouds 27 1017 74 16093 4.1 90 13:59 24.10.2019
5592 Clouds 27 1017 69 16093 3.6 80 13:38 24.10.2019
5593 Clouds 27 1017 69 16093 3.6 80 13:19 24.10.2019
5594 Clouds 27 1017 69 16093 3.6 80 12:56 24.10.2019
5595 Clouds 27 1016 69 16093 3.1 90 12:37 24.10.2019
5596 Clouds 27 1016 69 16093 3.1 90 12:18 24.10.2019
5597 Clouds 27 1016 69 16093 3.1 90 11:55 24.10.2019
5598 Clouds 27 1015 78 16093 4.1 70 11:36 24.10.2019
5599 Clouds 27 1015 78 16093 4.1 70 11:36 24.10.2019
5600 Clouds 27 1015 78 16093 4.1 70 11:18 24.10.2019
5601 Clouds 27 1016 74 16093 3.6 80 10:42 24.10.2019
5602 Clouds 27 1016 74 16093 3.6 80 10:23 24.10.2019
5603 Clouds 27 1016 74 16093 3.6 90 09:40 24.10.2019
5604 Clouds 27 1016 74 16093 3.6 90 09:19 24.10.2019
5605 Clouds 27 1016 74 16093 3.6 90 08:59 24.10.2019
5606 Clouds 27 1017 69 16093 4.1 90 08:41 24.10.2019
5607 Clouds 27 1017 69 16093 4.1 90 08:20 24.10.2019
5608 Clouds 27 1017 65 16093 4.6 70 07:47 24.10.2019
5609 Clouds 27 1017 65 16093 4.6 70 07:23 24.10.2019
5610 Clouds 27 1017 65 16093 4.6 70 06:54 24.10.2019
5611 Clouds 28 1018 69 16093 4.6 90 06:36 24.10.2019
5612 Clouds 28 1018 69 16093 4.6 90 05:55 24.10.2019
5613 Clouds 28 1018 69 16093 5.7 90 05:31 24.10.2019
5614 Clouds 28 1018 69 16093 5.7 90 05:31 24.10.2019
5615 Clouds 28 1018 74 16093 3.6 80 04:23 24.10.2019
5616 Clouds 28 1017 78 16093 2.6 100 03:35 24.10.2019
5617 Clouds 28 1016 66 16093 4.1 90 02:39 24.10.2019
5618 Clouds 28 1016 66 16093 4.1 90 02:19 24.10.2019
5619 Clouds 28 1016 66 16093 4.1 80 01:31 24.10.2019
5620 Clear 29 1016 62 16093 4.1 110 00:55 24.10.2019
5621 Clear 29 1016 62 16093 4.1 110 00:27 24.10.2019
5622 Clouds 30 1015 55 16093 3.6 110 23:57 23.10.2019
5623 Clouds 30 1015 55 16093 4.6 110 23:38 23.10.2019
5624 Clouds 30 1015 55 16093 4.6 110 23:18 23.10.2019
5625 Clouds 31 1015 52 16093 2.6 70 22:54 23.10.2019
5626 Clouds 31 1015 52 16093 2.6 70 22:36 23.10.2019
5627 Clouds 31 1015 52 16093 2.6 70 22:18 23.10.2019
5628 Clouds 31 1015 52 16093 2.6 70 21:55 23.10.2019
5629 Clouds 31 1015 52 16093 6.2 110 21:36 23.10.2019
5630 Clouds 31 1015 52 16093 6.2 110 21:18 23.10.2019
5631 Clouds 32 1015 52 16093 6.2 110 20:54 23.10.2019
5632 Clouds 32 1015 52 16093 6.2 110 20:54 23.10.2019
5633 Clouds 32 1015 52 16093 4.6 140 20:36 23.10.2019
5634 Clouds 32 1015 52 16093 4.6 140 20:18 23.10.2019
5635 Clouds 32 1016 55 16093 3.6 80 19:42 23.10.2019
5636 Clouds 32 1016 55 16093 3.6 80 19:19 23.10.2019
5637 Clouds 32 1016 55 16093 3.6 80 18:57 23.10.2019
5638 Clouds 32 1017 59 16093 4.1 100 18:38 23.10.2019
5639 Clouds 32 1017 59 16093 4.1 100 18:19 23.10.2019
5640 Clouds 31 1016 70 16093 3.6 90 17:46 23.10.2019
5641 Clouds 31 1016 70 16093 3.6 90 17:46 23.10.2019
5642 Clouds 31 1017 58 16093 2.6 110 17:21 23.10.2019
5643 Clouds 30 1017 58 16093 2.6 110 16:59 23.10.2019
5644 Clouds 30 1017 62 16093 3.1 130 16:40 23.10.2019
5645 Clouds 30 1017 62 16093 3.1 130 16:40 23.10.2019
5646 Clouds 30 1017 62 16093 3.1 130 16:20 23.10.2019
5647 Clouds 30 1017 62 16093 3.1 130 16:20 23.10.2019
5648 Clouds 29 1016 66 16093 4.1 120 15:56 23.10.2019
5649 Clouds 29 1016 78 16093 2.1 50 15:37 23.10.2019
5650 Clouds 28 1016 78 16093 2.1 50 15:18 23.10.2019
5651 Clouds 27 1016 78 16093 2.1 50 14:55 23.10.2019
5652 Clouds 27 1016 83 16093 3.38 120 14:37 23.10.2019
5653 Clouds 26 1016 83 16093 3.36 121 14:18 23.10.2019
5654 Clouds 26 1016 83 16093 3.36 121 14:18 23.10.2019
5655 Clouds 25 1016 88 16093 3.36 121 13:42 23.10.2019
5656 Clouds 25 1016 88 16093 3.36 121 13:24 23.10.2019
5657 Clouds 25 1015 83 16093 3.36 121 12:57 23.10.2019
5658 Clouds 25 1015 83 16093 3.36 121 12:38 23.10.2019
5659 Clouds 25 1015 83 16093 1.3 122 12:19 23.10.2019
5660 Clouds 25 1015 83 16093 1.3 122 11:57 23.10.2019
5661 Clouds 25 1015 83 16093 1.3 122 11:39 23.10.2019
5662 Clouds 25 1015 83 16093 1.3 122 11:20 23.10.2019
5663 Clouds 25 1015 88 16093 1.5 320 10:46 23.10.2019
5664 Clouds 25 1015 83 16093 1.5 20 10:26 23.10.2019
5665 Clouds 25 1015 83 16093 1.5 20 10:26 23.10.2019
5666 Clouds 25 1015 83 16093 1.5 20 09:58 23.10.2019
5667 Clear 25 1015 83 16093 1.3 122 09:39 23.10.2019
5668 Clear 25 1015 83 16093 3.32 254 09:20 23.10.2019
5669 Clear 25 1016 78 16093 3.32 254 08:43 23.10.2019
5670 Clear 26 1016 78 16093 3.32 254 08:25 23.10.2019
5671 Clear 26 1016 78 16093 3.32 254 07:47 23.10.2019
5672 Clear 26 1016 78 16093 3.32 254 07:25 23.10.2019
5673 Clouds 26 1017 83 16093 5.1 300 06:48 23.10.2019
5674 Clouds 26 1017 83 16093 5.1 300 06:48 23.10.2019
5675 Rain 27 1017 74 16093 2.6 310 06:22 23.10.2019
5676 Rain 27 1017 74 16093 2.6 310 05:55 23.10.2019
5677 Clouds 27 1017 83 16093 2.6 280 05:18 23.10.2019
5678 Clouds 28 1016 74 16093 2.1 170 03:36 23.10.2019
5679 Clouds 28 1015 74 16093 2.6 160 02:41 23.10.2019
5680 Clouds 29 1015 70 16093 3.1 160 01:34 23.10.2019
5681 Clouds 30 1015 79 16093 4.1 140 00:56 23.10.2019
5682 Clouds 30 1014 62 16093 4.1 130 00:29 23.10.2019
5683 Clouds 31 1014 58 16093 3.6 140 23:41 22.10.2019
5684 Clouds 31 1014 58 16093 3.6 140 23:19 22.10.2019
5685 Clouds 31 1014 58 16093 3.6 140 22:58 22.10.2019
5686 Clouds 31 1014 62 16093 3.6 110 22:40 22.10.2019
5687 Clouds 31 1014 62 16093 3.6 110 22:40 22.10.2019
5688 Clouds 32 1014 62 16093 3.6 110 22:21 22.10.2019
5689 Clouds 32 1014 62 16093 3.6 110 21:56 22.10.2019
5690 Clouds 32 1014 62 16093 4.6 110 21:38 22.10.2019
5691 Clouds 32 1014 62 16093 4.6 110 21:18 22.10.2019
5692 Clouds 32 1014 62 16093 4.6 110 20:58 22.10.2019
5693 Clouds 32 1015 55 16093 5.7 130 20:39 22.10.2019
5694 Clouds 32 1015 55 16093 5.7 130 20:21 22.10.2019
5695 Clouds 32 1015 55 16093 5.7 130 19:55 22.10.2019
5696 Clouds 32 1016 55 16093 3.6 140 19:37 22.10.2019
5697 Clouds 31 1016 55 16093 3.6 140 19:19 22.10.2019
5698 Clouds 31 1016 74 16093 3.1 60 18:41 22.10.2019
5699 Clouds 31 1016 74 16093 3.1 60 18:22 22.10.2019
5700 Clouds 30 1017 58 16093 3.54 134 17:59 22.10.2019
5701 Clouds 29 1017 74 16093 5.1 90 17:39 22.10.2019
5702 Clouds 29 1017 74 16093 5.1 90 17:20 22.10.2019
5703 Clouds 29 1017 74 16093 5.1 90 17:20 22.10.2019
5704 Clouds 29 1017 74 16093 5.1 90 17:20 22.10.2019
5705 Clouds 29 1017 74 16093 5.1 90 16:57 22.10.2019
5706 Clouds 29 1018 74 16093 2.1 80 16:39 22.10.2019
5707 Clouds 28 1018 74 16093 2.1 80 16:19 22.10.2019
5708 Clouds 28 1018 74 16093 2.1 80 15:58 22.10.2019
5709 Clouds 27 1018 88 16093 3.54 134 15:39 22.10.2019
5710 Clouds 27 1018 88 16093 2.96 83 15:18 22.10.2019
5711 Clouds 27 1017 78 16093 2.96 83 14:43 22.10.2019
5712 Clouds 26 1017 78 16093 1.84 74 14:20 22.10.2019
5713 Clouds 26 1017 83 16093 1.5 310 13:43 22.10.2019
5714 Clouds 26 1017 83 16093 1.5 310 13:23 22.10.2019
5715 Clouds 26 1017 83 16093 1.5 310 12:59 22.10.2019
5716 Clouds 26 1016 83 16093 1.84 74 12:41 22.10.2019
5717 Rain 26 1016 83 16093 0.95 118 12:21 22.10.2019
5718 Rain 26 1016 83 16093 0.95 118 11:57 22.10.2019
5719 Rain 26 1016 83 16093 1.5 300 11:38 22.10.2019
5720 Rain 26 1016 83 16093 1.5 300 11:20 22.10.2019
5721 Clouds 26 1016 83 16093 1.5 300 10:58 22.10.2019
5722 Clouds 26 1016 83 16093 0.95 118 10:37 22.10.2019
5723 Clouds 26 1016 83 16093 0.95 118 10:18 22.10.2019
5724 Clouds 26 1016 83 16093 0.95 118 10:18 22.10.2019
5725 Clouds 26 1016 83 16093 0.95 118 09:55 22.10.2019
5726 Clouds 26 1016 83 16093 1.59 125 09:36 22.10.2019
5727 Clouds 26 1016 83 16093 3.52 152 09:18 22.10.2019
5728 Clouds 26 1016 83 16093 3.52 152 08:42 22.10.2019
5729 Clouds 27 1016 83 16093 3.52 152 08:21 22.10.2019
5730 Clouds 27 1016 83 16093 1.5 110 07:48 22.10.2019
5731 Clouds 27 1016 83 16093 1.5 110 07:26 22.10.2019
5732 Clouds 27 1017 78 16093 1.5 140 06:51 22.10.2019
5733 Clouds 27 1017 78 16093 1.5 140 06:31 22.10.2019
5734 Clouds 27 1017 78 16093 1.5 140 05:57 22.10.2019
5735 Clear 28 1017 78 16093 1.5 140 05:21 22.10.2019
5736 Clouds 28 1016 74 16093 2.1 140 02:47 22.10.2019
5737 Clouds 29 1016 74 16093 2.1 140 02:28 22.10.2019
5738 Clouds 29 1015 74 16093 3.6 130 01:28 22.10.2019
5739 Clouds 30 1015 74 16093 3.6 130 00:57 22.10.2019
5740 Clouds 30 1015 74 16093 3.6 130 00:57 22.10.2019
5741 Clouds 30 1015 58 16093 3.6 140 00:39 22.10.2019
5742 Clouds 30 1015 58 16093 3.6 140 00:20 22.10.2019
5743 Clouds 31 1015 58 16093 3.6 140 23:55 21.10.2019
5744 Clouds 31 1015 55 16093 5.1 120 23:37 21.10.2019
5745 Clouds 32 1015 55 16093 5.1 120 23:18 21.10.2019
5746 Clouds 32 1015 55 16093 5.1 120 23:18 21.10.2019
5747 Clouds 32 1015 55 16093 5.1 120 22:56 21.10.2019
5748 Clouds 32 1015 59 16093 3.6 180 22:37 21.10.2019
5749 Clouds 32 1015 59 16093 3.6 180 22:19 21.10.2019
5750 Clouds 32 1015 59 16093 3.6 180 21:54 21.10.2019
5751 Clouds 32 1015 59 16093 3.6 180 21:54 21.10.2019
5752 Clouds 32 1015 55 16093 4.1 160 21:36 21.10.2019
5753 Clouds 32 1015 55 16093 4.1 160 21:36 21.10.2019
5754 Clouds 32 1015 55 16093 4.1 160 21:18 21.10.2019
5755 Clouds 33 1015 59 16093 3.1 170 20:41 21.10.2019
5756 Clouds 33 1015 59 16093 3.1 170 20:21 21.10.2019
5757 Clouds 32 1015 59 16093 3.1 170 19:59 21.10.2019
5758 Clouds 32 1016 55 16093 4.1 170 19:41 21.10.2019
5759 Clouds 32 1016 55 16093 4.1 170 19:22 21.10.2019
5760 Clouds 32 1016 55 16093 4.1 170 18:57 21.10.2019
5761 Clouds 32 1016 62 16093 4.1 160 18:38 21.10.2019
5762 Clouds 32 1016 62 16093 4.1 160 18:19 21.10.2019
5763 Clouds 32 1016 62 16093 4.1 160 17:57 21.10.2019
5764 Clouds 31 1016 62 16093 3.6 180 17:38 21.10.2019
5765 Clouds 31 1016 66 16093 4.1 170 17:19 21.10.2019
5766 Clouds 30 1016 66 16093 4.1 170 16:57 21.10.2019
5767 Clouds 30 1016 70 16093 3.6 140 16:38 21.10.2019
5768 Clouds 30 1016 74 16093 3.6 140 16:20 21.10.2019
5769 Clouds 29 1016 78 16093 2.6 150 15:47 21.10.2019
5770 Clouds 29 1016 78 16093 2.6 150 15:25 21.10.2019
5771 Clouds 27 1016 78 16093 2.6 150 14:58 21.10.2019
5772 Clouds 27 1016 83 16093 3.38 174 14:39 21.10.2019
5773 Clouds 26 1016 83 16093 3.38 174 14:21 21.10.2019
5774 Clouds 25 1016 83 16093 3.38 174 13:57 21.10.2019
5775 Clouds 25 1015 83 16093 3.38 174 13:39 21.10.2019
5776 Clouds 25 1015 83 16093 3.38 174 13:19 21.10.2019
5777 Clouds 25 1015 88 16093 3.38 174 12:42 21.10.2019
5778 Clouds 25 1015 88 16093 1.85 200.777 12:22 21.10.2019
5779 Mist 25 1015 88 16093 1.85 200.777 11:57 21.10.2019
5780 Mist 25 1014 94 4426 1.85 200.777 11:39 21.10.2019
5781 Mist 25 1014 94 4426 1.85 200.777 11:20 21.10.2019
5782 Mist 25 1014 88 16093 1.85 200.777 10:57 21.10.2019
5783 Mist 26 1014 100 4023 1.85 200.777 10:38 21.10.2019
5784 Mist 26 1014 100 4023 1.85 200.777 10:19 21.10.2019
5785 Clouds 26 1015 88 16093 1.85 200.777 09:48 21.10.2019
5786 Clouds 26 1015 88 16093 1.85 200.777 09:26 21.10.2019
5787 Clouds 26 1015 88 16093 1.76 207.787 08:58 21.10.2019
5788 Clouds 26 1015 83 16093 1.76 207.787 08:39 21.10.2019
5789 Clouds 26 1015 83 16093 1.76 207.787 08:21 21.10.2019
5790 Clouds 26 1015 83 16093 1.76 207.787 07:39 21.10.2019
5791 Clouds 27 1015 83 16093 1.76 207.787 07:21 21.10.2019
5792 Rain 27 1015 83 16093 1.76 207.787 06:57 21.10.2019
5793 Rain 27 1016 83 16093 1.5 190 06:39 21.10.2019
5794 Clouds 27 1016 83 16093 1.5 190 05:57 21.10.2019
5795 Clouds 27 1016 83 16093 1.5 190 05:57 21.10.2019
5796 Clouds 28 1015 83 16093 2.01 252.717 04:49 21.10.2019
5797 Rain 28 1015 83 16093 2.01 252.717 03:38 21.10.2019
5798 Rain 28 1015 78 6437 3.65 246.001 02:25 21.10.2019
5799 Rain 28 1015 78 6437 3.65 246.001 02:25 21.10.2019
5800 Rain 29 1015 78 6437 3.65 246.001 01:59 21.10.2019
5801 Rain 29 1014 74 16093 4.1 180 01:37 21.10.2019
5802 Rain 29 1014 88 2012 5.7 280 00:51 21.10.2019
5803 Thunderstorm 30 1014 58 16093 3.6 240 00:27 21.10.2019
5804 Clouds 31 1013 58 16093 3.6 260 23:43 20.10.2019
5805 Clouds 31 1013 58 16093 3.6 260 23:22 20.10.2019
5806 Clouds 31 1013 58 16093 3.6 260 22:57 20.10.2019
5807 Clouds 32 1013 55 16093 4.6 270 22:39 20.10.2019
5808 Clouds 32 1013 55 16093 4.6 270 22:19 20.10.2019
5809 Clouds 32 1013 55 16093 4.6 270 21:59 20.10.2019
5810 Clouds 33 1014 52 16093 5.7 250 21:39 20.10.2019
5811 Clouds 33 1014 52 16093 5.7 250 21:21 20.10.2019
5812 Clouds 33 1014 52 16093 5.7 250 20:42 20.10.2019
5813 Clouds 33 1014 52 16093 5.7 250 20:20 20.10.2019
5814 Clouds 33 1014 52 16093 5.7 250 19:57 20.10.2019
5815 Clouds 32 1015 55 16093 5.1 250 19:39 20.10.2019
5816 Clouds 32 1015 55 16093 5.1 250 19:20 20.10.2019
5817 Clouds 32 1015 55 16093 5.1 250 18:58 20.10.2019
5818 Clouds 32 1015 59 16093 5.7 230 18:40 20.10.2019
5819 Clouds 32 1015 59 16093 5.7 230 18:20 20.10.2019
5820 Clouds 32 1015 59 16093 5.7 230 17:56 20.10.2019
5821 Clouds 32 1015 66 16093 4.1 220 17:37 20.10.2019
5822 Clouds 31 1015 66 16093 4.1 220 17:18 20.10.2019
5823 Clouds 31 1015 74 16093 4.1 210 16:42 20.10.2019
5824 Clouds 31 1015 74 16093 4.1 210 16:42 20.10.2019
5825 Clouds 30 1015 66 16093 3.6 200 16:23 20.10.2019
5826 Clouds 30 1015 66 16093 3.6 200 15:58 20.10.2019
5827 Clouds 29 1014 79 16093 4.1 220 15:38 20.10.2019
5828 Clouds 29 1014 79 16093 4.1 220 15:20 20.10.2019
5829 Clouds 28 1014 79 16093 4.1 220 14:57 20.10.2019
5830 Clouds 28 1014 78 16093 3.1 180 14:38 20.10.2019
5831 Clouds 27 1014 78 16093 3.1 180 14:19 20.10.2019
5832 Clouds 27 1014 78 16093 3.1 180 13:55 20.10.2019
5833 Clouds 27 1013 83 16093 3.6 200 13:36 20.10.2019
5834 Clouds 27 1013 78 16093 2.1 200 13:18 20.10.2019
5835 Clouds 27 1013 78 16093 2.1 200 12:56 20.10.2019
5836 Clouds 27 1013 78 16093 4.1 180 12:37 20.10.2019
5837 Clouds 27 1013 78 16093 4.1 180 12:19 20.10.2019
5838 Clouds 27 1013 78 16093 4.1 180 11:55 20.10.2019
5839 Clouds 28 1012 78 16093 3.1 0 11:37 20.10.2019
5840 Clouds 28 1012 78 16093 3.1 0 11:18 20.10.2019
5841 Clouds 27 1012 78 16093 2.6 180 10:41 20.10.2019
5842 Clouds 27 1012 78 16093 2.6 180 10:22 20.10.2019
5843 Clouds 28 1012 78 16093 2.6 180 09:58 20.10.2019
5844 Clouds 28 1012 78 16093 3.1 0 09:40 20.10.2019
5845 Clouds 28 1012 78 16093 3.1 0 09:21 20.10.2019
5846 Clouds 28 1013 78 16093 2.6 0 08:48 20.10.2019
5847 Clouds 28 1013 78 16093 2.6 0 08:24 20.10.2019
5848 Clouds 28 1013 78 16093 3.6 160 07:50 20.10.2019
5849 Clouds 28 1013 78 16093 3.6 160 07:30 20.10.2019
5850 Clouds 28 1013 78 16093 3.6 160 06:57 20.10.2019
5851 Clouds 28 1013 78 16093 3.1 0 06:20 20.10.2019
5852 Clouds 28 1013 78 16093 3.6 160 04:27 20.10.2019
5853 Clouds 28 1012 78 16093 4.6 160 03:46 20.10.2019
5854 Clouds 28 1012 78 16093 4.6 160 03:20 20.10.2019
5855 Clouds 28 1012 78 16093 3.1 160 02:40 20.10.2019
5856 Clouds 28 1012 78 16093 3.1 160 01:58 20.10.2019
5857 Clouds 28 1012 70 16093 4.1 160 01:23 20.10.2019
5858 Clouds 29 1012 70 16093 4.1 160 00:57 20.10.2019
5859 Clouds 29 1011 70 16093 5.1 160 00:39 20.10.2019
5860 Clouds 29 1011 70 16093 5.1 160 00:19 20.10.2019
5861 Clouds 29 1011 66 16093 4.6 170 23:42 19.10.2019
5862 Clouds 30 1011 66 16093 4.6 170 23:22 19.10.2019
5863 Rain 30 1011 66 16093 4.6 170 22:56 19.10.2019
5864 Rain 30 1011 66 16093 4.6 170 22:38 19.10.2019
5865 Rain 30 1011 66 16093 4.6 170 22:20 19.10.2019
5866 Clouds 30 1011 74 16093 4.6 170 21:46 19.10.2019
5867 Clouds 30 1012 62 16093 7.2 200 21:23 19.10.2019
5868 Rain 30 1012 74 16093 5.7 160 20:46 19.10.2019
5869 Rain 29 1012 74 16093 5.7 160 20:23 19.10.2019
5870 Rain 29 1012 74 16093 5.7 160 19:59 19.10.2019
5871 Clouds 29 1012 79 16093 3.6 180 19:40 19.10.2019
5872 Clouds 30 1012 79 16093 3.6 180 19:22 19.10.2019
5873 Clouds 30 1012 74 16093 4.1 180 18:43 19.10.2019
5874 Clouds 30 1012 79 16093 3.6 150 18:24 19.10.2019
5875 Clouds 30 1013 70 16093 5.1 190 17:57 19.10.2019
5876 Clouds 29 1013 74 16093 4.1 150 17:37 19.10.2019
5877 Clouds 29 1013 74 16093 4.1 150 17:37 19.10.2019
5878 Clouds 29 1013 74 16093 4.1 150 17:19 19.10.2019
5879 Clouds 28 1013 83 16093 4.6 180 16:39 19.10.2019
5880 Clouds 28 1013 78 16093 3.1 170 16:20 19.10.2019
5881 Clouds 28 1013 78 16093 3.1 170 15:56 19.10.2019
5882 Clouds 28 1012 78 16093 4.1 140 15:38 19.10.2019
5883 Clouds 27 1012 78 16093 4.1 140 15:20 19.10.2019
5884 Clouds 27 1012 78 16093 4.1 140 15:20 19.10.2019
5885 Clouds 27 1011 78 16093 4.6 130 14:38 19.10.2019
5886 Rain 27 1011 78 16093 4.6 130 14:20 19.10.2019
5887 Rain 26 1011 78 16093 4.6 130 13:56 19.10.2019
5888 Rain 26 1012 78 16093 2.1 140 13:37 19.10.2019
5889 Rain 26 1012 78 16093 2.1 140 13:18 19.10.2019
5890 Rain 26 1012 78 16093 2.1 140 13:18 19.10.2019
5891 Rain 26 1012 88 14484 2.1 170 12:41 19.10.2019
5892 Rain 26 1012 83 16093 5.67 160.053 12:22 19.10.2019
5893 Rain 27 1011 78 16093 3.6 170 11:59 19.10.2019
5894 Rain 27 1011 78 4828 4.1 170 11:40 19.10.2019
5895 Rain 28 1011 78 16093 5.1 140 11:22 19.10.2019
5896 Clouds 28 1010 83 16093 3.6 130 10:42 19.10.2019
5897 Clouds 28 1010 83 16093 3.6 130 10:23 19.10.2019
5898 Clouds 28 1010 78 16093 5.1 140 09:59 19.10.2019
5899 Clouds 28 1011 74 16093 6.7 120 09:41 19.10.2019
5900 Clouds 28 1011 74 16093 6.7 120 09:22 19.10.2019
5901 Clouds 28 1011 74 16093 6.7 120 09:22 19.10.2019
5902 Clear 28 1011 74 16093 4.6 140 08:57 19.10.2019
5903 Clouds 28 1011 74 16093 4.6 130 08:39 19.10.2019
5904 Clouds 28 1011 74 16093 4.6 130 08:20 19.10.2019
5905 Clouds 28 1012 74 16093 5.1 130 07:42 19.10.2019
5906 Clouds 28 1012 74 16093 5.1 130 07:23 19.10.2019
5907 Clouds 28 1012 74 16093 5.1 130 07:23 19.10.2019
5908 Clouds 28 1013 74 16093 5.1 120 06:40 19.10.2019
5909 Clear 28 1013 74 16093 3.1 130 05:55 19.10.2019
5910 Clouds 28 1012 78 16093 4.1 110 05:27 19.10.2019
5911 Clear 28 1013 74 16093 2.6 140 03:25 19.10.2019
5912 Clouds 28 1013 74 16093 3.1 180 02:35 19.10.2019
5913 Clouds 28 1012 74 16093 2.6 0 01:50 19.10.2019
5914 Clouds 28 1012 74 16093 2.6 0 00:59 19.10.2019
5915 Clear 29 1012 70 16093 5.1 140 00:41 19.10.2019
5916 Clear 29 1012 70 16093 5.1 140 00:21 19.10.2019
5917 Clouds 29 1012 74 16093 4.1 140 23:40 18.10.2019
5918 Clouds 29 1012 74 16093 4.1 140 23:21 18.10.2019
5919 Clouds 29 1012 74 16093 4.1 140 22:55 18.10.2019
5920 Clouds 29 1012 66 16093 4.1 120 22:37 18.10.2019
5921 Clouds 29 1012 66 16093 4.1 120 22:37 18.10.2019
5922 Clouds 30 1012 66 16093 4.1 120 22:19 18.10.2019
5923 Clouds 30 1012 66 16093 4.1 120 21:56 18.10.2019
5924 Clouds 30 1012 62 16093 3.6 130 21:38 18.10.2019
5925 Clouds 31 1012 62 16093 3.6 130 21:19 18.10.2019
5926 Clouds 31 1012 58 16093 4.6 140 20:43 18.10.2019
5927 Clouds 31 1012 58 16093 4.6 140 20:24 18.10.2019
5928 Clouds 31 1012 58 16093 4.6 140 19:59 18.10.2019
5929 Clouds 31 1013 58 16093 2.6 0 19:41 18.10.2019
5930 Clouds 31 1013 58 16093 2.6 0 19:22 18.10.2019
5931 Clouds 31 1013 58 16093 2.6 0 18:59 18.10.2019
5932 Clouds 31 1014 62 16093 3.1 140 18:41 18.10.2019
5933 Clouds 31 1014 62 16093 4.6 160 18:23 18.10.2019
5934 Clouds 31 1014 70 16093 2.6 160 17:57 18.10.2019
5935 Clouds 31 1014 62 16093 1.5 190 17:38 18.10.2019
5936 Clouds 31 1014 62 16093 1.5 0 17:20 18.10.2019
5937 Clouds 30 1014 70 16093 2.12 173.022 16:44 18.10.2019
5938 Clouds 30 1014 70 16093 2.12 173.022 16:44 18.10.2019
5939 Clouds 30 1014 70 16093 2.12 173.022 16:22 18.10.2019
5940 Clouds 29 1014 70 16093 2.12 173.022 15:58 18.10.2019
5941 Clear 28 1013 78 16093 1.5 120 15:39 18.10.2019
5942 Clear 28 1013 78 16093 1.5 120 15:20 18.10.2019
5943 Mist 27 1013 78 16093 1.5 120 14:57 18.10.2019
5944 Mist 26 1013 83 16093 0.43 248.548 14:38 18.10.2019
5945 Mist 25 1013 83 16093 0.43 248.548 14:20 18.10.2019
5946 Mist 25 1013 94 16093 0.43 248.548 13:58 18.10.2019
5947 Mist 24 1013 83 16093 0.43 248.548 13:39 18.10.2019
5948 Mist 24 1013 83 16093 0.55 307.304 13:21 18.10.2019
5949 Mist 24 1012 94 16093 0.55 307.304 12:56 18.10.2019
5950 Mist 24 1012 94 16093 0.55 307.304 12:56 18.10.2019
5951 Mist 25 1013 88 16093 0.55 307.304 12:37 18.10.2019
5952 Mist 25 1013 88 16093 0.55 307.304 12:37 18.10.2019
5953 Mist 25 1013 88 16093 1.28 260.979 12:19 18.10.2019
5954 Mist 25 1012 94 4023 1.28 260.979 11:42 18.10.2019
5955 Mist 25 1012 94 4023 1.28 260.979 11:22 18.10.2019
5956 Mist 25 1013 88 16093 1.28 260.979 10:59 18.10.2019
5957 Mist 25 1013 88 16093 1.28 260.979 10:41 18.10.2019
5958 Mist 25 1013 88 16093 1.28 260.979 10:22 18.10.2019
5959 Clear 25 1013 88 16093 1.28 260.979 09:58 18.10.2019
5960 Clouds 25 1013 83 16093 1.28 260.979 09:39 18.10.2019
5961 Clouds 25 1013 83 16093 1.55 319.121 09:20 18.10.2019
5962 Clouds 26 1013 83 16093 2.1 270 08:45 18.10.2019
5963 Clouds 26 1013 83 16093 2.1 270 08:26 18.10.2019
5964 Clouds 26 1013 83 16093 2.1 270 07:59 18.10.2019
5965 Clouds 26 1014 83 16093 1.55 319.121 07:41 18.10.2019
5966 Clouds 26 1014 83 16093 1.55 319.121 07:18 18.10.2019
5967 Clouds 26 1014 78 16093 1.5 230 06:38 18.10.2019
5968 Clouds 26 1014 78 16093 1.5 230 06:19 18.10.2019
5969 Clouds 26 1014 78 16093 1.5 230 05:54 18.10.2019
5970 Clouds 26 1014 74 16093 1.41 328.267 05:20 18.10.2019
5971 Clouds 27 1013 74 16093 3.1 40 03:42 18.10.2019
5972 Clouds 27 1013 74 16093 3.1 40 03:19 18.10.2019
5973 Clouds 27 1013 66 16093 2.71 332.529 02:33 18.10.2019
5974 Rain 27 1012 66 16093 2.6 340 01:43 18.10.2019
5975 Rain 27 1012 66 16093 2.6 340 01:23 18.10.2019
5976 Rain 28 1012 58 16093 3.1 340 00:43 18.10.2019
5977 Rain 29 1012 58 16093 3.1 340 00:20 18.10.2019
5978 Rain 29 1012 58 16093 3.1 340 00:20 18.10.2019
5979 Rain 29 1012 78 4828 2.6 300 23:41 17.10.2019
5980 Rain 29 1012 78 4828 2.6 300 23:21 17.10.2019
5981 Rain 30 1012 62 16093 2.1 280 22:58 17.10.2019
5982 Rain 30 1012 62 16093 2.1 280 22:58 17.10.2019
5983 Rain 29 1012 78 16093 2.6 240 22:39 17.10.2019
5984 Rain 30 1012 83 11265 3.6 220 22:20 17.10.2019
5985 Rain 31 1012 59 16093 6.7 270 21:58 17.10.2019
5986 Clouds 31 1012 55 16093 3.1 270 21:39 17.10.2019
5987 Clouds 32 1012 55 16093 3.1 270 21:21 17.10.2019
5988 Clouds 32 1012 55 16093 3.1 270 20:58 17.10.2019
5989 Rain 32 1013 59 16093 4.1 270 20:40 17.10.2019
5990 Rain 31 1013 59 16093 4.1 270 20:20 17.10.2019
5991 -273 0 0 0 0 0 20:19 17.10.2019
5992 Rain 31 1013 59 16093 4.1 270 20:19 17.10.2019
5993 Rain 31 1013 59 16093 4.1 270 20:19 17.10.2019
5994 Clouds 31 1013 59 16093 4.1 270 19:59 17.10.2019
5995 Clouds 31 1013 55 16093 2.1 270 19:40 17.10.2019
5996 Clouds 32 1013 55 16093 2.1 270 19:20 17.10.2019
5997 Clouds 31 1013 55 16093 2.1 270 18:58 17.10.2019
5998 Clouds 32 1014 62 16093 3.1 240 18:38 17.10.2019
5999 Clouds 31 1014 62 16093 3.1 240 18:20 17.10.2019
6000 Clouds 31 1014 66 16093 3.6 260 17:42 17.10.2019
6001 Clouds 30 1014 62 16093 2.6 300 17:23 17.10.2019
6002 Clouds 30 1015 62 16093 3.6 270 16:57 17.10.2019
6003 Clouds 29 1015 79 16093 3.1 270 16:39 17.10.2019
6004 Clouds 29 1015 74 16093 4.1 260 16:18 17.10.2019
6005 Clouds 28 1015 74 16093 4.1 260 15:56 17.10.2019
6006 Clear 28 1014 88 16093 2.1 230 15:38 17.10.2019
6007 Clear 27 1014 88 16093 2.1 230 15:20 17.10.2019
6008 Rain 27 1014 78 16093 3.1 230 14:55 17.10.2019
6009 Rain 26 1014 83 16093 2.1 220 14:37 17.10.2019
6010 Rain 26 1014 83 16093 1.5 200 14:18 17.10.2019
6011 Clouds 25 1013 83 16093 4.171 273 13:39 17.10.2019
6012 Clouds 25 1013 83 16093 4.171 273 13:20 17.10.2019
6013 Clouds 25 1013 83 16093 4.171 273 12:55 17.10.2019
6014 Clear 25 1013 83 16093 1.5 240 12:37 17.10.2019
6015 Clear 25 1013 83 16093 1.5 240 12:18 17.10.2019
6016 Clear 25 1013 83 16093 1.5 240 12:18 17.10.2019
6017 Clear 25 1013 83 16093 2.1 240 11:41 17.10.2019
6018 Clear 25 1013 83 16093 2.1 240 11:41 17.10.2019
6019 Clear 25 1013 83 16093 2.1 240 11:22 17.10.2019
6020 Clear 25 1013 83 16093 2.1 240 10:59 17.10.2019
6021 Clear 25 1013 83 16093 1.5 280 10:41 17.10.2019
6022 Clear 25 1013 83 16093 1.5 280 10:19 17.10.2019
6023 Clear 25 1013 83 16093 1.5 280 09:56 17.10.2019
6024 Clear 25 1013 83 16093 2.1 270 09:37 17.10.2019
6025 Clear 25 1013 83 16093 2.1 270 09:19 17.10.2019
6026 Clear 25 1013 88 16093 1.5 290 08:48 17.10.2019
6027 Clear 25 1013 88 16093 1.5 290 08:27 17.10.2019
6028 Clear 26 1013 88 16093 2.6 270 07:59 17.10.2019
6029 Clear 26 1013 78 16093 2.6 270 07:41 17.10.2019
6030 Clear 26 1013 78 16093 2.6 270 07:20 17.10.2019
6031 Clear 26 1014 78 16093 3.1 270 06:43 17.10.2019
6032 Clear 26 1014 78 16093 3.1 270 06:24 17.10.2019
6033 Clear 27 1014 78 16093 3.1 270 05:59 17.10.2019
6034 Clear 27 1014 74 16093 3.1 260 05:35 17.10.2019
6035 Clear 27 1014 74 16093 3.1 260 04:58 17.10.2019
6036 Clouds 27 1014 74 16093 3.6 250 04:31 17.10.2019
6037 Clear 28 1013 70 16093 3.6 260 03:45 17.10.2019
6038 Clouds 29 1013 66 16093 5.1 260 01:56 17.10.2019
6039 Clouds 29 1013 66 16093 5.1 260 01:56 17.10.2019
6040 Clouds 31 1012 52 16093 6.7 240 00:42 17.10.2019
6041 Clouds 31 1012 52 16093 6.7 240 00:20 17.10.2019
6042 Clouds 32 1012 52 16093 6.7 240 23:58 16.10.2019
6043 Clouds 32 1012 52 16093 6.2 240 23:39 16.10.2019
6044 Clouds 32 1012 52 16093 6.2 240 23:18 16.10.2019
6045 Clouds 32 1012 52 16093 6.2 240 22:54 16.10.2019
6046 Clouds 32 1012 49 16093 5.7 240 22:36 16.10.2019
6047 Clouds 32 1012 49 16093 5.7 240 22:18 16.10.2019
6048 Clouds 32 1012 49 16093 5.7 240 21:54 16.10.2019
6049 Clouds 32 1013 49 16093 4.1 250 21:36 16.10.2019
6050 Clouds 32 1013 49 16093 4.1 250 21:18 16.10.2019
6051 Clouds 32 1013 49 16093 4.1 250 20:54 16.10.2019
6052 Clouds 32 1013 62 16093 3.1 160 20:36 16.10.2019
6053 Clouds 32 1013 62 16093 3.1 160 20:18 16.10.2019
6054 Clouds 31 1014 66 16093 4.6 160 19:40 16.10.2019
6055 Clouds 32 1014 66 16093 5.7 150 19:21 16.10.2019
6056 Clouds 32 1014 66 16093 5.7 150 18:57 16.10.2019
6057 Clouds 31 1015 62 16093 2.6 170 18:37 16.10.2019
6058 Clouds 31 1015 62 16093 2.6 170 18:18 16.10.2019
6059 Clouds 31 1015 62 16093 2.6 170 17:55 16.10.2019
6060 Clouds 30 1015 70 16093 3.6 180 17:36 16.10.2019
6061 Clouds 30 1015 70 16093 3.6 180 17:18 16.10.2019
6062 Clouds 30 1015 70 16093 3.6 180 16:55 16.10.2019
6063 Clouds 29 1016 70 16093 2.1 0 16:37 16.10.2019
6064 Clouds 29 1016 70 16093 2.1 0 16:18 16.10.2019
6065 Clouds 28 1015 74 16093 2.6 160 15:40 16.10.2019
6066 Clouds 28 1015 74 16093 2.6 160 15:40 16.10.2019
6067 Clouds 27 1015 78 16093 3.6 180 15:19 16.10.2019
6068 Clear 27 1016 74 16093 5.004 180 15:19 16.10.2019
6069 Clouds 26 1015 83 16093 2.1 170 14:58 16.10.2019
6070 Clouds 26 1015 83 16093 2.1 170 14:58 16.10.2019
6071 Clouds 26 1015 83 16093 2.1 170 14:40 16.10.2019
6072 Clouds 25 1015 83 16093 2.1 170 14:21 16.10.2019
6073 Clouds 24 1015 83 16093 2.1 170 13:57 16.10.2019
6074 Clouds 24 1015 78 16093 4.331 190 13:39 16.10.2019
6075 Clouds 24 1015 78 16093 4.331 190 13:21 16.10.2019
6076 Clouds 24 1014 78 16093 4.331 190 12:42 16.10.2019
6077 -273 0 0 0 0 0 12:20 16.10.2019
6078 -273 0 0 0 0 0 11:55 16.10.2019
6079 Clouds 24 1014 78 16093 4.129 173 11:37 16.10.2019
6080 Clouds 24 1014 78 16093 4.129 173 11:18 16.10.2019
6081 Clouds 24 1014 83 16093 1.5 130 10:36 16.10.2019
6082 Clouds 24 1014 83 16093 1.5 130 10:18 16.10.2019
6083 Clouds 24 1015 78 16093 4.507 159 09:40 16.10.2019
6084 Clouds 25 1015 78 16093 4.451 134 09:22 16.10.2019
6085 Clouds 25 1015 78 16093 4.451 134 08:57 16.10.2019
6086 Clouds 25 1015 74 16093 4.451 134 08:39 16.10.2019
6087 -273 0 0 0 0 0 08:39 16.10.2019
6088 Clouds 25 1015 78 16093 1.5 120 08:20 16.10.2019
6089 Clouds 25 1015 78 16093 2.1 120 07:43 16.10.2019
6090 Clouds 25 1015 78 16093 2.1 120 07:24 16.10.2019
6091 Clouds 26 1015 78 16093 2.1 120 06:55 16.10.2019
6092 Clouds 26 1016 74 16093 3.1 130 06:31 16.10.2019
6093 Clouds 26 1016 69 16093 3.1 110 05:22 16.10.2019
6094 Clouds 27 1016 69 16093 3.1 110 02:53 16.10.2019
6095 Clouds 27 1015 65 16093 5.1 110 01:38 16.10.2019
6096 Clouds 27 1015 65 16093 5.1 110 01:18 16.10.2019
6097 Clouds 28 1015 69 16093 5.1 140 00:42 16.10.2019
6098 Clouds 28 1015 62 16093 4.6 110 23:59 15.10.2019
6099 Clouds 29 1015 66 16093 6.2 80 23:39 15.10.2019
6100 Clouds 29 1015 62 16093 4.1 140 23:21 15.10.2019
6101 Clouds 29 1015 62 16093 4.1 140 23:21 15.10.2019
6102 Clouds 29 1015 62 16093 4.1 140 22:55 15.10.2019
6103 Clouds 29 1015 62 16093 4.1 140 22:55 15.10.2019
6104 Clouds 30 1015 66 16093 3.6 100 22:37 15.10.2019
6105 Clouds 30 1015 58 16093 4.1 150 22:19 15.10.2019
6106 Clouds 30 1015 58 16093 4.1 150 21:55 15.10.2019
6107 Clouds 30 1015 52 16093 5.1 130 21:37 15.10.2019
6108 Clouds 30 1015 52 16093 5.1 130 21:19 15.10.2019
6109 Clouds 30 1015 52 16093 5.1 130 20:56 15.10.2019
6110 Clouds 30 1016 55 16093 5.1 120 20:38 15.10.2019
6111 Clouds 30 1016 55 16093 5.1 120 20:19 15.10.2019
6112 Clouds 30 1016 55 16093 5.1 120 19:56 15.10.2019
6113 Clouds 30 1016 55 16093 5.1 120 19:56 15.10.2019
6114 Clouds 30 1017 66 16093 5.7 60 19:37 15.10.2019
6115 Clouds 30 1017 66 16093 4.6 80 19:19 15.10.2019
6116 Clouds 30 1017 70 16093 3.1 90 18:44 15.10.2019
6117 Clouds 29 1018 66 16093 5.7 90 18:26 15.10.2019
6118 Clouds 29 1018 55 16093 3.6 120 17:57 15.10.2019
6119 Clouds 29 1018 65 16093 5.7 90 17:38 15.10.2019
6120 Clouds 29 1018 62 16093 2.6 130 17:19 15.10.2019
6121 Clouds 28 1019 62 16093 4.1 90 16:46 15.10.2019
6122 Clouds 28 1018 65 16093 3.1 80 16:23 15.10.2019
6123 Clouds 27 1018 61 16093 3.1 80 15:59 15.10.2019
6124 Clouds 27 1017 65 16093 1.5 60 15:41 15.10.2019
6125 Clouds 27 1017 65 16093 1.5 60 15:41 15.10.2019
6126 Clouds 27 1017 65 16093 1.5 60 15:20 15.10.2019
6127 Clouds 26 1017 65 16093 1.5 60 14:57 15.10.2019
6128 Clouds 25 1018 78 16093 4.019 75 14:38 15.10.2019
6129 Clouds 24 1018 78 16093 4.019 75 14:19 15.10.2019
6130 Clouds 23 1017 78 16093 4.019 75 13:44 15.10.2019
6131 Clouds 23 1017 78 16093 4.019 75 13:21 15.10.2019
6132 Clouds 23 1017 78 16093 4.019 75 12:59 15.10.2019
6133 Clouds 23 1017 74 16093 1.5 360 12:41 15.10.2019
6134 Clear 23 1017 88 16093 4.396 67 12:21 15.10.2019
6135 Clouds 24 1017 74 16093 1.5 360 11:56 15.10.2019
6136 Clouds 24 1017 78 16093 4.396 67 11:37 15.10.2019
6137 Clouds 24 1017 78 16093 4.396 67 11:18 15.10.2019
6138 Clouds 24 1017 73 16093 4.396 67 10:43 15.10.2019
6139 Clouds 24 1017 73 16093 2.38 68.848 10:19 15.10.2019
6140 Clouds 24 1017 73 16093 2.38 68.848 09:57 15.10.2019
6141 Clouds 24 1017 69 16093 2.38 68.848 09:37 15.10.2019
6142 Clouds 24 1017 69 16093 2.38 68.848 09:37 15.10.2019
6143 Clouds 25 1017 69 16093 3.05 91.918 09:19 15.10.2019
6144 Clouds 25 1018 74 16093 3.17 92.494 08:43 15.10.2019
6145 Clouds 25 1018 74 16093 3.17 92.494 08:22 15.10.2019
6146 Clouds 25 1018 74 16093 3.17 92.494 07:58 15.10.2019
6147 Clouds 25 1018 69 16093 2.6 80 07:39 15.10.2019
6148 Clouds 25 1018 69 16093 2.6 80 07:19 15.10.2019
6149 Clouds 26 1018 69 16093 4.1 90 06:44 15.10.2019
6150 Clouds 26 1018 69 16093 4.1 90 06:26 15.10.2019
6151 Clouds 26 1019 65 16093 4.6 80 05:41 15.10.2019
6152 Clouds 26 1019 65 16093 4.6 80 05:23 15.10.2019
6153 Clouds 26 1018 65 16093 5.7 80 04:32 15.10.2019
6154 Clouds 26 1017 65 16093 4.6 70 03:37 15.10.2019
6155 Clouds 27 1017 61 16093 5.1 90 02:29 15.10.2019
6156 Clouds 27 1017 61 16093 5.1 100 01:48 15.10.2019
6157 Clouds 27 1017 61 16093 5.1 100 01:19 15.10.2019
6158 Clouds 28 1016 69 16093 6.7 110 00:49 15.10.2019
6159 Clouds 28 1016 62 16093 6.2 110 00:21 15.10.2019
6160 Clouds 29 1016 62 16093 6.2 100 23:44 14.10.2019
6161 Clouds 29 1016 62 16093 6.2 100 23:20 14.10.2019
6162 Clouds 29 1016 62 16093 6.2 100 22:57 14.10.2019
6163 Clouds 29 1016 70 16093 4.6 90 22:38 14.10.2019
6164 Clouds 29 1016 70 16093 4.6 70 22:18 14.10.2019
6165 Clouds 29 1016 70 16093 4.6 70 22:18 14.10.2019
6166 Clouds 30 1016 58 16093 6.2 110 21:55 14.10.2019
6167 Clouds 30 1016 58 16093 5.1 110 21:36 14.10.2019
6168 Clouds 30 1016 58 16093 5.1 110 21:18 14.10.2019
6169 -273 0 0 0 0 0 20:54 14.10.2019
6170 Rain 30 1017 62 16093 5.1 120 20:36 14.10.2019
6171 Rain 30 1017 62 16093 5.1 120 20:18 14.10.2019
6172 Clouds 30 1017 70 16093 4.6 90 19:41 14.10.2019
6173 Clouds 30 1017 70 16093 5.1 80 19:23 14.10.2019
6174 Clouds 30 1017 58 16093 3.6 80 18:58 14.10.2019
6175 Clouds 30 1018 55 16093 4.1 90 18:39 14.10.2019
6176 Clouds 30 1018 55 16093 4.1 90 18:19 14.10.2019
6177 Clouds 30 1018 55 16093 4.1 90 17:57 14.10.2019
6178 Clouds 30 1018 58 16093 4.6 90 17:38 14.10.2019
6179 Clouds 30 1018 58 16093 4.6 90 17:38 14.10.2019
6180 Clouds 30 1018 58 16093 4.6 90 17:19 14.10.2019
6181 Clouds 29 1018 62 16093 5.1 90 16:43 14.10.2019
6182 Clouds 29 1018 62 16093 5.1 90 16:21 14.10.2019
6183 Clouds 28 1018 78 16093 2.6 80 15:43 14.10.2019
6184 Clouds 28 1017 69 16093 2.1 0 15:24 14.10.2019
6185 Haze 27 1017 69 16093 2.1 0 14:57 14.10.2019
6186 Clouds 26 1017 78 16093 1.5 30 14:39 14.10.2019
6187 Clouds 25 1017 78 16093 1.5 30 14:20 14.10.2019
6188 Clouds 24 1017 78 16093 2.1 360 13:44 14.10.2019
6189 Clouds 24 1017 78 16093 2.1 360 13:21 14.10.2019
6190 Clouds 24 1017 78 16093 2.1 360 12:55 14.10.2019
6191 Clouds 24 1016 74 16093 2.06 84.337 12:37 14.10.2019
6192 Clouds 24 1016 74 16093 2.04 103.245 12:18 14.10.2019
6193 Clouds 25 1016 78 16093 2.1 80 11:44 14.10.2019
6194 Clouds 25 1016 78 16093 2.1 80 11:26 14.10.2019
6195 Clouds 25 1016 78 16093 2.1 80 10:57 14.10.2019
6196 Clouds 25 1016 78 16093 2.6 90 10:38 14.10.2019
6197 Clouds 25 1016 78 16093 2.6 90 10:19 14.10.2019
6198 Clouds 25 1016 69 16093 3.6 110 09:42 14.10.2019
6199 Clouds 25 1016 69 16093 3.6 110 09:21 14.10.2019
6200 Rain 25 1017 69 16093 2.6 90 08:51 14.10.2019
6201 Rain 25 1017 69 16093 2.6 90 08:23 14.10.2019
6202 Clouds 26 1017 69 16093 2.6 90 07:59 14.10.2019
6203 Clouds 26 1017 74 16093 2.1 100 07:39 14.10.2019
6204 Clouds 26 1017 74 16093 2.1 100 07:18 14.10.2019
6205 Clouds 26 1017 69 16093 3.6 110 06:36 14.10.2019
6206 Clouds 26 1017 69 16093 3.6 110 06:18 14.10.2019
6207 Clouds 26 1017 74 16093 4.1 90 05:42 14.10.2019
6208 Clouds 27 1017 69 16093 5.1 90 04:42 14.10.2019
6209 Clouds 27 1016 78 16093 4.1 80 03:27 14.10.2019
6210 Rain 27 1016 69 16093 6.2 90 02:36 14.10.2019
6211 Rain 27 1015 88 16093 4.79 97.31 01:22 14.10.2019
6212 Rain 27 1015 78 16093 6.2 100 00:45 14.10.2019
6213 Rain 27 1016 66 16093 5.7 100 00:19 14.10.2019
6214 Rain 28 1015 58 16093 5.1 90 23:44 13.10.2019
6215 Clouds 29 1015 58 16093 5.1 90 23:20 13.10.2019
6216 Clouds 29 1015 58 16093 5.1 90 22:58 13.10.2019
6217 Clouds 29 1015 58 16093 5.1 100 22:40 13.10.2019
6218 Clouds 29 1015 58 16093 5.1 100 22:21 13.10.2019
6219 Clouds 30 1015 58 16093 5.1 100 21:58 13.10.2019
6220 Clouds 30 1015 55 16093 5.1 120 21:37 13.10.2019
6221 Clouds 30 1015 55 16093 5.1 120 21:37 13.10.2019
6222 Clouds 30 1015 55 16093 5.1 120 21:18 13.10.2019
6223 Clouds 30 1015 55 16093 5.1 120 21:18 13.10.2019
6224 Clouds 30 1015 55 16093 5.1 120 20:57 13.10.2019
6225 -273 0 0 0 0 0 20:57 13.10.2019
6226 Clouds 30 1015 55 16093 5.1 120 20:57 13.10.2019
6227 Clouds 30 1016 55 16093 6.2 110 20:38 13.10.2019
6228 Clouds 30 1016 55 16093 6.2 110 20:19 13.10.2019
6229 Clouds 30 1016 55 16093 6.2 110 19:57 13.10.2019
6230 Clouds 30 1017 58 16093 5.7 100 19:39 13.10.2019
6231 Clouds 30 1017 58 16093 6.7 90 19:21 13.10.2019
6232 Rain 29 1017 58 16093 6.7 90 18:56 13.10.2019
6233 Rain 29 1017 62 16093 4.1 100 18:36 13.10.2019
6234 Rain 29 1017 62 16093 4.1 100 18:18 13.10.2019
6235 Clouds 29 1017 62 16093 4.1 100 17:57 13.10.2019
6236 Clouds 29 1017 62 16093 5.7 120 17:38 13.10.2019
6237 Clouds 29 1017 62 16093 5.7 120 17:20 13.10.2019
6238 Clouds 29 1016 65 16093 6.2 120 16:41 13.10.2019
6239 Clouds 28 1016 65 16093 6.2 120 16:18 13.10.2019
6240 Clouds 28 1016 65 16093 6.2 120 15:57 13.10.2019
6241 Clouds 28 1016 65 16093 5.1 100 15:38 13.10.2019
6242 Clouds 28 1016 65 16093 5.1 100 15:18 13.10.2019
6243 Clouds 27 1016 65 16093 5.1 100 14:57 13.10.2019
6244 Clouds 27 1016 69 16093 4.6 110 14:38 13.10.2019
6245 Clouds 27 1016 74 16093 3.6 100 14:19 13.10.2019
6246 Clouds 26 1015 78 16093 3.1 80 13:41 13.10.2019
6247 Clouds 26 1015 78 16093 3.1 80 13:23 13.10.2019
6248 Rain 26 1015 78 16093 3.1 80 12:59 13.10.2019
6249 Rain 26 1015 88 16093 2.1 70 12:39 13.10.2019
6250 Rain 26 1015 78 16093 3.1 70 12:20 13.10.2019
6251 Rain 26 1015 78 16093 3.1 70 11:58 13.10.2019
6252 Rain 26 1015 88 16093 3.6 50 11:39 13.10.2019
6253 Rain 26 1015 78 11265 3.6 70 11:20 13.10.2019
6254 Rain 26 1015 78 11265 3.6 70 10:56 13.10.2019
6255 Clouds 26 1015 74 16093 5.1 90 10:38 13.10.2019
6256 Clouds 26 1015 74 16093 5.1 90 10:20 13.10.2019
6257 Clouds 26 1015 69 16093 4.1 80 09:39 13.10.2019
6258 Clouds 26 1015 69 16093 4.1 80 09:21 13.10.2019
6259 Drizzle 26 1015 83 16093 4.1 60 08:44 13.10.2019
6260 Rain 26 1015 94 16093 4.1 70 08:25 13.10.2019
6261 Rain 26 1016 83 16093 5.7 90 07:52 13.10.2019
6262 Rain 26 1016 83 14484 8.2 90 07:33 13.10.2019
6263 Rain 26 1015 74 16093 6.7 70 06:53 13.10.2019
6264 Rain 26 1017 69 16093 6.7 70 06:24 13.10.2019
6265 Rain 26 1017 69 16093 6.7 70 06:24 13.10.2019
6266 Rain 26 1016 78 16093 3.6 60 05:21 13.10.2019
6267 Clouds 26 1016 74 16093 5.7 50 04:34 13.10.2019
6268 Thunderstorm 27 1016 69 16093 6.7 50 03:24 13.10.2019
6269 Clouds 27 1015 69 16093 4.6 50 02:31 13.10.2019
6270 Clouds 27 1015 69 16093 4.6 50 02:31 13.10.2019
6271 Clouds 27 1015 69 16093 6.2 70 01:37 13.10.2019
6272 Clouds 27 1015 65 16093 5.7 60 00:56 13.10.2019
6273 Clouds 27 1015 65 16093 5.7 60 00:56 13.10.2019
6274 Clouds 27 1015 65 16093 4.1 60 00:38 13.10.2019
6275 Clouds 28 1015 65 16093 4.1 60 00:19 13.10.2019
6276 Clouds 28 1014 58 16093 6.7 70 23:42 12.10.2019
6277 Clouds 28 1014 58 16093 6.7 70 23:42 12.10.2019
6278 Clouds 28 1014 58 16093 6.7 70 23:23 12.10.2019
6279 Clouds 28 1014 58 16093 6.7 70 22:59 12.10.2019
6280 Clouds 28 1014 74 16093 6.7 60 22:40 12.10.2019
6281 Clouds 28 1014 74 16093 6.7 60 22:22 12.10.2019
6282 Rain 28 1014 65 16093 5.1 50 21:58 12.10.2019
6283 Rain 28 1014 65 16093 5.1 50 21:58 12.10.2019
6284 Thunderstorm 28 1014 69 16093 3.6 40 21:39 12.10.2019
6285 Thunderstorm 28 1014 69 16093 3.6 40 21:21 12.10.2019
6286 Clouds 29 1014 69 16093 3.6 40 20:54 12.10.2019
6287 Clouds 29 1014 69 16093 3.6 40 20:54 12.10.2019
6288 Clouds 29 1014 74 16093 7.7 50 20:36 12.10.2019
6289 Clouds 29 1014 74 16093 7.7 50 20:18 12.10.2019
6290 Clouds 29 1015 66 16093 5.1 40 19:36 12.10.2019
6291 Rain 28 1014 83 14484 6.7 50 19:18 12.10.2019
6292 Clouds 29 1016 62 16093 6.7 60 18:43 12.10.2019
6293 Clouds 29 1016 62 16093 6.7 60 18:24 12.10.2019
6294 Rain 28 1016 69 16093 5.7 70 17:46 12.10.2019
6295 Rain 28 1015 74 12874 5.1 60 17:22 12.10.2019
6296 Rain 28 1015 74 12874 5.1 60 16:59 12.10.2019
6297 Clouds 28 1015 69 16093 4.6 60 16:40 12.10.2019
6298 Clouds 28 1015 78 16093 5.7 70 16:21 12.10.2019
6299 Clouds 27 1015 65 16093 6.7 60 15:56 12.10.2019
6300 Clouds 27 1014 83 16093 2.6 60 15:37 12.10.2019
6301 Clouds 27 1014 83 16093 2.6 60 15:18 12.10.2019
6302 Clouds 26 1014 69 16093 3.1 50 14:40 12.10.2019
6303 Clouds 26 1014 69 16093 3.1 50 14:20 12.10.2019
6304 Rain 26 1014 88 16093 6.2 50 13:51 12.10.2019
6305 Rain 25 1014 69 16093 4.1 60 13:32 12.10.2019
6306 Clouds 25 1014 69 16093 4.1 60 12:56 12.10.2019
6307 Clouds 25 1014 74 16093 2.6 30 12:38 12.10.2019
6308 Clouds 25 1014 74 16093 2.6 30 12:38 12.10.2019
6309 Clouds 25 1014 74 16093 2.6 30 12:20 12.10.2019
6310 Rain 25 1013 78 16093 5.1 50 11:45 12.10.2019
6311 -273 0 0 0 0 0 11:24 12.10.2019
6312 Rain 25 1014 78 16093 3.6 20 10:58 12.10.2019
6313 Rain 25 1014 78 16093 2.6 70 10:39 12.10.2019
6314 Rain 25 1014 78 16093 2.6 70 10:20 12.10.2019
6315 Rain 25 1014 78 16093 2.6 70 10:20 12.10.2019
6316 Rain 25 1014 78 16093 2.6 70 09:57 12.10.2019
6317 Rain 25 1014 78 16093 2.6 70 09:57 12.10.2019
6318 Rain 25 1014 78 16093 7.7 110 09:37 12.10.2019
6319 Rain 25 1014 78 16093 7.7 110 09:19 12.10.2019
6320 Rain 25 1014 78 16093 7.7 110 09:19 12.10.2019
6321 Rain 26 1014 74 16093 5.7 60 08:44 12.10.2019
6322 Rain 26 1015 69 16093 5.1 60 08:24 12.10.2019
6323 Rain 26 1014 83 16093 4.6 70 07:50 12.10.2019
6324 Rain 26 1015 69 16093 4.1 60 07:30 12.10.2019
6325 Rain 26 1015 74 16093 4.1 60 06:27 12.10.2019
6326 Rain 26 1016 78 16093 4.1 60 05:42 12.10.2019
6327 Clouds 25 1015 88 16093 3.6 50 04:34 12.10.2019
6328 Rain 25 1015 78 16093 4.1 50 03:53 12.10.2019
6329 Rain 25 1015 78 16093 5.1 50 02:45 12.10.2019
6330 Rain 25 1014 94 8047 1.5 350 01:32 12.10.2019
6331 Rain 25 1014 88 2012 2.6 60 00:55 12.10.2019
6332 Rain 25 1014 88 2012 2.6 60 00:55 12.10.2019
6333 Rain 25 1014 94 4023 3.1 10 00:37 12.10.2019
6334 Rain 25 1014 88 4828 2.1 350 23:55 11.10.2019
6335 Rain 25 1014 100 4828 2.6 0 23:36 11.10.2019
6336 Rain 25 1014 88 16093 5.7 330 23:18 11.10.2019
6337 Rain 25 1014 94 16093 4.6 350 22:37 11.10.2019
6338 Rain 26 1014 94 2414 5.1 10 22:19 11.10.2019
6339 Rain 27 1014 94 1609 4.1 350 21:42 11.10.2019
6340 Rain 29 1014 83 16093 6.7 350 21:21 11.10.2019
6341 Rain 29 1014 83 16093 6.7 350 21:21 11.10.2019
6342 Rain 30 1013 55 16093 5.7 110 20:57 11.10.2019
6343 Rain 30 1014 83 14484 4.1 360 20:38 11.10.2019
6344 Rain 30 1014 62 16093 4.6 110 20:20 11.10.2019
6345 Rain 30 1014 62 16093 4.6 110 20:20 11.10.2019
6346 Rain 30 1014 62 16093 4.6 110 19:55 11.10.2019
6347 Rain 30 1014 62 16093 4.6 40 19:37 11.10.2019
6348 Clouds 30 1014 62 16093 4.6 40 19:18 11.10.2019
6349 Clouds 30 1014 62 16093 4.6 40 19:18 11.10.2019
6350 Clouds 30 1014 62 16093 4.6 40 19:18 11.10.2019
6351 Clouds 30 1014 62 16093 4.6 40 19:18 11.10.2019
6352 Clouds 30 1014 62 16093 4.6 40 19:18 11.10.2019
6353 Clouds 30 1015 55 16093 5.1 80 18:56 11.10.2019
6354 Clouds 30 1015 55 16093 5.1 80 18:37 11.10.2019
6355 Clouds 30 1015 55 16093 5.1 80 18:18 11.10.2019
6356 Clouds 30 1015 55 16093 5.1 80 17:55 11.10.2019
6357 Clouds 29 1015 58 16093 5.1 80 17:36 11.10.2019
6358 Clouds 29 1015 58 16093 5.1 80 17:18 11.10.2019
6359 Clouds 29 1015 69 16093 6.2 70 16:40 11.10.2019
6360 Clouds 29 1015 66 16093 5.7 70 16:20 11.10.2019
6361 Rain 28 1015 62 16093 5.7 80 15:58 11.10.2019
6362 Rain 28 1014 69 16093 4.6 70 15:38 11.10.2019
6363 Rain 28 1014 69 16093 4.6 70 15:18 11.10.2019
6364 Rain 27 1014 83 16093 2.6 350 14:46 11.10.2019
6365 Rain 26 1014 74 16093 2.1 20 14:28 11.10.2019
6366 Rain 26 1014 83 14484 3.1 40 13:56 11.10.2019
6367 Rain 25 1014 83 14484 3.1 40 13:37 11.10.2019
6368 Clouds 25 1013 74 16093 2.6 40 13:18 11.10.2019
6369 Clouds 25 1013 78 16093 2.1 30 12:42 11.10.2019
6370 Rain 25 1013 78 16093 2.1 30 12:22 11.10.2019
6371 Rain 25 1013 78 16093 2.1 30 12:00 11.10.2019
6372 Rain 26 1012 83 16093 2.1 20 11:40 11.10.2019
6373 Rain 26 1012 83 16093 2.1 20 11:21 11.10.2019
6374 Rain 26 1012 83 16093 2.1 20 10:56 11.10.2019
6375 Clouds 26 1012 78 16093 2.1 20 10:38 11.10.2019
6376 Clouds 26 1012 78 16093 2.1 20 10:20 11.10.2019
6377 Clouds 26 1012 78 16093 2.1 20 10:20 11.10.2019
6378 Rain 26 1012 78 16093 2.1 20 09:55 11.10.2019
6379 Clouds 26 1013 83 16093 2.1 10 09:37 11.10.2019
6380 Clouds 25 1013 83 16093 2.1 10 09:18 11.10.2019
6381 Clouds 26 1013 83 16093 2.6 360 08:40 11.10.2019
6382 Clouds 26 1013 83 16093 2.6 360 08:21 11.10.2019
6383 Clouds 26 1013 83 16093 2.6 360 07:59 11.10.2019
6384 Clouds 26 1014 83 16093 4.29 49.664 07:40 11.10.2019
6385 Clouds 26 1014 83 16093 4.29 49.664 07:20 11.10.2019
6386 Clouds 26 1014 83 16093 4.29 49.664 06:44 11.10.2019
6387 Clouds 26 1014 83 16093 3.96 40.291 06:21 11.10.2019
6388 Rain 26 1014 83 16093 1.5 350 05:37 11.10.2019
6389 Rain 26 1014 83 16093 1.5 350 04:59 11.10.2019
6390 Rain 26 1014 94 16093 2.1 360 04:24 11.10.2019
6391 Rain 26 1013 74 16093 2.6 20 02:18 11.10.2019
6392 Rain 27 1012 78 16093 4.74 57.694 00:42 11.10.2019
6393 Rain 28 1012 78 16093 4.22 52.595 00:23 11.10.2019
6394 Rain 28 1013 74 12874 1.5 0 23:42 10.10.2019
6395 Rain 28 1013 74 16093 2.6 50 23:21 10.10.2019
6396 Rain 28 1013 74 16093 2.6 50 22:57 10.10.2019
6397 Rain 28 1012 78 16093 4.1 40 22:38 10.10.2019
6398 Rain 29 1012 78 16093 4.1 40 22:20 10.10.2019
6399 Rain 29 1012 78 16093 4.1 40 21:56 10.10.2019
6400 Rain 29 1012 78 16093 4.1 40 21:56 10.10.2019
6401 Rain 29 1012 78 16093 4.1 40 21:56 10.10.2019
6402 Rain 29 1012 70 16093 2.6 60 21:38 10.10.2019
6403 Rain 30 1012 70 16093 2.6 60 21:20 10.10.2019
6404 Rain 31 1013 66 16093 5.1 50 20:42 10.10.2019
6405 Clouds 31 1013 52 16093 3.1 340 20:21 10.10.2019
6406 Clouds 31 1013 52 16093 3.1 340 19:58 10.10.2019
6407 Clouds 31 1014 66 16093 3.6 10 19:40 10.10.2019
6408 Clouds 31 1014 66 16093 3.6 10 19:20 10.10.2019
6409 Clouds 31 1014 58 16093 3.1 330 18:57 10.10.2019
6410 Clouds 30 1015 70 16093 3.1 330 18:38 10.10.2019
6411 Clouds 30 1015 70 16093 3.1 330 18:19 10.10.2019
6412 Clouds 29 1015 74 16093 3.1 350 17:41 10.10.2019
6413 Clouds 28 1015 74 16093 3.1 350 17:20 10.10.2019
6414 Clouds 28 1015 74 16093 3.1 350 16:59 10.10.2019
6415 Clouds 27 1015 83 16093 4.1 360 16:41 10.10.2019
6416 Clouds 26 1015 88 16093 4.1 330 16:22 10.10.2019
6417 Clouds 26 1015 78 16093 3.6 330 15:44 10.10.2019
6418 Clouds 25 1015 83 16093 3.1 340 15:25 10.10.2019
6419 Clouds 25 1015 83 16093 3.6 340 14:59 10.10.2019
6420 Clouds 25 1015 83 16093 3.6 340 14:59 10.10.2019
6421 Clouds 25 1014 88 16093 2.1 340 14:38 10.10.2019
6422 Clouds 25 1014 88 16093 2.1 340 14:38 10.10.2019
6423 Clouds 24 1014 88 16093 2.1 340 14:19 10.10.2019
6424 Clouds 24 1014 100 16093 2.1 320 13:59 10.10.2019
6425 Clouds 24 1014 94 16093 2.6 340 13:41 10.10.2019
6426 Clouds 24 1014 94 16093 2.6 340 13:19 10.10.2019
6427 Clouds 24 1014 94 16093 1.5 310 12:56 10.10.2019
6428 Rain 24 1014 94 16093 3.1 310 12:38 10.10.2019
6429 Rain 24 1014 88 9656 1.5 290 12:19 10.10.2019
6430 Mist 24 1014 88 9656 1.5 290 11:55 10.10.2019
6431 Clouds 24 1014 94 16093 3.6 310 11:36 10.10.2019
6432 Clouds 24 1014 100 16093 3.6 330 11:18 10.10.2019
6433 Clouds 24 1013 88 16093 3.6 320 10:44 10.10.2019
6434 Clouds 24 1013 88 16093 2.19 350.757 10:25 10.10.2019
6435 Clouds 24 1013 88 16093 2.19 350.757 09:55 10.10.2019
6436 Clouds 24 1013 88 16093 2.19 350.757 09:37 10.10.2019
6437 Clouds 24 1013 88 16093 2.75 34.539 09:19 10.10.2019
6438 Clouds 24 1014 94 16093 2.1 280 08:41 10.10.2019
6439 Clouds 24 1014 88 16093 2.75 34.539 08:23 10.10.2019
6440 Rain 24 1014 88 16093 2.75 34.539 07:58 10.10.2019
6441 Rain 24 1014 83 16093 2.1 330 07:40 10.10.2019
6442 Rain 25 1014 83 16093 2.1 330 07:20 10.10.2019
6443 Rain 25 1015 94 16093 2.75 34.539 06:45 10.10.2019
6444 Rain 25 1016 78 16093 2.1 300 06:22 10.10.2019
6445 Rain 25 1015 83 16093 2.05 19.009 05:23 10.10.2019
6446 Rain 25 1015 78 16093 2.1 0 04:37 10.10.2019
6447 Rain 25 1014 78 16093 2.1 0 02:54 10.10.2019
6448 Rain 26 1013 83 16093 2.6 50 01:42 10.10.2019
6449 Rain 26 1013 83 16093 2.6 50 01:42 10.10.2019
6450 Rain 26 1014 94 2816 2.6 310 01:23 10.10.2019
6451 Rain 27 1013 94 16093 1.5 180 00:45 10.10.2019
6452 Rain 27 1013 78 16093 1.5 110 00:20 10.10.2019
6453 Rain 27 1013 83 16093 3.6 250 23:39 09.10.2019
6454 Rain 27 1013 69 16093 6.2 300 23:20 09.10.2019
6455 Rain 29 1012 66 16093 2.6 250 22:43 09.10.2019
6456 Thunderstorm 29 1013 74 16093 3.1 150 22:24 09.10.2019
6457 Rain 30 1013 78 16093 3.1 140 21:59 09.10.2019
6458 Rain 31 1012 70 16093 4.6 180 21:39 09.10.2019
6459 Rain 31 1013 66 16093 3.1 140 21:20 09.10.2019
6460 Clouds 31 1013 66 16093 3.1 140 20:56 09.10.2019
6461 Clouds 31 1013 66 16093 3.1 140 20:56 09.10.2019
6462 Rain 31 1013 55 16093 4.6 270 20:37 09.10.2019
6463 Rain 30 1013 55 16093 4.6 270 20:18 09.10.2019
6464 Rain 30 1013 55 16093 4.6 270 20:18 09.10.2019
6465 Clouds 31 1014 59 16093 3.6 220 19:45 09.10.2019
6466 Clouds 32 1014 59 16093 3.6 220 19:24 09.10.2019
6467 Clouds 31 1014 59 16093 3.6 220 18:58 09.10.2019
6468 Clouds 31 1014 74 16093 3.1 170 18:38 09.10.2019
6469 Clouds 30 1015 62 16093 2.6 190 18:18 09.10.2019
6470 Clouds 30 1015 62 16093 2.6 190 17:55 09.10.2019
6471 Clouds 30 1015 70 16093 1.5 0 17:37 09.10.2019
6472 Clouds 29 1015 70 16093 1.5 0 17:18 09.10.2019
6473 Mist 28 1015 83 16093 1.5 220 16:41 09.10.2019
6474 Mist 28 1015 74 16093 1.5 240 16:23 09.10.2019
6475 Mist 27 1015 74 16093 1.5 240 15:58 09.10.2019
6476 Mist 27 1015 74 16093 1.5 240 15:58 09.10.2019
6477 Mist 27 1015 94 16093 2.6 250 15:39 09.10.2019
6478 Mist 27 1015 94 16093 2.6 250 15:39 09.10.2019
6479 Mist 26 1015 78 16093 2.1 200 15:20 09.10.2019
6480 Mist 26 1015 78 16093 2.1 200 14:58 09.10.2019
6481 Mist 26 1015 78 16093 2.1 200 14:58 09.10.2019
6482 Mist 26 1014 83 16093 2.1 210 14:40 09.10.2019
6483 Clouds 25 1014 83 16093 2.1 210 14:18 09.10.2019
6484 Clouds 25 1014 83 16093 1.5 230 13:40 09.10.2019
6485 Clouds 25 1014 83 16093 1.5 230 13:40 09.10.2019
6486 Clear 25 1014 94 16093 0.99 170.3 13:22 09.10.2019
6487 Clouds 25 1014 83 16093 1.5 230 12:59 09.10.2019
6488 Clouds 25 1014 83 16093 2.1 210 12:41 09.10.2019
6489 Clouds 25 1014 83 16093 2.1 210 12:21 09.10.2019
6490 Clouds 25 1014 83 16093 2.1 210 11:55 09.10.2019
6491 Clouds 25 1013 88 16093 0.91 3.333 11:37 09.10.2019
6492 Clouds 25 1013 88 16093 0.91 3.333 11:37 09.10.2019
6493 Clouds 25 1013 88 16093 0.91 3.333 11:19 09.10.2019
6494 Clouds 25 1013 83 16093 0.91 3.333 10:44 09.10.2019
6495 Clouds 25 1013 83 16093 0.91 3.333 10:21 09.10.2019
6496 Clouds 25 1013 83 16093 0.91 3.333 09:59 09.10.2019
6497 Clouds 25 1013 88 16093 2.1 200 09:40 09.10.2019
6498 Clouds 25 1013 88 16093 2.1 200 09:19 09.10.2019
6499 Rain 25 1013 83 16093 1.5 160 08:41 09.10.2019
6500 Rain 25 1013 83 16093 1.5 160 08:23 09.10.2019
6501 Clouds 25 1013 83 16093 1.5 160 07:58 09.10.2019
6502 Clouds 25 1013 94 16093 1.5 250 07:39 09.10.2019
6503 Clouds 25 1013 94 16093 1.5 250 07:20 09.10.2019
6504 Clouds 26 1014 88 16093 1.5 260 06:51 09.10.2019
6505 Clouds 26 1014 88 16093 1.5 260 06:51 09.10.2019
6506 Clouds 26 1014 88 16093 1.5 260 05:56 09.10.2019
6507 Clouds 26 1014 88 16093 2.1 240 05:37 09.10.2019
6508 Clouds 26 1014 83 16093 2.6 230 04:25 09.10.2019
6509 Clouds 26 1013 94 16093 3.22 225.214 02:52 09.10.2019
6510 Rain 27 1012 83 16093 1.5 180 01:43 09.10.2019
6511 Rain 27 1012 78 16093 2.6 200 01:20 09.10.2019
6512 Rain 27 1012 78 16093 2.6 200 00:57 09.10.2019
6513 Rain 27 1012 78 16093 3.1 220 00:38 09.10.2019
6514 Rain 28 1012 78 16093 3.1 220 00:19 09.10.2019
6515 Rain 28 1012 88 9656 3.1 220 23:39 08.10.2019
6516 Rain 29 1012 88 9656 3.1 220 23:19 08.10.2019
6517 Rain 29 1012 70 16093 4.6 220 22:56 08.10.2019
6518 Rain 29 1012 79 16093 4.6 230 22:38 08.10.2019
6519 Rain 29 1012 79 16093 4.6 230 22:19 08.10.2019
6520 Rain 29 1012 70 16093 6.2 220 21:57 08.10.2019
6521 Rain 29 1011 70 16093 7.7 230 21:39 08.10.2019
6522 Rain 29 1012 74 16093 4.1 210 21:19 08.10.2019
6523 Rain 28 1012 74 16093 4.1 210 20:56 08.10.2019
6524 Rain 28 1012 74 16093 6.2 220 20:37 08.10.2019
6525 Rain 28 1012 74 16093 6.2 220 20:19 08.10.2019
6526 Rain 28 1012 74 16093 6.2 220 19:56 08.10.2019
6527 Rain 29 1012 78 16093 4.1 230 19:37 08.10.2019
6528 Rain 28 1012 74 16093 7.7 200 19:19 08.10.2019
6529 Rain 27 1013 78 16093 7.2 210 18:46 08.10.2019
6530 Rain 27 1013 83 16093 5.1 200 18:27 08.10.2019
6531 Rain 26 1013 78 16093 4.1 190 17:59 08.10.2019
6532 Rain 25 1012 83 16093 4.1 210 17:40 08.10.2019
6533 Rain 25 1012 83 16093 4.1 210 17:40 08.10.2019
6534 Rain 25 1013 88 16093 4.6 190 17:20 08.10.2019
6535 Rain 24 1013 88 16093 4.6 190 16:57 08.10.2019
6536 Rain 24 1013 88 4828 6.7 210 16:38 08.10.2019
6537 Rain 25 1013 88 9656 5.1 190 16:20 08.10.2019
6538 Rain 25 1013 94 12874 1.5 290 15:40 08.10.2019
6539 Rain 25 1013 94 4023 5.1 220 15:21 08.10.2019
6540 Rain 25 1012 88 11265 3.1 180 14:57 08.10.2019
6541 Rain 25 1012 88 16093 2.1 140 14:39 08.10.2019
6542 Rain 25 1012 88 16093 2.6 130 14:20 08.10.2019
6543 Rain 25 1012 88 16093 2.6 130 13:56 08.10.2019
6544 Rain 25 1011 83 16093 2.1 0 13:37 08.10.2019
6545 Rain 25 1011 83 16093 2.1 0 13:18 08.10.2019
6546 Drizzle 25 1011 94 16093 3.6 150 12:42 08.10.2019
6547 Clouds 25 1011 83 16093 3.97 198.718 12:22 08.10.2019
6548 Rain 25 1011 94 16093 1.5 220 11:59 08.10.2019
6549 Rain 25 1011 94 16093 1.5 220 11:40 08.10.2019
6550 Rain 25 1011 94 16093 1.5 220 11:22 08.10.2019
6551 Rain 24 1011 94 16093 1.5 160 10:55 08.10.2019
6552 Rain 24 1011 88 16093 1.5 200 10:36 08.10.2019
6553 Rain 24 1011 88 16093 1.5 200 10:18 08.10.2019
6554 Rain 24 1011 88 16093 3.97 198.718 09:41 08.10.2019
6555 Rain 24 1011 88 16093 3.97 198.718 09:41 08.10.2019
6556 Rain 24 1011 88 16093 3.97 198.718 09:41 08.10.2019
6557 Rain 24 1011 88 16093 4.48 218.815 09:23 08.10.2019
6558 Rain 24 1011 88 16093 4.48 218.815 08:59 08.10.2019
6559 Rain 24 1011 88 16093 2.1 220 08:41 08.10.2019
6560 Rain 24 1011 88 16093 2.1 220 08:22 08.10.2019
6561 Rain 24 1011 94 16093 2.1 190 07:42 08.10.2019
6562 Rain 24 1011 94 16093 2.6 210 07:21 08.10.2019
6563 Rain 24 1012 88 16093 3.1 210 06:49 08.10.2019
6564 Rain 24 1012 83 16093 3.1 220 06:28 08.10.2019
6565 Rain 24 1012 94 16093 3.1 200 05:45 08.10.2019
6566 Rain 24 1012 88 16093 4.6 210 05:25 08.10.2019
6567 Rain 24 1012 83 16093 3.6 200 03:57 08.10.2019
6568 Rain 24 1012 94 16093 4.6 190 03:24 08.10.2019
6569 Rain 25 1010 94 14484 4.1 240 02:35 08.10.2019
6570 Rain 25 1010 83 11265 1.5 170 01:44 08.10.2019
6571 Rain 25 1010 83 11265 1.5 170 01:25 08.10.2019
6572 Rain 25 1009 88 1609 3.6 150 00:45 08.10.2019
6573 Rain 26 1009 88 16093 3.6 170 00:20 08.10.2019
6574 Rain 26 1009 88 16093 2.64 137.611 23:39 07.10.2019
6575 Rain 25 1009 88 8047 2.64 137.611 23:20 07.10.2019
6576 Rain 26 1009 88 16093 2.64 137.611 22:56 07.10.2019
6577 Rain 25 1009 94 4828 2.64 137.611 22:38 07.10.2019
6578 Rain 25 1009 94 4828 2.64 137.611 22:20 07.10.2019
6579 Rain 26 1009 88 11265 1.5 310 21:56 07.10.2019
6580 Rain 26 1010 88 16093 3.6 290 21:37 07.10.2019
6581 Rain 26 1009 100 16093 3.1 280 21:37 07.10.2019
6582 Rain 26 1010 88 16093 3.6 290 21:19 07.10.2019
6583 Rain 26 1010 88 16093 3.6 290 21:19 07.10.2019
6584 Rain 26 1010 94 12874 5.2 137.197 20:57 07.10.2019
6585 Rain 26 1010 94 12874 5.2 137.197 20:38 07.10.2019
6586 Rain 26 1010 94 16093 2.1 320 20:19 07.10.2019
6587 Rain 26 1011 83 11265 2.1 0 19:56 07.10.2019
6588 Rain 26 1011 94 1207 4.1 110 19:38 07.10.2019
6589 Rain 26 1011 94 1207 4.1 110 19:38 07.10.2019
6590 Rain 26 1011 94 805 2.6 290 19:18 07.10.2019
6591 Rain 27 1011 83 16093 2.6 170 18:55 07.10.2019
6592 Rain 28 1011 88 6437 2.1 130 18:37 07.10.2019
6593 Rain 29 1012 78 16093 3.1 110 18:18 07.10.2019
6594 Rain 29 1012 74 16093 5.1 100 17:41 07.10.2019
6595 Rain 28 1011 78 16093 4.7 94.736 17:19 07.10.2019
6596 Rain 28 1011 78 16093 4.7 94.736 16:55 07.10.2019
6597 Rain 28 1011 78 16093 4.7 94.736 16:55 07.10.2019
6598 Rain 28 1011 78 16093 4.1 90 16:37 07.10.2019
6599 Rain 28 1011 78 16093 4.1 90 16:18 07.10.2019
6600 Rain 28 1011 70 16093 6.2 70 15:41 07.10.2019
6601 Rain 28 1011 70 16093 6.2 70 15:41 07.10.2019
6602 Rain 28 1011 70 16093 6.2 70 15:41 07.10.2019
6603 Rain 28 1011 83 16093 1.5 10 15:22 07.10.2019
6604 Rain 26 1011 83 16093 2.6 40 14:42 07.10.2019
6605 Rain 26 1011 83 16093 2.6 40 14:42 07.10.2019
6606 Rain 26 1011 83 16093 2.6 40 14:23 07.10.2019
6607 Rain 26 1011 83 16093 2.6 40 13:59 07.10.2019
6608 Rain 26 1011 78 16093 2.6 60 13:40 07.10.2019
6609 Rain 25 1012 83 16093 2.1 110 13:18 07.10.2019
6610 -273 0 0 0 0 0 12:54 07.10.2019
6611 Rain 26 1011 78 16093 1.5 150 12:36 07.10.2019
6612 Rain 26 1011 78 16093 1.5 150 12:36 07.10.2019
6613 Clouds 26 1010 78 16093 2.6 80 12:18 07.10.2019
6614 Clouds 26 1010 78 16093 2.6 80 11:56 07.10.2019
6615 Clouds 26 1010 78 16093 3.6 110 11:36 07.10.2019
6616 Clouds 26 1010 78 16093 3.6 110 11:18 07.10.2019
6617 Clouds 26 1010 78 16093 3.6 100 10:40 07.10.2019
6618 Clouds 26 1010 78 16093 3.6 100 10:20 07.10.2019
6619 Rain 26 1011 83 16093 2.1 100 09:42 07.10.2019
6620 Rain 26 1011 83 16093 2.1 100 09:23 07.10.2019
6621 Rain 26 1011 83 16093 1.5 10 08:55 07.10.2019
6622 Rain 25 1011 83 16093 1.5 10 08:37 07.10.2019
6623 Rain 25 1011 83 16093 1.5 10 08:18 07.10.2019
6624 Rain 25 1012 88 16093 2.6 80 07:40 07.10.2019
6625 Rain 26 1012 78 14484 4.28 82.474 07:20 07.10.2019
6626 Rain 26 1012 88 16093 1.5 40 06:44 07.10.2019
6627 Rain 26 1013 83 16093 2.6 20 06:23 07.10.2019
6628 Rain 25 1013 88 16093 2.6 30 05:30 07.10.2019
6629 Rain 26 1013 83 11265 3.6 40 04:58 07.10.2019
6630 Rain 26 1013 74 16093 2.6 360 04:23 07.10.2019
6631 Rain 26 1013 88 9656 3.1 30 03:44 07.10.2019
6632 Rain 26 1013 88 9656 3.1 30 03:44 07.10.2019
6633 Rain 26 1013 74 16093 2.6 40 03:19 07.10.2019
6634 Rain 26 1013 74 16093 2.6 40 03:19 07.10.2019
6635 Rain 26 1013 83 16093 2.6 40 02:20 07.10.2019
6636 Rain 26 1012 69 16093 4.6 40 01:47 07.10.2019
6637 Rain 26 1012 69 16093 4.6 40 01:19 07.10.2019
6638 Rain 28 1012 58 16093 6.7 50 00:38 07.10.2019
6639 Rain 28 1012 58 16093 6.7 50 00:19 07.10.2019
6640 Rain 28 1012 66 16093 5.7 60 23:42 06.10.2019
6641 Rain 29 1012 66 16093 5.7 60 23:21 06.10.2019
6642 Clouds 29 1012 66 16093 5.7 60 22:59 06.10.2019
6643 Rain 30 1012 74 12874 3.6 40 22:40 06.10.2019
6644 Clouds 30 1013 66 16093 7.7 60 22:21 06.10.2019
6645 Clouds 30 1013 62 16093 7.7 80 21:57 06.10.2019
6646 Clouds 31 1013 55 16093 6.7 60 21:37 06.10.2019
6647 Clouds 31 1013 55 16093 6.7 60 21:19 06.10.2019
6648 Clouds 31 1013 55 16093 6.7 60 20:57 06.10.2019
6649 Clouds 31 1013 55 16093 6.2 70 20:38 06.10.2019
6650 Clouds 31 1013 55 16093 6.2 70 20:20 06.10.2019
6651 Clouds 31 1013 55 16093 6.2 70 19:57 06.10.2019
6652 Clouds 31 1014 52 16093 6.7 60 19:37 06.10.2019
6653 Clouds 31 1014 52 16093 6.7 60 19:37 06.10.2019
6654 Clouds 31 1014 52 16093 6.7 60 19:19 06.10.2019
6655 Clouds 30 1014 52 16093 6.7 60 18:56 06.10.2019
6656 Clouds 30 1015 55 16093 6.2 50 18:38 06.10.2019
6657 Clouds 30 1015 55 16093 6.2 50 18:19 06.10.2019
6658 Clouds 30 1015 62 16093 6.7 50 17:44 06.10.2019
6659 Clouds 30 1015 62 16093 6.7 50 17:21 06.10.2019
6660 Clouds 29 1015 62 16093 6.7 50 16:59 06.10.2019
6661 Clouds 29 1015 66 16093 6.7 60 16:41 06.10.2019
6662 Clouds 29 1015 66 16093 6.7 60 16:23 06.10.2019
6663 Clouds 28 1014 66 16093 8.2 70 15:45 06.10.2019
6664 Clouds 28 1014 69 16093 5.1 60 15:23 06.10.2019
6665 Clouds 28 1014 69 16093 5.1</